<?xml version="1.0" encoding="UTF-8" standalone="no" ?>
<gpx xmlns="http://www.topografix.com/GPX/1/1" xmlns:xsi="http://www.w3.org/2001/XMLSchema-instance" xsi:schemaLocation="http://www.topografix.com/GPX/1/1 http://www.topografix.com/GPX/1/1/gpx.xsd" version="1.1" creator="VisuGPX - https://www.visugpx.com">
  <metadata>
    <name>Sortie dénivelé dans les monts du lyonnais </name>
    <desc><![CDATA[Belle sortie au départ du parc de la tête d'or]]></desc>
  </metadata>
  <trk>
    <name><![CDATA[Sortie dénivelé dans les monts du lyonnais ]]></name>
    <extensions>
      <line xmlns="http://www.topografix.com/GPX/gpx_style/0/2">
        <color>0000FF</color>
        <width>4</width>
      </line>
    </extensions>
    <trkseg>
      <trkpt lat="45.77726" lon="4.84487">
        <ele>169.5</ele>
        <time>2022-11-15T07:00:00.000Z</time>
      </trkpt>
      <trkpt lat="45.77721" lon="4.84479">
        <ele>169.7</ele>
        <time>2022-11-15T07:00:01.444Z</time>
      </trkpt>
      <trkpt lat="45.77715" lon="4.84478">
        <ele>169.6</ele>
        <time>2022-11-15T07:00:02.151Z</time>
      </trkpt>
      <trkpt lat="45.77709" lon="4.84481">
        <ele>169.4</ele>
        <time>2022-11-15T07:00:02.780Z</time>
      </trkpt>
      <trkpt lat="45.777" lon="4.84453">
        <ele>169.8</ele>
        <time>2022-11-15T07:00:06.553Z</time>
      </trkpt>
      <trkpt lat="45.7766" lon="4.84412">
        <ele>170</ele>
        <time>2022-11-15T07:00:13.987Z</time>
      </trkpt>
      <trkpt lat="45.77676" lon="4.84369">
        <ele>167.3</ele>
        <time>2022-11-15T07:00:16.681Z</time>
      </trkpt>
      <trkpt lat="45.77613" lon="4.84327">
        <ele>167.9</ele>
        <time>2022-11-15T07:00:27.664Z</time>
      </trkpt>
      <trkpt lat="45.77551" lon="4.84286">
        <ele>167.5</ele>
        <time>2022-11-15T07:00:36.784Z</time>
      </trkpt>
      <trkpt lat="45.77488" lon="4.84244">
        <ele>167.7</ele>
        <time>2022-11-15T07:00:47.171Z</time>
      </trkpt>
      <trkpt lat="45.77425" lon="4.84203">
        <ele>167.5</ele>
        <time>2022-11-15T07:00:56.815Z</time>
      </trkpt>
      <trkpt lat="45.77367" lon="4.84157">
        <ele>167.7</ele>
        <time>2022-11-15T07:01:06.738Z</time>
      </trkpt>
      <trkpt lat="45.77335" lon="4.84127">
        <ele>166.8</ele>
        <time>2022-11-15T07:01:10.862Z</time>
      </trkpt>
      <trkpt lat="45.77332" lon="4.84136">
        <ele>169.3</ele>
        <time>2022-11-15T07:01:14.768Z</time>
      </trkpt>
      <trkpt lat="45.77291" lon="4.84119">
        <ele>168.5</ele>
        <time>2022-11-15T07:01:19.635Z</time>
      </trkpt>
      <trkpt lat="45.77253" lon="4.84112">
        <ele>169</ele>
        <time>2022-11-15T07:01:25.969Z</time>
      </trkpt>
      <trkpt lat="45.77248" lon="4.84109">
        <ele>168.8</ele>
        <time>2022-11-15T07:01:26.477Z</time>
      </trkpt>
      <trkpt lat="45.77242" lon="4.84098">
        <ele>167.9</ele>
        <time>2022-11-15T07:01:27.249Z</time>
      </trkpt>
      <trkpt lat="45.77251" lon="4.83987">
        <ele>162</ele>
        <time>2022-11-15T07:01:33.426Z</time>
      </trkpt>
      <trkpt lat="45.77259" lon="4.83876">
        <ele>162.9</ele>
        <time>2022-11-15T07:01:46.099Z</time>
      </trkpt>
      <trkpt lat="45.77262" lon="4.83861">
        <ele>164</ele>
        <time>2022-11-15T07:01:50.262Z</time>
      </trkpt>
      <trkpt lat="45.77265" lon="4.83858">
        <ele>164.4</ele>
        <time>2022-11-15T07:01:51.785Z</time>
      </trkpt>
      <trkpt lat="45.77276" lon="4.83854">
        <ele>164.8</ele>
        <time>2022-11-15T07:01:54.225Z</time>
      </trkpt>
      <trkpt lat="45.77285" lon="4.83765">
        <ele>171.4</ele>
        <time>2022-11-15T07:02:19.242Z</time>
      </trkpt>
      <trkpt lat="45.77293" lon="4.83675">
        <ele>188.2</ele>
        <time>2022-11-15T07:02:54.773Z</time>
      </trkpt>
      <trkpt lat="45.77312" lon="4.83551">
        <ele>222.1</ele>
        <time>2022-11-15T07:03:44.493Z</time>
      </trkpt>
      <trkpt lat="45.77321" lon="4.83433">
        <ele>239.7</ele>
        <time>2022-11-15T07:04:30.980Z</time>
      </trkpt>
      <trkpt lat="45.77331" lon="4.83315">
        <ele>249.4</ele>
        <time>2022-11-15T07:05:08.594Z</time>
      </trkpt>
      <trkpt lat="45.7734" lon="4.83196">
        <ele>249.8</ele>
        <time>2022-11-15T07:05:21.305Z</time>
      </trkpt>
      <trkpt lat="45.77349" lon="4.83078">
        <ele>250.6</ele>
        <time>2022-11-15T07:05:34.527Z</time>
      </trkpt>
      <trkpt lat="45.77359" lon="4.8296">
        <ele>252.5</ele>
        <time>2022-11-15T07:05:49.803Z</time>
      </trkpt>
      <trkpt lat="45.77368" lon="4.82842">
        <ele>253.8</ele>
        <time>2022-11-15T07:06:03.879Z</time>
      </trkpt>
      <trkpt lat="45.77378" lon="4.82724">
        <ele>252</ele>
        <time>2022-11-15T07:06:13.010Z</time>
      </trkpt>
      <trkpt lat="45.77387" lon="4.82606">
        <ele>252</ele>
        <time>2022-11-15T07:06:25.062Z</time>
      </trkpt>
      <trkpt lat="45.77396" lon="4.82487">
        <ele>250.5</ele>
        <time>2022-11-15T07:06:34.670Z</time>
      </trkpt>
      <trkpt lat="45.77406" lon="4.82369">
        <ele>248.2</ele>
        <time>2022-11-15T07:06:43.209Z</time>
      </trkpt>
      <trkpt lat="45.77415" lon="4.82251">
        <ele>245.9</ele>
        <time>2022-11-15T07:06:51.732Z</time>
      </trkpt>
      <trkpt lat="45.77424" lon="4.82143">
        <ele>240.5</ele>
        <time>2022-11-15T07:06:57.745Z</time>
      </trkpt>
      <trkpt lat="45.77432" lon="4.82034">
        <ele>240.6</ele>
        <time>2022-11-15T07:07:09.007Z</time>
      </trkpt>
      <trkpt lat="45.77441" lon="4.81926">
        <ele>238.3</ele>
        <time>2022-11-15T07:07:16.610Z</time>
      </trkpt>
      <trkpt lat="45.7745" lon="4.81817">
        <ele>235.4</ele>
        <time>2022-11-15T07:07:23.719Z</time>
      </trkpt>
      <trkpt lat="45.77458" lon="4.81709">
        <ele>235</ele>
        <time>2022-11-15T07:07:33.921Z</time>
      </trkpt>
      <trkpt lat="45.77467" lon="4.816">
        <ele>230.2</ele>
        <time>2022-11-15T07:07:39.651Z</time>
      </trkpt>
      <trkpt lat="45.77465" lon="4.81494">
        <ele>196.4</ele>
        <time>2022-11-15T07:07:45.513Z</time>
      </trkpt>
      <trkpt lat="45.77463" lon="4.81389">
        <ele>172.7</ele>
        <time>2022-11-15T07:07:51.319Z</time>
      </trkpt>
      <trkpt lat="45.77472" lon="4.81295">
        <ele>170</ele>
        <time>2022-11-15T07:07:57.296Z</time>
      </trkpt>
      <trkpt lat="45.7748" lon="4.812">
        <ele>169.5</ele>
        <time>2022-11-15T07:08:06.082Z</time>
      </trkpt>
      <trkpt lat="45.77489" lon="4.81106">
        <ele>168.9</ele>
        <time>2022-11-15T07:08:14.610Z</time>
      </trkpt>
      <trkpt lat="45.77491" lon="4.81075">
        <ele>168.7</ele>
        <time>2022-11-15T07:08:17.403Z</time>
      </trkpt>
      <trkpt lat="45.77486" lon="4.81061">
        <ele>167.5</ele>
        <time>2022-11-15T07:08:18.272Z</time>
      </trkpt>
      <trkpt lat="45.77495" lon="4.80963">
        <ele>162</ele>
        <time>2022-11-15T07:08:23.736Z</time>
      </trkpt>
      <trkpt lat="45.77504" lon="4.80864">
        <ele>166.9</ele>
        <time>2022-11-15T07:08:44.190Z</time>
      </trkpt>
      <trkpt lat="45.77491" lon="4.80867">
        <ele>166.4</ele>
        <time>2022-11-15T07:08:45.412Z</time>
      </trkpt>
      <trkpt lat="45.77492" lon="4.80814">
        <ele>167.6</ele>
        <time>2022-11-15T07:08:53.071Z</time>
      </trkpt>
      <trkpt lat="45.77503" lon="4.80728">
        <ele>167</ele>
        <time>2022-11-15T07:09:00.849Z</time>
      </trkpt>
      <trkpt lat="45.77514" lon="4.80641">
        <ele>167.5</ele>
        <time>2022-11-15T07:09:10.546Z</time>
      </trkpt>
      <trkpt lat="45.77525" lon="4.80555">
        <ele>168</ele>
        <time>2022-11-15T07:09:20.144Z</time>
      </trkpt>
      <trkpt lat="45.77533" lon="4.80554">
        <ele>167.8</ele>
        <time>2022-11-15T07:09:20.997Z</time>
      </trkpt>
      <trkpt lat="45.77539" lon="4.80541">
        <ele>167.6</ele>
        <time>2022-11-15T07:09:22.242Z</time>
      </trkpt>
      <trkpt lat="45.77537" lon="4.80529">
        <ele>167.7</ele>
        <time>2022-11-15T07:09:23.644Z</time>
      </trkpt>
      <trkpt lat="45.7753" lon="4.80522">
        <ele>167.9</ele>
        <time>2022-11-15T07:09:25.226Z</time>
      </trkpt>
      <trkpt lat="45.77547" lon="4.80396">
        <ele>168</ele>
        <time>2022-11-15T07:09:38.390Z</time>
      </trkpt>
      <trkpt lat="45.77564" lon="4.8027">
        <ele>168.3</ele>
        <time>2022-11-15T07:09:51.832Z</time>
      </trkpt>
      <trkpt lat="45.77581" lon="4.80144">
        <ele>169.1</ele>
        <time>2022-11-15T07:10:06.024Z</time>
      </trkpt>
      <trkpt lat="45.77598" lon="4.80018">
        <ele>170.2</ele>
        <time>2022-11-15T07:10:20.706Z</time>
      </trkpt>
      <trkpt lat="45.77615" lon="4.79892">
        <ele>170</ele>
        <time>2022-11-15T07:10:33.304Z</time>
      </trkpt>
      <trkpt lat="45.77632" lon="4.79766">
        <ele>171</ele>
        <time>2022-11-15T07:10:47.819Z</time>
      </trkpt>
      <trkpt lat="45.77642" lon="4.79688">
        <ele>172.1</ele>
        <time>2022-11-15T07:10:57.664Z</time>
      </trkpt>
      <trkpt lat="45.7764" lon="4.79626">
        <ele>173.1</ele>
        <time>2022-11-15T07:11:05.657Z</time>
      </trkpt>
      <trkpt lat="45.77629" lon="4.7959">
        <ele>174</ele>
        <time>2022-11-15T07:11:11.363Z</time>
      </trkpt>
      <trkpt lat="45.77619" lon="4.79571">
        <ele>174</ele>
        <time>2022-11-15T07:11:13.780Z</time>
      </trkpt>
      <trkpt lat="45.77592" lon="4.7953">
        <ele>174.3</ele>
        <time>2022-11-15T07:11:19.935Z</time>
      </trkpt>
      <trkpt lat="45.77525" lon="4.7945">
        <ele>176.6</ele>
        <time>2022-11-15T07:11:36.671Z</time>
      </trkpt>
      <trkpt lat="45.77463" lon="4.79379">
        <ele>177.9</ele>
        <time>2022-11-15T07:11:50.261Z</time>
      </trkpt>
      <trkpt lat="45.77401" lon="4.79308">
        <ele>180</ele>
        <time>2022-11-15T07:12:05.507Z</time>
      </trkpt>
      <trkpt lat="45.77339" lon="4.79237">
        <ele>182.5</ele>
        <time>2022-11-15T07:12:21.743Z</time>
      </trkpt>
      <trkpt lat="45.77315" lon="4.79166">
        <ele>183</ele>
        <time>2022-11-15T07:12:30.481Z</time>
      </trkpt>
      <trkpt lat="45.7729" lon="4.79096">
        <ele>186.8</ele>
        <time>2022-11-15T07:12:46.461Z</time>
      </trkpt>
      <trkpt lat="45.7728" lon="4.79087">
        <ele>187</ele>
        <time>2022-11-15T07:12:48.496Z</time>
      </trkpt>
      <trkpt lat="45.77275" lon="4.79086">
        <ele>186.8</ele>
        <time>2022-11-15T07:12:48.957Z</time>
      </trkpt>
      <trkpt lat="45.77267" lon="4.79087">
        <ele>186.3</ele>
        <time>2022-11-15T07:12:49.560Z</time>
      </trkpt>
      <trkpt lat="45.77242" lon="4.791">
        <ele>185.3</ele>
        <time>2022-11-15T07:12:52.036Z</time>
      </trkpt>
      <trkpt lat="45.77232" lon="4.79099">
        <ele>184.9</ele>
        <time>2022-11-15T07:12:52.949Z</time>
      </trkpt>
      <trkpt lat="45.77223" lon="4.79091">
        <ele>184.3</ele>
        <time>2022-11-15T07:12:53.781Z</time>
      </trkpt>
      <trkpt lat="45.7721" lon="4.79076">
        <ele>184.8</ele>
        <time>2022-11-15T07:12:57.129Z</time>
      </trkpt>
      <trkpt lat="45.77172" lon="4.79025">
        <ele>187.3</ele>
        <time>2022-11-15T07:13:10.209Z</time>
      </trkpt>
      <trkpt lat="45.77134" lon="4.78986">
        <ele>189.3</ele>
        <time>2022-11-15T07:13:21.398Z</time>
      </trkpt>
      <trkpt lat="45.77068" lon="4.78912">
        <ele>189.1</ele>
        <time>2022-11-15T07:13:33.164Z</time>
      </trkpt>
      <trkpt lat="45.7705" lon="4.78888">
        <ele>188.4</ele>
        <time>2022-11-15T07:13:35.676Z</time>
      </trkpt>
      <trkpt lat="45.77046" lon="4.78876">
        <ele>188.5</ele>
        <time>2022-11-15T07:13:37.174Z</time>
      </trkpt>
      <trkpt lat="45.77045" lon="4.78862">
        <ele>188.5</ele>
        <time>2022-11-15T07:13:38.603Z</time>
      </trkpt>
      <trkpt lat="45.7705" lon="4.78849">
        <ele>188.9</ele>
        <time>2022-11-15T07:13:40.936Z</time>
      </trkpt>
      <trkpt lat="45.77058" lon="4.7884">
        <ele>189.1</ele>
        <time>2022-11-15T07:13:42.742Z</time>
      </trkpt>
      <trkpt lat="45.77076" lon="4.78834">
        <ele>187.8</ele>
        <time>2022-11-15T07:13:44.206Z</time>
      </trkpt>
      <trkpt lat="45.77091" lon="4.78816">
        <ele>189.9</ele>
        <time>2022-11-15T07:13:52.183Z</time>
      </trkpt>
      <trkpt lat="45.77096" lon="4.78803">
        <ele>191.1</ele>
        <time>2022-11-15T07:13:56.820Z</time>
      </trkpt>
      <trkpt lat="45.77098" lon="4.78793">
        <ele>191.2</ele>
        <time>2022-11-15T07:13:58.029Z</time>
      </trkpt>
      <trkpt lat="45.77099" lon="4.78775">
        <ele>191.4</ele>
        <time>2022-11-15T07:14:00.175Z</time>
      </trkpt>
      <trkpt lat="45.77096" lon="4.78756">
        <ele>191.3</ele>
        <time>2022-11-15T07:14:01.967Z</time>
      </trkpt>
      <trkpt lat="45.77088" lon="4.78739">
        <ele>192.6</ele>
        <time>2022-11-15T07:14:06.940Z</time>
      </trkpt>
      <trkpt lat="45.77081" lon="4.78731">
        <ele>192.9</ele>
        <time>2022-11-15T07:14:08.820Z</time>
      </trkpt>
      <trkpt lat="45.77065" lon="4.78722">
        <ele>193</ele>
        <time>2022-11-15T07:14:11.463Z</time>
      </trkpt>
      <trkpt lat="45.77055" lon="4.78721">
        <ele>192.9</ele>
        <time>2022-11-15T07:14:12.739Z</time>
      </trkpt>
      <trkpt lat="45.77046" lon="4.78723">
        <ele>191.2</ele>
        <time>2022-11-15T07:14:13.461Z</time>
      </trkpt>
      <trkpt lat="45.77034" lon="4.78732">
        <ele>188.6</ele>
        <time>2022-11-15T07:14:14.534Z</time>
      </trkpt>
      <trkpt lat="45.77023" lon="4.78747">
        <ele>188.3</ele>
        <time>2022-11-15T07:14:16.244Z</time>
      </trkpt>
      <trkpt lat="45.77019" lon="4.78759">
        <ele>189.6</ele>
        <time>2022-11-15T07:14:21.453Z</time>
      </trkpt>
      <trkpt lat="45.77016" lon="4.7878">
        <ele>190.7</ele>
        <time>2022-11-15T07:14:25.954Z</time>
      </trkpt>
      <trkpt lat="45.77019" lon="4.78799">
        <ele>190.8</ele>
        <time>2022-11-15T07:14:28.075Z</time>
      </trkpt>
      <trkpt lat="45.77012" lon="4.78816">
        <ele>191.8</ele>
        <time>2022-11-15T07:14:32.190Z</time>
      </trkpt>
      <trkpt lat="45.77006" lon="4.78823">
        <ele>192.1</ele>
        <time>2022-11-15T07:14:33.936Z</time>
      </trkpt>
      <trkpt lat="45.76998" lon="4.78826">
        <ele>192.4</ele>
        <time>2022-11-15T07:14:35.739Z</time>
      </trkpt>
      <trkpt lat="45.76977" lon="4.78823">
        <ele>193.9</ele>
        <time>2022-11-15T07:14:41.971Z</time>
      </trkpt>
      <trkpt lat="45.76921" lon="4.78751">
        <ele>195.1</ele>
        <time>2022-11-15T07:14:54.795Z</time>
      </trkpt>
      <trkpt lat="45.76866" lon="4.78688">
        <ele>197.2</ele>
        <time>2022-11-15T07:15:08.895Z</time>
      </trkpt>
      <trkpt lat="45.76811" lon="4.78625">
        <ele>200.4</ele>
        <time>2022-11-15T07:15:26.296Z</time>
      </trkpt>
      <trkpt lat="45.76764" lon="4.78569">
        <ele>201.8</ele>
        <time>2022-11-15T07:15:37.555Z</time>
      </trkpt>
      <trkpt lat="45.76716" lon="4.78514">
        <ele>203.7</ele>
        <time>2022-11-15T07:15:50.034Z</time>
      </trkpt>
      <trkpt lat="45.76669" lon="4.78458">
        <ele>205.8</ele>
        <time>2022-11-15T07:16:03.016Z</time>
      </trkpt>
      <trkpt lat="45.76604" lon="4.78384">
        <ele>209.6</ele>
        <time>2022-11-15T07:16:23.575Z</time>
      </trkpt>
      <trkpt lat="45.7654" lon="4.7831">
        <ele>213.9</ele>
        <time>2022-11-15T07:16:44.823Z</time>
      </trkpt>
      <trkpt lat="45.76475" lon="4.78237">
        <ele>216.9</ele>
        <time>2022-11-15T07:17:02.838Z</time>
      </trkpt>
      <trkpt lat="45.7641" lon="4.78163">
        <ele>220.2</ele>
        <time>2022-11-15T07:17:21.841Z</time>
      </trkpt>
      <trkpt lat="45.7641" lon="4.78151">
        <ele>220.1</ele>
        <time>2022-11-15T07:17:22.880Z</time>
      </trkpt>
      <trkpt lat="45.76405" lon="4.78139">
        <ele>220</ele>
        <time>2022-11-15T07:17:24.117Z</time>
      </trkpt>
      <trkpt lat="45.76401" lon="4.78095">
        <ele>219.7</ele>
        <time>2022-11-15T07:17:28.072Z</time>
      </trkpt>
      <trkpt lat="45.76397" lon="4.78081">
        <ele>219.7</ele>
        <time>2022-11-15T07:17:29.608Z</time>
      </trkpt>
      <trkpt lat="45.76393" lon="4.78">
        <ele>219</ele>
        <time>2022-11-15T07:17:36.599Z</time>
      </trkpt>
      <trkpt lat="45.76389" lon="4.7792">
        <ele>219</ele>
        <time>2022-11-15T07:17:44.744Z</time>
      </trkpt>
      <trkpt lat="45.76388" lon="4.77858">
        <ele>219</ele>
        <time>2022-11-15T07:17:51.041Z</time>
      </trkpt>
      <trkpt lat="45.76385" lon="4.77834">
        <ele>219</ele>
        <time>2022-11-15T07:17:53.517Z</time>
      </trkpt>
      <trkpt lat="45.7638" lon="4.7771">
        <ele>218</ele>
        <time>2022-11-15T07:18:04.323Z</time>
      </trkpt>
      <trkpt lat="45.76374" lon="4.77592">
        <ele>217.7</ele>
        <time>2022-11-15T07:18:15.704Z</time>
      </trkpt>
      <trkpt lat="45.76367" lon="4.77475">
        <ele>216.8</ele>
        <time>2022-11-15T07:18:25.995Z</time>
      </trkpt>
      <trkpt lat="45.76361" lon="4.77357">
        <ele>217</ele>
        <time>2022-11-15T07:18:38.282Z</time>
      </trkpt>
      <trkpt lat="45.76369" lon="4.77286">
        <ele>217.6</ele>
        <time>2022-11-15T07:18:46.484Z</time>
      </trkpt>
      <trkpt lat="45.76375" lon="4.77217">
        <ele>218.9</ele>
        <time>2022-11-15T07:18:55.843Z</time>
      </trkpt>
      <trkpt lat="45.76386" lon="4.77149">
        <ele>217</ele>
        <time>2022-11-15T07:19:00.316Z</time>
      </trkpt>
      <trkpt lat="45.76396" lon="4.77081">
        <ele>217</ele>
        <time>2022-11-15T07:19:07.373Z</time>
      </trkpt>
      <trkpt lat="45.76415" lon="4.76987">
        <ele>217.1</ele>
        <time>2022-11-15T07:19:17.446Z</time>
      </trkpt>
      <trkpt lat="45.7643" lon="4.76934">
        <ele>217</ele>
        <time>2022-11-15T07:19:23.039Z</time>
      </trkpt>
      <trkpt lat="45.7642" lon="4.76904">
        <ele>217.4</ele>
        <time>2022-11-15T07:19:27.049Z</time>
      </trkpt>
      <trkpt lat="45.76396" lon="4.76896">
        <ele>218.5</ele>
        <time>2022-11-15T07:19:33.108Z</time>
      </trkpt>
      <trkpt lat="45.76377" lon="4.7688">
        <ele>219.7</ele>
        <time>2022-11-15T07:19:38.886Z</time>
      </trkpt>
      <trkpt lat="45.76363" lon="4.76852">
        <ele>221.3</ele>
        <time>2022-11-15T07:19:45.748Z</time>
      </trkpt>
      <trkpt lat="45.76351" lon="4.76811">
        <ele>224</ele>
        <time>2022-11-15T07:19:56.174Z</time>
      </trkpt>
      <trkpt lat="45.76349" lon="4.7679">
        <ele>225.8</ele>
        <time>2022-11-15T07:20:03.275Z</time>
      </trkpt>
      <trkpt lat="45.76349" lon="4.7669">
        <ele>230.1</ele>
        <time>2022-11-15T07:20:22.497Z</time>
      </trkpt>
      <trkpt lat="45.76349" lon="4.7659">
        <ele>231.3</ele>
        <time>2022-11-15T07:20:34.551Z</time>
      </trkpt>
      <trkpt lat="45.76359" lon="4.7647">
        <ele>233</ele>
        <time>2022-11-15T07:20:49.604Z</time>
      </trkpt>
      <trkpt lat="45.76369" lon="4.76349">
        <ele>234.3</ele>
        <time>2022-11-15T07:21:03.993Z</time>
      </trkpt>
      <trkpt lat="45.76381" lon="4.76236">
        <ele>236.7</ele>
        <time>2022-11-15T07:21:20.019Z</time>
      </trkpt>
      <trkpt lat="45.76392" lon="4.76122">
        <ele>236.2</ele>
        <time>2022-11-15T07:21:30.688Z</time>
      </trkpt>
      <trkpt lat="45.76404" lon="4.76026">
        <ele>236.5</ele>
        <time>2022-11-15T07:21:41.008Z</time>
      </trkpt>
      <trkpt lat="45.76429" lon="4.75923">
        <ele>236.5</ele>
        <time>2022-11-15T07:21:52.083Z</time>
      </trkpt>
      <trkpt lat="45.76453" lon="4.75819">
        <ele>235.6</ele>
        <time>2022-11-15T07:22:01.584Z</time>
      </trkpt>
      <trkpt lat="45.76478" lon="4.75716">
        <ele>236</ele>
        <time>2022-11-15T07:22:13.219Z</time>
      </trkpt>
      <trkpt lat="45.7649" lon="4.75621">
        <ele>236.2</ele>
        <time>2022-11-15T07:22:23.297Z</time>
      </trkpt>
      <trkpt lat="45.76501" lon="4.75525">
        <ele>237</ele>
        <time>2022-11-15T07:22:34.372Z</time>
      </trkpt>
      <trkpt lat="45.76513" lon="4.7543">
        <ele>237.2</ele>
        <time>2022-11-15T07:22:44.449Z</time>
      </trkpt>
      <trkpt lat="45.76528" lon="4.75356">
        <ele>232.7</ele>
        <time>2022-11-15T07:22:48.710Z</time>
      </trkpt>
      <trkpt lat="45.76542" lon="4.75281">
        <ele>233.5</ele>
        <time>2022-11-15T07:22:57.827Z</time>
      </trkpt>
      <trkpt lat="45.76554" lon="4.75227">
        <ele>228.1</ele>
        <time>2022-11-15T07:23:00.961Z</time>
      </trkpt>
      <trkpt lat="45.76564" lon="4.75208">
        <ele>228</ele>
        <time>2022-11-15T07:23:03.173Z</time>
      </trkpt>
      <trkpt lat="45.76571" lon="4.75202">
        <ele>228</ele>
        <time>2022-11-15T07:23:04.361Z</time>
      </trkpt>
      <trkpt lat="45.76576" lon="4.75195">
        <ele>228</ele>
        <time>2022-11-15T07:23:05.378Z</time>
      </trkpt>
      <trkpt lat="45.76579" lon="4.75186">
        <ele>227.7</ele>
        <time>2022-11-15T07:23:05.993Z</time>
      </trkpt>
      <trkpt lat="45.76579" lon="4.75168">
        <ele>227</ele>
        <time>2022-11-15T07:23:06.987Z</time>
      </trkpt>
      <trkpt lat="45.76577" lon="4.7516">
        <ele>226.8</ele>
        <time>2022-11-15T07:23:07.560Z</time>
      </trkpt>
      <trkpt lat="45.76571" lon="4.7515">
        <ele>226.4</ele>
        <time>2022-11-15T07:23:08.371Z</time>
      </trkpt>
      <trkpt lat="45.76564" lon="4.75144">
        <ele>226.2</ele>
        <time>2022-11-15T07:23:09.241Z</time>
      </trkpt>
      <trkpt lat="45.76559" lon="4.75109">
        <ele>225.5</ele>
        <time>2022-11-15T07:23:11.798Z</time>
      </trkpt>
      <trkpt lat="45.76559" lon="4.75088">
        <ele>222.5</ele>
        <time>2022-11-15T07:23:12.959Z</time>
      </trkpt>
      <trkpt lat="45.76558" lon="4.7499">
        <ele>222.5</ele>
        <time>2022-11-15T07:23:22.912Z</time>
      </trkpt>
      <trkpt lat="45.76556" lon="4.74893">
        <ele>222.9</ele>
        <time>2022-11-15T07:23:33.330Z</time>
      </trkpt>
      <trkpt lat="45.76555" lon="4.74795">
        <ele>226.3</ele>
        <time>2022-11-15T07:23:50.702Z</time>
      </trkpt>
      <trkpt lat="45.76564" lon="4.7475">
        <ele>227.4</ele>
        <time>2022-11-15T07:23:57.576Z</time>
      </trkpt>
      <trkpt lat="45.7657" lon="4.7474">
        <ele>227.5</ele>
        <time>2022-11-15T07:23:59.064Z</time>
      </trkpt>
      <trkpt lat="45.76569" lon="4.74732">
        <ele>228</ele>
        <time>2022-11-15T07:24:00.989Z</time>
      </trkpt>
      <trkpt lat="45.76566" lon="4.74728">
        <ele>228.3</ele>
        <time>2022-11-15T07:24:02.219Z</time>
      </trkpt>
      <trkpt lat="45.76568" lon="4.74714">
        <ele>229.3</ele>
        <time>2022-11-15T07:24:06.004Z</time>
      </trkpt>
      <trkpt lat="45.76584" lon="4.74673">
        <ele>232.5</ele>
        <time>2022-11-15T07:24:18.131Z</time>
      </trkpt>
      <trkpt lat="45.76595" lon="4.74654">
        <ele>233.9</ele>
        <time>2022-11-15T07:24:23.645Z</time>
      </trkpt>
      <trkpt lat="45.76621" lon="4.74621">
        <ele>236.3</ele>
        <time>2022-11-15T07:24:33.750Z</time>
      </trkpt>
      <trkpt lat="45.76638" lon="4.74605">
        <ele>237.9</ele>
        <time>2022-11-15T07:24:40.123Z</time>
      </trkpt>
      <trkpt lat="45.76668" lon="4.74587">
        <ele>239.8</ele>
        <time>2022-11-15T07:24:48.885Z</time>
      </trkpt>
      <trkpt lat="45.76733" lon="4.74562">
        <ele>244.3</ele>
        <time>2022-11-15T07:25:08.142Z</time>
      </trkpt>
      <trkpt lat="45.76798" lon="4.74536">
        <ele>248.5</ele>
        <time>2022-11-15T07:25:26.816Z</time>
      </trkpt>
      <trkpt lat="45.76809" lon="4.74528">
        <ele>249.1</ele>
        <time>2022-11-15T07:25:29.928Z</time>
      </trkpt>
      <trkpt lat="45.76832" lon="4.74506">
        <ele>251</ele>
        <time>2022-11-15T07:25:37.949Z</time>
      </trkpt>
      <trkpt lat="45.76852" lon="4.7448">
        <ele>251.9</ele>
        <time>2022-11-15T07:25:43.607Z</time>
      </trkpt>
      <trkpt lat="45.7686" lon="4.74465">
        <ele>252.7</ele>
        <time>2022-11-15T07:25:47.213Z</time>
      </trkpt>
      <trkpt lat="45.76868" lon="4.74458">
        <ele>252</ele>
        <time>2022-11-15T07:25:47.956Z</time>
      </trkpt>
      <trkpt lat="45.76901" lon="4.74387">
        <ele>255.9</ele>
        <time>2022-11-15T07:26:04.820Z</time>
      </trkpt>
      <trkpt lat="45.76934" lon="4.74316">
        <ele>262.8</ele>
        <time>2022-11-15T07:26:31.491Z</time>
      </trkpt>
      <trkpt lat="45.76939" lon="4.74304">
        <ele>263.4</ele>
        <time>2022-11-15T07:26:34.176Z</time>
      </trkpt>
      <trkpt lat="45.76938" lon="4.74298">
        <ele>263.2</ele>
        <time>2022-11-15T07:26:34.545Z</time>
      </trkpt>
      <trkpt lat="45.76955" lon="4.74266">
        <ele>264.2</ele>
        <time>2022-11-15T07:26:40.609Z</time>
      </trkpt>
      <trkpt lat="45.77007" lon="4.74191">
        <ele>266.6</ele>
        <time>2022-11-15T07:26:55.905Z</time>
      </trkpt>
      <trkpt lat="45.77058" lon="4.74116">
        <ele>268</ele>
        <time>2022-11-15T07:27:08.804Z</time>
      </trkpt>
      <trkpt lat="45.77112" lon="4.74044">
        <ele>269</ele>
        <time>2022-11-15T07:27:21.061Z</time>
      </trkpt>
      <trkpt lat="45.77162" lon="4.7398">
        <ele>269</ele>
        <time>2022-11-15T07:27:30.818Z</time>
      </trkpt>
      <trkpt lat="45.77211" lon="4.73916">
        <ele>269</ele>
        <time>2022-11-15T07:27:40.467Z</time>
      </trkpt>
      <trkpt lat="45.77261" lon="4.73852">
        <ele>268.8</ele>
        <time>2022-11-15T07:27:49.798Z</time>
      </trkpt>
      <trkpt lat="45.77314" lon="4.73796">
        <ele>268.8</ele>
        <time>2022-11-15T07:27:59.382Z</time>
      </trkpt>
      <trkpt lat="45.77367" lon="4.7374">
        <ele>269</ele>
        <time>2022-11-15T07:28:09.240Z</time>
      </trkpt>
      <trkpt lat="45.7742" lon="4.73684">
        <ele>269</ele>
        <time>2022-11-15T07:28:18.823Z</time>
      </trkpt>
      <trkpt lat="45.77454" lon="4.73634">
        <ele>268</ele>
        <time>2022-11-15T07:28:24.261Z</time>
      </trkpt>
      <trkpt lat="45.775" lon="4.73555">
        <ele>268</ele>
        <time>2022-11-15T07:28:34.709Z</time>
      </trkpt>
      <trkpt lat="45.77545" lon="4.73477">
        <ele>268.6</ele>
        <time>2022-11-15T07:28:45.854Z</time>
      </trkpt>
      <trkpt lat="45.77591" lon="4.73398">
        <ele>267.5</ele>
        <time>2022-11-15T07:28:54.385Z</time>
      </trkpt>
      <trkpt lat="45.77603" lon="4.73372">
        <ele>267.4</ele>
        <time>2022-11-15T07:28:57.342Z</time>
      </trkpt>
      <trkpt lat="45.77599" lon="4.73365">
        <ele>266.8</ele>
        <time>2022-11-15T07:28:57.843Z</time>
      </trkpt>
      <trkpt lat="45.77593" lon="4.7334">
        <ele>266.5</ele>
        <time>2022-11-15T07:29:00.009Z</time>
      </trkpt>
      <trkpt lat="45.77588" lon="4.73328">
        <ele>266.3</ele>
        <time>2022-11-15T07:29:01.098Z</time>
      </trkpt>
      <trkpt lat="45.77579" lon="4.73316">
        <ele>265.6</ele>
        <time>2022-11-15T07:29:02.061Z</time>
      </trkpt>
      <trkpt lat="45.77561" lon="4.733">
        <ele>264.6</ele>
        <time>2022-11-15T07:29:03.864Z</time>
      </trkpt>
      <trkpt lat="45.77554" lon="4.7329">
        <ele>264.2</ele>
        <time>2022-11-15T07:29:04.759Z</time>
      </trkpt>
      <trkpt lat="45.77548" lon="4.73265">
        <ele>262.8</ele>
        <time>2022-11-15T07:29:06.221Z</time>
      </trkpt>
      <trkpt lat="45.77548" lon="4.7325">
        <ele>262.1</ele>
        <time>2022-11-15T07:29:07.050Z</time>
      </trkpt>
      <trkpt lat="45.7757" lon="4.73127">
        <ele>258.2</ele>
        <time>2022-11-15T07:29:14.811Z</time>
      </trkpt>
      <trkpt lat="45.7757" lon="4.73116">
        <ele>257.8</ele>
        <time>2022-11-15T07:29:15.437Z</time>
      </trkpt>
      <trkpt lat="45.77566" lon="4.73106">
        <ele>256.7</ele>
        <time>2022-11-15T07:29:16.075Z</time>
      </trkpt>
      <trkpt lat="45.7756" lon="4.73099">
        <ele>255.7</ele>
        <time>2022-11-15T07:29:16.688Z</time>
      </trkpt>
      <trkpt lat="45.77551" lon="4.73094">
        <ele>255.2</ele>
        <time>2022-11-15T07:29:17.477Z</time>
      </trkpt>
      <trkpt lat="45.77543" lon="4.73094">
        <ele>255.6</ele>
        <time>2022-11-15T07:29:19.514Z</time>
      </trkpt>
      <trkpt lat="45.77525" lon="4.73105">
        <ele>256.1</ele>
        <time>2022-11-15T07:29:23.232Z</time>
      </trkpt>
      <trkpt lat="45.77464" lon="4.73196">
        <ele>259.6</ele>
        <time>2022-11-15T07:29:43.386Z</time>
      </trkpt>
      <trkpt lat="45.77444" lon="4.7322">
        <ele>261.3</ele>
        <time>2022-11-15T07:29:50.758Z</time>
      </trkpt>
      <trkpt lat="45.77429" lon="4.73233">
        <ele>262.6</ele>
        <time>2022-11-15T07:29:56.059Z</time>
      </trkpt>
      <trkpt lat="45.77366" lon="4.73264">
        <ele>265.1</ele>
        <time>2022-11-15T07:30:10.834Z</time>
      </trkpt>
      <trkpt lat="45.77339" lon="4.73266">
        <ele>266.2</ele>
        <time>2022-11-15T07:30:17.108Z</time>
      </trkpt>
      <trkpt lat="45.77294" lon="4.73258">
        <ele>267.3</ele>
        <time>2022-11-15T07:30:25.594Z</time>
      </trkpt>
      <trkpt lat="45.77248" lon="4.73251">
        <ele>267.9</ele>
        <time>2022-11-15T07:30:33.235Z</time>
      </trkpt>
      <trkpt lat="45.77239" lon="4.73248">
        <ele>267.6</ele>
        <time>2022-11-15T07:30:34.141Z</time>
      </trkpt>
      <trkpt lat="45.77234" lon="4.7324">
        <ele>267.6</ele>
        <time>2022-11-15T07:30:35.232Z</time>
      </trkpt>
      <trkpt lat="45.77195" lon="4.73149">
        <ele>270.6</ele>
        <time>2022-11-15T07:30:52.414Z</time>
      </trkpt>
      <trkpt lat="45.77185" lon="4.73063">
        <ele>274.8</ele>
        <time>2022-11-15T07:31:10.102Z</time>
      </trkpt>
      <trkpt lat="45.77174" lon="4.72977">
        <ele>275.1</ele>
        <time>2022-11-15T07:31:19.399Z</time>
      </trkpt>
      <trkpt lat="45.77174" lon="4.72959">
        <ele>274.2</ele>
        <time>2022-11-15T07:31:20.394Z</time>
      </trkpt>
      <trkpt lat="45.77184" lon="4.72881">
        <ele>270.3</ele>
        <time>2022-11-15T07:31:24.778Z</time>
      </trkpt>
      <trkpt lat="45.77193" lon="4.72802">
        <ele>272</ele>
        <time>2022-11-15T07:31:36.049Z</time>
      </trkpt>
      <trkpt lat="45.772" lon="4.72762">
        <ele>273.8</ele>
        <time>2022-11-15T07:31:44.028Z</time>
      </trkpt>
      <trkpt lat="45.77204" lon="4.72692">
        <ele>276.4</ele>
        <time>2022-11-15T07:31:56.753Z</time>
      </trkpt>
      <trkpt lat="45.77268" lon="4.72626">
        <ele>280.5</ele>
        <time>2022-11-15T07:32:17.087Z</time>
      </trkpt>
      <trkpt lat="45.77284" lon="4.72603">
        <ele>281.3</ele>
        <time>2022-11-15T07:32:21.962Z</time>
      </trkpt>
      <trkpt lat="45.773" lon="4.72556">
        <ele>283</ele>
        <time>2022-11-15T07:32:31.044Z</time>
      </trkpt>
      <trkpt lat="45.77311" lon="4.72506">
        <ele>284</ele>
        <time>2022-11-15T07:32:38.146Z</time>
      </trkpt>
      <trkpt lat="45.77311" lon="4.72388">
        <ele>284</ele>
        <time>2022-11-15T07:32:50.127Z</time>
      </trkpt>
      <trkpt lat="45.77297" lon="4.72318">
        <ele>284.4</ele>
        <time>2022-11-15T07:32:58.096Z</time>
      </trkpt>
      <trkpt lat="45.77282" lon="4.72248">
        <ele>285.2</ele>
        <time>2022-11-15T07:33:06.776Z</time>
      </trkpt>
      <trkpt lat="45.77282" lon="4.72219">
        <ele>285.3</ele>
        <time>2022-11-15T07:33:09.860Z</time>
      </trkpt>
      <trkpt lat="45.77305" lon="4.72128">
        <ele>287.4</ele>
        <time>2022-11-15T07:33:23.603Z</time>
      </trkpt>
      <trkpt lat="45.77318" lon="4.721">
        <ele>288</ele>
        <time>2022-11-15T07:33:28.063Z</time>
      </trkpt>
      <trkpt lat="45.77343" lon="4.72072">
        <ele>288.3</ele>
        <time>2022-11-15T07:33:33.119Z</time>
      </trkpt>
      <trkpt lat="45.77347" lon="4.72062">
        <ele>288.4</ele>
        <time>2022-11-15T07:33:34.440Z</time>
      </trkpt>
      <trkpt lat="45.77346" lon="4.72049">
        <ele>288.5</ele>
        <time>2022-11-15T07:33:35.916Z</time>
      </trkpt>
      <trkpt lat="45.77316" lon="4.71977">
        <ele>290.5</ele>
        <time>2022-11-15T07:33:48.314Z</time>
      </trkpt>
      <trkpt lat="45.77309" lon="4.71952">
        <ele>291</ele>
        <time>2022-11-15T07:33:51.931Z</time>
      </trkpt>
      <trkpt lat="45.77301" lon="4.71895">
        <ele>292.8</ele>
        <time>2022-11-15T07:34:01.878Z</time>
      </trkpt>
      <trkpt lat="45.77281" lon="4.71824">
        <ele>294.3</ele>
        <time>2022-11-15T07:34:12.346Z</time>
      </trkpt>
      <trkpt lat="45.77279" lon="4.71803">
        <ele>295</ele>
        <time>2022-11-15T07:34:16.044Z</time>
      </trkpt>
      <trkpt lat="45.77282" lon="4.71725">
        <ele>295.8</ele>
        <time>2022-11-15T07:34:25.208Z</time>
      </trkpt>
      <trkpt lat="45.77278" lon="4.71691">
        <ele>296.1</ele>
        <time>2022-11-15T07:34:29.161Z</time>
      </trkpt>
      <trkpt lat="45.77259" lon="4.71598">
        <ele>297.6</ele>
        <time>2022-11-15T07:34:41.510Z</time>
      </trkpt>
      <trkpt lat="45.77241" lon="4.71506">
        <ele>299.5</ele>
        <time>2022-11-15T07:34:54.641Z</time>
      </trkpt>
      <trkpt lat="45.77222" lon="4.71413">
        <ele>301</ele>
        <time>2022-11-15T07:35:06.990Z</time>
      </trkpt>
      <trkpt lat="45.77214" lon="4.714">
        <ele>300.9</ele>
        <time>2022-11-15T07:35:08.565Z</time>
      </trkpt>
      <trkpt lat="45.77209" lon="4.71397">
        <ele>300.9</ele>
        <time>2022-11-15T07:35:09.354Z</time>
      </trkpt>
      <trkpt lat="45.77156" lon="4.71397">
        <ele>299.4</ele>
        <time>2022-11-15T07:35:14.780Z</time>
      </trkpt>
      <trkpt lat="45.77151" lon="4.71395">
        <ele>299.3</ele>
        <time>2022-11-15T07:35:15.368Z</time>
      </trkpt>
      <trkpt lat="45.77148" lon="4.71387">
        <ele>299.4</ele>
        <time>2022-11-15T07:35:16.446Z</time>
      </trkpt>
      <trkpt lat="45.77145" lon="4.71329">
        <ele>301</ele>
        <time>2022-11-15T07:35:25.692Z</time>
      </trkpt>
      <trkpt lat="45.77131" lon="4.71264">
        <ele>301.5</ele>
        <time>2022-11-15T07:35:33.337Z</time>
      </trkpt>
      <trkpt lat="45.77108" lon="4.71182">
        <ele>303.3</ele>
        <time>2022-11-15T07:35:45.587Z</time>
      </trkpt>
      <trkpt lat="45.77105" lon="4.71165">
        <ele>303.6</ele>
        <time>2022-11-15T07:35:47.883Z</time>
      </trkpt>
      <trkpt lat="45.77105" lon="4.71149">
        <ele>303.7</ele>
        <time>2022-11-15T07:35:49.653Z</time>
      </trkpt>
      <trkpt lat="45.77114" lon="4.71048">
        <ele>306</ele>
        <time>2022-11-15T07:36:04.352Z</time>
      </trkpt>
      <trkpt lat="45.7711" lon="4.70925">
        <ele>307.9</ele>
        <time>2022-11-15T07:36:20.031Z</time>
      </trkpt>
      <trkpt lat="45.77111" lon="4.70801">
        <ele>310</ele>
        <time>2022-11-15T07:36:36.223Z</time>
      </trkpt>
      <trkpt lat="45.77116" lon="4.7073">
        <ele>311.3</ele>
        <time>2022-11-15T07:36:45.748Z</time>
      </trkpt>
      <trkpt lat="45.77121" lon="4.70658">
        <ele>312.9</ele>
        <time>2022-11-15T07:36:56.101Z</time>
      </trkpt>
      <trkpt lat="45.7712" lon="4.70545">
        <ele>314.6</ele>
        <time>2022-11-15T07:37:10.400Z</time>
      </trkpt>
      <trkpt lat="45.77119" lon="4.70433">
        <ele>318</ele>
        <time>2022-11-15T07:37:29.311Z</time>
      </trkpt>
      <trkpt lat="45.77118" lon="4.70368">
        <ele>320.2</ele>
        <time>2022-11-15T07:37:40.742Z</time>
      </trkpt>
      <trkpt lat="45.77117" lon="4.70304">
        <ele>323.2</ele>
        <time>2022-11-15T07:37:53.550Z</time>
      </trkpt>
      <trkpt lat="45.77123" lon="4.70301">
        <ele>323.4</ele>
        <time>2022-11-15T07:37:54.850Z</time>
      </trkpt>
      <trkpt lat="45.77124" lon="4.70292">
        <ele>323.5</ele>
        <time>2022-11-15T07:37:55.931Z</time>
      </trkpt>
      <trkpt lat="45.77119" lon="4.70285">
        <ele>323.3</ele>
        <time>2022-11-15T07:37:56.644Z</time>
      </trkpt>
      <trkpt lat="45.77131" lon="4.7021">
        <ele>324.7</ele>
        <time>2022-11-15T07:38:06.909Z</time>
      </trkpt>
      <trkpt lat="45.77134" lon="4.70139">
        <ele>326.8</ele>
        <time>2022-11-15T07:38:18.705Z</time>
      </trkpt>
      <trkpt lat="45.77136" lon="4.70067">
        <ele>328.6</ele>
        <time>2022-11-15T07:38:29.593Z</time>
      </trkpt>
      <trkpt lat="45.77143" lon="4.70003">
        <ele>331.9</ele>
        <time>2022-11-15T07:38:43.138Z</time>
      </trkpt>
      <trkpt lat="45.7715" lon="4.69939">
        <ele>335.7</ele>
        <time>2022-11-15T07:38:57.948Z</time>
      </trkpt>
      <trkpt lat="45.77158" lon="4.69846">
        <ele>339.5</ele>
        <time>2022-11-15T07:39:15.521Z</time>
      </trkpt>
      <trkpt lat="45.77166" lon="4.69752">
        <ele>343</ele>
        <time>2022-11-15T07:39:32.670Z</time>
      </trkpt>
      <trkpt lat="45.77174" lon="4.69659">
        <ele>345.8</ele>
        <time>2022-11-15T07:39:48.328Z</time>
      </trkpt>
      <trkpt lat="45.77175" lon="4.69537">
        <ele>351.1</ele>
        <time>2022-11-15T07:40:11.884Z</time>
      </trkpt>
      <trkpt lat="45.77175" lon="4.69414">
        <ele>359.9</ele>
        <time>2022-11-15T07:40:45.196Z</time>
      </trkpt>
      <trkpt lat="45.77216" lon="4.69395">
        <ele>361.5</ele>
        <time>2022-11-15T07:40:54.701Z</time>
      </trkpt>
      <trkpt lat="45.77235" lon="4.69384">
        <ele>361.4</ele>
        <time>2022-11-15T07:40:57.476Z</time>
      </trkpt>
      <trkpt lat="45.77252" lon="4.69357">
        <ele>362.2</ele>
        <time>2022-11-15T07:41:02.669Z</time>
      </trkpt>
      <trkpt lat="45.77297" lon="4.69263">
        <ele>367.9</ele>
        <time>2022-11-15T07:41:26.261Z</time>
      </trkpt>
      <trkpt lat="45.77342" lon="4.69169">
        <ele>375.8</ele>
        <time>2022-11-15T07:41:56.172Z</time>
      </trkpt>
      <trkpt lat="45.77357" lon="4.69144">
        <ele>377.6</ele>
        <time>2022-11-15T07:42:03.357Z</time>
      </trkpt>
      <trkpt lat="45.77382" lon="4.69136">
        <ele>379.7</ele>
        <time>2022-11-15T07:42:11.605Z</time>
      </trkpt>
      <trkpt lat="45.77396" lon="4.69137">
        <ele>380.9</ele>
        <time>2022-11-15T07:42:16.259Z</time>
      </trkpt>
      <trkpt lat="45.77466" lon="4.69152">
        <ele>386.4</ele>
        <time>2022-11-15T07:42:38.270Z</time>
      </trkpt>
      <trkpt lat="45.77483" lon="4.69149">
        <ele>387.9</ele>
        <time>2022-11-15T07:42:44.053Z</time>
      </trkpt>
      <trkpt lat="45.7749" lon="4.69137">
        <ele>389</ele>
        <time>2022-11-15T07:42:48.217Z</time>
      </trkpt>
      <trkpt lat="45.77493" lon="4.69115">
        <ele>390.3</ele>
        <time>2022-11-15T07:42:53.301Z</time>
      </trkpt>
      <trkpt lat="45.77485" lon="4.69064">
        <ele>393.5</ele>
        <time>2022-11-15T07:43:05.632Z</time>
      </trkpt>
      <trkpt lat="45.77484" lon="4.69048">
        <ele>394.1</ele>
        <time>2022-11-15T07:43:08.552Z</time>
      </trkpt>
      <trkpt lat="45.7749" lon="4.69039">
        <ele>394.9</ele>
        <time>2022-11-15T07:43:11.605Z</time>
      </trkpt>
      <trkpt lat="45.77514" lon="4.69019">
        <ele>397.2</ele>
        <time>2022-11-15T07:43:20.609Z</time>
      </trkpt>
      <trkpt lat="45.77537" lon="4.68988">
        <ele>398.6</ele>
        <time>2022-11-15T07:43:28.348Z</time>
      </trkpt>
      <trkpt lat="45.77563" lon="4.68945">
        <ele>400.2</ele>
        <time>2022-11-15T07:43:37.508Z</time>
      </trkpt>
      <trkpt lat="45.77603" lon="4.68885">
        <ele>401.6</ele>
        <time>2022-11-15T07:43:48.332Z</time>
      </trkpt>
      <trkpt lat="45.77622" lon="4.68851">
        <ele>401.4</ele>
        <time>2022-11-15T07:43:52.350Z</time>
      </trkpt>
      <trkpt lat="45.77626" lon="4.68833">
        <ele>401.1</ele>
        <time>2022-11-15T07:43:53.784Z</time>
      </trkpt>
      <trkpt lat="45.77649" lon="4.68761">
        <ele>400.5</ele>
        <time>2022-11-15T07:44:00.734Z</time>
      </trkpt>
      <trkpt lat="45.77672" lon="4.68688">
        <ele>401.2</ele>
        <time>2022-11-15T07:44:09.921Z</time>
      </trkpt>
      <trkpt lat="45.77709" lon="4.68615">
        <ele>402.6</ele>
        <time>2022-11-15T07:44:21.427Z</time>
      </trkpt>
      <trkpt lat="45.7773" lon="4.68505">
        <ele>404.8</ele>
        <time>2022-11-15T07:44:36.934Z</time>
      </trkpt>
      <trkpt lat="45.7775" lon="4.68395">
        <ele>406.8</ele>
        <time>2022-11-15T07:44:51.943Z</time>
      </trkpt>
      <trkpt lat="45.77756" lon="4.68329">
        <ele>408.4</ele>
        <time>2022-11-15T07:45:01.818Z</time>
      </trkpt>
      <trkpt lat="45.77761" lon="4.68262">
        <ele>410.2</ele>
        <time>2022-11-15T07:45:12.356Z</time>
      </trkpt>
      <trkpt lat="45.77763" lon="4.68167">
        <ele>412.4</ele>
        <time>2022-11-15T07:45:26.220Z</time>
      </trkpt>
      <trkpt lat="45.77776" lon="4.68098">
        <ele>414.8</ele>
        <time>2022-11-15T07:45:38.755Z</time>
      </trkpt>
      <trkpt lat="45.77806" lon="4.67995">
        <ele>416.9</ele>
        <time>2022-11-15T07:45:53.806Z</time>
      </trkpt>
      <trkpt lat="45.77815" lon="4.67952">
        <ele>416.3</ele>
        <time>2022-11-15T07:45:57.359Z</time>
      </trkpt>
      <trkpt lat="45.77825" lon="4.67935">
        <ele>416.7</ele>
        <time>2022-11-15T07:46:00.315Z</time>
      </trkpt>
      <trkpt lat="45.77843" lon="4.679">
        <ele>417.4</ele>
        <time>2022-11-15T07:46:05.913Z</time>
      </trkpt>
      <trkpt lat="45.77864" lon="4.67799">
        <ele>415.2</ele>
        <time>2022-11-15T07:46:13.309Z</time>
      </trkpt>
      <trkpt lat="45.7788" lon="4.67695">
        <ele>413.7</ele>
        <time>2022-11-15T07:46:21.634Z</time>
      </trkpt>
      <trkpt lat="45.77881" lon="4.67695">
        <ele>413.9</ele>
        <time>2022-11-15T07:46:22.196Z</time>
      </trkpt>
      <trkpt lat="45.77879" lon="4.67666">
        <ele>413.6</ele>
        <time>2022-11-15T07:46:24.629Z</time>
      </trkpt>
      <trkpt lat="45.77859" lon="4.67592">
        <ele>416.2</ele>
        <time>2022-11-15T07:46:38.443Z</time>
      </trkpt>
      <trkpt lat="45.77848" lon="4.67519">
        <ele>419.9</ele>
        <time>2022-11-15T07:46:53.820Z</time>
      </trkpt>
      <trkpt lat="45.77843" lon="4.67428">
        <ele>421.4</ele>
        <time>2022-11-15T07:47:05.638Z</time>
      </trkpt>
      <trkpt lat="45.77847" lon="4.67316">
        <ele>422.3</ele>
        <time>2022-11-15T07:47:18.364Z</time>
      </trkpt>
      <trkpt lat="45.77848" lon="4.67281">
        <ele>422.1</ele>
        <time>2022-11-15T07:47:21.550Z</time>
      </trkpt>
      <trkpt lat="45.77846" lon="4.67243">
        <ele>422.1</ele>
        <time>2022-11-15T07:47:25.419Z</time>
      </trkpt>
      <trkpt lat="45.77834" lon="4.67139">
        <ele>422</ele>
        <time>2022-11-15T07:47:35.902Z</time>
      </trkpt>
      <trkpt lat="45.77823" lon="4.67036">
        <ele>422.4</ele>
        <time>2022-11-15T07:47:47.043Z</time>
      </trkpt>
      <trkpt lat="45.77811" lon="4.66932">
        <ele>425.6</ele>
        <time>2022-11-15T07:48:04.840Z</time>
      </trkpt>
      <trkpt lat="45.77807" lon="4.66857">
        <ele>428.3</ele>
        <time>2022-11-15T07:48:18.323Z</time>
      </trkpt>
      <trkpt lat="45.77802" lon="4.66855">
        <ele>428.5</ele>
        <time>2022-11-15T07:48:19.491Z</time>
      </trkpt>
      <trkpt lat="45.77774" lon="4.66784">
        <ele>432.5</ele>
        <time>2022-11-15T07:48:36.193Z</time>
      </trkpt>
      <trkpt lat="45.77746" lon="4.66713">
        <ele>434.2</ele>
        <time>2022-11-15T07:48:47.595Z</time>
      </trkpt>
      <trkpt lat="45.77718" lon="4.66613">
        <ele>434.3</ele>
        <time>2022-11-15T07:48:58.670Z</time>
      </trkpt>
      <trkpt lat="45.7769" lon="4.66514">
        <ele>435.9</ele>
        <time>2022-11-15T07:49:12.172Z</time>
      </trkpt>
      <trkpt lat="45.77676" lon="4.66447">
        <ele>434.1</ele>
        <time>2022-11-15T07:49:16.745Z</time>
      </trkpt>
      <trkpt lat="45.77673" lon="4.66405">
        <ele>432.2</ele>
        <time>2022-11-15T07:49:18.919Z</time>
      </trkpt>
      <trkpt lat="45.77678" lon="4.66327">
        <ele>429.9</ele>
        <time>2022-11-15T07:49:23.792Z</time>
      </trkpt>
      <trkpt lat="45.77676" lon="4.66298">
        <ele>429</ele>
        <time>2022-11-15T07:49:25.570Z</time>
      </trkpt>
      <trkpt lat="45.77666" lon="4.66281">
        <ele>428.7</ele>
        <time>2022-11-15T07:49:27.326Z</time>
      </trkpt>
      <trkpt lat="45.77643" lon="4.66272">
        <ele>431</ele>
        <time>2022-11-15T07:49:36.051Z</time>
      </trkpt>
      <trkpt lat="45.77594" lon="4.66278">
        <ele>433.4</ele>
        <time>2022-11-15T07:49:48.470Z</time>
      </trkpt>
      <trkpt lat="45.77518" lon="4.66312">
        <ele>432.7</ele>
        <time>2022-11-15T07:49:58.768Z</time>
      </trkpt>
      <trkpt lat="45.77491" lon="4.66311">
        <ele>431.9</ele>
        <time>2022-11-15T07:50:01.494Z</time>
      </trkpt>
      <trkpt lat="45.77464" lon="4.66299">
        <ele>430.9</ele>
        <time>2022-11-15T07:50:04.184Z</time>
      </trkpt>
      <trkpt lat="45.77436" lon="4.66276">
        <ele>429</ele>
        <time>2022-11-15T07:50:06.674Z</time>
      </trkpt>
      <trkpt lat="45.77415" lon="4.66248">
        <ele>428.8</ele>
        <time>2022-11-15T07:50:10.446Z</time>
      </trkpt>
      <trkpt lat="45.77394" lon="4.66193">
        <ele>429</ele>
        <time>2022-11-15T07:50:17.090Z</time>
      </trkpt>
      <trkpt lat="45.77368" lon="4.66093">
        <ele>427.2</ele>
        <time>2022-11-15T07:50:25.062Z</time>
      </trkpt>
      <trkpt lat="45.77342" lon="4.65994">
        <ele>424.8</ele>
        <time>2022-11-15T07:50:32.289Z</time>
      </trkpt>
      <trkpt lat="45.77332" lon="4.65976">
        <ele>425.5</ele>
        <time>2022-11-15T07:50:36.179Z</time>
      </trkpt>
      <trkpt lat="45.77311" lon="4.6597">
        <ele>425</ele>
        <time>2022-11-15T07:50:38.494Z</time>
      </trkpt>
      <trkpt lat="45.77266" lon="4.65988">
        <ele>421.3</ele>
        <time>2022-11-15T07:50:42.196Z</time>
      </trkpt>
      <trkpt lat="45.77221" lon="4.66006">
        <ele>419.6</ele>
        <time>2022-11-15T07:50:46.599Z</time>
      </trkpt>
      <trkpt lat="45.77212" lon="4.66007">
        <ele>418.2</ele>
        <time>2022-11-15T07:50:47.314Z</time>
      </trkpt>
      <trkpt lat="45.77203" lon="4.66002">
        <ele>417.1</ele>
        <time>2022-11-15T07:50:48.079Z</time>
      </trkpt>
      <trkpt lat="45.77196" lon="4.65994">
        <ele>416.7</ele>
        <time>2022-11-15T07:50:48.859Z</time>
      </trkpt>
      <trkpt lat="45.77173" lon="4.65952">
        <ele>414.8</ele>
        <time>2022-11-15T07:50:51.927Z</time>
      </trkpt>
      <trkpt lat="45.77155" lon="4.65904">
        <ele>411.9</ele>
        <time>2022-11-15T07:50:54.940Z</time>
      </trkpt>
      <trkpt lat="45.77146" lon="4.65873">
        <ele>410.6</ele>
        <time>2022-11-15T07:50:56.797Z</time>
      </trkpt>
      <trkpt lat="45.77135" lon="4.65811">
        <ele>407.1</ele>
        <time>2022-11-15T07:51:00.334Z</time>
      </trkpt>
      <trkpt lat="45.77131" lon="4.65803">
        <ele>406.3</ele>
        <time>2022-11-15T07:51:00.878Z</time>
      </trkpt>
      <trkpt lat="45.77126" lon="4.65796">
        <ele>405.5</ele>
        <time>2022-11-15T07:51:01.432Z</time>
      </trkpt>
      <trkpt lat="45.77118" lon="4.65791">
        <ele>404.3</ele>
        <time>2022-11-15T07:51:02.123Z</time>
      </trkpt>
      <trkpt lat="45.77104" lon="4.65791">
        <ele>404.5</ele>
        <time>2022-11-15T07:51:04.468Z</time>
      </trkpt>
      <trkpt lat="45.771" lon="4.65793">
        <ele>405.1</ele>
        <time>2022-11-15T07:51:06.847Z</time>
      </trkpt>
      <trkpt lat="45.77091" lon="4.65806">
        <ele>405.6</ele>
        <time>2022-11-15T07:51:09.746Z</time>
      </trkpt>
      <trkpt lat="45.77083" lon="4.65828">
        <ele>404.6</ele>
        <time>2022-11-15T07:51:11.093Z</time>
      </trkpt>
      <trkpt lat="45.77076" lon="4.65862">
        <ele>401.7</ele>
        <time>2022-11-15T07:51:13.053Z</time>
      </trkpt>
      <trkpt lat="45.77072" lon="4.65901">
        <ele>401.9</ele>
        <time>2022-11-15T07:51:17.341Z</time>
      </trkpt>
      <trkpt lat="45.77072" lon="4.65942">
        <ele>404.3</ele>
        <time>2022-11-15T07:51:26.700Z</time>
      </trkpt>
      <trkpt lat="45.77076" lon="4.66033">
        <ele>408.6</ele>
        <time>2022-11-15T07:51:45.000Z</time>
      </trkpt>
      <trkpt lat="45.7707" lon="4.66134">
        <ele>412.7</ele>
        <time>2022-11-15T07:52:03.990Z</time>
      </trkpt>
      <trkpt lat="45.77059" lon="4.66172">
        <ele>415.4</ele>
        <time>2022-11-15T07:52:14.262Z</time>
      </trkpt>
      <trkpt lat="45.77048" lon="4.66192">
        <ele>417.1</ele>
        <time>2022-11-15T07:52:20.716Z</time>
      </trkpt>
      <trkpt lat="45.77036" lon="4.66205">
        <ele>418.7</ele>
        <time>2022-11-15T07:52:26.786Z</time>
      </trkpt>
      <trkpt lat="45.77023" lon="4.66217">
        <ele>419.4</ele>
        <time>2022-11-15T07:52:30.604Z</time>
      </trkpt>
      <trkpt lat="45.77004" lon="4.66226">
        <ele>419.7</ele>
        <time>2022-11-15T07:52:33.980Z</time>
      </trkpt>
      <trkpt lat="45.76982" lon="4.66229">
        <ele>420.1</ele>
        <time>2022-11-15T07:52:37.836Z</time>
      </trkpt>
      <trkpt lat="45.76961" lon="4.66223">
        <ele>419.7</ele>
        <time>2022-11-15T07:52:40.280Z</time>
      </trkpt>
      <trkpt lat="45.76939" lon="4.66206">
        <ele>419.4</ele>
        <time>2022-11-15T07:52:43.378Z</time>
      </trkpt>
      <trkpt lat="45.76914" lon="4.6618">
        <ele>421.2</ele>
        <time>2022-11-15T07:52:51.690Z</time>
      </trkpt>
      <trkpt lat="45.76889" lon="4.66168">
        <ele>422.9</ele>
        <time>2022-11-15T07:52:59.104Z</time>
      </trkpt>
      <trkpt lat="45.76856" lon="4.66175">
        <ele>426.4</ele>
        <time>2022-11-15T07:53:12.368Z</time>
      </trkpt>
      <trkpt lat="45.76814" lon="4.66204">
        <ele>424.7</ele>
        <time>2022-11-15T07:53:16.757Z</time>
      </trkpt>
      <trkpt lat="45.76761" lon="4.66216">
        <ele>423.1</ele>
        <time>2022-11-15T07:53:22.162Z</time>
      </trkpt>
      <trkpt lat="45.76743" lon="4.66217">
        <ele>422</ele>
        <time>2022-11-15T07:53:23.528Z</time>
      </trkpt>
      <trkpt lat="45.76727" lon="4.66205">
        <ele>421.7</ele>
        <time>2022-11-15T07:53:25.641Z</time>
      </trkpt>
      <trkpt lat="45.76682" lon="4.66125">
        <ele>421.1</ele>
        <time>2022-11-15T07:53:34.966Z</time>
      </trkpt>
      <trkpt lat="45.76667" lon="4.66111">
        <ele>420.1</ele>
        <time>2022-11-15T07:53:36.381Z</time>
      </trkpt>
      <trkpt lat="45.76649" lon="4.66102">
        <ele>419.3</ele>
        <time>2022-11-15T07:53:38.084Z</time>
      </trkpt>
      <trkpt lat="45.76628" lon="4.66096">
        <ele>418.8</ele>
        <time>2022-11-15T07:53:40.399Z</time>
      </trkpt>
      <trkpt lat="45.7661" lon="4.66093">
        <ele>418.7</ele>
        <time>2022-11-15T07:53:42.831Z</time>
      </trkpt>
      <trkpt lat="45.76567" lon="4.66109">
        <ele>420.4</ele>
        <time>2022-11-15T07:53:52.788Z</time>
      </trkpt>
      <trkpt lat="45.76544" lon="4.66117">
        <ele>421.6</ele>
        <time>2022-11-15T07:53:58.840Z</time>
      </trkpt>
      <trkpt lat="45.76516" lon="4.66112">
        <ele>423.4</ele>
        <time>2022-11-15T07:54:06.735Z</time>
      </trkpt>
      <trkpt lat="45.76502" lon="4.66102">
        <ele>424.3</ele>
        <time>2022-11-15T07:54:10.923Z</time>
      </trkpt>
      <trkpt lat="45.76498" lon="4.66094">
        <ele>424.6</ele>
        <time>2022-11-15T07:54:12.590Z</time>
      </trkpt>
      <trkpt lat="45.76494" lon="4.66074">
        <ele>425.5</ele>
        <time>2022-11-15T07:54:16.600Z</time>
      </trkpt>
      <trkpt lat="45.76507" lon="4.65992">
        <ele>431.2</ele>
        <time>2022-11-15T07:54:38.209Z</time>
      </trkpt>
      <trkpt lat="45.76531" lon="4.65984">
        <ele>434.4</ele>
        <time>2022-11-15T07:54:51.366Z</time>
      </trkpt>
      <trkpt lat="45.7658" lon="4.65975">
        <ele>436.5</ele>
        <time>2022-11-15T07:55:03.142Z</time>
      </trkpt>
      <trkpt lat="45.76629" lon="4.65966">
        <ele>439.2</ele>
        <time>2022-11-15T07:55:16.112Z</time>
      </trkpt>
      <trkpt lat="45.76673" lon="4.6598">
        <ele>440.9</ele>
        <time>2022-11-15T07:55:26.136Z</time>
      </trkpt>
      <trkpt lat="45.76718" lon="4.65978">
        <ele>444.5</ele>
        <time>2022-11-15T07:55:40.394Z</time>
      </trkpt>
      <trkpt lat="45.76763" lon="4.65975">
        <ele>448.6</ele>
        <time>2022-11-15T07:55:56.074Z</time>
      </trkpt>
      <trkpt lat="45.76785" lon="4.65959">
        <ele>451.2</ele>
        <time>2022-11-15T07:56:05.931Z</time>
      </trkpt>
      <trkpt lat="45.76803" lon="4.65926">
        <ele>453.7</ele>
        <time>2022-11-15T07:56:15.627Z</time>
      </trkpt>
      <trkpt lat="45.76815" lon="4.65891">
        <ele>456.1</ele>
        <time>2022-11-15T07:56:24.865Z</time>
      </trkpt>
      <trkpt lat="45.76816" lon="4.65858">
        <ele>455.7</ele>
        <time>2022-11-15T07:56:27.536Z</time>
      </trkpt>
      <trkpt lat="45.76796" lon="4.65762">
        <ele>457.2</ele>
        <time>2022-11-15T07:56:40.199Z</time>
      </trkpt>
      <trkpt lat="45.76768" lon="4.65662">
        <ele>460.6</ele>
        <time>2022-11-15T07:56:58.752Z</time>
      </trkpt>
      <trkpt lat="45.76739" lon="4.65561">
        <ele>465.4</ele>
        <time>2022-11-15T07:57:19.950Z</time>
      </trkpt>
      <trkpt lat="45.76711" lon="4.65461">
        <ele>471.5</ele>
        <time>2022-11-15T07:57:43.989Z</time>
      </trkpt>
      <trkpt lat="45.76687" lon="4.65395">
        <ele>473.9</ele>
        <time>2022-11-15T07:57:56.885Z</time>
      </trkpt>
      <trkpt lat="45.76676" lon="4.65322">
        <ele>475.1</ele>
        <time>2022-11-15T07:58:06.497Z</time>
      </trkpt>
      <trkpt lat="45.76672" lon="4.65247">
        <ele>476.8</ele>
        <time>2022-11-15T07:58:17.358Z</time>
      </trkpt>
      <trkpt lat="45.76668" lon="4.65172">
        <ele>478.7</ele>
        <time>2022-11-15T07:58:28.786Z</time>
      </trkpt>
      <trkpt lat="45.76656" lon="4.65054">
        <ele>485.7</ele>
        <time>2022-11-15T07:58:56.063Z</time>
      </trkpt>
      <trkpt lat="45.76681" lon="4.64993">
        <ele>489.7</ele>
        <time>2022-11-15T07:59:11.833Z</time>
      </trkpt>
      <trkpt lat="45.76705" lon="4.64932">
        <ele>494.7</ele>
        <time>2022-11-15T07:59:30.759Z</time>
      </trkpt>
      <trkpt lat="45.76745" lon="4.64846">
        <ele>500.3</ele>
        <time>2022-11-15T07:59:53.175Z</time>
      </trkpt>
      <trkpt lat="45.76763" lon="4.64818">
        <ele>502</ele>
        <time>2022-11-15T08:00:00.618Z</time>
      </trkpt>
      <trkpt lat="45.76775" lon="4.64808">
        <ele>502</ele>
        <time>2022-11-15T08:00:02.639Z</time>
      </trkpt>
      <trkpt lat="45.76787" lon="4.64806">
        <ele>503.9</ele>
        <time>2022-11-15T08:00:09.422Z</time>
      </trkpt>
      <trkpt lat="45.76796" lon="4.64818">
        <ele>505</ele>
        <time>2022-11-15T08:00:13.642Z</time>
      </trkpt>
      <trkpt lat="45.76804" lon="4.64871">
        <ele>504.8</ele>
        <time>2022-11-15T08:00:18.736Z</time>
      </trkpt>
      <trkpt lat="45.76815" lon="4.64885">
        <ele>505.4</ele>
        <time>2022-11-15T08:00:22.154Z</time>
      </trkpt>
      <trkpt lat="45.76835" lon="4.64892">
        <ele>506.5</ele>
        <time>2022-11-15T08:00:27.515Z</time>
      </trkpt>
      <trkpt lat="45.76886" lon="4.64883">
        <ele>511.1</ele>
        <time>2022-11-15T08:00:45.164Z</time>
      </trkpt>
      <trkpt lat="45.76935" lon="4.64893">
        <ele>514.1</ele>
        <time>2022-11-15T08:00:58.703Z</time>
      </trkpt>
      <trkpt lat="45.76959" lon="4.64889">
        <ele>516</ele>
        <time>2022-11-15T08:01:06.274Z</time>
      </trkpt>
      <trkpt lat="45.76969" lon="4.64883">
        <ele>516.8</ele>
        <time>2022-11-15T08:01:09.543Z</time>
      </trkpt>
      <trkpt lat="45.76978" lon="4.64877">
        <ele>517.3</ele>
        <time>2022-11-15T08:01:12.075Z</time>
      </trkpt>
      <trkpt lat="45.76991" lon="4.64856">
        <ele>518.5</ele>
        <time>2022-11-15T08:01:17.458Z</time>
      </trkpt>
      <trkpt lat="45.77025" lon="4.64755">
        <ele>524.7</ele>
        <time>2022-11-15T08:01:42.091Z</time>
      </trkpt>
      <trkpt lat="45.77059" lon="4.64654">
        <ele>530.5</ele>
        <time>2022-11-15T08:02:05.743Z</time>
      </trkpt>
      <trkpt lat="45.77069" lon="4.64635">
        <ele>531.7</ele>
        <time>2022-11-15T08:02:10.692Z</time>
      </trkpt>
      <trkpt lat="45.77085" lon="4.64624">
        <ele>530.9</ele>
        <time>2022-11-15T08:02:12.232Z</time>
      </trkpt>
      <trkpt lat="45.77132" lon="4.64623">
        <ele>533.4</ele>
        <time>2022-11-15T08:02:24.451Z</time>
      </trkpt>
      <trkpt lat="45.77152" lon="4.64613">
        <ele>535.1</ele>
        <time>2022-11-15T08:02:31.176Z</time>
      </trkpt>
      <trkpt lat="45.7717" lon="4.64575">
        <ele>538.9</ele>
        <time>2022-11-15T08:02:45.989Z</time>
      </trkpt>
      <trkpt lat="45.77173" lon="4.64545">
        <ele>539.9</ele>
        <time>2022-11-15T08:02:51.277Z</time>
      </trkpt>
      <trkpt lat="45.7716" lon="4.64436">
        <ele>547</ele>
        <time>2022-11-15T08:03:18.375Z</time>
      </trkpt>
      <trkpt lat="45.77162" lon="4.64389">
        <ele>548.2</ele>
        <time>2022-11-15T08:03:25.561Z</time>
      </trkpt>
      <trkpt lat="45.77172" lon="4.64356">
        <ele>549.6</ele>
        <time>2022-11-15T08:03:32.201Z</time>
      </trkpt>
      <trkpt lat="45.77188" lon="4.64347">
        <ele>549.5</ele>
        <time>2022-11-15T08:03:34.498Z</time>
      </trkpt>
      <trkpt lat="45.77206" lon="4.64349">
        <ele>550.6</ele>
        <time>2022-11-15T08:03:39.447Z</time>
      </trkpt>
      <trkpt lat="45.77223" lon="4.64358">
        <ele>551.9</ele>
        <time>2022-11-15T08:03:44.826Z</time>
      </trkpt>
      <trkpt lat="45.77252" lon="4.64383">
        <ele>554.2</ele>
        <time>2022-11-15T08:03:54.588Z</time>
      </trkpt>
      <trkpt lat="45.77269" lon="4.64383">
        <ele>555.6</ele>
        <time>2022-11-15T08:04:00.079Z</time>
      </trkpt>
      <trkpt lat="45.77297" lon="4.64368">
        <ele>558</ele>
        <time>2022-11-15T08:04:09.572Z</time>
      </trkpt>
      <trkpt lat="45.77345" lon="4.64325">
        <ele>560.8</ele>
        <time>2022-11-15T08:04:23.928Z</time>
      </trkpt>
      <trkpt lat="45.77379" lon="4.64266">
        <ele>565.8</ele>
        <time>2022-11-15T08:04:42.960Z</time>
      </trkpt>
      <trkpt lat="45.77413" lon="4.64207">
        <ele>570.5</ele>
        <time>2022-11-15T08:05:01.059Z</time>
      </trkpt>
      <trkpt lat="45.77427" lon="4.64167">
        <ele>572.2</ele>
        <time>2022-11-15T08:05:09.244Z</time>
      </trkpt>
      <trkpt lat="45.77433" lon="4.64109">
        <ele>575.4</ele>
        <time>2022-11-15T08:05:22.017Z</time>
      </trkpt>
      <trkpt lat="45.77486" lon="4.64011">
        <ele>580.4</ele>
        <time>2022-11-15T08:05:45.219Z</time>
      </trkpt>
      <trkpt lat="45.7754" lon="4.63984">
        <ele>582.1</ele>
        <time>2022-11-15T08:05:56.659Z</time>
      </trkpt>
      <trkpt lat="45.77593" lon="4.63956">
        <ele>587.4</ele>
        <time>2022-11-15T08:06:16.828Z</time>
      </trkpt>
      <trkpt lat="45.77613" lon="4.63955">
        <ele>588.5</ele>
        <time>2022-11-15T08:06:22.093Z</time>
      </trkpt>
      <trkpt lat="45.77646" lon="4.63982">
        <ele>590.4</ele>
        <time>2022-11-15T08:06:31.765Z</time>
      </trkpt>
      <trkpt lat="45.7768" lon="4.63995">
        <ele>592.5</ele>
        <time>2022-11-15T08:06:41.327Z</time>
      </trkpt>
      <trkpt lat="45.77755" lon="4.63997">
        <ele>598.8</ele>
        <time>2022-11-15T08:07:05.890Z</time>
      </trkpt>
      <trkpt lat="45.77776" lon="4.63999">
        <ele>600.9</ele>
        <time>2022-11-15T08:07:13.840Z</time>
      </trkpt>
      <trkpt lat="45.77786" lon="4.63997">
        <ele>601.7</ele>
        <time>2022-11-15T08:07:17.019Z</time>
      </trkpt>
      <trkpt lat="45.77795" lon="4.6399">
        <ele>602.5</ele>
        <time>2022-11-15T08:07:20.214Z</time>
      </trkpt>
      <trkpt lat="45.77799" lon="4.63972">
        <ele>603</ele>
        <time>2022-11-15T08:07:23.154Z</time>
      </trkpt>
      <trkpt lat="45.77798" lon="4.63956">
        <ele>602.1</ele>
        <time>2022-11-15T08:07:24.042Z</time>
      </trkpt>
      <trkpt lat="45.7779" lon="4.63929">
        <ele>601</ele>
        <time>2022-11-15T08:07:25.688Z</time>
      </trkpt>
      <trkpt lat="45.77749" lon="4.63869">
        <ele>598.9</ele>
        <time>2022-11-15T08:07:31.238Z</time>
      </trkpt>
      <trkpt lat="45.77707" lon="4.63809">
        <ele>593.3</ele>
        <time>2022-11-15T08:07:35.937Z</time>
      </trkpt>
      <trkpt lat="45.77689" lon="4.63796">
        <ele>591.4</ele>
        <time>2022-11-15T08:07:37.534Z</time>
      </trkpt>
      <trkpt lat="45.7764" lon="4.63782">
        <ele>586.9</ele>
        <time>2022-11-15T08:07:41.494Z</time>
      </trkpt>
      <trkpt lat="45.77618" lon="4.63764">
        <ele>585.4</ele>
        <time>2022-11-15T08:07:43.443Z</time>
      </trkpt>
      <trkpt lat="45.77605" lon="4.63738">
        <ele>584.1</ele>
        <time>2022-11-15T08:07:45.173Z</time>
      </trkpt>
      <trkpt lat="45.77599" lon="4.63698">
        <ele>581.2</ele>
        <time>2022-11-15T08:07:47.434Z</time>
      </trkpt>
      <trkpt lat="45.77607" lon="4.6363">
        <ele>576.6</ele>
        <time>2022-11-15T08:07:51.246Z</time>
      </trkpt>
      <trkpt lat="45.77607" lon="4.63605">
        <ele>574.9</ele>
        <time>2022-11-15T08:07:52.628Z</time>
      </trkpt>
      <trkpt lat="45.77604" lon="4.6359">
        <ele>573.2</ele>
        <time>2022-11-15T08:07:53.491Z</time>
      </trkpt>
      <trkpt lat="45.77578" lon="4.63515">
        <ele>568.5</ele>
        <time>2022-11-15T08:07:58.120Z</time>
      </trkpt>
      <trkpt lat="45.77566" lon="4.63472">
        <ele>564.3</ele>
        <time>2022-11-15T08:08:00.680Z</time>
      </trkpt>
      <trkpt lat="45.77566" lon="4.63456">
        <ele>563</ele>
        <time>2022-11-15T08:08:01.565Z</time>
      </trkpt>
      <trkpt lat="45.7757" lon="4.6344">
        <ele>561.6</ele>
        <time>2022-11-15T08:08:02.504Z</time>
      </trkpt>
      <trkpt lat="45.77584" lon="4.63422">
        <ele>560.9</ele>
        <time>2022-11-15T08:08:04.262Z</time>
      </trkpt>
      <trkpt lat="45.77626" lon="4.63401">
        <ele>557.2</ele>
        <time>2022-11-15T08:08:07.787Z</time>
      </trkpt>
      <trkpt lat="45.77644" lon="4.63387">
        <ele>555.8</ele>
        <time>2022-11-15T08:08:09.410Z</time>
      </trkpt>
      <trkpt lat="45.77704" lon="4.63356">
        <ele>549.4</ele>
        <time>2022-11-15T08:08:14.464Z</time>
      </trkpt>
      <trkpt lat="45.77724" lon="4.63343">
        <ele>547.2</ele>
        <time>2022-11-15T08:08:16.205Z</time>
      </trkpt>
      <trkpt lat="45.77738" lon="4.63329">
        <ele>545.2</ele>
        <time>2022-11-15T08:08:17.557Z</time>
      </trkpt>
      <trkpt lat="45.77758" lon="4.63299">
        <ele>542.5</ele>
        <time>2022-11-15T08:08:19.851Z</time>
      </trkpt>
      <trkpt lat="45.77778" lon="4.63257">
        <ele>539.2</ele>
        <time>2022-11-15T08:08:22.662Z</time>
      </trkpt>
      <trkpt lat="45.77785" lon="4.63233">
        <ele>537.1</ele>
        <time>2022-11-15T08:08:24.100Z</time>
      </trkpt>
      <trkpt lat="45.77794" lon="4.63134">
        <ele>529.6</ele>
        <time>2022-11-15T08:08:29.618Z</time>
      </trkpt>
      <trkpt lat="45.77791" lon="4.631">
        <ele>528.4</ele>
        <time>2022-11-15T08:08:31.601Z</time>
      </trkpt>
      <trkpt lat="45.77781" lon="4.63052">
        <ele>525.3</ele>
        <time>2022-11-15T08:08:34.370Z</time>
      </trkpt>
      <trkpt lat="45.77765" lon="4.63001">
        <ele>522.3</ele>
        <time>2022-11-15T08:08:37.461Z</time>
      </trkpt>
      <trkpt lat="45.77747" lon="4.62958">
        <ele>519</ele>
        <time>2022-11-15T08:08:40.233Z</time>
      </trkpt>
      <trkpt lat="45.7772" lon="4.62908">
        <ele>516.1</ele>
        <time>2022-11-15T08:08:43.458Z</time>
      </trkpt>
      <trkpt lat="45.77711" lon="4.62887">
        <ele>515.4</ele>
        <time>2022-11-15T08:08:45.011Z</time>
      </trkpt>
      <trkpt lat="45.77707" lon="4.62867">
        <ele>514.1</ele>
        <time>2022-11-15T08:08:46.161Z</time>
      </trkpt>
      <trkpt lat="45.77706" lon="4.62848">
        <ele>513</ele>
        <time>2022-11-15T08:08:47.214Z</time>
      </trkpt>
      <trkpt lat="45.7771" lon="4.62824">
        <ele>511</ele>
        <time>2022-11-15T08:08:48.578Z</time>
      </trkpt>
      <trkpt lat="45.77716" lon="4.62805">
        <ele>509.1</ele>
        <time>2022-11-15T08:08:49.731Z</time>
      </trkpt>
      <trkpt lat="45.77737" lon="4.62772">
        <ele>506.8</ele>
        <time>2022-11-15T08:08:52.200Z</time>
      </trkpt>
      <trkpt lat="45.77751" lon="4.62758">
        <ele>505.3</ele>
        <time>2022-11-15T08:08:53.553Z</time>
      </trkpt>
      <trkpt lat="45.77767" lon="4.62746">
        <ele>503.8</ele>
        <time>2022-11-15T08:08:54.984Z</time>
      </trkpt>
      <trkpt lat="45.7778" lon="4.62741">
        <ele>502.4</ele>
        <time>2022-11-15T08:08:56.051Z</time>
      </trkpt>
      <trkpt lat="45.77797" lon="4.62743">
        <ele>499.9</ele>
        <time>2022-11-15T08:08:57.403Z</time>
      </trkpt>
      <trkpt lat="45.77816" lon="4.62751">
        <ele>496.7</ele>
        <time>2022-11-15T08:08:58.972Z</time>
      </trkpt>
      <trkpt lat="45.77856" lon="4.62763">
        <ele>492.8</ele>
        <time>2022-11-15T08:09:02.211Z</time>
      </trkpt>
      <trkpt lat="45.7787" lon="4.62764">
        <ele>491.7</ele>
        <time>2022-11-15T08:09:03.322Z</time>
      </trkpt>
      <trkpt lat="45.77916" lon="4.62758">
        <ele>489</ele>
        <time>2022-11-15T08:09:06.898Z</time>
      </trkpt>
      <trkpt lat="45.77939" lon="4.62759">
        <ele>486.3</ele>
        <time>2022-11-15T08:09:08.721Z</time>
      </trkpt>
      <trkpt lat="45.77957" lon="4.62751">
        <ele>485.1</ele>
        <time>2022-11-15T08:09:10.121Z</time>
      </trkpt>
      <trkpt lat="45.77993" lon="4.62727">
        <ele>481.5</ele>
        <time>2022-11-15T08:09:13.268Z</time>
      </trkpt>
      <trkpt lat="45.78025" lon="4.62694">
        <ele>478.7</ele>
        <time>2022-11-15T08:09:16.392Z</time>
      </trkpt>
      <trkpt lat="45.78052" lon="4.62646">
        <ele>476.7</ele>
        <time>2022-11-15T08:09:20.077Z</time>
      </trkpt>
      <trkpt lat="45.78116" lon="4.62592">
        <ele>468.3</ele>
        <time>2022-11-15T08:09:25.962Z</time>
      </trkpt>
      <trkpt lat="45.78164" lon="4.62548">
        <ele>461.4</ele>
        <time>2022-11-15T08:09:30.477Z</time>
      </trkpt>
      <trkpt lat="45.78178" lon="4.62531">
        <ele>459.7</ele>
        <time>2022-11-15T08:09:31.931Z</time>
      </trkpt>
      <trkpt lat="45.78187" lon="4.62512">
        <ele>458.7</ele>
        <time>2022-11-15T08:09:33.133Z</time>
      </trkpt>
      <trkpt lat="45.78202" lon="4.6244">
        <ele>456</ele>
        <time>2022-11-15T08:09:37.431Z</time>
      </trkpt>
      <trkpt lat="45.78255" lon="4.62381">
        <ele>450.6</ele>
        <time>2022-11-15T08:09:42.749Z</time>
      </trkpt>
      <trkpt lat="45.78274" lon="4.62347">
        <ele>449</ele>
        <time>2022-11-15T08:09:45.217Z</time>
      </trkpt>
      <trkpt lat="45.78304" lon="4.62282">
        <ele>443.5</ele>
        <time>2022-11-15T08:09:49.525Z</time>
      </trkpt>
      <trkpt lat="45.78326" lon="4.62243">
        <ele>440.6</ele>
        <time>2022-11-15T08:09:52.297Z</time>
      </trkpt>
      <trkpt lat="45.7838" lon="4.62185">
        <ele>433.6</ele>
        <time>2022-11-15T08:09:57.644Z</time>
      </trkpt>
      <trkpt lat="45.78434" lon="4.62127">
        <ele>428.7</ele>
        <time>2022-11-15T08:10:02.991Z</time>
      </trkpt>
      <trkpt lat="45.78474" lon="4.62072">
        <ele>424.7</ele>
        <time>2022-11-15T08:10:07.383Z</time>
      </trkpt>
      <trkpt lat="45.78495" lon="4.62016">
        <ele>420.4</ele>
        <time>2022-11-15T08:10:10.897Z</time>
      </trkpt>
      <trkpt lat="45.78519" lon="4.61923">
        <ele>414.5</ele>
        <time>2022-11-15T08:10:16.377Z</time>
      </trkpt>
      <trkpt lat="45.7852" lon="4.61907">
        <ele>413.7</ele>
        <time>2022-11-15T08:10:17.265Z</time>
      </trkpt>
      <trkpt lat="45.78518" lon="4.61896">
        <ele>413.3</ele>
        <time>2022-11-15T08:10:17.921Z</time>
      </trkpt>
      <trkpt lat="45.78532" lon="4.61866">
        <ele>411.8</ele>
        <time>2022-11-15T08:10:19.853Z</time>
      </trkpt>
      <trkpt lat="45.78552" lon="4.61778">
        <ele>406.8</ele>
        <time>2022-11-15T08:10:24.968Z</time>
      </trkpt>
      <trkpt lat="45.7856" lon="4.61719">
        <ele>405.2</ele>
        <time>2022-11-15T08:10:28.849Z</time>
      </trkpt>
      <trkpt lat="45.78558" lon="4.61673">
        <ele>404.3</ele>
        <time>2022-11-15T08:10:32.150Z</time>
      </trkpt>
      <trkpt lat="45.78549" lon="4.61646">
        <ele>403.6</ele>
        <time>2022-11-15T08:10:34.173Z</time>
      </trkpt>
      <trkpt lat="45.78522" lon="4.61588">
        <ele>402.6</ele>
        <time>2022-11-15T08:10:39.600Z</time>
      </trkpt>
      <trkpt lat="45.78518" lon="4.61561">
        <ele>403.3</ele>
        <time>2022-11-15T08:10:43.802Z</time>
      </trkpt>
      <trkpt lat="45.78521" lon="4.61532">
        <ele>403.2</ele>
        <time>2022-11-15T08:10:46.570Z</time>
      </trkpt>
      <trkpt lat="45.78536" lon="4.61506">
        <ele>402</ele>
        <time>2022-11-15T08:10:48.509Z</time>
      </trkpt>
      <trkpt lat="45.78595" lon="4.61432">
        <ele>398.7</ele>
        <time>2022-11-15T08:10:55.502Z</time>
      </trkpt>
      <trkpt lat="45.78637" lon="4.61368">
        <ele>394.7</ele>
        <time>2022-11-15T08:10:59.999Z</time>
      </trkpt>
      <trkpt lat="45.78659" lon="4.61338">
        <ele>392.2</ele>
        <time>2022-11-15T08:11:02.405Z</time>
      </trkpt>
      <trkpt lat="45.78682" lon="4.61319">
        <ele>391.2</ele>
        <time>2022-11-15T08:11:04.875Z</time>
      </trkpt>
      <trkpt lat="45.78742" lon="4.61297">
        <ele>389.9</ele>
        <time>2022-11-15T08:11:11.752Z</time>
      </trkpt>
      <trkpt lat="45.78802" lon="4.61274">
        <ele>388.7</ele>
        <time>2022-11-15T08:11:18.785Z</time>
      </trkpt>
      <trkpt lat="45.78804" lon="4.61271">
        <ele>388.5</ele>
        <time>2022-11-15T08:11:19.014Z</time>
      </trkpt>
      <trkpt lat="45.78807" lon="4.61272">
        <ele>388.6</ele>
        <time>2022-11-15T08:11:19.652Z</time>
      </trkpt>
      <trkpt lat="45.7888" lon="4.61248">
        <ele>389.5</ele>
        <time>2022-11-15T08:11:31.903Z</time>
      </trkpt>
      <trkpt lat="45.78952" lon="4.61223">
        <ele>390</ele>
        <time>2022-11-15T08:11:43.397Z</time>
      </trkpt>
      <trkpt lat="45.79032" lon="4.61205">
        <ele>390.9</ele>
        <time>2022-11-15T08:11:56.521Z</time>
      </trkpt>
      <trkpt lat="45.79105" lon="4.61177">
        <ele>391.7</ele>
        <time>2022-11-15T08:12:08.702Z</time>
      </trkpt>
      <trkpt lat="45.79168" lon="4.6115">
        <ele>389.8</ele>
        <time>2022-11-15T08:12:15.390Z</time>
      </trkpt>
      <trkpt lat="45.7923" lon="4.61122">
        <ele>385.3</ele>
        <time>2022-11-15T08:12:20.542Z</time>
      </trkpt>
      <trkpt lat="45.79277" lon="4.6111">
        <ele>381.9</ele>
        <time>2022-11-15T08:12:24.325Z</time>
      </trkpt>
      <trkpt lat="45.79325" lon="4.61098">
        <ele>378.9</ele>
        <time>2022-11-15T08:12:28.005Z</time>
      </trkpt>
      <trkpt lat="45.79384" lon="4.61092">
        <ele>374.6</ele>
        <time>2022-11-15T08:12:32.693Z</time>
      </trkpt>
      <trkpt lat="45.79442" lon="4.61086">
        <ele>370.6</ele>
        <time>2022-11-15T08:12:37.301Z</time>
      </trkpt>
      <trkpt lat="45.79517" lon="4.61081">
        <ele>365</ele>
        <time>2022-11-15T08:12:43.251Z</time>
      </trkpt>
      <trkpt lat="45.79532" lon="4.61076">
        <ele>363.5</ele>
        <time>2022-11-15T08:12:44.472Z</time>
      </trkpt>
      <trkpt lat="45.79583" lon="4.61052">
        <ele>358.8</ele>
        <time>2022-11-15T08:12:48.726Z</time>
      </trkpt>
      <trkpt lat="45.79633" lon="4.61027">
        <ele>356.2</ele>
        <time>2022-11-15T08:12:53.161Z</time>
      </trkpt>
      <trkpt lat="45.79685" lon="4.6101">
        <ele>354.7</ele>
        <time>2022-11-15T08:12:58.631Z</time>
      </trkpt>
      <trkpt lat="45.79738" lon="4.60993">
        <ele>350</ele>
        <time>2022-11-15T08:13:02.935Z</time>
      </trkpt>
      <trkpt lat="45.79813" lon="4.60967">
        <ele>345.5</ele>
        <time>2022-11-15T08:13:08.915Z</time>
      </trkpt>
      <trkpt lat="45.79839" lon="4.60949">
        <ele>343.2</ele>
        <time>2022-11-15T08:13:11.203Z</time>
      </trkpt>
      <trkpt lat="45.79853" lon="4.60939">
        <ele>342.7</ele>
        <time>2022-11-15T08:13:12.744Z</time>
      </trkpt>
      <trkpt lat="45.79911" lon="4.60891">
        <ele>338.1</ele>
        <time>2022-11-15T08:13:18.051Z</time>
      </trkpt>
      <trkpt lat="45.79985" lon="4.60826">
        <ele>332.2</ele>
        <time>2022-11-15T08:13:24.928Z</time>
      </trkpt>
      <trkpt lat="45.80009" lon="4.6078">
        <ele>328.2</ele>
        <time>2022-11-15T08:13:28.102Z</time>
      </trkpt>
      <trkpt lat="45.80054" lon="4.60706">
        <ele>323.1</ele>
        <time>2022-11-15T08:13:33.528Z</time>
      </trkpt>
      <trkpt lat="45.80072" lon="4.60681">
        <ele>321.7</ele>
        <time>2022-11-15T08:13:35.509Z</time>
      </trkpt>
      <trkpt lat="45.80085" lon="4.60668">
        <ele>321.1</ele>
        <time>2022-11-15T08:13:36.981Z</time>
      </trkpt>
      <trkpt lat="45.80111" lon="4.60646">
        <ele>319.5</ele>
        <time>2022-11-15T08:13:39.425Z</time>
      </trkpt>
      <trkpt lat="45.80182" lon="4.60595">
        <ele>312.9</ele>
        <time>2022-11-15T08:13:45.718Z</time>
      </trkpt>
      <trkpt lat="45.80231" lon="4.60534">
        <ele>308.8</ele>
        <time>2022-11-15T08:13:50.556Z</time>
      </trkpt>
      <trkpt lat="45.80306" lon="4.60473">
        <ele>303.1</ele>
        <time>2022-11-15T08:13:56.842Z</time>
      </trkpt>
      <trkpt lat="45.80343" lon="4.60451">
        <ele>300.2</ele>
        <time>2022-11-15T08:14:00.017Z</time>
      </trkpt>
      <trkpt lat="45.80368" lon="4.6045">
        <ele>298.8</ele>
        <time>2022-11-15T08:14:01.992Z</time>
      </trkpt>
      <trkpt lat="45.80392" lon="4.60457">
        <ele>297.3</ele>
        <time>2022-11-15T08:14:03.847Z</time>
      </trkpt>
      <trkpt lat="45.80426" lon="4.6046">
        <ele>294.5</ele>
        <time>2022-11-15T08:14:06.546Z</time>
      </trkpt>
      <trkpt lat="45.80481" lon="4.6045">
        <ele>291.5</ele>
        <time>2022-11-15T08:14:10.995Z</time>
      </trkpt>
      <trkpt lat="45.80552" lon="4.60419">
        <ele>285.4</ele>
        <time>2022-11-15T08:14:16.877Z</time>
      </trkpt>
      <trkpt lat="45.80594" lon="4.60395">
        <ele>282</ele>
        <time>2022-11-15T08:14:20.459Z</time>
      </trkpt>
      <trkpt lat="45.80658" lon="4.60324">
        <ele>276.5</ele>
        <time>2022-11-15T08:14:26.871Z</time>
      </trkpt>
      <trkpt lat="45.80688" lon="4.60301">
        <ele>273.2</ele>
        <time>2022-11-15T08:14:29.567Z</time>
      </trkpt>
      <trkpt lat="45.80752" lon="4.60287">
        <ele>270.3</ele>
        <time>2022-11-15T08:14:35.201Z</time>
      </trkpt>
      <trkpt lat="45.80816" lon="4.60273">
        <ele>265.2</ele>
        <time>2022-11-15T08:14:40.332Z</time>
      </trkpt>
      <trkpt lat="45.80884" lon="4.60234">
        <ele>260.3</ele>
        <time>2022-11-15T08:14:46.136Z</time>
      </trkpt>
      <trkpt lat="45.80946" lon="4.60196">
        <ele>255.4</ele>
        <time>2022-11-15T08:14:51.479Z</time>
      </trkpt>
      <trkpt lat="45.81004" lon="4.60168">
        <ele>250.1</ele>
        <time>2022-11-15T08:14:56.329Z</time>
      </trkpt>
      <trkpt lat="45.81031" lon="4.60162">
        <ele>248.4</ele>
        <time>2022-11-15T08:14:58.382Z</time>
      </trkpt>
      <trkpt lat="45.81048" lon="4.60153">
        <ele>246.6</ele>
        <time>2022-11-15T08:14:59.818Z</time>
      </trkpt>
      <trkpt lat="45.81066" lon="4.60152">
        <ele>245.6</ele>
        <time>2022-11-15T08:15:01.247Z</time>
      </trkpt>
      <trkpt lat="45.81065" lon="4.60124">
        <ele>244.1</ele>
        <time>2022-11-15T08:15:02.796Z</time>
      </trkpt>
      <trkpt lat="45.81069" lon="4.60116">
        <ele>243.7</ele>
        <time>2022-11-15T08:15:03.328Z</time>
      </trkpt>
      <trkpt lat="45.81074" lon="4.60107">
        <ele>243.3</ele>
        <time>2022-11-15T08:15:03.995Z</time>
      </trkpt>
      <trkpt lat="45.81089" lon="4.60093">
        <ele>242.1</ele>
        <time>2022-11-15T08:15:05.413Z</time>
      </trkpt>
      <trkpt lat="45.8111" lon="4.60055">
        <ele>241</ele>
        <time>2022-11-15T08:15:08.724Z</time>
      </trkpt>
      <trkpt lat="45.81116" lon="4.60019">
        <ele>239.6</ele>
        <time>2022-11-15T08:15:10.791Z</time>
      </trkpt>
      <trkpt lat="45.81117" lon="4.5997">
        <ele>240.2</ele>
        <time>2022-11-15T08:15:16.718Z</time>
      </trkpt>
      <trkpt lat="45.81104" lon="4.5997">
        <ele>240</ele>
        <time>2022-11-15T08:15:18.262Z</time>
      </trkpt>
      <trkpt lat="45.81034" lon="4.5998">
        <ele>239.9</ele>
        <time>2022-11-15T08:15:28.284Z</time>
      </trkpt>
      <trkpt lat="45.80964" lon="4.59989">
        <ele>238.8</ele>
        <time>2022-11-15T08:15:36.603Z</time>
      </trkpt>
      <trkpt lat="45.80954" lon="4.59989">
        <ele>238.8</ele>
        <time>2022-11-15T08:15:38.059Z</time>
      </trkpt>
      <trkpt lat="45.8092" lon="4.59981">
        <ele>240</ele>
        <time>2022-11-15T08:15:45.424Z</time>
      </trkpt>
      <trkpt lat="45.80868" lon="4.59965">
        <ele>239.3</ele>
        <time>2022-11-15T08:15:51.919Z</time>
      </trkpt>
      <trkpt lat="45.8082" lon="4.59937">
        <ele>239.9</ele>
        <time>2022-11-15T08:16:00.357Z</time>
      </trkpt>
      <trkpt lat="45.80767" lon="4.59897">
        <ele>240.6</ele>
        <time>2022-11-15T08:16:10.120Z</time>
      </trkpt>
      <trkpt lat="45.80713" lon="4.59858">
        <ele>241.4</ele>
        <time>2022-11-15T08:16:20.134Z</time>
      </trkpt>
      <trkpt lat="45.8066" lon="4.59818">
        <ele>241.3</ele>
        <time>2022-11-15T08:16:28.634Z</time>
      </trkpt>
      <trkpt lat="45.80621" lon="4.59776">
        <ele>241.8</ele>
        <time>2022-11-15T08:16:36.469Z</time>
      </trkpt>
      <trkpt lat="45.80581" lon="4.59734">
        <ele>242.2</ele>
        <time>2022-11-15T08:16:44.260Z</time>
      </trkpt>
      <trkpt lat="45.80569" lon="4.59709">
        <ele>242</ele>
        <time>2022-11-15T08:16:46.973Z</time>
      </trkpt>
      <trkpt lat="45.80563" lon="4.59689">
        <ele>241.8</ele>
        <time>2022-11-15T08:16:48.826Z</time>
      </trkpt>
      <trkpt lat="45.80561" lon="4.59664">
        <ele>243</ele>
        <time>2022-11-15T08:16:53.903Z</time>
      </trkpt>
      <trkpt lat="45.80565" lon="4.59598">
        <ele>242.7</ele>
        <time>2022-11-15T08:17:00.017Z</time>
      </trkpt>
      <trkpt lat="45.80569" lon="4.59532">
        <ele>245.1</ele>
        <time>2022-11-15T08:17:11.926Z</time>
      </trkpt>
      <trkpt lat="45.80567" lon="4.59495">
        <ele>252.2</ele>
        <time>2022-11-15T08:17:26.451Z</time>
      </trkpt>
      <trkpt lat="45.80553" lon="4.5945">
        <ele>252.2</ele>
        <time>2022-11-15T08:17:31.451Z</time>
      </trkpt>
      <trkpt lat="45.80538" lon="4.59425">
        <ele>254.4</ele>
        <time>2022-11-15T08:17:39.804Z</time>
      </trkpt>
      <trkpt lat="45.80503" lon="4.59381">
        <ele>254.7</ele>
        <time>2022-11-15T08:17:47.003Z</time>
      </trkpt>
      <trkpt lat="45.80467" lon="4.59338">
        <ele>255.9</ele>
        <time>2022-11-15T08:17:55.913Z</time>
      </trkpt>
      <trkpt lat="45.80458" lon="4.59324">
        <ele>255.7</ele>
        <time>2022-11-15T08:17:57.496Z</time>
      </trkpt>
      <trkpt lat="45.80442" lon="4.59283">
        <ele>255.5</ele>
        <time>2022-11-15T08:18:01.856Z</time>
      </trkpt>
      <trkpt lat="45.80429" lon="4.59255">
        <ele>255.4</ele>
        <time>2022-11-15T08:18:05.060Z</time>
      </trkpt>
      <trkpt lat="45.80391" lon="4.59197">
        <ele>255.8</ele>
        <time>2022-11-15T08:18:13.708Z</time>
      </trkpt>
      <trkpt lat="45.80364" lon="4.59162">
        <ele>255.3</ele>
        <time>2022-11-15T08:18:18.120Z</time>
      </trkpt>
      <trkpt lat="45.80347" lon="4.59145">
        <ele>255.9</ele>
        <time>2022-11-15T08:18:22.226Z</time>
      </trkpt>
      <trkpt lat="45.80324" lon="4.59128">
        <ele>256.6</ele>
        <time>2022-11-15T08:18:27.233Z</time>
      </trkpt>
      <trkpt lat="45.80287" lon="4.59107">
        <ele>256.5</ele>
        <time>2022-11-15T08:18:32.810Z</time>
      </trkpt>
      <trkpt lat="45.80242" lon="4.59086">
        <ele>255.9</ele>
        <time>2022-11-15T08:18:38.626Z</time>
      </trkpt>
      <trkpt lat="45.80197" lon="4.59065">
        <ele>255.4</ele>
        <time>2022-11-15T08:18:44.603Z</time>
      </trkpt>
      <trkpt lat="45.80156" lon="4.59054">
        <ele>254.3</ele>
        <time>2022-11-15T08:18:48.963Z</time>
      </trkpt>
      <trkpt lat="45.8011" lon="4.59055">
        <ele>254.1</ele>
        <time>2022-11-15T08:18:55.242Z</time>
      </trkpt>
      <trkpt lat="45.80086" lon="4.59053">
        <ele>254.5</ele>
        <time>2022-11-15T08:18:59.370Z</time>
      </trkpt>
      <trkpt lat="45.80051" lon="4.59041">
        <ele>255</ele>
        <time>2022-11-15T08:19:05.373Z</time>
      </trkpt>
      <trkpt lat="45.80033" lon="4.5903">
        <ele>254.3</ele>
        <time>2022-11-15T08:19:07.227Z</time>
      </trkpt>
      <trkpt lat="45.79962" lon="4.5897">
        <ele>253.7</ele>
        <time>2022-11-15T08:19:18.108Z</time>
      </trkpt>
      <trkpt lat="45.7989" lon="4.58911">
        <ele>253</ele>
        <time>2022-11-15T08:19:28.884Z</time>
      </trkpt>
      <trkpt lat="45.79819" lon="4.58851">
        <ele>254.8</ele>
        <time>2022-11-15T08:19:43.880Z</time>
      </trkpt>
      <trkpt lat="45.79771" lon="4.58935">
        <ele>251.3</ele>
        <time>2022-11-15T08:19:50.385Z</time>
      </trkpt>
      <trkpt lat="45.79723" lon="4.5902">
        <ele>251.9</ele>
        <time>2022-11-15T08:20:02.349Z</time>
      </trkpt>
      <trkpt lat="45.79676" lon="4.59104">
        <ele>254.1</ele>
        <time>2022-11-15T08:20:17.289Z</time>
      </trkpt>
      <trkpt lat="45.79628" lon="4.59189">
        <ele>257.7</ele>
        <time>2022-11-15T08:20:36.351Z</time>
      </trkpt>
      <trkpt lat="45.7958" lon="4.59273">
        <ele>259.6</ele>
        <time>2022-11-15T08:20:50.663Z</time>
      </trkpt>
      <trkpt lat="45.79522" lon="4.59369">
        <ele>264.8</ele>
        <time>2022-11-15T08:21:14.571Z</time>
      </trkpt>
      <trkpt lat="45.79487" lon="4.59418">
        <ele>267.1</ele>
        <time>2022-11-15T08:21:26.782Z</time>
      </trkpt>
      <trkpt lat="45.79451" lon="4.59467">
        <ele>270.9</ele>
        <time>2022-11-15T08:21:42.076Z</time>
      </trkpt>
      <trkpt lat="45.7942" lon="4.59504">
        <ele>271.6</ele>
        <time>2022-11-15T08:21:49.057Z</time>
      </trkpt>
      <trkpt lat="45.79401" lon="4.59521">
        <ele>273</ele>
        <time>2022-11-15T08:21:55.266Z</time>
      </trkpt>
      <trkpt lat="45.79386" lon="4.5954">
        <ele>274.6</ele>
        <time>2022-11-15T08:22:01.604Z</time>
      </trkpt>
      <trkpt lat="45.79364" lon="4.5958">
        <ele>276.4</ele>
        <time>2022-11-15T08:22:10.685Z</time>
      </trkpt>
      <trkpt lat="45.79343" lon="4.59629">
        <ele>278.5</ele>
        <time>2022-11-15T08:22:21.053Z</time>
      </trkpt>
      <trkpt lat="45.7933" lon="4.59651">
        <ele>279.8</ele>
        <time>2022-11-15T08:22:26.715Z</time>
      </trkpt>
      <trkpt lat="45.79292" lon="4.59694">
        <ele>282</ele>
        <time>2022-11-15T08:22:38.678Z</time>
      </trkpt>
      <trkpt lat="45.79254" lon="4.59737">
        <ele>285.7</ele>
        <time>2022-11-15T08:22:53.580Z</time>
      </trkpt>
      <trkpt lat="45.79199" lon="4.59763">
        <ele>287.6</ele>
        <time>2022-11-15T08:23:05.632Z</time>
      </trkpt>
      <trkpt lat="45.79185" lon="4.59772">
        <ele>287.1</ele>
        <time>2022-11-15T08:23:07.133Z</time>
      </trkpt>
      <trkpt lat="45.79161" lon="4.59804">
        <ele>289.1</ele>
        <time>2022-11-15T08:23:16.124Z</time>
      </trkpt>
      <trkpt lat="45.79109" lon="4.59887">
        <ele>291.2</ele>
        <time>2022-11-15T08:23:31.169Z</time>
      </trkpt>
      <trkpt lat="45.79095" lon="4.59918">
        <ele>293.9</ele>
        <time>2022-11-15T08:23:41.401Z</time>
      </trkpt>
      <trkpt lat="45.79059" lon="4.60013">
        <ele>295.4</ele>
        <time>2022-11-15T08:23:54.821Z</time>
      </trkpt>
      <trkpt lat="45.79038" lon="4.601">
        <ele>301.2</ele>
        <time>2022-11-15T08:24:17.033Z</time>
      </trkpt>
      <trkpt lat="45.78981" lon="4.6019">
        <ele>306.3</ele>
        <time>2022-11-15T08:24:40.150Z</time>
      </trkpt>
      <trkpt lat="45.78946" lon="4.60231">
        <ele>307.3</ele>
        <time>2022-11-15T08:24:48.401Z</time>
      </trkpt>
      <trkpt lat="45.78916" lon="4.60276">
        <ele>308.6</ele>
        <time>2022-11-15T08:24:57.108Z</time>
      </trkpt>
      <trkpt lat="45.78907" lon="4.60285">
        <ele>309.2</ele>
        <time>2022-11-15T08:24:59.990Z</time>
      </trkpt>
      <trkpt lat="45.7888" lon="4.60305">
        <ele>307.6</ele>
        <time>2022-11-15T08:25:02.458Z</time>
      </trkpt>
      <trkpt lat="45.78865" lon="4.6031">
        <ele>307.5</ele>
        <time>2022-11-15T08:25:04.497Z</time>
      </trkpt>
      <trkpt lat="45.7885" lon="4.60309">
        <ele>309.4</ele>
        <time>2022-11-15T08:25:12.163Z</time>
      </trkpt>
      <trkpt lat="45.78819" lon="4.603">
        <ele>315.4</ele>
        <time>2022-11-15T08:25:29.922Z</time>
      </trkpt>
      <trkpt lat="45.78778" lon="4.60283">
        <ele>319.8</ele>
        <time>2022-11-15T08:25:46.580Z</time>
      </trkpt>
      <trkpt lat="45.78755" lon="4.60266">
        <ele>319.6</ele>
        <time>2022-11-15T08:25:49.975Z</time>
      </trkpt>
      <trkpt lat="45.78729" lon="4.60262">
        <ele>320.6</ele>
        <time>2022-11-15T08:25:55.834Z</time>
      </trkpt>
      <trkpt lat="45.78702" lon="4.6028">
        <ele>324.2</ele>
        <time>2022-11-15T08:26:09.989Z</time>
      </trkpt>
      <trkpt lat="45.78654" lon="4.6029">
        <ele>325.8</ele>
        <time>2022-11-15T08:26:20.106Z</time>
      </trkpt>
      <trkpt lat="45.78606" lon="4.60299">
        <ele>329</ele>
        <time>2022-11-15T08:26:33.881Z</time>
      </trkpt>
      <trkpt lat="45.78523" lon="4.60329">
        <ele>334.1</ele>
        <time>2022-11-15T08:26:57.128Z</time>
      </trkpt>
      <trkpt lat="45.78489" lon="4.60345">
        <ele>337.8</ele>
        <time>2022-11-15T08:27:11.137Z</time>
      </trkpt>
      <trkpt lat="45.78438" lon="4.60374">
        <ele>342.1</ele>
        <time>2022-11-15T08:27:28.291Z</time>
      </trkpt>
      <trkpt lat="45.78387" lon="4.60403">
        <ele>345.5</ele>
        <time>2022-11-15T08:27:43.444Z</time>
      </trkpt>
      <trkpt lat="45.78325" lon="4.60412">
        <ele>348.3</ele>
        <time>2022-11-15T08:27:58.796Z</time>
      </trkpt>
      <trkpt lat="45.78277" lon="4.60405">
        <ele>351.1</ele>
        <time>2022-11-15T08:28:11.759Z</time>
      </trkpt>
      <trkpt lat="45.7823" lon="4.60399">
        <ele>354</ele>
        <time>2022-11-15T08:28:24.744Z</time>
      </trkpt>
      <trkpt lat="45.78187" lon="4.60409">
        <ele>356.2</ele>
        <time>2022-11-15T08:28:35.868Z</time>
      </trkpt>
      <trkpt lat="45.78136" lon="4.60444">
        <ele>360</ele>
        <time>2022-11-15T08:28:52.088Z</time>
      </trkpt>
      <trkpt lat="45.78084" lon="4.60478">
        <ele>363.1</ele>
        <time>2022-11-15T08:29:07.051Z</time>
      </trkpt>
      <trkpt lat="45.7806" lon="4.60487">
        <ele>365.5</ele>
        <time>2022-11-15T08:29:16.153Z</time>
      </trkpt>
      <trkpt lat="45.7802" lon="4.60496">
        <ele>370.9</ele>
        <time>2022-11-15T08:29:38.865Z</time>
      </trkpt>
      <trkpt lat="45.77959" lon="4.60492">
        <ele>373.5</ele>
        <time>2022-11-15T08:29:53.437Z</time>
      </trkpt>
      <trkpt lat="45.77919" lon="4.60518">
        <ele>371.7</ele>
        <time>2022-11-15T08:29:57.396Z</time>
      </trkpt>
      <trkpt lat="45.77878" lon="4.60561">
        <ele>372.2</ele>
        <time>2022-11-15T08:30:05.523Z</time>
      </trkpt>
      <trkpt lat="45.77863" lon="4.60571">
        <ele>372.9</ele>
        <time>2022-11-15T08:30:09.455Z</time>
      </trkpt>
      <trkpt lat="45.77847" lon="4.60571">
        <ele>373.7</ele>
        <time>2022-11-15T08:30:13.528Z</time>
      </trkpt>
      <trkpt lat="45.77837" lon="4.60567">
        <ele>374.1</ele>
        <time>2022-11-15T08:30:15.863Z</time>
      </trkpt>
      <trkpt lat="45.77827" lon="4.60558">
        <ele>375.6</ele>
        <time>2022-11-15T08:30:21.932Z</time>
      </trkpt>
      <trkpt lat="45.77803" lon="4.60523">
        <ele>381.4</ele>
        <time>2022-11-15T08:30:41.152Z</time>
      </trkpt>
      <trkpt lat="45.77776" lon="4.60472">
        <ele>380.4</ele>
        <time>2022-11-15T08:30:46.032Z</time>
      </trkpt>
      <trkpt lat="45.77756" lon="4.60448">
        <ele>381.5</ele>
        <time>2022-11-15T08:30:52.218Z</time>
      </trkpt>
      <trkpt lat="45.77719" lon="4.60423">
        <ele>382.4</ele>
        <time>2022-11-15T08:30:59.675Z</time>
      </trkpt>
      <trkpt lat="45.77681" lon="4.60419">
        <ele>384.9</ele>
        <time>2022-11-15T08:31:10.479Z</time>
      </trkpt>
      <trkpt lat="45.77635" lon="4.60418">
        <ele>388.3</ele>
        <time>2022-11-15T08:31:24.363Z</time>
      </trkpt>
      <trkpt lat="45.77588" lon="4.60417">
        <ele>389.9</ele>
        <time>2022-11-15T08:31:34.305Z</time>
      </trkpt>
      <trkpt lat="45.77528" lon="4.60428">
        <ele>393.8</ele>
        <time>2022-11-15T08:31:51.315Z</time>
      </trkpt>
      <trkpt lat="45.7746" lon="4.60439">
        <ele>398</ele>
        <time>2022-11-15T08:32:10.135Z</time>
      </trkpt>
      <trkpt lat="45.77392" lon="4.60449">
        <ele>402.1</ele>
        <time>2022-11-15T08:32:28.751Z</time>
      </trkpt>
      <trkpt lat="45.77369" lon="4.60451">
        <ele>403.7</ele>
        <time>2022-11-15T08:32:35.472Z</time>
      </trkpt>
      <trkpt lat="45.77333" lon="4.60452">
        <ele>406.3</ele>
        <time>2022-11-15T08:32:46.198Z</time>
      </trkpt>
      <trkpt lat="45.77317" lon="4.60454">
        <ele>407.9</ele>
        <time>2022-11-15T08:32:52.255Z</time>
      </trkpt>
      <trkpt lat="45.7731" lon="4.6046">
        <ele>408.6</ele>
        <time>2022-11-15T08:32:54.968Z</time>
      </trkpt>
      <trkpt lat="45.77301" lon="4.60475">
        <ele>409.8</ele>
        <time>2022-11-15T08:32:59.603Z</time>
      </trkpt>
      <trkpt lat="45.77278" lon="4.60493">
        <ele>412.7</ele>
        <time>2022-11-15T08:33:10.673Z</time>
      </trkpt>
      <trkpt lat="45.77274" lon="4.60505">
        <ele>413.8</ele>
        <time>2022-11-15T08:33:14.961Z</time>
      </trkpt>
      <trkpt lat="45.77275" lon="4.60521">
        <ele>414.7</ele>
        <time>2022-11-15T08:33:18.520Z</time>
      </trkpt>
      <trkpt lat="45.77284" lon="4.60529">
        <ele>415.5</ele>
        <time>2022-11-15T08:33:21.757Z</time>
      </trkpt>
      <trkpt lat="45.77317" lon="4.60528">
        <ele>416</ele>
        <time>2022-11-15T08:33:27.336Z</time>
      </trkpt>
      <trkpt lat="45.77335" lon="4.60534">
        <ele>417.3</ele>
        <time>2022-11-15T08:33:32.763Z</time>
      </trkpt>
      <trkpt lat="45.77419" lon="4.60574">
        <ele>423.2</ele>
        <time>2022-11-15T08:33:58.052Z</time>
      </trkpt>
      <trkpt lat="45.77503" lon="4.60614">
        <ele>429.3</ele>
        <time>2022-11-15T08:34:23.769Z</time>
      </trkpt>
      <trkpt lat="45.77524" lon="4.60626">
        <ele>430.3</ele>
        <time>2022-11-15T08:34:29.301Z</time>
      </trkpt>
      <trkpt lat="45.77541" lon="4.60645">
        <ele>431.7</ele>
        <time>2022-11-15T08:34:35.383Z</time>
      </trkpt>
      <trkpt lat="45.77548" lon="4.60661">
        <ele>432.9</ele>
        <time>2022-11-15T08:34:39.972Z</time>
      </trkpt>
      <trkpt lat="45.77551" lon="4.60702">
        <ele>434.9</ele>
        <time>2022-11-15T08:34:48.366Z</time>
      </trkpt>
      <trkpt lat="45.77545" lon="4.60735">
        <ele>436.7</ele>
        <time>2022-11-15T08:34:55.645Z</time>
      </trkpt>
      <trkpt lat="45.77528" lon="4.60797">
        <ele>440.3</ele>
        <time>2022-11-15T08:35:10.068Z</time>
      </trkpt>
      <trkpt lat="45.77507" lon="4.60826">
        <ele>442.1</ele>
        <time>2022-11-15T08:35:18.108Z</time>
      </trkpt>
      <trkpt lat="45.77474" lon="4.60843">
        <ele>444.1</ele>
        <time>2022-11-15T08:35:27.464Z</time>
      </trkpt>
      <trkpt lat="45.7744" lon="4.60839">
        <ele>447.9</ele>
        <time>2022-11-15T08:35:41.990Z</time>
      </trkpt>
      <trkpt lat="45.77392" lon="4.60823">
        <ele>452.2</ele>
        <time>2022-11-15T08:35:58.584Z</time>
      </trkpt>
      <trkpt lat="45.7736" lon="4.60805">
        <ele>455.1</ele>
        <time>2022-11-15T08:36:09.876Z</time>
      </trkpt>
      <trkpt lat="45.77312" lon="4.60771">
        <ele>459.1</ele>
        <time>2022-11-15T08:36:26.136Z</time>
      </trkpt>
      <trkpt lat="45.7726" lon="4.60777">
        <ele>459</ele>
        <time>2022-11-15T08:36:33.513Z</time>
      </trkpt>
      <trkpt lat="45.77213" lon="4.60788">
        <ele>459.6</ele>
        <time>2022-11-15T08:36:41.350Z</time>
      </trkpt>
      <trkpt lat="45.77177" lon="4.60789">
        <ele>461.1</ele>
        <time>2022-11-15T08:36:49.825Z</time>
      </trkpt>
      <trkpt lat="45.77156" lon="4.60787">
        <ele>462.2</ele>
        <time>2022-11-15T08:36:55.263Z</time>
      </trkpt>
      <trkpt lat="45.77103" lon="4.60768">
        <ele>465</ele>
        <time>2022-11-15T08:37:09.284Z</time>
      </trkpt>
      <trkpt lat="45.7705" lon="4.6075">
        <ele>469.6</ele>
        <time>2022-11-15T08:37:27.189Z</time>
      </trkpt>
      <trkpt lat="45.77043" lon="4.60752">
        <ele>470.4</ele>
        <time>2022-11-15T08:37:30.252Z</time>
      </trkpt>
      <trkpt lat="45.77025" lon="4.60712">
        <ele>470.8</ele>
        <time>2022-11-15T08:37:35.685Z</time>
      </trkpt>
      <trkpt lat="45.77007" lon="4.60677">
        <ele>472.1</ele>
        <time>2022-11-15T08:37:42.953Z</time>
      </trkpt>
      <trkpt lat="45.76984" lon="4.60645">
        <ele>473.3</ele>
        <time>2022-11-15T08:37:50.054Z</time>
      </trkpt>
      <trkpt lat="45.76935" lon="4.60596">
        <ele>473.9</ele>
        <time>2022-11-15T08:37:59.632Z</time>
      </trkpt>
      <trkpt lat="45.769" lon="4.60571">
        <ele>475.5</ele>
        <time>2022-11-15T08:38:08.736Z</time>
      </trkpt>
      <trkpt lat="45.76867" lon="4.60553">
        <ele>478.2</ele>
        <time>2022-11-15T08:38:19.609Z</time>
      </trkpt>
      <trkpt lat="45.76841" lon="4.60519">
        <ele>480.1</ele>
        <time>2022-11-15T08:38:28.807Z</time>
      </trkpt>
      <trkpt lat="45.76821" lon="4.60477">
        <ele>480.7</ele>
        <time>2022-11-15T08:38:34.917Z</time>
      </trkpt>
      <trkpt lat="45.76791" lon="4.60434">
        <ele>481.7</ele>
        <time>2022-11-15T08:38:42.793Z</time>
      </trkpt>
      <trkpt lat="45.76764" lon="4.60408">
        <ele>482.1</ele>
        <time>2022-11-15T08:38:48.129Z</time>
      </trkpt>
      <trkpt lat="45.76732" lon="4.60381">
        <ele>482.6</ele>
        <time>2022-11-15T08:38:54.294Z</time>
      </trkpt>
      <trkpt lat="45.76717" lon="4.60363">
        <ele>482.3</ele>
        <time>2022-11-15T08:38:56.619Z</time>
      </trkpt>
      <trkpt lat="45.76711" lon="4.60346">
        <ele>483.7</ele>
        <time>2022-11-15T08:39:01.926Z</time>
      </trkpt>
      <trkpt lat="45.76714" lon="4.60328">
        <ele>485.7</ele>
        <time>2022-11-15T08:39:09.174Z</time>
      </trkpt>
      <trkpt lat="45.7673" lon="4.60316">
        <ele>487.3</ele>
        <time>2022-11-15T08:39:15.327Z</time>
      </trkpt>
      <trkpt lat="45.7676" lon="4.60304">
        <ele>489.9</ele>
        <time>2022-11-15T08:39:25.482Z</time>
      </trkpt>
      <trkpt lat="45.76808" lon="4.60299">
        <ele>491.3</ele>
        <time>2022-11-15T08:39:35.032Z</time>
      </trkpt>
      <trkpt lat="45.76831" lon="4.60288">
        <ele>494.2</ele>
        <time>2022-11-15T08:39:46.378Z</time>
      </trkpt>
      <trkpt lat="45.76849" lon="4.60271">
        <ele>498.8</ele>
        <time>2022-11-15T08:39:58.481Z</time>
      </trkpt>
      <trkpt lat="45.76869" lon="4.60263">
        <ele>502.3</ele>
        <time>2022-11-15T08:40:10.139Z</time>
      </trkpt>
      <trkpt lat="45.76889" lon="4.60273">
        <ele>501.6</ele>
        <time>2022-11-15T08:40:12.203Z</time>
      </trkpt>
      <trkpt lat="45.76926" lon="4.60314">
        <ele>500.9</ele>
        <time>2022-11-15T08:40:17.786Z</time>
      </trkpt>
      <trkpt lat="45.76949" lon="4.60322">
        <ele>503.3</ele>
        <time>2022-11-15T08:40:26.869Z</time>
      </trkpt>
      <trkpt lat="45.76978" lon="4.60314">
        <ele>504.3</ele>
        <time>2022-11-15T08:40:33.101Z</time>
      </trkpt>
      <trkpt lat="45.76988" lon="4.60294">
        <ele>506.3</ele>
        <time>2022-11-15T08:40:40.845Z</time>
      </trkpt>
      <trkpt lat="45.7699" lon="4.60256">
        <ele>509.7</ele>
        <time>2022-11-15T08:40:54.666Z</time>
      </trkpt>
      <trkpt lat="45.76988" lon="4.60207">
        <ele>510.7</ele>
        <time>2022-11-15T08:41:01.470Z</time>
      </trkpt>
      <trkpt lat="45.76982" lon="4.60197">
        <ele>512.2</ele>
        <time>2022-11-15T08:41:06.636Z</time>
      </trkpt>
      <trkpt lat="45.76973" lon="4.60238">
        <ele>514.3</ele>
        <time>2022-11-15T08:41:15.421Z</time>
      </trkpt>
      <trkpt lat="45.76962" lon="4.60247">
        <ele>514.9</ele>
        <time>2022-11-15T08:41:18.590Z</time>
      </trkpt>
      <trkpt lat="45.76952" lon="4.60249">
        <ele>515.5</ele>
        <time>2022-11-15T08:41:21.329Z</time>
      </trkpt>
      <trkpt lat="45.76942" lon="4.60243">
        <ele>516.6</ele>
        <time>2022-11-15T08:41:25.493Z</time>
      </trkpt>
      <trkpt lat="45.76926" lon="4.60226">
        <ele>518.3</ele>
        <time>2022-11-15T08:41:32.090Z</time>
      </trkpt>
      <trkpt lat="45.76909" lon="4.60204">
        <ele>521.8</ele>
        <time>2022-11-15T08:41:44.949Z</time>
      </trkpt>
      <trkpt lat="45.76892" lon="4.60188">
        <ele>524.2</ele>
        <time>2022-11-15T08:41:54.286Z</time>
      </trkpt>
      <trkpt lat="45.76871" lon="4.60183">
        <ele>525.6</ele>
        <time>2022-11-15T08:42:00.329Z</time>
      </trkpt>
      <trkpt lat="45.76814" lon="4.6019">
        <ele>527.7</ele>
        <time>2022-11-15T08:42:12.875Z</time>
      </trkpt>
      <trkpt lat="45.7678" lon="4.60186">
        <ele>530.6</ele>
        <time>2022-11-15T08:42:24.143Z</time>
      </trkpt>
      <trkpt lat="45.7674" lon="4.60178">
        <ele>534.2</ele>
        <time>2022-11-15T08:42:37.968Z</time>
      </trkpt>
      <trkpt lat="45.76701" lon="4.60174">
        <ele>534.6</ele>
        <time>2022-11-15T08:42:44.248Z</time>
      </trkpt>
      <trkpt lat="45.76663" lon="4.60176">
        <ele>535.7</ele>
        <time>2022-11-15T08:42:51.778Z</time>
      </trkpt>
      <trkpt lat="45.76613" lon="4.6019">
        <ele>538.3</ele>
        <time>2022-11-15T08:43:04.834Z</time>
      </trkpt>
      <trkpt lat="45.7657" lon="4.60199">
        <ele>542.4</ele>
        <time>2022-11-15T08:43:20.425Z</time>
      </trkpt>
      <trkpt lat="45.76539" lon="4.60214">
        <ele>544.4</ele>
        <time>2022-11-15T08:43:29.408Z</time>
      </trkpt>
      <trkpt lat="45.76517" lon="4.60229">
        <ele>547.8</ele>
        <time>2022-11-15T08:43:43.086Z</time>
      </trkpt>
      <trkpt lat="45.76517" lon="4.6023">
        <ele>547.5</ele>
        <time>2022-11-15T08:43:43.142Z</time>
      </trkpt>
      <trkpt lat="45.76493" lon="4.60252">
        <ele>552.6</ele>
        <time>2022-11-15T08:43:59.136Z</time>
      </trkpt>
      <trkpt lat="45.76477" lon="4.60281">
        <ele>554.4</ele>
        <time>2022-11-15T08:44:06.679Z</time>
      </trkpt>
      <trkpt lat="45.76468" lon="4.60315">
        <ele>555</ele>
        <time>2022-11-15T08:44:11.393Z</time>
      </trkpt>
      <trkpt lat="45.76461" lon="4.60397">
        <ele>554.7</ele>
        <time>2022-11-15T08:44:19.163Z</time>
      </trkpt>
      <trkpt lat="45.76453" lon="4.60438">
        <ele>556.2</ele>
        <time>2022-11-15T08:44:26.747Z</time>
      </trkpt>
      <trkpt lat="45.76417" lon="4.60546">
        <ele>564.6</ele>
        <time>2022-11-15T08:44:58.541Z</time>
      </trkpt>
      <trkpt lat="45.76413" lon="4.60573">
        <ele>566</ele>
        <time>2022-11-15T08:45:04.299Z</time>
      </trkpt>
      <trkpt lat="45.76412" lon="4.60597">
        <ele>567.7</ele>
        <time>2022-11-15T08:45:10.733Z</time>
      </trkpt>
      <trkpt lat="45.76421" lon="4.60679">
        <ele>568.9</ele>
        <time>2022-11-15T08:45:21.137Z</time>
      </trkpt>
      <trkpt lat="45.76417" lon="4.60726">
        <ele>573</ele>
        <time>2022-11-15T08:45:37.484Z</time>
      </trkpt>
      <trkpt lat="45.76417" lon="4.6075">
        <ele>573.9</ele>
        <time>2022-11-15T08:45:41.853Z</time>
      </trkpt>
      <trkpt lat="45.7642" lon="4.60768">
        <ele>575.7</ele>
        <time>2022-11-15T08:45:49.102Z</time>
      </trkpt>
      <trkpt lat="45.76428" lon="4.60783">
        <ele>576.2</ele>
        <time>2022-11-15T08:45:52.041Z</time>
      </trkpt>
      <trkpt lat="45.76441" lon="4.60794">
        <ele>575.3</ele>
        <time>2022-11-15T08:45:53.199Z</time>
      </trkpt>
      <trkpt lat="45.76475" lon="4.60817">
        <ele>577.7</ele>
        <time>2022-11-15T08:46:03.723Z</time>
      </trkpt>
      <trkpt lat="45.76504" lon="4.60845">
        <ele>580.4</ele>
        <time>2022-11-15T08:46:14.554Z</time>
      </trkpt>
      <trkpt lat="45.76508" lon="4.60862">
        <ele>581.2</ele>
        <time>2022-11-15T08:46:18.059Z</time>
      </trkpt>
      <trkpt lat="45.76504" lon="4.60913">
        <ele>584.4</ele>
        <time>2022-11-15T08:46:30.341Z</time>
      </trkpt>
      <trkpt lat="45.76495" lon="4.6096">
        <ele>584.8</ele>
        <time>2022-11-15T08:46:35.888Z</time>
      </trkpt>
      <trkpt lat="45.76485" lon="4.60976">
        <ele>585.6</ele>
        <time>2022-11-15T08:46:39.789Z</time>
      </trkpt>
      <trkpt lat="45.76473" lon="4.60987">
        <ele>586.1</ele>
        <time>2022-11-15T08:46:42.845Z</time>
      </trkpt>
      <trkpt lat="45.76458" lon="4.60993">
        <ele>586.9</ele>
        <time>2022-11-15T08:46:46.845Z</time>
      </trkpt>
      <trkpt lat="45.7639" lon="4.61007">
        <ele>594.3</ele>
        <time>2022-11-15T08:47:14.965Z</time>
      </trkpt>
      <trkpt lat="45.76371" lon="4.61016">
        <ele>595.4</ele>
        <time>2022-11-15T08:47:20.229Z</time>
      </trkpt>
      <trkpt lat="45.76327" lon="4.61044">
        <ele>597.1</ele>
        <time>2022-11-15T08:47:30.587Z</time>
      </trkpt>
      <trkpt lat="45.76283" lon="4.61072">
        <ele>601.2</ele>
        <time>2022-11-15T08:47:46.509Z</time>
      </trkpt>
      <trkpt lat="45.76265" lon="4.6108">
        <ele>602.4</ele>
        <time>2022-11-15T08:47:51.778Z</time>
      </trkpt>
      <trkpt lat="45.7623" lon="4.61087">
        <ele>605.3</ele>
        <time>2022-11-15T08:48:03.165Z</time>
      </trkpt>
      <trkpt lat="45.76219" lon="4.61093">
        <ele>605.5</ele>
        <time>2022-11-15T08:48:05.194Z</time>
      </trkpt>
      <trkpt lat="45.76207" lon="4.61105">
        <ele>605.4</ele>
        <time>2022-11-15T08:48:07.122Z</time>
      </trkpt>
      <trkpt lat="45.76196" lon="4.61125">
        <ele>605.1</ele>
        <time>2022-11-15T08:48:09.194Z</time>
      </trkpt>
      <trkpt lat="45.76181" lon="4.61146">
        <ele>606.1</ele>
        <time>2022-11-15T08:48:14.451Z</time>
      </trkpt>
      <trkpt lat="45.76168" lon="4.61157">
        <ele>607.8</ele>
        <time>2022-11-15T08:48:20.967Z</time>
      </trkpt>
      <trkpt lat="45.76156" lon="4.61164">
        <ele>608.5</ele>
        <time>2022-11-15T08:48:24.354Z</time>
      </trkpt>
      <trkpt lat="45.7614" lon="4.61167">
        <ele>609.8</ele>
        <time>2022-11-15T08:48:29.489Z</time>
      </trkpt>
      <trkpt lat="45.761" lon="4.61169">
        <ele>614.2</ele>
        <time>2022-11-15T08:48:46.264Z</time>
      </trkpt>
      <trkpt lat="45.76085" lon="4.61177">
        <ele>615.2</ele>
        <time>2022-11-15T08:48:50.700Z</time>
      </trkpt>
      <trkpt lat="45.76075" lon="4.61185">
        <ele>616.5</ele>
        <time>2022-11-15T08:48:55.693Z</time>
      </trkpt>
      <trkpt lat="45.76067" lon="4.61202">
        <ele>617.5</ele>
        <time>2022-11-15T08:48:59.880Z</time>
      </trkpt>
      <trkpt lat="45.76063" lon="4.61222">
        <ele>618.3</ele>
        <time>2022-11-15T08:49:03.703Z</time>
      </trkpt>
      <trkpt lat="45.76062" lon="4.61316">
        <ele>623.5</ele>
        <time>2022-11-15T08:49:24.361Z</time>
      </trkpt>
      <trkpt lat="45.76059" lon="4.61346">
        <ele>624.3</ele>
        <time>2022-11-15T08:49:29.071Z</time>
      </trkpt>
      <trkpt lat="45.76052" lon="4.61374">
        <ele>625.7</ele>
        <time>2022-11-15T08:49:35.035Z</time>
      </trkpt>
      <trkpt lat="45.76045" lon="4.61398">
        <ele>626.9</ele>
        <time>2022-11-15T08:49:40.200Z</time>
      </trkpt>
      <trkpt lat="45.76016" lon="4.61477">
        <ele>632.9</ele>
        <time>2022-11-15T08:50:02.964Z</time>
      </trkpt>
      <trkpt lat="45.76016" lon="4.61491">
        <ele>633</ele>
        <time>2022-11-15T08:50:04.532Z</time>
      </trkpt>
      <trkpt lat="45.76019" lon="4.61502">
        <ele>632.8</ele>
        <time>2022-11-15T08:50:05.414Z</time>
      </trkpt>
      <trkpt lat="45.76028" lon="4.61518">
        <ele>633.6</ele>
        <time>2022-11-15T08:50:09.208Z</time>
      </trkpt>
      <trkpt lat="45.76049" lon="4.61539">
        <ele>635.1</ele>
        <time>2022-11-15T08:50:16.113Z</time>
      </trkpt>
      <trkpt lat="45.76067" lon="4.61568">
        <ele>635.9</ele>
        <time>2022-11-15T08:50:21.518Z</time>
      </trkpt>
      <trkpt lat="45.76067" lon="4.61583">
        <ele>636.5</ele>
        <time>2022-11-15T08:50:24.316Z</time>
      </trkpt>
      <trkpt lat="45.76035" lon="4.61689">
        <ele>643.9</ele>
        <time>2022-11-15T08:50:52.570Z</time>
      </trkpt>
      <trkpt lat="45.76033" lon="4.61714">
        <ele>644.6</ele>
        <time>2022-11-15T08:50:56.596Z</time>
      </trkpt>
      <trkpt lat="45.76035" lon="4.61778">
        <ele>647.2</ele>
        <time>2022-11-15T08:51:08.616Z</time>
      </trkpt>
      <trkpt lat="45.76032" lon="4.61838">
        <ele>651.4</ele>
        <time>2022-11-15T08:51:24.515Z</time>
      </trkpt>
      <trkpt lat="45.76041" lon="4.61867">
        <ele>652.7</ele>
        <time>2022-11-15T08:51:30.492Z</time>
      </trkpt>
      <trkpt lat="45.76064" lon="4.61909">
        <ele>659.3</ele>
        <time>2022-11-15T08:51:51.407Z</time>
      </trkpt>
      <trkpt lat="45.76077" lon="4.61919">
        <ele>661.5</ele>
        <time>2022-11-15T08:51:59.690Z</time>
      </trkpt>
      <trkpt lat="45.76096" lon="4.61917">
        <ele>661.5</ele>
        <time>2022-11-15T08:52:02.464Z</time>
      </trkpt>
      <trkpt lat="45.76119" lon="4.61908">
        <ele>659.1</ele>
        <time>2022-11-15T08:52:04.353Z</time>
      </trkpt>
      <trkpt lat="45.76136" lon="4.61912">
        <ele>659.2</ele>
        <time>2022-11-15T08:52:07.002Z</time>
      </trkpt>
      <trkpt lat="45.76144" lon="4.6193">
        <ele>660.6</ele>
        <time>2022-11-15T08:52:12.328Z</time>
      </trkpt>
      <trkpt lat="45.7615" lon="4.61959">
        <ele>662</ele>
        <time>2022-11-15T08:52:18.343Z</time>
      </trkpt>
      <trkpt lat="45.7615" lon="4.61996">
        <ele>663.9</ele>
        <time>2022-11-15T08:52:26.116Z</time>
      </trkpt>
      <trkpt lat="45.76147" lon="4.62037">
        <ele>665.1</ele>
        <time>2022-11-15T08:52:32.892Z</time>
      </trkpt>
      <trkpt lat="45.76141" lon="4.62075">
        <ele>666.5</ele>
        <time>2022-11-15T08:52:39.879Z</time>
      </trkpt>
      <trkpt lat="45.76126" lon="4.62136">
        <ele>668.8</ele>
        <time>2022-11-15T08:52:51.438Z</time>
      </trkpt>
      <trkpt lat="45.76111" lon="4.62197">
        <ele>673.1</ele>
        <time>2022-11-15T08:53:07.770Z</time>
      </trkpt>
      <trkpt lat="45.76109" lon="4.62258">
        <ele>676.9</ele>
        <time>2022-11-15T08:53:22.361Z</time>
      </trkpt>
      <trkpt lat="45.76119" lon="4.62293">
        <ele>677.4</ele>
        <time>2022-11-15T08:53:27.009Z</time>
      </trkpt>
      <trkpt lat="45.76142" lon="4.62316">
        <ele>676.3</ele>
        <time>2022-11-15T08:53:29.580Z</time>
      </trkpt>
      <trkpt lat="45.76159" lon="4.62338">
        <ele>678.8</ele>
        <time>2022-11-15T08:53:39.099Z</time>
      </trkpt>
      <trkpt lat="45.76171" lon="4.62371">
        <ele>683.1</ele>
        <time>2022-11-15T08:53:53.676Z</time>
      </trkpt>
      <trkpt lat="45.76183" lon="4.62411">
        <ele>685.5</ele>
        <time>2022-11-15T08:54:03.222Z</time>
      </trkpt>
      <trkpt lat="45.76192" lon="4.62432">
        <ele>686.3</ele>
        <time>2022-11-15T08:54:07.501Z</time>
      </trkpt>
      <trkpt lat="45.7621" lon="4.62467">
        <ele>688.6</ele>
        <time>2022-11-15T08:54:16.794Z</time>
      </trkpt>
      <trkpt lat="45.76233" lon="4.62494">
        <ele>689.5</ele>
        <time>2022-11-15T08:54:22.782Z</time>
      </trkpt>
      <trkpt lat="45.76257" lon="4.6251">
        <ele>690.5</ele>
        <time>2022-11-15T08:54:28.674Z</time>
      </trkpt>
      <trkpt lat="45.76323" lon="4.62499">
        <ele>693</ele>
        <time>2022-11-15T08:54:43.432Z</time>
      </trkpt>
      <trkpt lat="45.76355" lon="4.62512">
        <ele>695.1</ele>
        <time>2022-11-15T08:54:52.696Z</time>
      </trkpt>
      <trkpt lat="45.76369" lon="4.62538">
        <ele>696.9</ele>
        <time>2022-11-15T08:54:59.870Z</time>
      </trkpt>
      <trkpt lat="45.76373" lon="4.62568">
        <ele>698.8</ele>
        <time>2022-11-15T08:55:07.166Z</time>
      </trkpt>
      <trkpt lat="45.7637" lon="4.62608">
        <ele>701.1</ele>
        <time>2022-11-15T08:55:16.201Z</time>
      </trkpt>
      <trkpt lat="45.76358" lon="4.62687">
        <ele>704.5</ele>
        <time>2022-11-15T08:55:31.594Z</time>
      </trkpt>
      <trkpt lat="45.76345" lon="4.62765">
        <ele>707.9</ele>
        <time>2022-11-15T08:55:46.915Z</time>
      </trkpt>
      <trkpt lat="45.76332" lon="4.62805">
        <ele>710.3</ele>
        <time>2022-11-15T08:55:56.509Z</time>
      </trkpt>
      <trkpt lat="45.7631" lon="4.62854">
        <ele>713.4</ele>
        <time>2022-11-15T08:56:09.006Z</time>
      </trkpt>
      <trkpt lat="45.76279" lon="4.62898">
        <ele>714.7</ele>
        <time>2022-11-15T08:56:17.740Z</time>
      </trkpt>
      <trkpt lat="45.76259" lon="4.62978">
        <ele>710.6</ele>
        <time>2022-11-15T08:56:22.439Z</time>
      </trkpt>
      <trkpt lat="45.76239" lon="4.63058">
        <ele>707.3</ele>
        <time>2022-11-15T08:56:27.135Z</time>
      </trkpt>
      <trkpt lat="45.76227" lon="4.63142">
        <ele>705.2</ele>
        <time>2022-11-15T08:56:32.843Z</time>
      </trkpt>
      <trkpt lat="45.76225" lon="4.63186">
        <ele>703.9</ele>
        <time>2022-11-15T08:56:35.583Z</time>
      </trkpt>
      <trkpt lat="45.76228" lon="4.63253">
        <ele>702</ele>
        <time>2022-11-15T08:56:39.823Z</time>
      </trkpt>
      <trkpt lat="45.76233" lon="4.63275">
        <ele>701.5</ele>
        <time>2022-11-15T08:56:41.429Z</time>
      </trkpt>
      <trkpt lat="45.76233" lon="4.63292">
        <ele>700.3</ele>
        <time>2022-11-15T08:56:42.369Z</time>
      </trkpt>
      <trkpt lat="45.7623" lon="4.63301">
        <ele>699</ele>
        <time>2022-11-15T08:56:42.921Z</time>
      </trkpt>
      <trkpt lat="45.76225" lon="4.63306">
        <ele>697.6</ele>
        <time>2022-11-15T08:56:43.404Z</time>
      </trkpt>
      <trkpt lat="45.76219" lon="4.63329">
        <ele>694.3</ele>
        <time>2022-11-15T08:56:44.761Z</time>
      </trkpt>
      <trkpt lat="45.76211" lon="4.63307">
        <ele>693.6</ele>
        <time>2022-11-15T08:56:46.330Z</time>
      </trkpt>
      <trkpt lat="45.76204" lon="4.633">
        <ele>692.2</ele>
        <time>2022-11-15T08:56:47.006Z</time>
      </trkpt>
      <trkpt lat="45.76199" lon="4.63285">
        <ele>691.8</ele>
        <time>2022-11-15T08:56:48.120Z</time>
      </trkpt>
      <trkpt lat="45.76195" lon="4.63245">
        <ele>693.2</ele>
        <time>2022-11-15T08:56:55.279Z</time>
      </trkpt>
      <trkpt lat="45.76192" lon="4.63169">
        <ele>692.7</ele>
        <time>2022-11-15T08:57:02.091Z</time>
      </trkpt>
      <trkpt lat="45.7618" lon="4.63064">
        <ele>688.7</ele>
        <time>2022-11-15T08:57:08.058Z</time>
      </trkpt>
      <trkpt lat="45.76174" lon="4.63048">
        <ele>688.4</ele>
        <time>2022-11-15T08:57:09.423Z</time>
      </trkpt>
      <trkpt lat="45.76169" lon="4.63041">
        <ele>687.8</ele>
        <time>2022-11-15T08:57:09.977Z</time>
      </trkpt>
      <trkpt lat="45.76163" lon="4.63036">
        <ele>687.6</ele>
        <time>2022-11-15T08:57:10.683Z</time>
      </trkpt>
      <trkpt lat="45.76158" lon="4.63036">
        <ele>687.2</ele>
        <time>2022-11-15T08:57:11.079Z</time>
      </trkpt>
      <trkpt lat="45.76151" lon="4.63039">
        <ele>686.3</ele>
        <time>2022-11-15T08:57:11.658Z</time>
      </trkpt>
      <trkpt lat="45.7614" lon="4.63053">
        <ele>683.4</ele>
        <time>2022-11-15T08:57:12.824Z</time>
      </trkpt>
      <trkpt lat="45.76092" lon="4.63149">
        <ele>677.4</ele>
        <time>2022-11-15T08:57:19.355Z</time>
      </trkpt>
      <trkpt lat="45.76078" lon="4.63173">
        <ele>675.9</ele>
        <time>2022-11-15T08:57:21.084Z</time>
      </trkpt>
      <trkpt lat="45.76046" lon="4.63214">
        <ele>672.6</ele>
        <time>2022-11-15T08:57:24.486Z</time>
      </trkpt>
      <trkpt lat="45.76024" lon="4.63237">
        <ele>670.2</ele>
        <time>2022-11-15T08:57:26.644Z</time>
      </trkpt>
      <trkpt lat="45.7601" lon="4.63247">
        <ele>668.6</ele>
        <time>2022-11-15T08:57:27.884Z</time>
      </trkpt>
      <trkpt lat="45.75983" lon="4.63256">
        <ele>666</ele>
        <time>2022-11-15T08:57:30.080Z</time>
      </trkpt>
      <trkpt lat="45.7596" lon="4.63252">
        <ele>664.6</ele>
        <time>2022-11-15T08:57:31.846Z</time>
      </trkpt>
      <trkpt lat="45.75944" lon="4.63246">
        <ele>664.2</ele>
        <time>2022-11-15T08:57:33.617Z</time>
      </trkpt>
      <trkpt lat="45.75915" lon="4.63231">
        <ele>661.6</ele>
        <time>2022-11-15T08:57:36.060Z</time>
      </trkpt>
      <trkpt lat="45.75893" lon="4.63212">
        <ele>659.4</ele>
        <time>2022-11-15T08:57:38.096Z</time>
      </trkpt>
      <trkpt lat="45.75837" lon="4.63146">
        <ele>655.4</ele>
        <time>2022-11-15T08:57:43.862Z</time>
      </trkpt>
      <trkpt lat="45.75819" lon="4.63131">
        <ele>653.3</ele>
        <time>2022-11-15T08:57:45.512Z</time>
      </trkpt>
      <trkpt lat="45.75806" lon="4.63123">
        <ele>651.3</ele>
        <time>2022-11-15T08:57:46.633Z</time>
      </trkpt>
      <trkpt lat="45.7579" lon="4.63118">
        <ele>651.6</ele>
        <time>2022-11-15T08:57:49.498Z</time>
      </trkpt>
      <trkpt lat="45.75779" lon="4.6312">
        <ele>650.2</ele>
        <time>2022-11-15T08:57:50.377Z</time>
      </trkpt>
      <trkpt lat="45.75751" lon="4.63135">
        <ele>647.1</ele>
        <time>2022-11-15T08:57:52.746Z</time>
      </trkpt>
      <trkpt lat="45.7574" lon="4.63135">
        <ele>645.3</ele>
        <time>2022-11-15T08:57:53.617Z</time>
      </trkpt>
      <trkpt lat="45.75727" lon="4.6313">
        <ele>644.4</ele>
        <time>2022-11-15T08:57:54.684Z</time>
      </trkpt>
      <trkpt lat="45.75718" lon="4.63124">
        <ele>643.7</ele>
        <time>2022-11-15T08:57:55.471Z</time>
      </trkpt>
      <trkpt lat="45.75671" lon="4.63077">
        <ele>639.7</ele>
        <time>2022-11-15T08:58:00.013Z</time>
      </trkpt>
      <trkpt lat="45.75659" lon="4.63068">
        <ele>639</ele>
        <time>2022-11-15T08:58:01.122Z</time>
      </trkpt>
      <trkpt lat="45.75646" lon="4.63061">
        <ele>637.6</ele>
        <time>2022-11-15T08:58:02.223Z</time>
      </trkpt>
      <trkpt lat="45.75634" lon="4.63059">
        <ele>636.9</ele>
        <time>2022-11-15T08:58:03.162Z</time>
      </trkpt>
      <trkpt lat="45.75623" lon="4.63066">
        <ele>637.1</ele>
        <time>2022-11-15T08:58:05.228Z</time>
      </trkpt>
      <trkpt lat="45.75615" lon="4.63079">
        <ele>636</ele>
        <time>2022-11-15T08:58:06.187Z</time>
      </trkpt>
      <trkpt lat="45.75612" lon="4.63093">
        <ele>634.7</ele>
        <time>2022-11-15T08:58:06.997Z</time>
      </trkpt>
      <trkpt lat="45.75603" lon="4.63175">
        <ele>629.3</ele>
        <time>2022-11-15T08:58:11.587Z</time>
      </trkpt>
      <trkpt lat="45.75594" lon="4.63256">
        <ele>625</ele>
        <time>2022-11-15T08:58:16.122Z</time>
      </trkpt>
      <trkpt lat="45.75595" lon="4.63308">
        <ele>623.3</ele>
        <time>2022-11-15T08:58:19.223Z</time>
      </trkpt>
      <trkpt lat="45.75605" lon="4.63408">
        <ele>617.8</ele>
        <time>2022-11-15T08:58:24.809Z</time>
      </trkpt>
      <trkpt lat="45.75623" lon="4.63534">
        <ele>611.5</ele>
        <time>2022-11-15T08:58:31.921Z</time>
      </trkpt>
      <trkpt lat="45.75628" lon="4.63582">
        <ele>608.8</ele>
        <time>2022-11-15T08:58:34.604Z</time>
      </trkpt>
      <trkpt lat="45.75625" lon="4.63622">
        <ele>606.9</ele>
        <time>2022-11-15T08:58:36.829Z</time>
      </trkpt>
      <trkpt lat="45.75609" lon="4.63671">
        <ele>603.7</ele>
        <time>2022-11-15T08:58:39.821Z</time>
      </trkpt>
      <trkpt lat="45.75602" lon="4.63686">
        <ele>602.2</ele>
        <time>2022-11-15T08:58:40.818Z</time>
      </trkpt>
      <trkpt lat="45.75544" lon="4.63776">
        <ele>596.3</ele>
        <time>2022-11-15T08:58:47.593Z</time>
      </trkpt>
      <trkpt lat="45.75519" lon="4.63807">
        <ele>593</ele>
        <time>2022-11-15T08:58:50.213Z</time>
      </trkpt>
      <trkpt lat="45.75497" lon="4.63825">
        <ele>591.5</ele>
        <time>2022-11-15T08:58:52.162Z</time>
      </trkpt>
      <trkpt lat="45.75453" lon="4.63845">
        <ele>587.3</ele>
        <time>2022-11-15T08:58:55.821Z</time>
      </trkpt>
      <trkpt lat="45.7544" lon="4.63857">
        <ele>585.9</ele>
        <time>2022-11-15T08:58:57.046Z</time>
      </trkpt>
      <trkpt lat="45.75431" lon="4.63869">
        <ele>586</ele>
        <time>2022-11-15T08:58:58.979Z</time>
      </trkpt>
      <trkpt lat="45.75408" lon="4.63913">
        <ele>583.7</ele>
        <time>2022-11-15T08:59:01.914Z</time>
      </trkpt>
      <trkpt lat="45.75375" lon="4.63967">
        <ele>580.4</ele>
        <time>2022-11-15T08:59:05.572Z</time>
      </trkpt>
      <trkpt lat="45.75329" lon="4.64023">
        <ele>574.9</ele>
        <time>2022-11-15T08:59:10.355Z</time>
      </trkpt>
      <trkpt lat="45.75318" lon="4.64041">
        <ele>574.4</ele>
        <time>2022-11-15T08:59:12.035Z</time>
      </trkpt>
      <trkpt lat="45.7531" lon="4.64064">
        <ele>573.2</ele>
        <time>2022-11-15T08:59:13.456Z</time>
      </trkpt>
      <trkpt lat="45.75301" lon="4.64098">
        <ele>571.5</ele>
        <time>2022-11-15T08:59:15.467Z</time>
      </trkpt>
      <trkpt lat="45.75287" lon="4.64165">
        <ele>566.9</ele>
        <time>2022-11-15T08:59:19.334Z</time>
      </trkpt>
      <trkpt lat="45.75272" lon="4.64231">
        <ele>564.2</ele>
        <time>2022-11-15T08:59:23.168Z</time>
      </trkpt>
      <trkpt lat="45.75262" lon="4.64268">
        <ele>562.6</ele>
        <time>2022-11-15T08:59:25.323Z</time>
      </trkpt>
      <trkpt lat="45.75251" lon="4.64297">
        <ele>560.7</ele>
        <time>2022-11-15T08:59:27.148Z</time>
      </trkpt>
      <trkpt lat="45.75228" lon="4.64339">
        <ele>557.2</ele>
        <time>2022-11-15T08:59:30.101Z</time>
      </trkpt>
      <trkpt lat="45.75197" lon="4.64377">
        <ele>554.6</ele>
        <time>2022-11-15T08:59:33.130Z</time>
      </trkpt>
      <trkpt lat="45.7516" lon="4.64465">
        <ele>549.2</ele>
        <time>2022-11-15T08:59:38.811Z</time>
      </trkpt>
      <trkpt lat="45.75144" lon="4.64492">
        <ele>547.4</ele>
        <time>2022-11-15T08:59:40.770Z</time>
      </trkpt>
      <trkpt lat="45.75133" lon="4.64505">
        <ele>546.5</ele>
        <time>2022-11-15T08:59:41.834Z</time>
      </trkpt>
      <trkpt lat="45.75121" lon="4.64516">
        <ele>545.2</ele>
        <time>2022-11-15T08:59:42.963Z</time>
      </trkpt>
      <trkpt lat="45.75076" lon="4.64544">
        <ele>542.2</ele>
        <time>2022-11-15T08:59:46.680Z</time>
      </trkpt>
      <trkpt lat="45.75062" lon="4.64559">
        <ele>541</ele>
        <time>2022-11-15T08:59:48.065Z</time>
      </trkpt>
      <trkpt lat="45.75032" lon="4.646">
        <ele>536.8</ele>
        <time>2022-11-15T08:59:51.351Z</time>
      </trkpt>
      <trkpt lat="45.75016" lon="4.64615">
        <ele>535.2</ele>
        <time>2022-11-15T08:59:52.866Z</time>
      </trkpt>
      <trkpt lat="45.75004" lon="4.64621">
        <ele>534.7</ele>
        <time>2022-11-15T08:59:54.030Z</time>
      </trkpt>
      <trkpt lat="45.74988" lon="4.64622">
        <ele>533.1</ele>
        <time>2022-11-15T08:59:55.299Z</time>
      </trkpt>
      <trkpt lat="45.74979" lon="4.6462">
        <ele>532.4</ele>
        <time>2022-11-15T08:59:56.021Z</time>
      </trkpt>
      <trkpt lat="45.74964" lon="4.64609">
        <ele>531.7</ele>
        <time>2022-11-15T08:59:57.532Z</time>
      </trkpt>
      <trkpt lat="45.74944" lon="4.6459">
        <ele>530.7</ele>
        <time>2022-11-15T08:59:59.681Z</time>
      </trkpt>
      <trkpt lat="45.74926" lon="4.64579">
        <ele>529</ele>
        <time>2022-11-15T09:00:01.232Z</time>
      </trkpt>
      <trkpt lat="45.74917" lon="4.64578">
        <ele>526.6</ele>
        <time>2022-11-15T09:00:01.947Z</time>
      </trkpt>
      <trkpt lat="45.74902" lon="4.64582">
        <ele>527</ele>
        <time>2022-11-15T09:00:04.870Z</time>
      </trkpt>
      <trkpt lat="45.74868" lon="4.64595">
        <ele>525</ele>
        <time>2022-11-15T09:00:07.631Z</time>
      </trkpt>
      <trkpt lat="45.74847" lon="4.64606">
        <ele>524.9</ele>
        <time>2022-11-15T09:00:10.677Z</time>
      </trkpt>
      <trkpt lat="45.74833" lon="4.64629">
        <ele>523.3</ele>
        <time>2022-11-15T09:00:12.365Z</time>
      </trkpt>
      <trkpt lat="45.74811" lon="4.64682">
        <ele>519.7</ele>
        <time>2022-11-15T09:00:15.775Z</time>
      </trkpt>
      <trkpt lat="45.74792" lon="4.6475">
        <ele>513.3</ele>
        <time>2022-11-15T09:00:19.826Z</time>
      </trkpt>
      <trkpt lat="45.74745" lon="4.64849">
        <ele>510.5</ele>
        <time>2022-11-15T09:00:27.929Z</time>
      </trkpt>
      <trkpt lat="45.74734" lon="4.64878">
        <ele>510.4</ele>
        <time>2022-11-15T09:00:31.072Z</time>
      </trkpt>
      <trkpt lat="45.74748" lon="4.64935">
        <ele>502.9</ele>
        <time>2022-11-15T09:00:34.414Z</time>
      </trkpt>
      <trkpt lat="45.7475" lon="4.64955">
        <ele>501.2</ele>
        <time>2022-11-15T09:00:35.532Z</time>
      </trkpt>
      <trkpt lat="45.74748" lon="4.64988">
        <ele>499.3</ele>
        <time>2022-11-15T09:00:37.363Z</time>
      </trkpt>
      <trkpt lat="45.74734" lon="4.65059">
        <ele>496.1</ele>
        <time>2022-11-15T09:00:41.234Z</time>
      </trkpt>
      <trkpt lat="45.7472" lon="4.65112">
        <ele>493.5</ele>
        <time>2022-11-15T09:00:44.125Z</time>
      </trkpt>
      <trkpt lat="45.7471" lon="4.65182">
        <ele>490</ele>
        <time>2022-11-15T09:00:48.077Z</time>
      </trkpt>
      <trkpt lat="45.747" lon="4.65219">
        <ele>487.3</ele>
        <time>2022-11-15T09:00:50.271Z</time>
      </trkpt>
      <trkpt lat="45.7466" lon="4.65306">
        <ele>482.6</ele>
        <time>2022-11-15T09:00:55.632Z</time>
      </trkpt>
      <trkpt lat="45.74654" lon="4.65323">
        <ele>482.3</ele>
        <time>2022-11-15T09:00:57.081Z</time>
      </trkpt>
      <trkpt lat="45.74651" lon="4.65342">
        <ele>481.9</ele>
        <time>2022-11-15T09:00:58.457Z</time>
      </trkpt>
      <trkpt lat="45.74665" lon="4.65426">
        <ele>477.4</ele>
        <time>2022-11-15T09:01:03.233Z</time>
      </trkpt>
      <trkpt lat="45.74682" lon="4.65476">
        <ele>473.8</ele>
        <time>2022-11-15T09:01:06.309Z</time>
      </trkpt>
      <trkpt lat="45.74709" lon="4.65539">
        <ele>471.3</ele>
        <time>2022-11-15T09:01:10.654Z</time>
      </trkpt>
      <trkpt lat="45.74754" lon="4.65587">
        <ele>467.6</ele>
        <time>2022-11-15T09:01:14.749Z</time>
      </trkpt>
      <trkpt lat="45.74803" lon="4.65632">
        <ele>463.1</ele>
        <time>2022-11-15T09:01:19.362Z</time>
      </trkpt>
      <trkpt lat="45.74836" lon="4.65667">
        <ele>459.7</ele>
        <time>2022-11-15T09:01:22.615Z</time>
      </trkpt>
      <trkpt lat="45.74848" lon="4.65693">
        <ele>458.4</ele>
        <time>2022-11-15T09:01:24.282Z</time>
      </trkpt>
      <trkpt lat="45.74861" lon="4.65737">
        <ele>455.9</ele>
        <time>2022-11-15T09:01:26.924Z</time>
      </trkpt>
      <trkpt lat="45.74866" lon="4.65805">
        <ele>452.7</ele>
        <time>2022-11-15T09:01:30.706Z</time>
      </trkpt>
      <trkpt lat="45.74864" lon="4.65842">
        <ele>450.6</ele>
        <time>2022-11-15T09:01:32.758Z</time>
      </trkpt>
      <trkpt lat="45.74855" lon="4.65874">
        <ele>449.1</ele>
        <time>2022-11-15T09:01:34.566Z</time>
      </trkpt>
      <trkpt lat="45.74841" lon="4.65909">
        <ele>446.8</ele>
        <time>2022-11-15T09:01:36.797Z</time>
      </trkpt>
      <trkpt lat="45.74835" lon="4.65934">
        <ele>444.8</ele>
        <time>2022-11-15T09:01:38.259Z</time>
      </trkpt>
      <trkpt lat="45.74835" lon="4.65983">
        <ele>442.7</ele>
        <time>2022-11-15T09:01:40.844Z</time>
      </trkpt>
      <trkpt lat="45.74823" lon="4.66067">
        <ele>437.9</ele>
        <time>2022-11-15T09:01:45.586Z</time>
      </trkpt>
      <trkpt lat="45.74823" lon="4.66135">
        <ele>434.7</ele>
        <time>2022-11-15T09:01:49.347Z</time>
      </trkpt>
      <trkpt lat="45.74827" lon="4.66161">
        <ele>433.5</ele>
        <time>2022-11-15T09:01:50.717Z</time>
      </trkpt>
      <trkpt lat="45.74844" lon="4.66206">
        <ele>431.8</ele>
        <time>2022-11-15T09:01:53.747Z</time>
      </trkpt>
      <trkpt lat="45.74858" lon="4.6626">
        <ele>428.6</ele>
        <time>2022-11-15T09:01:56.933Z</time>
      </trkpt>
      <trkpt lat="45.74871" lon="4.66323">
        <ele>425.3</ele>
        <time>2022-11-15T09:02:00.566Z</time>
      </trkpt>
      <trkpt lat="45.74883" lon="4.66387">
        <ele>421.3</ele>
        <time>2022-11-15T09:02:04.231Z</time>
      </trkpt>
      <trkpt lat="45.74863" lon="4.66364">
        <ele>420.1</ele>
        <time>2022-11-15T09:02:06.423Z</time>
      </trkpt>
      <trkpt lat="45.74835" lon="4.66324">
        <ele>419</ele>
        <time>2022-11-15T09:02:10.491Z</time>
      </trkpt>
      <trkpt lat="45.74793" lon="4.66252">
        <ele>416</ele>
        <time>2022-11-15T09:02:16.138Z</time>
      </trkpt>
      <trkpt lat="45.74751" lon="4.66181">
        <ele>417.1</ele>
        <time>2022-11-15T09:02:27.329Z</time>
      </trkpt>
      <trkpt lat="45.74745" lon="4.66178">
        <ele>417.4</ele>
        <time>2022-11-15T09:02:28.918Z</time>
      </trkpt>
      <trkpt lat="45.7473" lon="4.66176">
        <ele>418.4</ele>
        <time>2022-11-15T09:02:33.213Z</time>
      </trkpt>
      <trkpt lat="45.74721" lon="4.66187">
        <ele>419.3</ele>
        <time>2022-11-15T09:02:36.844Z</time>
      </trkpt>
      <trkpt lat="45.74718" lon="4.66224">
        <ele>420.1</ele>
        <time>2022-11-15T09:02:42.114Z</time>
      </trkpt>
      <trkpt lat="45.74719" lon="4.66249">
        <ele>419.7</ele>
        <time>2022-11-15T09:02:44.012Z</time>
      </trkpt>
      <trkpt lat="45.74716" lon="4.66313">
        <ele>415.9</ele>
        <time>2022-11-15T09:02:47.560Z</time>
      </trkpt>
      <trkpt lat="45.74713" lon="4.66328">
        <ele>415.6</ele>
        <time>2022-11-15T09:02:48.683Z</time>
      </trkpt>
      <trkpt lat="45.74705" lon="4.66349">
        <ele>416.4</ele>
        <time>2022-11-15T09:02:52.876Z</time>
      </trkpt>
      <trkpt lat="45.74695" lon="4.66368">
        <ele>417.4</ele>
        <time>2022-11-15T09:02:57.406Z</time>
      </trkpt>
      <trkpt lat="45.74656" lon="4.66409">
        <ele>418.4</ele>
        <time>2022-11-15T09:03:06.092Z</time>
      </trkpt>
      <trkpt lat="45.74632" lon="4.66429">
        <ele>418.6</ele>
        <time>2022-11-15T09:03:10.419Z</time>
      </trkpt>
      <trkpt lat="45.74593" lon="4.66455">
        <ele>418.7</ele>
        <time>2022-11-15T09:03:16.816Z</time>
      </trkpt>
      <trkpt lat="45.74548" lon="4.66472">
        <ele>417</ele>
        <time>2022-11-15T09:03:21.195Z</time>
      </trkpt>
      <trkpt lat="45.74517" lon="4.66474">
        <ele>416.4</ele>
        <time>2022-11-15T09:03:24.709Z</time>
      </trkpt>
      <trkpt lat="45.7446" lon="4.66464">
        <ele>415.3</ele>
        <time>2022-11-15T09:03:31.224Z</time>
      </trkpt>
      <trkpt lat="45.74403" lon="4.66454">
        <ele>413.1</ele>
        <time>2022-11-15T09:03:36.535Z</time>
      </trkpt>
      <trkpt lat="45.74357" lon="4.66434">
        <ele>415.7</ele>
        <time>2022-11-15T09:03:49.107Z</time>
      </trkpt>
      <trkpt lat="45.74311" lon="4.66415">
        <ele>420</ele>
        <time>2022-11-15T09:04:05.594Z</time>
      </trkpt>
      <trkpt lat="45.7429" lon="4.66411">
        <ele>421.8</ele>
        <time>2022-11-15T09:04:12.588Z</time>
      </trkpt>
      <trkpt lat="45.74226" lon="4.66419">
        <ele>423.3</ele>
        <time>2022-11-15T09:04:24.484Z</time>
      </trkpt>
      <trkpt lat="45.74197" lon="4.66415">
        <ele>424.3</ele>
        <time>2022-11-15T09:04:30.670Z</time>
      </trkpt>
      <trkpt lat="45.74184" lon="4.66417">
        <ele>424.7</ele>
        <time>2022-11-15T09:04:33.314Z</time>
      </trkpt>
      <trkpt lat="45.74171" lon="4.66424">
        <ele>424.8</ele>
        <time>2022-11-15T09:04:35.478Z</time>
      </trkpt>
      <trkpt lat="45.74157" lon="4.6644">
        <ele>425.2</ele>
        <time>2022-11-15T09:04:38.756Z</time>
      </trkpt>
      <trkpt lat="45.74147" lon="4.66461">
        <ele>426.5</ele>
        <time>2022-11-15T09:04:44.084Z</time>
      </trkpt>
      <trkpt lat="45.74143" lon="4.66475">
        <ele>427.3</ele>
        <time>2022-11-15T09:04:47.317Z</time>
      </trkpt>
      <trkpt lat="45.74136" lon="4.66517">
        <ele>429.1</ele>
        <time>2022-11-15T09:04:55.510Z</time>
      </trkpt>
      <trkpt lat="45.74128" lon="4.66545">
        <ele>430.2</ele>
        <time>2022-11-15T09:05:00.959Z</time>
      </trkpt>
      <trkpt lat="45.74107" lon="4.66575">
        <ele>430.7</ele>
        <time>2022-11-15T09:05:06.065Z</time>
      </trkpt>
      <trkpt lat="45.74063" lon="4.66631">
        <ele>430</ele>
        <time>2022-11-15T09:05:13.370Z</time>
      </trkpt>
      <trkpt lat="45.74018" lon="4.66687">
        <ele>427.3</ele>
        <time>2022-11-15T09:05:18.534Z</time>
      </trkpt>
      <trkpt lat="45.73979" lon="4.66731">
        <ele>424</ele>
        <time>2022-11-15T09:05:22.143Z</time>
      </trkpt>
      <trkpt lat="45.73951" lon="4.66754">
        <ele>423.9</ele>
        <time>2022-11-15T09:05:26.628Z</time>
      </trkpt>
      <trkpt lat="45.73915" lon="4.66763">
        <ele>425</ele>
        <time>2022-11-15T09:05:33.973Z</time>
      </trkpt>
      <trkpt lat="45.73887" lon="4.66755">
        <ele>424.8</ele>
        <time>2022-11-15T09:05:37.726Z</time>
      </trkpt>
      <trkpt lat="45.73823" lon="4.66713">
        <ele>424.3</ele>
        <time>2022-11-15T09:05:46.967Z</time>
      </trkpt>
      <trkpt lat="45.73807" lon="4.66696">
        <ele>423.2</ele>
        <time>2022-11-15T09:05:48.551Z</time>
      </trkpt>
      <trkpt lat="45.73789" lon="4.66655">
        <ele>423.4</ele>
        <time>2022-11-15T09:05:53.754Z</time>
      </trkpt>
      <trkpt lat="45.73782" lon="4.66633">
        <ele>423.5</ele>
        <time>2022-11-15T09:05:56.351Z</time>
      </trkpt>
      <trkpt lat="45.73767" lon="4.66615">
        <ele>422.4</ele>
        <time>2022-11-15T09:05:57.894Z</time>
      </trkpt>
      <trkpt lat="45.73716" lon="4.6656">
        <ele>422</ele>
        <time>2022-11-15T09:06:06.372Z</time>
      </trkpt>
      <trkpt lat="45.73675" lon="4.66526">
        <ele>421.1</ele>
        <time>2022-11-15T09:06:11.757Z</time>
      </trkpt>
      <trkpt lat="45.73655" lon="4.66515">
        <ele>420.8</ele>
        <time>2022-11-15T09:06:14.345Z</time>
      </trkpt>
      <trkpt lat="45.73638" lon="4.66513">
        <ele>420</ele>
        <time>2022-11-15T09:06:15.802Z</time>
      </trkpt>
      <trkpt lat="45.73624" lon="4.66516">
        <ele>418.8</ele>
        <time>2022-11-15T09:06:16.924Z</time>
      </trkpt>
      <trkpt lat="45.73577" lon="4.66532">
        <ele>414.2</ele>
        <time>2022-11-15T09:06:20.752Z</time>
      </trkpt>
      <trkpt lat="45.73559" lon="4.66532">
        <ele>412.9</ele>
        <time>2022-11-15T09:06:22.179Z</time>
      </trkpt>
      <trkpt lat="45.73546" lon="4.66529">
        <ele>412.2</ele>
        <time>2022-11-15T09:06:23.244Z</time>
      </trkpt>
      <trkpt lat="45.73532" lon="4.66523">
        <ele>411.5</ele>
        <time>2022-11-15T09:06:24.481Z</time>
      </trkpt>
      <trkpt lat="45.73478" lon="4.66469">
        <ele>406.6</ele>
        <time>2022-11-15T09:06:29.700Z</time>
      </trkpt>
      <trkpt lat="45.73479" lon="4.6647">
        <ele>406.7</ele>
        <time>2022-11-15T09:06:30.092Z</time>
      </trkpt>
      <trkpt lat="45.73453" lon="4.66424">
        <ele>403.9</ele>
        <time>2022-11-15T09:06:33.367Z</time>
      </trkpt>
      <trkpt lat="45.73452" lon="4.66419">
        <ele>403.8</ele>
        <time>2022-11-15T09:06:33.741Z</time>
      </trkpt>
      <trkpt lat="45.73471" lon="4.66377">
        <ele>404</ele>
        <time>2022-11-15T09:06:39.108Z</time>
      </trkpt>
      <trkpt lat="45.73488" lon="4.66311">
        <ele>404.1</ele>
        <time>2022-11-15T09:06:46.392Z</time>
      </trkpt>
      <trkpt lat="45.73504" lon="4.66244">
        <ele>406</ele>
        <time>2022-11-15T09:06:57.496Z</time>
      </trkpt>
      <trkpt lat="45.73515" lon="4.66208">
        <ele>408.2</ele>
        <time>2022-11-15T09:07:06.201Z</time>
      </trkpt>
      <trkpt lat="45.73566" lon="4.66126">
        <ele>412.8</ele>
        <time>2022-11-15T09:07:27.082Z</time>
      </trkpt>
      <trkpt lat="45.73596" lon="4.66084">
        <ele>412.9</ele>
        <time>2022-11-15T09:07:33.324Z</time>
      </trkpt>
      <trkpt lat="45.73628" lon="4.66048">
        <ele>413.3</ele>
        <time>2022-11-15T09:07:39.833Z</time>
      </trkpt>
      <trkpt lat="45.73664" lon="4.66002">
        <ele>411</ele>
        <time>2022-11-15T09:07:43.923Z</time>
      </trkpt>
      <trkpt lat="45.73695" lon="4.65944">
        <ele>411</ele>
        <time>2022-11-15T09:07:51.345Z</time>
      </trkpt>
      <trkpt lat="45.73726" lon="4.65886">
        <ele>411.4</ele>
        <time>2022-11-15T09:07:59.342Z</time>
      </trkpt>
      <trkpt lat="45.73737" lon="4.65871">
        <ele>411.9</ele>
        <time>2022-11-15T09:08:02.507Z</time>
      </trkpt>
      <trkpt lat="45.73797" lon="4.65817">
        <ele>413.3</ele>
        <time>2022-11-15T09:08:15.100Z</time>
      </trkpt>
      <trkpt lat="45.73798" lon="4.65732">
        <ele>414.2</ele>
        <time>2022-11-15T09:08:25.131Z</time>
      </trkpt>
      <trkpt lat="45.73799" lon="4.65647">
        <ele>414.4</ele>
        <time>2022-11-15T09:08:34.043Z</time>
      </trkpt>
      <trkpt lat="45.73806" lon="4.65631">
        <ele>414.5</ele>
        <time>2022-11-15T09:08:36.105Z</time>
      </trkpt>
      <trkpt lat="45.73824" lon="4.65589">
        <ele>412.7</ele>
        <time>2022-11-15T09:08:38.907Z</time>
      </trkpt>
      <trkpt lat="45.73829" lon="4.65565">
        <ele>411.8</ele>
        <time>2022-11-15T09:08:40.341Z</time>
      </trkpt>
      <trkpt lat="45.73829" lon="4.65528">
        <ele>414</ele>
        <time>2022-11-15T09:08:48.884Z</time>
      </trkpt>
      <trkpt lat="45.73826" lon="4.65528">
        <ele>413.4</ele>
        <time>2022-11-15T09:08:49.122Z</time>
      </trkpt>
      <trkpt lat="45.73823" lon="4.65523">
        <ele>412.8</ele>
        <time>2022-11-15T09:08:49.486Z</time>
      </trkpt>
      <trkpt lat="45.73825" lon="4.65517">
        <ele>413.3</ele>
        <time>2022-11-15T09:08:51.386Z</time>
      </trkpt>
      <trkpt lat="45.73824" lon="4.65495">
        <ele>413.3</ele>
        <time>2022-11-15T09:08:53.626Z</time>
      </trkpt>
      <trkpt lat="45.73826" lon="4.65446">
        <ele>413.2</ele>
        <time>2022-11-15T09:08:58.399Z</time>
      </trkpt>
      <trkpt lat="45.73831" lon="4.65411">
        <ele>413.4</ele>
        <time>2022-11-15T09:09:02.317Z</time>
      </trkpt>
      <trkpt lat="45.7384" lon="4.65388">
        <ele>412.9</ele>
        <time>2022-11-15T09:09:04.224Z</time>
      </trkpt>
      <trkpt lat="45.7385" lon="4.65371">
        <ele>412.5</ele>
        <time>2022-11-15T09:09:05.856Z</time>
      </trkpt>
      <trkpt lat="45.73862" lon="4.65362">
        <ele>413.2</ele>
        <time>2022-11-15T09:09:09.342Z</time>
      </trkpt>
      <trkpt lat="45.73903" lon="4.65349">
        <ele>417.2</ele>
        <time>2022-11-15T09:09:24.536Z</time>
      </trkpt>
      <trkpt lat="45.73963" lon="4.65339">
        <ele>419.9</ele>
        <time>2022-11-15T09:09:39.394Z</time>
      </trkpt>
      <trkpt lat="45.74037" lon="4.65336">
        <ele>426</ele>
        <time>2022-11-15T09:10:03.315Z</time>
      </trkpt>
      <trkpt lat="45.74078" lon="4.65328">
        <ele>428.8</ele>
        <time>2022-11-15T09:10:15.226Z</time>
      </trkpt>
      <trkpt lat="45.74108" lon="4.65316">
        <ele>430.8</ele>
        <time>2022-11-15T09:10:23.968Z</time>
      </trkpt>
      <trkpt lat="45.74138" lon="4.65292">
        <ele>432.4</ele>
        <time>2022-11-15T09:10:32.521Z</time>
      </trkpt>
      <trkpt lat="45.74202" lon="4.65232">
        <ele>437</ele>
        <time>2022-11-15T09:10:53.374Z</time>
      </trkpt>
      <trkpt lat="45.74223" lon="4.65214">
        <ele>438.2</ele>
        <time>2022-11-15T09:10:59.563Z</time>
      </trkpt>
      <trkpt lat="45.74237" lon="4.652">
        <ele>438.5</ele>
        <time>2022-11-15T09:11:02.525Z</time>
      </trkpt>
      <trkpt lat="45.7426" lon="4.65164">
        <ele>441.5</ele>
        <time>2022-11-15T09:11:14.077Z</time>
      </trkpt>
      <trkpt lat="45.74262" lon="4.6514">
        <ele>442.7</ele>
        <time>2022-11-15T09:11:19.061Z</time>
      </trkpt>
      <trkpt lat="45.74258" lon="4.65128">
        <ele>443.2</ele>
        <time>2022-11-15T09:11:21.484Z</time>
      </trkpt>
      <trkpt lat="45.74248" lon="4.65112">
        <ele>443.7</ele>
        <time>2022-11-15T09:11:24.626Z</time>
      </trkpt>
      <trkpt lat="45.74229" lon="4.65094">
        <ele>445</ele>
        <time>2022-11-15T09:11:30.706Z</time>
      </trkpt>
      <trkpt lat="45.74205" lon="4.65051">
        <ele>450.3</ele>
        <time>2022-11-15T09:11:52.281Z</time>
      </trkpt>
      <trkpt lat="45.74199" lon="4.65043">
        <ele>451</ele>
        <time>2022-11-15T09:11:54.997Z</time>
      </trkpt>
      <trkpt lat="45.74192" lon="4.65038">
        <ele>451.4</ele>
        <time>2022-11-15T09:11:57.003Z</time>
      </trkpt>
      <trkpt lat="45.74169" lon="4.65033">
        <ele>452.1</ele>
        <time>2022-11-15T09:12:01.678Z</time>
      </trkpt>
      <trkpt lat="45.74144" lon="4.65025">
        <ele>455.1</ele>
        <time>2022-11-15T09:12:13.315Z</time>
      </trkpt>
      <trkpt lat="45.74132" lon="4.65018">
        <ele>455.7</ele>
        <time>2022-11-15T09:12:16.535Z</time>
      </trkpt>
      <trkpt lat="45.74101" lon="4.64983">
        <ele>456.6</ele>
        <time>2022-11-15T09:12:23.797Z</time>
      </trkpt>
      <trkpt lat="45.74085" lon="4.64955">
        <ele>459</ele>
        <time>2022-11-15T09:12:32.916Z</time>
      </trkpt>
      <trkpt lat="45.74074" lon="4.6492">
        <ele>459.7</ele>
        <time>2022-11-15T09:12:38.042Z</time>
      </trkpt>
      <trkpt lat="45.74072" lon="4.6489">
        <ele>463</ele>
        <time>2022-11-15T09:12:49.851Z</time>
      </trkpt>
      <trkpt lat="45.74077" lon="4.64859">
        <ele>462.8</ele>
        <time>2022-11-15T09:12:52.715Z</time>
      </trkpt>
      <trkpt lat="45.74086" lon="4.6483">
        <ele>464.6</ele>
        <time>2022-11-15T09:12:59.805Z</time>
      </trkpt>
      <trkpt lat="45.74095" lon="4.64753">
        <ele>467.9</ele>
        <time>2022-11-15T09:13:14.705Z</time>
      </trkpt>
      <trkpt lat="45.74104" lon="4.64675">
        <ele>471.6</ele>
        <time>2022-11-15T09:13:30.516Z</time>
      </trkpt>
      <trkpt lat="45.74109" lon="4.6466">
        <ele>472.4</ele>
        <time>2022-11-15T09:13:33.888Z</time>
      </trkpt>
      <trkpt lat="45.74116" lon="4.64648">
        <ele>473.1</ele>
        <time>2022-11-15T09:13:36.950Z</time>
      </trkpt>
      <trkpt lat="45.74128" lon="4.64637">
        <ele>474.2</ele>
        <time>2022-11-15T09:13:41.363Z</time>
      </trkpt>
      <trkpt lat="45.74186" lon="4.64607">
        <ele>478.9</ele>
        <time>2022-11-15T09:14:00.313Z</time>
      </trkpt>
      <trkpt lat="45.74243" lon="4.64577">
        <ele>482.7</ele>
        <time>2022-11-15T09:14:17.158Z</time>
      </trkpt>
      <trkpt lat="45.74253" lon="4.64571">
        <ele>483.5</ele>
        <time>2022-11-15T09:14:20.427Z</time>
      </trkpt>
      <trkpt lat="45.74257" lon="4.64561">
        <ele>483.6</ele>
        <time>2022-11-15T09:14:21.748Z</time>
      </trkpt>
      <trkpt lat="45.74259" lon="4.64549">
        <ele>484.7</ele>
        <time>2022-11-15T09:14:26.216Z</time>
      </trkpt>
      <trkpt lat="45.74258" lon="4.64537">
        <ele>486.5</ele>
        <time>2022-11-15T09:14:30.951Z</time>
      </trkpt>
      <trkpt lat="45.74254" lon="4.64528">
        <ele>487</ele>
        <time>2022-11-15T09:14:33.086Z</time>
      </trkpt>
      <trkpt lat="45.74212" lon="4.64466">
        <ele>490.8</ele>
        <time>2022-11-15T09:14:49.866Z</time>
      </trkpt>
      <trkpt lat="45.74205" lon="4.64442">
        <ele>492</ele>
        <time>2022-11-15T09:14:55.032Z</time>
      </trkpt>
      <trkpt lat="45.74203" lon="4.64424">
        <ele>492.5</ele>
        <time>2022-11-15T09:14:57.925Z</time>
      </trkpt>
      <trkpt lat="45.74206" lon="4.64393">
        <ele>494</ele>
        <time>2022-11-15T09:15:04.259Z</time>
      </trkpt>
      <trkpt lat="45.74229" lon="4.64307">
        <ele>498</ele>
        <time>2022-11-15T09:15:22.045Z</time>
      </trkpt>
      <trkpt lat="45.74238" lon="4.64283">
        <ele>499.3</ele>
        <time>2022-11-15T09:15:27.547Z</time>
      </trkpt>
      <trkpt lat="45.74246" lon="4.64267">
        <ele>499.8</ele>
        <time>2022-11-15T09:15:30.546Z</time>
      </trkpt>
      <trkpt lat="45.74257" lon="4.64254">
        <ele>500.7</ele>
        <time>2022-11-15T09:15:34.517Z</time>
      </trkpt>
      <trkpt lat="45.74277" lon="4.64242">
        <ele>502.1</ele>
        <time>2022-11-15T09:15:40.618Z</time>
      </trkpt>
      <trkpt lat="45.74308" lon="4.64227">
        <ele>505.4</ele>
        <time>2022-11-15T09:15:53.108Z</time>
      </trkpt>
      <trkpt lat="45.7432" lon="4.64218">
        <ele>506.5</ele>
        <time>2022-11-15T09:15:57.442Z</time>
      </trkpt>
      <trkpt lat="45.74329" lon="4.64205">
        <ele>507</ele>
        <time>2022-11-15T09:16:00.341Z</time>
      </trkpt>
      <trkpt lat="45.74335" lon="4.6419">
        <ele>507.4</ele>
        <time>2022-11-15T09:16:02.864Z</time>
      </trkpt>
      <trkpt lat="45.74341" lon="4.64166">
        <ele>508.5</ele>
        <time>2022-11-15T09:16:07.772Z</time>
      </trkpt>
      <trkpt lat="45.74339" lon="4.64142">
        <ele>509.8</ele>
        <time>2022-11-15T09:16:12.992Z</time>
      </trkpt>
      <trkpt lat="45.74317" lon="4.64072">
        <ele>513.4</ele>
        <time>2022-11-15T09:16:28.360Z</time>
      </trkpt>
      <trkpt lat="45.74294" lon="4.64002">
        <ele>515.8</ele>
        <time>2022-11-15T09:16:41.617Z</time>
      </trkpt>
      <trkpt lat="45.74282" lon="4.63949">
        <ele>518.6</ele>
        <time>2022-11-15T09:16:53.182Z</time>
      </trkpt>
      <trkpt lat="45.74282" lon="4.63925">
        <ele>519.8</ele>
        <time>2022-11-15T09:16:58.150Z</time>
      </trkpt>
      <trkpt lat="45.74295" lon="4.63811">
        <ele>524.1</ele>
        <time>2022-11-15T09:17:19.128Z</time>
      </trkpt>
      <trkpt lat="45.74304" lon="4.63789">
        <ele>525.9</ele>
        <time>2022-11-15T09:17:25.940Z</time>
      </trkpt>
      <trkpt lat="45.74323" lon="4.63762">
        <ele>527.5</ele>
        <time>2022-11-15T09:17:33.218Z</time>
      </trkpt>
      <trkpt lat="45.74361" lon="4.63733">
        <ele>531.5</ele>
        <time>2022-11-15T09:17:48.462Z</time>
      </trkpt>
      <trkpt lat="45.74378" lon="4.63727">
        <ele>532.1</ele>
        <time>2022-11-15T09:17:52.177Z</time>
      </trkpt>
      <trkpt lat="45.74464" lon="4.63728">
        <ele>537.4</ele>
        <time>2022-11-15T09:18:15.872Z</time>
      </trkpt>
      <trkpt lat="45.74473" lon="4.63727">
        <ele>538</ele>
        <time>2022-11-15T09:18:18.448Z</time>
      </trkpt>
      <trkpt lat="45.74498" lon="4.6372">
        <ele>540.2</ele>
        <time>2022-11-15T09:18:26.959Z</time>
      </trkpt>
      <trkpt lat="45.74545" lon="4.63696">
        <ele>542.5</ele>
        <time>2022-11-15T09:18:39.343Z</time>
      </trkpt>
      <trkpt lat="45.74568" lon="4.63689">
        <ele>544.4</ele>
        <time>2022-11-15T09:18:46.841Z</time>
      </trkpt>
      <trkpt lat="45.74611" lon="4.63685">
        <ele>548</ele>
        <time>2022-11-15T09:19:00.898Z</time>
      </trkpt>
      <trkpt lat="45.74627" lon="4.63676">
        <ele>549.1</ele>
        <time>2022-11-15T09:19:05.715Z</time>
      </trkpt>
      <trkpt lat="45.74634" lon="4.63659">
        <ele>548.8</ele>
        <time>2022-11-15T09:19:07.231Z</time>
      </trkpt>
      <trkpt lat="45.74636" lon="4.6364">
        <ele>549.2</ele>
        <time>2022-11-15T09:19:09.917Z</time>
      </trkpt>
      <trkpt lat="45.74635" lon="4.63607">
        <ele>549.9</ele>
        <time>2022-11-15T09:19:14.565Z</time>
      </trkpt>
      <trkpt lat="45.74641" lon="4.63583">
        <ele>552.6</ele>
        <time>2022-11-15T09:19:24.554Z</time>
      </trkpt>
      <trkpt lat="45.74649" lon="4.63565">
        <ele>554.4</ele>
        <time>2022-11-15T09:19:31.630Z</time>
      </trkpt>
      <trkpt lat="45.74656" lon="4.63556">
        <ele>555.7</ele>
        <time>2022-11-15T09:19:36.910Z</time>
      </trkpt>
      <trkpt lat="45.74673" lon="4.63543">
        <ele>557.7</ele>
        <time>2022-11-15T09:19:44.485Z</time>
      </trkpt>
      <trkpt lat="45.74702" lon="4.63535">
        <ele>560.5</ele>
        <time>2022-11-15T09:19:55.126Z</time>
      </trkpt>
      <trkpt lat="45.74771" lon="4.6355">
        <ele>568.7</ele>
        <time>2022-11-15T09:20:26.974Z</time>
      </trkpt>
      <trkpt lat="45.74794" lon="4.63544">
        <ele>570.8</ele>
        <time>2022-11-15T09:20:35.026Z</time>
      </trkpt>
      <trkpt lat="45.74841" lon="4.63502">
        <ele>572.8</ele>
        <time>2022-11-15T09:20:47.073Z</time>
      </trkpt>
      <trkpt lat="45.7489" lon="4.63471">
        <ele>576</ele>
        <time>2022-11-15T09:21:01.636Z</time>
      </trkpt>
      <trkpt lat="45.74946" lon="4.63451">
        <ele>578.3</ele>
        <time>2022-11-15T09:21:14.867Z</time>
      </trkpt>
      <trkpt lat="45.74958" lon="4.63435">
        <ele>577.1</ele>
        <time>2022-11-15T09:21:16.166Z</time>
      </trkpt>
      <trkpt lat="45.74963" lon="4.6342">
        <ele>576.9</ele>
        <time>2022-11-15T09:21:17.512Z</time>
      </trkpt>
      <trkpt lat="45.74963" lon="4.63403">
        <ele>576.7</ele>
        <time>2022-11-15T09:21:18.896Z</time>
      </trkpt>
      <trkpt lat="45.74961" lon="4.63387">
        <ele>576.2</ele>
        <time>2022-11-15T09:21:19.889Z</time>
      </trkpt>
      <trkpt lat="45.74946" lon="4.63316">
        <ele>577.3</ele>
        <time>2022-11-15T09:21:29.246Z</time>
      </trkpt>
      <trkpt lat="45.74931" lon="4.63245">
        <ele>580.2</ele>
        <time>2022-11-15T09:21:42.963Z</time>
      </trkpt>
      <trkpt lat="45.74929" lon="4.63197">
        <ele>583.6</ele>
        <time>2022-11-15T09:21:55.831Z</time>
      </trkpt>
      <trkpt lat="45.74947" lon="4.63117">
        <ele>589.4</ele>
        <time>2022-11-15T09:22:17.795Z</time>
      </trkpt>
      <trkpt lat="45.7496" lon="4.63081">
        <ele>591.8</ele>
        <time>2022-11-15T09:22:27.125Z</time>
      </trkpt>
      <trkpt lat="45.74979" lon="4.63042">
        <ele>592.6</ele>
        <time>2022-11-15T09:22:33.326Z</time>
      </trkpt>
      <trkpt lat="45.75041" lon="4.62954">
        <ele>599.1</ele>
        <time>2022-11-15T09:22:59.781Z</time>
      </trkpt>
      <trkpt lat="45.75046" lon="4.62942">
        <ele>599.4</ele>
        <time>2022-11-15T09:23:01.758Z</time>
      </trkpt>
      <trkpt lat="45.75056" lon="4.62879">
        <ele>601.5</ele>
        <time>2022-11-15T09:23:12.981Z</time>
      </trkpt>
      <trkpt lat="45.75062" lon="4.62809">
        <ele>605.7</ele>
        <time>2022-11-15T09:23:29.282Z</time>
      </trkpt>
      <trkpt lat="45.75068" lon="4.6278">
        <ele>606.7</ele>
        <time>2022-11-15T09:23:34.564Z</time>
      </trkpt>
      <trkpt lat="45.7508" lon="4.62748">
        <ele>607.8</ele>
        <time>2022-11-15T09:23:40.688Z</time>
      </trkpt>
      <trkpt lat="45.75113" lon="4.62693">
        <ele>610.3</ele>
        <time>2022-11-15T09:23:53.520Z</time>
      </trkpt>
      <trkpt lat="45.75133" lon="4.62663">
        <ele>612.3</ele>
        <time>2022-11-15T09:24:01.942Z</time>
      </trkpt>
      <trkpt lat="45.7515" lon="4.6263">
        <ele>614.2</ele>
        <time>2022-11-15T09:24:10.103Z</time>
      </trkpt>
      <trkpt lat="45.75159" lon="4.62582">
        <ele>616.3</ele>
        <time>2022-11-15T09:24:19.586Z</time>
      </trkpt>
      <trkpt lat="45.75175" lon="4.62468">
        <ele>620</ele>
        <time>2022-11-15T09:24:39.660Z</time>
      </trkpt>
      <trkpt lat="45.75175" lon="4.62452">
        <ele>620.6</ele>
        <time>2022-11-15T09:24:42.573Z</time>
      </trkpt>
      <trkpt lat="45.75172" lon="4.62438">
        <ele>621.4</ele>
        <time>2022-11-15T09:24:45.766Z</time>
      </trkpt>
      <trkpt lat="45.75166" lon="4.62428">
        <ele>622.4</ele>
        <time>2022-11-15T09:24:49.571Z</time>
      </trkpt>
      <trkpt lat="45.75156" lon="4.62425">
        <ele>624.1</ele>
        <time>2022-11-15T09:24:55.307Z</time>
      </trkpt>
      <trkpt lat="45.75144" lon="4.62428">
        <ele>625</ele>
        <time>2022-11-15T09:24:58.983Z</time>
      </trkpt>
      <trkpt lat="45.75131" lon="4.62444">
        <ele>624.9</ele>
        <time>2022-11-15T09:25:01.272Z</time>
      </trkpt>
      <trkpt lat="45.75106" lon="4.6249">
        <ele>626.9</ele>
        <time>2022-11-15T09:25:11.571Z</time>
      </trkpt>
      <trkpt lat="45.75086" lon="4.62521">
        <ele>628.6</ele>
        <time>2022-11-15T09:25:19.468Z</time>
      </trkpt>
      <trkpt lat="45.75071" lon="4.6254">
        <ele>629.2</ele>
        <time>2022-11-15T09:25:23.485Z</time>
      </trkpt>
      <trkpt lat="45.75055" lon="4.62553">
        <ele>630.8</ele>
        <time>2022-11-15T09:25:29.664Z</time>
      </trkpt>
      <trkpt lat="45.75022" lon="4.62574">
        <ele>633.3</ele>
        <time>2022-11-15T09:25:40.180Z</time>
      </trkpt>
      <trkpt lat="45.74965" lon="4.62593">
        <ele>638</ele>
        <time>2022-11-15T09:25:58.767Z</time>
      </trkpt>
      <trkpt lat="45.74908" lon="4.62612">
        <ele>641.7</ele>
        <time>2022-11-15T09:26:15.076Z</time>
      </trkpt>
      <trkpt lat="45.74877" lon="4.62618">
        <ele>643</ele>
        <time>2022-11-15T09:26:22.428Z</time>
      </trkpt>
      <trkpt lat="45.74854" lon="4.62616">
        <ele>644.3</ele>
        <time>2022-11-15T09:26:28.550Z</time>
      </trkpt>
      <trkpt lat="45.74836" lon="4.62602">
        <ele>645.5</ele>
        <time>2022-11-15T09:26:34.074Z</time>
      </trkpt>
      <trkpt lat="45.74825" lon="4.62575">
        <ele>647.3</ele>
        <time>2022-11-15T09:26:41.130Z</time>
      </trkpt>
      <trkpt lat="45.74815" lon="4.62539">
        <ele>648.8</ele>
        <time>2022-11-15T09:26:48.268Z</time>
      </trkpt>
      <trkpt lat="45.74814" lon="4.62442">
        <ele>654.2</ele>
        <time>2022-11-15T09:27:09.674Z</time>
      </trkpt>
      <trkpt lat="45.74812" lon="4.62346">
        <ele>658.6</ele>
        <time>2022-11-15T09:27:28.682Z</time>
      </trkpt>
      <trkpt lat="45.74814" lon="4.6231">
        <ele>660</ele>
        <time>2022-11-15T09:27:35.339Z</time>
      </trkpt>
      <trkpt lat="45.74819" lon="4.62282">
        <ele>661.4</ele>
        <time>2022-11-15T09:27:41.220Z</time>
      </trkpt>
      <trkpt lat="45.74839" lon="4.62211">
        <ele>665.1</ele>
        <time>2022-11-15T09:27:56.782Z</time>
      </trkpt>
      <trkpt lat="45.74857" lon="4.62138">
        <ele>666.3</ele>
        <time>2022-11-15T09:28:06.656Z</time>
      </trkpt>
      <trkpt lat="45.74871" lon="4.62102">
        <ele>669.2</ele>
        <time>2022-11-15T09:28:17.632Z</time>
      </trkpt>
      <trkpt lat="45.74895" lon="4.62064">
        <ele>672.6</ele>
        <time>2022-11-15T09:28:30.549Z</time>
      </trkpt>
      <trkpt lat="45.74922" lon="4.61995">
        <ele>675.6</ele>
        <time>2022-11-15T09:28:45.012Z</time>
      </trkpt>
      <trkpt lat="45.74949" lon="4.61926">
        <ele>679.6</ele>
        <time>2022-11-15T09:29:01.487Z</time>
      </trkpt>
      <trkpt lat="45.7497" lon="4.61837">
        <ele>683.2</ele>
        <time>2022-11-15T09:29:18.728Z</time>
      </trkpt>
      <trkpt lat="45.74992" lon="4.61749">
        <ele>688.5</ele>
        <time>2022-11-15T09:29:39.606Z</time>
      </trkpt>
      <trkpt lat="45.75013" lon="4.6166">
        <ele>692.5</ele>
        <time>2022-11-15T09:29:57.590Z</time>
      </trkpt>
      <trkpt lat="45.75025" lon="4.61623">
        <ele>694.9</ele>
        <time>2022-11-15T09:30:06.938Z</time>
      </trkpt>
      <trkpt lat="45.75048" lon="4.61566">
        <ele>697.4</ele>
        <time>2022-11-15T09:30:18.980Z</time>
      </trkpt>
      <trkpt lat="45.75071" lon="4.61509">
        <ele>700.8</ele>
        <time>2022-11-15T09:30:32.857Z</time>
      </trkpt>
      <trkpt lat="45.75077" lon="4.61482">
        <ele>701.7</ele>
        <time>2022-11-15T09:30:37.746Z</time>
      </trkpt>
      <trkpt lat="45.75093" lon="4.61362">
        <ele>706.8</ele>
        <time>2022-11-15T09:31:00.937Z</time>
      </trkpt>
      <trkpt lat="45.75095" lon="4.61337">
        <ele>708.1</ele>
        <time>2022-11-15T09:31:06.242Z</time>
      </trkpt>
      <trkpt lat="45.7509" lon="4.61293">
        <ele>710.6</ele>
        <time>2022-11-15T09:31:16.126Z</time>
      </trkpt>
      <trkpt lat="45.75085" lon="4.61279">
        <ele>711.3</ele>
        <time>2022-11-15T09:31:19.197Z</time>
      </trkpt>
      <trkpt lat="45.75071" lon="4.61255">
        <ele>712.4</ele>
        <time>2022-11-15T09:31:24.767Z</time>
      </trkpt>
      <trkpt lat="45.75041" lon="4.61227">
        <ele>714.2</ele>
        <time>2022-11-15T09:31:33.896Z</time>
      </trkpt>
      <trkpt lat="45.74994" lon="4.61189">
        <ele>717.9</ele>
        <time>2022-11-15T09:31:49.534Z</time>
      </trkpt>
      <trkpt lat="45.74967" lon="4.61176">
        <ele>720</ele>
        <time>2022-11-15T09:31:58.118Z</time>
      </trkpt>
      <trkpt lat="45.74949" lon="4.61175">
        <ele>721.6</ele>
        <time>2022-11-15T09:32:04.267Z</time>
      </trkpt>
      <trkpt lat="45.7493" lon="4.61179">
        <ele>723</ele>
        <time>2022-11-15T09:32:10.018Z</time>
      </trkpt>
      <trkpt lat="45.74875" lon="4.61201">
        <ele>726.3</ele>
        <time>2022-11-15T09:32:25.334Z</time>
      </trkpt>
      <trkpt lat="45.74853" lon="4.61207">
        <ele>726.7</ele>
        <time>2022-11-15T09:32:29.232Z</time>
      </trkpt>
      <trkpt lat="45.74827" lon="4.61205">
        <ele>727.8</ele>
        <time>2022-11-15T09:32:35.415Z</time>
      </trkpt>
      <trkpt lat="45.74813" lon="4.61201">
        <ele>728.6</ele>
        <time>2022-11-15T09:32:39.198Z</time>
      </trkpt>
      <trkpt lat="45.74798" lon="4.61194">
        <ele>730.3</ele>
        <time>2022-11-15T09:32:45.658Z</time>
      </trkpt>
      <trkpt lat="45.7479" lon="4.61186">
        <ele>731.3</ele>
        <time>2022-11-15T09:32:49.443Z</time>
      </trkpt>
      <trkpt lat="45.74771" lon="4.61149">
        <ele>732.9</ele>
        <time>2022-11-15T09:32:57.598Z</time>
      </trkpt>
      <trkpt lat="45.74749" lon="4.61121">
        <ele>730.9</ele>
        <time>2022-11-15T09:32:59.930Z</time>
      </trkpt>
      <trkpt lat="45.7471" lon="4.61078">
        <ele>726</ele>
        <time>2022-11-15T09:33:03.830Z</time>
      </trkpt>
      <trkpt lat="45.7467" lon="4.61035">
        <ele>724</ele>
        <time>2022-11-15T09:33:08.380Z</time>
      </trkpt>
      <trkpt lat="45.74639" lon="4.60982">
        <ele>720.4</ele>
        <time>2022-11-15T09:33:12.205Z</time>
      </trkpt>
      <trkpt lat="45.74608" lon="4.60919">
        <ele>718.1</ele>
        <time>2022-11-15T09:33:16.975Z</time>
      </trkpt>
      <trkpt lat="45.74592" lon="4.60863">
        <ele>716</ele>
        <time>2022-11-15T09:33:20.492Z</time>
      </trkpt>
      <trkpt lat="45.74583" lon="4.6081">
        <ele>713.4</ele>
        <time>2022-11-15T09:33:23.509Z</time>
      </trkpt>
      <trkpt lat="45.74571" lon="4.60714">
        <ele>708.7</ele>
        <time>2022-11-15T09:33:28.903Z</time>
      </trkpt>
      <trkpt lat="45.74561" lon="4.60666">
        <ele>706.1</ele>
        <time>2022-11-15T09:33:31.673Z</time>
      </trkpt>
      <trkpt lat="45.7453" lon="4.60583">
        <ele>701.3</ele>
        <time>2022-11-15T09:33:36.880Z</time>
      </trkpt>
      <trkpt lat="45.74498" lon="4.60501">
        <ele>696.7</ele>
        <time>2022-11-15T09:33:42.076Z</time>
      </trkpt>
      <trkpt lat="45.74456" lon="4.6041">
        <ele>690.2</ele>
        <time>2022-11-15T09:33:48.110Z</time>
      </trkpt>
      <trkpt lat="45.74413" lon="4.6032">
        <ele>686.5</ele>
        <time>2022-11-15T09:33:54.512Z</time>
      </trkpt>
      <trkpt lat="45.74408" lon="4.603">
        <ele>686.7</ele>
        <time>2022-11-15T09:33:56.975Z</time>
      </trkpt>
      <trkpt lat="45.7441" lon="4.60284">
        <ele>686.6</ele>
        <time>2022-11-15T09:33:58.441Z</time>
      </trkpt>
      <trkpt lat="45.74444" lon="4.60233">
        <ele>679.3</ele>
        <time>2022-11-15T09:34:02.342Z</time>
      </trkpt>
      <trkpt lat="45.74472" lon="4.60169">
        <ele>677.5</ele>
        <time>2022-11-15T09:34:07.422Z</time>
      </trkpt>
      <trkpt lat="45.74481" lon="4.60157">
        <ele>677.1</ele>
        <time>2022-11-15T09:34:08.626Z</time>
      </trkpt>
      <trkpt lat="45.74501" lon="4.60144">
        <ele>673.2</ele>
        <time>2022-11-15T09:34:10.366Z</time>
      </trkpt>
      <trkpt lat="45.74518" lon="4.60122">
        <ele>672.2</ele>
        <time>2022-11-15T09:34:12.380Z</time>
      </trkpt>
      <trkpt lat="45.74538" lon="4.60088">
        <ele>669.8</ele>
        <time>2022-11-15T09:34:14.840Z</time>
      </trkpt>
      <trkpt lat="45.74582" lon="4.59979">
        <ele>663.7</ele>
        <time>2022-11-15T09:34:21.804Z</time>
      </trkpt>
      <trkpt lat="45.74625" lon="4.59869">
        <ele>656.6</ele>
        <time>2022-11-15T09:34:28.777Z</time>
      </trkpt>
      <trkpt lat="45.7464" lon="4.59813">
        <ele>653.6</ele>
        <time>2022-11-15T09:34:32.094Z</time>
      </trkpt>
      <trkpt lat="45.74643" lon="4.59768">
        <ele>651.8</ele>
        <time>2022-11-15T09:34:34.565Z</time>
      </trkpt>
      <trkpt lat="45.74636" lon="4.59733">
        <ele>649.7</ele>
        <time>2022-11-15T09:34:36.578Z</time>
      </trkpt>
      <trkpt lat="45.7462" lon="4.59702">
        <ele>647.1</ele>
        <time>2022-11-15T09:34:38.711Z</time>
      </trkpt>
      <trkpt lat="45.74598" lon="4.59679">
        <ele>643.6</ele>
        <time>2022-11-15T09:34:40.869Z</time>
      </trkpt>
      <trkpt lat="45.74583" lon="4.59674">
        <ele>642.9</ele>
        <time>2022-11-15T09:34:42.201Z</time>
      </trkpt>
      <trkpt lat="45.74549" lon="4.59672">
        <ele>644</ele>
        <time>2022-11-15T09:34:49.238Z</time>
      </trkpt>
      <trkpt lat="45.74538" lon="4.59667">
        <ele>644.6</ele>
        <time>2022-11-15T09:34:52.214Z</time>
      </trkpt>
      <trkpt lat="45.74531" lon="4.59649">
        <ele>644</ele>
        <time>2022-11-15T09:34:53.502Z</time>
      </trkpt>
      <trkpt lat="45.74531" lon="4.59618">
        <ele>641.4</ele>
        <time>2022-11-15T09:34:55.216Z</time>
      </trkpt>
      <trkpt lat="45.74546" lon="4.59536">
        <ele>636.2</ele>
        <time>2022-11-15T09:34:59.905Z</time>
      </trkpt>
      <trkpt lat="45.74564" lon="4.59489">
        <ele>632.5</ele>
        <time>2022-11-15T09:35:02.870Z</time>
      </trkpt>
      <trkpt lat="45.74584" lon="4.5946">
        <ele>629.7</ele>
        <time>2022-11-15T09:35:05.125Z</time>
      </trkpt>
      <trkpt lat="45.74634" lon="4.59423">
        <ele>623.1</ele>
        <time>2022-11-15T09:35:09.584Z</time>
      </trkpt>
      <trkpt lat="45.74649" lon="4.59399">
        <ele>622.6</ele>
        <time>2022-11-15T09:35:12.045Z</time>
      </trkpt>
      <trkpt lat="45.74669" lon="4.59353">
        <ele>620.2</ele>
        <time>2022-11-15T09:35:14.860Z</time>
      </trkpt>
      <trkpt lat="45.74684" lon="4.59331">
        <ele>618.2</ele>
        <time>2022-11-15T09:35:16.561Z</time>
      </trkpt>
      <trkpt lat="45.74711" lon="4.59298">
        <ele>615.7</ele>
        <time>2022-11-15T09:35:19.373Z</time>
      </trkpt>
      <trkpt lat="45.74724" lon="4.59269">
        <ele>614.7</ele>
        <time>2022-11-15T09:35:21.530Z</time>
      </trkpt>
      <trkpt lat="45.74732" lon="4.59239">
        <ele>611.6</ele>
        <time>2022-11-15T09:35:23.306Z</time>
      </trkpt>
      <trkpt lat="45.74727" lon="4.59149">
        <ele>607.3</ele>
        <time>2022-11-15T09:35:28.299Z</time>
      </trkpt>
      <trkpt lat="45.74722" lon="4.5906">
        <ele>604.1</ele>
        <time>2022-11-15T09:35:33.416Z</time>
      </trkpt>
      <trkpt lat="45.74726" lon="4.59021">
        <ele>602.7</ele>
        <time>2022-11-15T09:35:35.685Z</time>
      </trkpt>
      <trkpt lat="45.74739" lon="4.58987">
        <ele>601.4</ele>
        <time>2022-11-15T09:35:37.972Z</time>
      </trkpt>
      <trkpt lat="45.74758" lon="4.58972">
        <ele>599.6</ele>
        <time>2022-11-15T09:35:39.691Z</time>
      </trkpt>
      <trkpt lat="45.7479" lon="4.58968">
        <ele>593.8</ele>
        <time>2022-11-15T09:35:42.236Z</time>
      </trkpt>
      <trkpt lat="45.74801" lon="4.58964">
        <ele>591.9</ele>
        <time>2022-11-15T09:35:43.136Z</time>
      </trkpt>
      <trkpt lat="45.74812" lon="4.58944">
        <ele>593.2</ele>
        <time>2022-11-15T09:35:48.468Z</time>
      </trkpt>
      <trkpt lat="45.74827" lon="4.58933">
        <ele>592.7</ele>
        <time>2022-11-15T09:35:50.168Z</time>
      </trkpt>
      <trkpt lat="45.7485" lon="4.58935">
        <ele>589.5</ele>
        <time>2022-11-15T09:35:51.994Z</time>
      </trkpt>
      <trkpt lat="45.7487" lon="4.5894">
        <ele>587.6</ele>
        <time>2022-11-15T09:35:53.603Z</time>
      </trkpt>
      <trkpt lat="45.74912" lon="4.58965">
        <ele>583.5</ele>
        <time>2022-11-15T09:35:57.207Z</time>
      </trkpt>
      <trkpt lat="45.74954" lon="4.5899">
        <ele>581.2</ele>
        <time>2022-11-15T09:36:00.968Z</time>
      </trkpt>
      <trkpt lat="45.74976" lon="4.58996">
        <ele>580.1</ele>
        <time>2022-11-15T09:36:02.843Z</time>
      </trkpt>
      <trkpt lat="45.74993" lon="4.58987">
        <ele>578.6</ele>
        <time>2022-11-15T09:36:04.280Z</time>
      </trkpt>
      <trkpt lat="45.75004" lon="4.58969">
        <ele>577.8</ele>
        <time>2022-11-15T09:36:05.693Z</time>
      </trkpt>
      <trkpt lat="45.75007" lon="4.5894">
        <ele>576.3</ele>
        <time>2022-11-15T09:36:07.314Z</time>
      </trkpt>
      <trkpt lat="45.75006" lon="4.58924">
        <ele>575</ele>
        <time>2022-11-15T09:36:08.202Z</time>
      </trkpt>
      <trkpt lat="45.74989" lon="4.58862">
        <ele>573.4</ele>
        <time>2022-11-15T09:36:12.669Z</time>
      </trkpt>
      <trkpt lat="45.74992" lon="4.58822">
        <ele>570.5</ele>
        <time>2022-11-15T09:36:14.894Z</time>
      </trkpt>
      <trkpt lat="45.75008" lon="4.58741">
        <ele>563.9</ele>
        <time>2022-11-15T09:36:19.549Z</time>
      </trkpt>
      <trkpt lat="45.75023" lon="4.58659">
        <ele>560.5</ele>
        <time>2022-11-15T09:36:24.165Z</time>
      </trkpt>
      <trkpt lat="45.75035" lon="4.58643">
        <ele>558.8</ele>
        <time>2022-11-15T09:36:25.464Z</time>
      </trkpt>
      <trkpt lat="45.75059" lon="4.58608">
        <ele>555.2</ele>
        <time>2022-11-15T09:36:28.178Z</time>
      </trkpt>
      <trkpt lat="45.7507" lon="4.58569">
        <ele>554.4</ele>
        <time>2022-11-15T09:36:31.217Z</time>
      </trkpt>
      <trkpt lat="45.75079" lon="4.58505">
        <ele>550.7</ele>
        <time>2022-11-15T09:36:34.827Z</time>
      </trkpt>
      <trkpt lat="45.75097" lon="4.58415">
        <ele>545.8</ele>
        <time>2022-11-15T09:36:40.004Z</time>
      </trkpt>
      <trkpt lat="45.75113" lon="4.58363">
        <ele>542.4</ele>
        <time>2022-11-15T09:36:43.147Z</time>
      </trkpt>
      <trkpt lat="45.75113" lon="4.58325">
        <ele>540.2</ele>
        <time>2022-11-15T09:36:45.249Z</time>
      </trkpt>
      <trkpt lat="45.75102" lon="4.58199">
        <ele>532.4</ele>
        <time>2022-11-15T09:36:52.271Z</time>
      </trkpt>
      <trkpt lat="45.75085" lon="4.58124">
        <ele>527.2</ele>
        <time>2022-11-15T09:36:56.632Z</time>
      </trkpt>
      <trkpt lat="45.75068" lon="4.5805">
        <ele>521.8</ele>
        <time>2022-11-15T09:37:00.940Z</time>
      </trkpt>
      <trkpt lat="45.75039" lon="4.57964">
        <ele>518.4</ele>
        <time>2022-11-15T09:37:06.430Z</time>
      </trkpt>
      <trkpt lat="45.74998" lon="4.57856">
        <ele>513.6</ele>
        <time>2022-11-15T09:37:13.210Z</time>
      </trkpt>
      <trkpt lat="45.74957" lon="4.57748">
        <ele>508.8</ele>
        <time>2022-11-15T09:37:19.989Z</time>
      </trkpt>
      <trkpt lat="45.74919" lon="4.57685">
        <ele>503.5</ele>
        <time>2022-11-15T09:37:24.594Z</time>
      </trkpt>
      <trkpt lat="45.74881" lon="4.57622">
        <ele>497.9</ele>
        <time>2022-11-15T09:37:29.200Z</time>
      </trkpt>
      <trkpt lat="45.74843" lon="4.57537">
        <ele>494.3</ele>
        <time>2022-11-15T09:37:34.998Z</time>
      </trkpt>
      <trkpt lat="45.74814" lon="4.57446">
        <ele>492.3</ele>
        <time>2022-11-15T09:37:42.118Z</time>
      </trkpt>
      <trkpt lat="45.74796" lon="4.57376">
        <ele>489.5</ele>
        <time>2022-11-15T09:37:46.306Z</time>
      </trkpt>
      <trkpt lat="45.74777" lon="4.57306">
        <ele>485.9</ele>
        <time>2022-11-15T09:37:50.460Z</time>
      </trkpt>
      <trkpt lat="45.7477" lon="4.57285">
        <ele>485.4</ele>
        <time>2022-11-15T09:37:52.080Z</time>
      </trkpt>
      <trkpt lat="45.74763" lon="4.57276">
        <ele>484.3</ele>
        <time>2022-11-15T09:37:52.825Z</time>
      </trkpt>
      <trkpt lat="45.74753" lon="4.57275">
        <ele>482.5</ele>
        <time>2022-11-15T09:37:53.619Z</time>
      </trkpt>
      <trkpt lat="45.74745" lon="4.57282">
        <ele>480.2</ele>
        <time>2022-11-15T09:37:54.362Z</time>
      </trkpt>
      <trkpt lat="45.74742" lon="4.57297">
        <ele>478.9</ele>
        <time>2022-11-15T09:37:55.225Z</time>
      </trkpt>
      <trkpt lat="45.74743" lon="4.57314">
        <ele>478.5</ele>
        <time>2022-11-15T09:37:56.379Z</time>
      </trkpt>
      <trkpt lat="45.74762" lon="4.57395">
        <ele>475.9</ele>
        <time>2022-11-15T09:38:01.625Z</time>
      </trkpt>
      <trkpt lat="45.74773" lon="4.57457">
        <ele>474</ele>
        <time>2022-11-15T09:38:05.591Z</time>
      </trkpt>
      <trkpt lat="45.74793" lon="4.5755">
        <ele>469.6</ele>
        <time>2022-11-15T09:38:10.592Z</time>
      </trkpt>
      <trkpt lat="45.74812" lon="4.57644">
        <ele>463</ele>
        <time>2022-11-15T09:38:16.005Z</time>
      </trkpt>
      <trkpt lat="45.74829" lon="4.57711">
        <ele>460.7</ele>
        <time>2022-11-15T09:38:20.278Z</time>
      </trkpt>
      <trkpt lat="45.74845" lon="4.57779">
        <ele>458.9</ele>
        <time>2022-11-15T09:38:25.018Z</time>
      </trkpt>
      <trkpt lat="45.74844" lon="4.578">
        <ele>458.1</ele>
        <time>2022-11-15T09:38:26.193Z</time>
      </trkpt>
      <trkpt lat="45.74839" lon="4.57813">
        <ele>457.9</ele>
        <time>2022-11-15T09:38:27.366Z</time>
      </trkpt>
      <trkpt lat="45.7483" lon="4.57821">
        <ele>458.5</ele>
        <time>2022-11-15T09:38:30.184Z</time>
      </trkpt>
      <trkpt lat="45.74818" lon="4.57819">
        <ele>459.3</ele>
        <time>2022-11-15T09:38:33.625Z</time>
      </trkpt>
      <trkpt lat="45.74803" lon="4.57802">
        <ele>457.7</ele>
        <time>2022-11-15T09:38:35.141Z</time>
      </trkpt>
      <trkpt lat="45.74761" lon="4.57743">
        <ele>449.5</ele>
        <time>2022-11-15T09:38:39.802Z</time>
      </trkpt>
      <trkpt lat="45.74724" lon="4.57674">
        <ele>445.3</ele>
        <time>2022-11-15T09:38:44.614Z</time>
      </trkpt>
      <trkpt lat="45.74699" lon="4.57639">
        <ele>441.9</ele>
        <time>2022-11-15T09:38:47.384Z</time>
      </trkpt>
      <trkpt lat="45.74663" lon="4.57597">
        <ele>437.6</ele>
        <time>2022-11-15T09:38:51.063Z</time>
      </trkpt>
      <trkpt lat="45.74626" lon="4.57555">
        <ele>434.2</ele>
        <time>2022-11-15T09:38:54.804Z</time>
      </trkpt>
      <trkpt lat="45.74605" lon="4.57513">
        <ele>432.6</ele>
        <time>2022-11-15T09:38:57.954Z</time>
      </trkpt>
      <trkpt lat="45.74583" lon="4.57481">
        <ele>431.3</ele>
        <time>2022-11-15T09:39:00.767Z</time>
      </trkpt>
      <trkpt lat="45.74543" lon="4.57434">
        <ele>427.7</ele>
        <time>2022-11-15T09:39:04.867Z</time>
      </trkpt>
      <trkpt lat="45.74521" lon="4.57376">
        <ele>423.8</ele>
        <time>2022-11-15T09:39:08.518Z</time>
      </trkpt>
      <trkpt lat="45.74505" lon="4.57349">
        <ele>421.5</ele>
        <time>2022-11-15T09:39:10.477Z</time>
      </trkpt>
      <trkpt lat="45.74469" lon="4.57326">
        <ele>421.4</ele>
        <time>2022-11-15T09:39:16.000Z</time>
      </trkpt>
      <trkpt lat="45.74459" lon="4.57302">
        <ele>420.3</ele>
        <time>2022-11-15T09:39:17.536Z</time>
      </trkpt>
      <trkpt lat="45.74433" lon="4.57212">
        <ele>414.6</ele>
        <time>2022-11-15T09:39:22.923Z</time>
      </trkpt>
      <trkpt lat="45.7442" lon="4.57134">
        <ele>412.3</ele>
        <time>2022-11-15T09:39:27.963Z</time>
      </trkpt>
      <trkpt lat="45.74413" lon="4.57115">
        <ele>412.4</ele>
        <time>2022-11-15T09:39:30.287Z</time>
      </trkpt>
      <trkpt lat="45.74394" lon="4.5711">
        <ele>411.8</ele>
        <time>2022-11-15T09:39:32.208Z</time>
      </trkpt>
      <trkpt lat="45.74309" lon="4.57122">
        <ele>405</ele>
        <time>2022-11-15T09:39:38.977Z</time>
      </trkpt>
      <trkpt lat="45.74261" lon="4.57127">
        <ele>401</ele>
        <time>2022-11-15T09:39:42.791Z</time>
      </trkpt>
      <trkpt lat="45.74213" lon="4.57132">
        <ele>396</ele>
        <time>2022-11-15T09:39:46.606Z</time>
      </trkpt>
      <trkpt lat="45.74184" lon="4.57142">
        <ele>395.1</ele>
        <time>2022-11-15T09:39:49.599Z</time>
      </trkpt>
      <trkpt lat="45.74165" lon="4.57155">
        <ele>396.3</ele>
        <time>2022-11-15T09:39:55.216Z</time>
      </trkpt>
      <trkpt lat="45.74146" lon="4.57163">
        <ele>394.8</ele>
        <time>2022-11-15T09:39:56.785Z</time>
      </trkpt>
      <trkpt lat="45.74128" lon="4.57166">
        <ele>393.9</ele>
        <time>2022-11-15T09:39:58.295Z</time>
      </trkpt>
      <trkpt lat="45.74124" lon="4.57166">
        <ele>393.9</ele>
        <time>2022-11-15T09:39:58.878Z</time>
      </trkpt>
      <trkpt lat="45.74115" lon="4.57159">
        <ele>393.4</ele>
        <time>2022-11-15T09:39:59.737Z</time>
      </trkpt>
      <trkpt lat="45.74111" lon="4.57142">
        <ele>392.3</ele>
        <time>2022-11-15T09:40:00.730Z</time>
      </trkpt>
      <trkpt lat="45.74111" lon="4.57144">
        <ele>392.4</ele>
        <time>2022-11-15T09:40:01.144Z</time>
      </trkpt>
      <trkpt lat="45.74112" lon="4.57126">
        <ele>392.4</ele>
        <time>2022-11-15T09:40:02.978Z</time>
      </trkpt>
      <trkpt lat="45.74118" lon="4.57114">
        <ele>392</ele>
        <time>2022-11-15T09:40:03.926Z</time>
      </trkpt>
      <trkpt lat="45.74145" lon="4.57086">
        <ele>387.7</ele>
        <time>2022-11-15T09:40:06.568Z</time>
      </trkpt>
      <trkpt lat="45.74183" lon="4.57073">
        <ele>385.6</ele>
        <time>2022-11-15T09:40:09.712Z</time>
      </trkpt>
      <trkpt lat="45.74203" lon="4.57062">
        <ele>384.4</ele>
        <time>2022-11-15T09:40:11.404Z</time>
      </trkpt>
      <trkpt lat="45.74219" lon="4.57043">
        <ele>382.5</ele>
        <time>2022-11-15T09:40:13.051Z</time>
      </trkpt>
      <trkpt lat="45.74263" lon="4.57019">
        <ele>379.2</ele>
        <time>2022-11-15T09:40:16.782Z</time>
      </trkpt>
      <trkpt lat="45.7428" lon="4.57017">
        <ele>378.4</ele>
        <time>2022-11-15T09:40:18.238Z</time>
      </trkpt>
      <trkpt lat="45.74313" lon="4.56986">
        <ele>378.6</ele>
        <time>2022-11-15T09:40:24.262Z</time>
      </trkpt>
      <trkpt lat="45.74357" lon="4.56954">
        <ele>376.1</ele>
        <time>2022-11-15T09:40:28.339Z</time>
      </trkpt>
      <trkpt lat="45.74423" lon="4.56913">
        <ele>370.2</ele>
        <time>2022-11-15T09:40:34.040Z</time>
      </trkpt>
      <trkpt lat="45.74434" lon="4.56905">
        <ele>370.2</ele>
        <time>2022-11-15T09:40:35.836Z</time>
      </trkpt>
      <trkpt lat="45.74472" lon="4.5687">
        <ele>368.1</ele>
        <time>2022-11-15T09:40:39.707Z</time>
      </trkpt>
      <trkpt lat="45.74504" lon="4.56833">
        <ele>366.5</ele>
        <time>2022-11-15T09:40:43.488Z</time>
      </trkpt>
      <trkpt lat="45.74521" lon="4.56821">
        <ele>366</ele>
        <time>2022-11-15T09:40:45.469Z</time>
      </trkpt>
      <trkpt lat="45.74551" lon="4.56816">
        <ele>362.8</ele>
        <time>2022-11-15T09:40:47.862Z</time>
      </trkpt>
      <trkpt lat="45.74566" lon="4.56807">
        <ele>362.2</ele>
        <time>2022-11-15T09:40:49.387Z</time>
      </trkpt>
      <trkpt lat="45.74596" lon="4.56777">
        <ele>361.1</ele>
        <time>2022-11-15T09:40:53.062Z</time>
      </trkpt>
      <trkpt lat="45.74636" lon="4.56728">
        <ele>357.9</ele>
        <time>2022-11-15T09:40:57.061Z</time>
      </trkpt>
      <trkpt lat="45.74676" lon="4.56678">
        <ele>354.6</ele>
        <time>2022-11-15T09:41:01.050Z</time>
      </trkpt>
      <trkpt lat="45.74714" lon="4.56625">
        <ele>351.5</ele>
        <time>2022-11-15T09:41:05.156Z</time>
      </trkpt>
      <trkpt lat="45.74743" lon="4.56554">
        <ele>349.1</ele>
        <time>2022-11-15T09:41:10.291Z</time>
      </trkpt>
      <trkpt lat="45.7477" lon="4.56468">
        <ele>351.6</ele>
        <time>2022-11-15T09:41:24.983Z</time>
      </trkpt>
      <trkpt lat="45.748" lon="4.5639">
        <ele>355.7</ele>
        <time>2022-11-15T09:41:42.651Z</time>
      </trkpt>
      <trkpt lat="45.74826" lon="4.56338">
        <ele>354.3</ele>
        <time>2022-11-15T09:41:47.076Z</time>
      </trkpt>
      <trkpt lat="45.74874" lon="4.56268">
        <ele>351</ele>
        <time>2022-11-15T09:41:52.858Z</time>
      </trkpt>
      <trkpt lat="45.74921" lon="4.56198">
        <ele>337.5</ele>
        <time>2022-11-15T09:41:58.230Z</time>
      </trkpt>
      <trkpt lat="45.74958" lon="4.56152">
        <ele>335.9</ele>
        <time>2022-11-15T09:42:03.021Z</time>
      </trkpt>
      <trkpt lat="45.74995" lon="4.56106">
        <ele>336.7</ele>
        <time>2022-11-15T09:42:11.405Z</time>
      </trkpt>
      <trkpt lat="45.75058" lon="4.56033">
        <ele>336.4</ele>
        <time>2022-11-15T09:42:22.566Z</time>
      </trkpt>
      <trkpt lat="45.75067" lon="4.56026">
        <ele>336.5</ele>
        <time>2022-11-15T09:42:24.203Z</time>
      </trkpt>
      <trkpt lat="45.7511" lon="4.55999">
        <ele>334.5</ele>
        <time>2022-11-15T09:42:28.371Z</time>
      </trkpt>
      <trkpt lat="45.75153" lon="4.55972">
        <ele>333</ele>
        <time>2022-11-15T09:42:32.997Z</time>
      </trkpt>
      <trkpt lat="45.75194" lon="4.55956">
        <ele>328.9</ele>
        <time>2022-11-15T09:42:36.365Z</time>
      </trkpt>
      <trkpt lat="45.7524" lon="4.55961">
        <ele>329.1</ele>
        <time>2022-11-15T09:42:43.358Z</time>
      </trkpt>
      <trkpt lat="45.7529" lon="4.55941">
        <ele>325.3</ele>
        <time>2022-11-15T09:42:47.472Z</time>
      </trkpt>
      <trkpt lat="45.75323" lon="4.55882">
        <ele>326.2</ele>
        <time>2022-11-15T09:42:56.574Z</time>
      </trkpt>
      <trkpt lat="45.75345" lon="4.55818">
        <ele>323.9</ele>
        <time>2022-11-15T09:43:00.852Z</time>
      </trkpt>
      <trkpt lat="45.75363" lon="4.55743">
        <ele>323.8</ele>
        <time>2022-11-15T09:43:08.690Z</time>
      </trkpt>
      <trkpt lat="45.7536" lon="4.55697">
        <ele>323.2</ele>
        <time>2022-11-15T09:43:12.372Z</time>
      </trkpt>
      <trkpt lat="45.75344" lon="4.55637">
        <ele>322.8</ele>
        <time>2022-11-15T09:43:18.158Z</time>
      </trkpt>
      <trkpt lat="45.75315" lon="4.55577">
        <ele>321.4</ele>
        <time>2022-11-15T09:43:23.417Z</time>
      </trkpt>
      <trkpt lat="45.75285" lon="4.55518">
        <ele>320.5</ele>
        <time>2022-11-15T09:43:29.301Z</time>
      </trkpt>
      <trkpt lat="45.75241" lon="4.55424">
        <ele>319.5</ele>
        <time>2022-11-15T09:43:39.009Z</time>
      </trkpt>
      <trkpt lat="45.75211" lon="4.55353">
        <ele>317.8</ele>
        <time>2022-11-15T09:43:44.872Z</time>
      </trkpt>
      <trkpt lat="45.7518" lon="4.55267">
        <ele>316.2</ele>
        <time>2022-11-15T09:43:52.145Z</time>
      </trkpt>
      <trkpt lat="45.75148" lon="4.55182">
        <ele>313.6</ele>
        <time>2022-11-15T09:43:58.361Z</time>
      </trkpt>
      <trkpt lat="45.75106" lon="4.55079">
        <ele>313.1</ele>
        <time>2022-11-15T09:44:09.457Z</time>
      </trkpt>
      <trkpt lat="45.75096" lon="4.55059">
        <ele>312.5</ele>
        <time>2022-11-15T09:44:11.098Z</time>
      </trkpt>
      <trkpt lat="45.75059" lon="4.55009">
        <ele>311.9</ele>
        <time>2022-11-15T09:44:17.419Z</time>
      </trkpt>
      <trkpt lat="45.75059" lon="4.54987">
        <ele>310.5</ele>
        <time>2022-11-15T09:44:18.636Z</time>
      </trkpt>
      <trkpt lat="45.75063" lon="4.54961">
        <ele>309.6</ele>
        <time>2022-11-15T09:44:20.201Z</time>
      </trkpt>
      <trkpt lat="45.75056" lon="4.54929">
        <ele>309.4</ele>
        <time>2022-11-15T09:44:23.237Z</time>
      </trkpt>
      <trkpt lat="45.75015" lon="4.5482">
        <ele>308.9</ele>
        <time>2022-11-15T09:44:34.791Z</time>
      </trkpt>
      <trkpt lat="45.75012" lon="4.54808">
        <ele>309.1</ele>
        <time>2022-11-15T09:44:36.421Z</time>
      </trkpt>
      <trkpt lat="45.75014" lon="4.54795">
        <ele>308.8</ele>
        <time>2022-11-15T09:44:37.333Z</time>
      </trkpt>
      <trkpt lat="45.75085" lon="4.54742">
        <ele>305.7</ele>
        <time>2022-11-15T09:44:44.707Z</time>
      </trkpt>
      <trkpt lat="45.75155" lon="4.54688">
        <ele>308.4</ele>
        <time>2022-11-15T09:45:01.505Z</time>
      </trkpt>
      <trkpt lat="45.75115" lon="4.54637">
        <ele>311.6</ele>
        <time>2022-11-15T09:45:16.064Z</time>
      </trkpt>
      <trkpt lat="45.75075" lon="4.54587">
        <ele>308.7</ele>
        <time>2022-11-15T09:45:20.305Z</time>
      </trkpt>
      <trkpt lat="45.75053" lon="4.54538">
        <ele>311.1</ele>
        <time>2022-11-15T09:45:31.304Z</time>
      </trkpt>
      <trkpt lat="45.75041" lon="4.54504">
        <ele>310.9</ele>
        <time>2022-11-15T09:45:34.803Z</time>
      </trkpt>
      <trkpt lat="45.75024" lon="4.54441">
        <ele>313</ele>
        <time>2022-11-15T09:45:46.386Z</time>
      </trkpt>
      <trkpt lat="45.75004" lon="4.54403">
        <ele>315.1</ele>
        <time>2022-11-15T09:45:55.642Z</time>
      </trkpt>
      <trkpt lat="45.74975" lon="4.54369">
        <ele>314.5</ele>
        <time>2022-11-15T09:46:00.058Z</time>
      </trkpt>
      <trkpt lat="45.7491" lon="4.5432">
        <ele>316.7</ele>
        <time>2022-11-15T09:46:14.791Z</time>
      </trkpt>
      <trkpt lat="45.74844" lon="4.5427">
        <ele>318</ele>
        <time>2022-11-15T09:46:27.721Z</time>
      </trkpt>
      <trkpt lat="45.74779" lon="4.54221">
        <ele>317.3</ele>
        <time>2022-11-15T09:46:37.126Z</time>
      </trkpt>
      <trkpt lat="45.74713" lon="4.54172">
        <ele>318.1</ele>
        <time>2022-11-15T09:46:49.130Z</time>
      </trkpt>
      <trkpt lat="45.74671" lon="4.54128">
        <ele>317.1</ele>
        <time>2022-11-15T09:46:55.028Z</time>
      </trkpt>
      <trkpt lat="45.74631" lon="4.54089">
        <ele>319.4</ele>
        <time>2022-11-15T09:47:07.147Z</time>
      </trkpt>
      <trkpt lat="45.74586" lon="4.54058">
        <ele>321</ele>
        <time>2022-11-15T09:47:17.435Z</time>
      </trkpt>
      <trkpt lat="45.74569" lon="4.54041">
        <ele>322.1</ele>
        <time>2022-11-15T09:47:22.819Z</time>
      </trkpt>
      <trkpt lat="45.74553" lon="4.54016">
        <ele>322.2</ele>
        <time>2022-11-15T09:47:26.404Z</time>
      </trkpt>
      <trkpt lat="45.74541" lon="4.53989">
        <ele>321.9</ele>
        <time>2022-11-15T09:47:29.123Z</time>
      </trkpt>
      <trkpt lat="45.74536" lon="4.53969">
        <ele>323.4</ele>
        <time>2022-11-15T09:47:34.800Z</time>
      </trkpt>
      <trkpt lat="45.74528" lon="4.53904">
        <ele>322.1</ele>
        <time>2022-11-15T09:47:39.519Z</time>
      </trkpt>
      <trkpt lat="45.74519" lon="4.53794">
        <ele>320.7</ele>
        <time>2022-11-15T09:47:48.398Z</time>
      </trkpt>
      <trkpt lat="45.7451" lon="4.53684">
        <ele>321.9</ele>
        <time>2022-11-15T09:48:01.514Z</time>
      </trkpt>
      <trkpt lat="45.74515" lon="4.5357">
        <ele>323.9</ele>
        <time>2022-11-15T09:48:16.580Z</time>
      </trkpt>
      <trkpt lat="45.74514" lon="4.53526">
        <ele>326.1</ele>
        <time>2022-11-15T09:48:25.690Z</time>
      </trkpt>
      <trkpt lat="45.74497" lon="4.5344">
        <ele>327.7</ele>
        <time>2022-11-15T09:48:37.558Z</time>
      </trkpt>
      <trkpt lat="45.74477" lon="4.53403">
        <ele>328.1</ele>
        <time>2022-11-15T09:48:42.913Z</time>
      </trkpt>
      <trkpt lat="45.74452" lon="4.53377">
        <ele>328.3</ele>
        <time>2022-11-15T09:48:47.693Z</time>
      </trkpt>
      <trkpt lat="45.74431" lon="4.53349">
        <ele>331.2</ele>
        <time>2022-11-15T09:48:58.669Z</time>
      </trkpt>
      <trkpt lat="45.74413" lon="4.53313">
        <ele>329.5</ele>
        <time>2022-11-15T09:49:01.130Z</time>
      </trkpt>
      <trkpt lat="45.74387" lon="4.5324">
        <ele>332.4</ele>
        <time>2022-11-15T09:49:15.756Z</time>
      </trkpt>
      <trkpt lat="45.74361" lon="4.53167">
        <ele>335</ele>
        <time>2022-11-15T09:49:29.893Z</time>
      </trkpt>
      <trkpt lat="45.74365" lon="4.53163">
        <ele>335.3</ele>
        <time>2022-11-15T09:49:31.236Z</time>
      </trkpt>
      <trkpt lat="45.74367" lon="4.53151">
        <ele>335.7</ele>
        <time>2022-11-15T09:49:33.378Z</time>
      </trkpt>
      <trkpt lat="45.74365" lon="4.53144">
        <ele>335.8</ele>
        <time>2022-11-15T09:49:34.307Z</time>
      </trkpt>
      <trkpt lat="45.74362" lon="4.5314">
        <ele>336</ele>
        <time>2022-11-15T09:49:35.342Z</time>
      </trkpt>
      <trkpt lat="45.74357" lon="4.53138">
        <ele>336</ele>
        <time>2022-11-15T09:49:36.098Z</time>
      </trkpt>
      <trkpt lat="45.74352" lon="4.53139">
        <ele>336</ele>
        <time>2022-11-15T09:49:36.833Z</time>
      </trkpt>
      <trkpt lat="45.74327" lon="4.53062">
        <ele>338.4</ele>
        <time>2022-11-15T09:49:50.547Z</time>
      </trkpt>
      <trkpt lat="45.74319" lon="4.5302">
        <ele>340.5</ele>
        <time>2022-11-15T09:49:59.388Z</time>
      </trkpt>
      <trkpt lat="45.7431" lon="4.52944">
        <ele>344.5</ele>
        <time>2022-11-15T09:50:15.680Z</time>
      </trkpt>
      <trkpt lat="45.74295" lon="4.52847">
        <ele>345.9</ele>
        <time>2022-11-15T09:50:28.064Z</time>
      </trkpt>
      <trkpt lat="45.74286" lon="4.52761">
        <ele>349.1</ele>
        <time>2022-11-15T09:50:43.792Z</time>
      </trkpt>
      <trkpt lat="45.74278" lon="4.52709">
        <ele>349</ele>
        <time>2022-11-15T09:50:48.987Z</time>
      </trkpt>
      <trkpt lat="45.74268" lon="4.52679">
        <ele>350.6</ele>
        <time>2022-11-15T09:50:55.730Z</time>
      </trkpt>
      <trkpt lat="45.74235" lon="4.52607">
        <ele>355.9</ele>
        <time>2022-11-15T09:51:16.133Z</time>
      </trkpt>
      <trkpt lat="45.74216" lon="4.52578">
        <ele>353.2</ele>
        <time>2022-11-15T09:51:18.333Z</time>
      </trkpt>
      <trkpt lat="45.74196" lon="4.5256">
        <ele>353.9</ele>
        <time>2022-11-15T09:51:23.052Z</time>
      </trkpt>
      <trkpt lat="45.74175" lon="4.52549">
        <ele>357.9</ele>
        <time>2022-11-15T09:51:35.606Z</time>
      </trkpt>
      <trkpt lat="45.74131" lon="4.52531">
        <ele>357.4</ele>
        <time>2022-11-15T09:51:41.359Z</time>
      </trkpt>
      <trkpt lat="45.74105" lon="4.52515">
        <ele>358.7</ele>
        <time>2022-11-15T09:51:48.375Z</time>
      </trkpt>
      <trkpt lat="45.74082" lon="4.52495">
        <ele>360.5</ele>
        <time>2022-11-15T09:51:56.076Z</time>
      </trkpt>
      <trkpt lat="45.74061" lon="4.5247">
        <ele>362.2</ele>
        <time>2022-11-15T09:52:03.632Z</time>
      </trkpt>
      <trkpt lat="45.74037" lon="4.52431">
        <ele>363.6</ele>
        <time>2022-11-15T09:52:11.801Z</time>
      </trkpt>
      <trkpt lat="45.74023" lon="4.52399">
        <ele>361.5</ele>
        <time>2022-11-15T09:52:13.890Z</time>
      </trkpt>
      <trkpt lat="45.7401" lon="4.52359">
        <ele>364.4</ele>
        <time>2022-11-15T09:52:24.921Z</time>
      </trkpt>
      <trkpt lat="45.74" lon="4.52308">
        <ele>364</ele>
        <time>2022-11-15T09:52:29.576Z</time>
      </trkpt>
      <trkpt lat="45.73999" lon="4.52265">
        <ele>364.6</ele>
        <time>2022-11-15T09:52:34.926Z</time>
      </trkpt>
      <trkpt lat="45.74009" lon="4.52172">
        <ele>368.6</ele>
        <time>2022-11-15T09:52:52.928Z</time>
      </trkpt>
      <trkpt lat="45.74021" lon="4.52096">
        <ele>365.5</ele>
        <time>2022-11-15T09:52:57.188Z</time>
      </trkpt>
      <trkpt lat="45.74026" lon="4.52023">
        <ele>368.4</ele>
        <time>2022-11-15T09:53:10.812Z</time>
      </trkpt>
      <trkpt lat="45.74024" lon="4.51986">
        <ele>369.4</ele>
        <time>2022-11-15T09:53:16.645Z</time>
      </trkpt>
      <trkpt lat="45.74001" lon="4.51873">
        <ele>371.9</ele>
        <time>2022-11-15T09:53:33.225Z</time>
      </trkpt>
      <trkpt lat="45.73977" lon="4.5176">
        <ele>370.1</ele>
        <time>2022-11-15T09:53:42.290Z</time>
      </trkpt>
      <trkpt lat="45.73954" lon="4.51648">
        <ele>375.7</ele>
        <time>2022-11-15T09:54:05.930Z</time>
      </trkpt>
      <trkpt lat="45.7393" lon="4.51535">
        <ele>374.5</ele>
        <time>2022-11-15T09:54:15.823Z</time>
      </trkpt>
      <trkpt lat="45.73907" lon="4.51422">
        <ele>371.7</ele>
        <time>2022-11-15T09:54:23.743Z</time>
      </trkpt>
      <trkpt lat="45.73907" lon="4.51346">
        <ele>374.9</ele>
        <time>2022-11-15T09:54:38.224Z</time>
      </trkpt>
      <trkpt lat="45.73906" lon="4.51271">
        <ele>371.7</ele>
        <time>2022-11-15T09:54:42.192Z</time>
      </trkpt>
      <trkpt lat="45.73903" lon="4.51188">
        <ele>376.2</ele>
        <time>2022-11-15T09:55:00.212Z</time>
      </trkpt>
      <trkpt lat="45.73895" lon="4.51101">
        <ele>374</ele>
        <time>2022-11-15T09:55:06.010Z</time>
      </trkpt>
      <trkpt lat="45.73879" lon="4.51038">
        <ele>375.4</ele>
        <time>2022-11-15T09:55:15.392Z</time>
      </trkpt>
      <trkpt lat="45.73855" lon="4.50963">
        <ele>375.2</ele>
        <time>2022-11-15T09:55:23.351Z</time>
      </trkpt>
      <trkpt lat="45.7383" lon="4.50888">
        <ele>378.3</ele>
        <time>2022-11-15T09:55:38.457Z</time>
      </trkpt>
      <trkpt lat="45.73805" lon="4.50858">
        <ele>377.6</ele>
        <time>2022-11-15T09:55:42.058Z</time>
      </trkpt>
      <trkpt lat="45.73777" lon="4.50835">
        <ele>377.6</ele>
        <time>2022-11-15T09:55:46.756Z</time>
      </trkpt>
      <trkpt lat="45.73745" lon="4.50823">
        <ele>378.2</ele>
        <time>2022-11-15T09:55:52.531Z</time>
      </trkpt>
      <trkpt lat="45.73707" lon="4.50832">
        <ele>378.7</ele>
        <time>2022-11-15T09:55:58.894Z</time>
      </trkpt>
      <trkpt lat="45.7364" lon="4.50888">
        <ele>379.9</ele>
        <time>2022-11-15T09:56:12.049Z</time>
      </trkpt>
      <trkpt lat="45.73573" lon="4.50971">
        <ele>382.6</ele>
        <time>2022-11-15T09:56:29.937Z</time>
      </trkpt>
      <trkpt lat="45.73543" lon="4.50976">
        <ele>381.6</ele>
        <time>2022-11-15T09:56:32.878Z</time>
      </trkpt>
      <trkpt lat="45.73493" lon="4.50959">
        <ele>384.6</ele>
        <time>2022-11-15T09:56:46.717Z</time>
      </trkpt>
      <trkpt lat="45.73468" lon="4.50964">
        <ele>384.4</ele>
        <time>2022-11-15T09:56:50.021Z</time>
      </trkpt>
      <trkpt lat="45.73418" lon="4.50983">
        <ele>383.2</ele>
        <time>2022-11-15T09:56:55.622Z</time>
      </trkpt>
      <trkpt lat="45.73368" lon="4.51001">
        <ele>383.8</ele>
        <time>2022-11-15T09:57:04.022Z</time>
      </trkpt>
      <trkpt lat="45.73344" lon="4.51006">
        <ele>384</ele>
        <time>2022-11-15T09:57:07.841Z</time>
      </trkpt>
      <trkpt lat="45.73322" lon="4.50999">
        <ele>386</ele>
        <time>2022-11-15T09:57:15.529Z</time>
      </trkpt>
      <trkpt lat="45.73303" lon="4.50982">
        <ele>386.2</ele>
        <time>2022-11-15T09:57:19.080Z</time>
      </trkpt>
      <trkpt lat="45.73294" lon="4.5096">
        <ele>388</ele>
        <time>2022-11-15T09:57:25.893Z</time>
      </trkpt>
      <trkpt lat="45.73276" lon="4.50887">
        <ele>386.4</ele>
        <time>2022-11-15T09:57:31.349Z</time>
      </trkpt>
      <trkpt lat="45.7325" lon="4.50811">
        <ele>386.6</ele>
        <time>2022-11-15T09:57:40.223Z</time>
      </trkpt>
      <trkpt lat="45.73233" lon="4.50732">
        <ele>388.9</ele>
        <time>2022-11-15T09:57:53.453Z</time>
      </trkpt>
      <trkpt lat="45.7322" lon="4.50686">
        <ele>388.6</ele>
        <time>2022-11-15T09:57:57.942Z</time>
      </trkpt>
      <trkpt lat="45.73195" lon="4.50646">
        <ele>388.2</ele>
        <time>2022-11-15T09:58:02.669Z</time>
      </trkpt>
      <trkpt lat="45.73133" lon="4.50567">
        <ele>391.1</ele>
        <time>2022-11-15T09:58:20.435Z</time>
      </trkpt>
      <trkpt lat="45.73091" lon="4.50504">
        <ele>393.2</ele>
        <time>2022-11-15T09:58:33.382Z</time>
      </trkpt>
      <trkpt lat="45.73077" lon="4.50429">
        <ele>393.1</ele>
        <time>2022-11-15T09:58:41.054Z</time>
      </trkpt>
      <trkpt lat="45.73066" lon="4.50303">
        <ele>394</ele>
        <time>2022-11-15T09:58:55.279Z</time>
      </trkpt>
      <trkpt lat="45.73065" lon="4.5025">
        <ele>391.4</ele>
        <time>2022-11-15T09:58:58.212Z</time>
      </trkpt>
      <trkpt lat="45.7307" lon="4.50137">
        <ele>392.7</ele>
        <time>2022-11-15T09:59:11.758Z</time>
      </trkpt>
      <trkpt lat="45.73083" lon="4.50048">
        <ele>398.2</ele>
        <time>2022-11-15T09:59:33.019Z</time>
      </trkpt>
      <trkpt lat="45.7308" lon="4.49979">
        <ele>400.5</ele>
        <time>2022-11-15T09:59:45.117Z</time>
      </trkpt>
      <trkpt lat="45.73085" lon="4.49963">
        <ele>401.5</ele>
        <time>2022-11-15T09:59:49.049Z</time>
      </trkpt>
      <trkpt lat="45.73082" lon="4.4995">
        <ele>400.9</ele>
        <time>2022-11-15T09:59:49.764Z</time>
      </trkpt>
      <trkpt lat="45.73075" lon="4.49941">
        <ele>400.3</ele>
        <time>2022-11-15T09:59:50.462Z</time>
      </trkpt>
      <trkpt lat="45.7307" lon="4.49938">
        <ele>399.9</ele>
        <time>2022-11-15T09:59:50.892Z</time>
      </trkpt>
      <trkpt lat="45.73061" lon="4.4994">
        <ele>399.9</ele>
        <time>2022-11-15T09:59:52.217Z</time>
      </trkpt>
      <trkpt lat="45.73042" lon="4.49939">
        <ele>399.3</ele>
        <time>2022-11-15T09:59:54.098Z</time>
      </trkpt>
      <trkpt lat="45.73016" lon="4.49926">
        <ele>397.9</ele>
        <time>2022-11-15T09:59:56.370Z</time>
      </trkpt>
      <trkpt lat="45.72966" lon="4.49911">
        <ele>397.2</ele>
        <time>2022-11-15T10:00:02.567Z</time>
      </trkpt>
      <trkpt lat="45.72941" lon="4.49896">
        <ele>397.1</ele>
        <time>2022-11-15T10:00:06.301Z</time>
      </trkpt>
      <trkpt lat="45.72927" lon="4.4988">
        <ele>397.6</ele>
        <time>2022-11-15T10:00:09.804Z</time>
      </trkpt>
      <trkpt lat="45.72918" lon="4.49864">
        <ele>397.9</ele>
        <time>2022-11-15T10:00:12.386Z</time>
      </trkpt>
      <trkpt lat="45.72905" lon="4.4983">
        <ele>397.4</ele>
        <time>2022-11-15T10:00:15.482Z</time>
      </trkpt>
      <trkpt lat="45.7289" lon="4.49797">
        <ele>399</ele>
        <time>2022-11-15T10:00:22.876Z</time>
      </trkpt>
      <trkpt lat="45.72868" lon="4.49769">
        <ele>399.8</ele>
        <time>2022-11-15T10:00:28.580Z</time>
      </trkpt>
      <trkpt lat="45.72818" lon="4.49719">
        <ele>402.5</ele>
        <time>2022-11-15T10:00:43.513Z</time>
      </trkpt>
      <trkpt lat="45.72769" lon="4.49669">
        <ele>400.7</ele>
        <time>2022-11-15T10:00:49.567Z</time>
      </trkpt>
      <trkpt lat="45.72719" lon="4.49619">
        <ele>399.7</ele>
        <time>2022-11-15T10:00:56.719Z</time>
      </trkpt>
      <trkpt lat="45.72694" lon="4.496">
        <ele>401.5</ele>
        <time>2022-11-15T10:01:04.627Z</time>
      </trkpt>
      <trkpt lat="45.72669" lon="4.49588">
        <ele>400.4</ele>
        <time>2022-11-15T10:01:06.988Z</time>
      </trkpt>
      <trkpt lat="45.72641" lon="4.4958">
        <ele>400.8</ele>
        <time>2022-11-15T10:01:11.756Z</time>
      </trkpt>
      <trkpt lat="45.72588" lon="4.49573">
        <ele>403</ele>
        <time>2022-11-15T10:01:24.224Z</time>
      </trkpt>
      <trkpt lat="45.72561" lon="4.49563">
        <ele>403</ele>
        <time>2022-11-15T10:01:28.283Z</time>
      </trkpt>
      <trkpt lat="45.72536" lon="4.49545">
        <ele>404.1</ele>
        <time>2022-11-15T10:01:34.648Z</time>
      </trkpt>
      <trkpt lat="45.72511" lon="4.49518">
        <ele>402.9</ele>
        <time>2022-11-15T10:01:37.543Z</time>
      </trkpt>
      <trkpt lat="45.7249" lon="4.49492">
        <ele>402.3</ele>
        <time>2022-11-15T10:01:40.604Z</time>
      </trkpt>
      <trkpt lat="45.72472" lon="4.49475">
        <ele>402.6</ele>
        <time>2022-11-15T10:01:44.200Z</time>
      </trkpt>
      <trkpt lat="45.72438" lon="4.49451">
        <ele>402.6</ele>
        <time>2022-11-15T10:01:49.718Z</time>
      </trkpt>
      <trkpt lat="45.72366" lon="4.49408">
        <ele>403.5</ele>
        <time>2022-11-15T10:02:02.415Z</time>
      </trkpt>
      <trkpt lat="45.72316" lon="4.49372">
        <ele>405.4</ele>
        <time>2022-11-15T10:02:14.238Z</time>
      </trkpt>
      <trkpt lat="45.72293" lon="4.49346">
        <ele>406.9</ele>
        <time>2022-11-15T10:02:21.754Z</time>
      </trkpt>
      <trkpt lat="45.72273" lon="4.49314">
        <ele>406.3</ele>
        <time>2022-11-15T10:02:25.122Z</time>
      </trkpt>
      <trkpt lat="45.72253" lon="4.49246">
        <ele>408.3</ele>
        <time>2022-11-15T10:02:36.759Z</time>
      </trkpt>
      <trkpt lat="45.72232" lon="4.49179">
        <ele>409.6</ele>
        <time>2022-11-15T10:02:46.481Z</time>
      </trkpt>
      <trkpt lat="45.72215" lon="4.49107">
        <ele>409.5</ele>
        <time>2022-11-15T10:02:53.988Z</time>
      </trkpt>
      <trkpt lat="45.72209" lon="4.49025">
        <ele>411.1</ele>
        <time>2022-11-15T10:03:05.229Z</time>
      </trkpt>
      <trkpt lat="45.72204" lon="4.48988">
        <ele>411.8</ele>
        <time>2022-11-15T10:03:10.293Z</time>
      </trkpt>
      <trkpt lat="45.72189" lon="4.48949">
        <ele>411.7</ele>
        <time>2022-11-15T10:03:14.606Z</time>
      </trkpt>
      <trkpt lat="45.72173" lon="4.48914">
        <ele>412</ele>
        <time>2022-11-15T10:03:19.299Z</time>
      </trkpt>
      <trkpt lat="45.72146" lon="4.48864">
        <ele>413.7</ele>
        <time>2022-11-15T10:03:29.225Z</time>
      </trkpt>
      <trkpt lat="45.72118" lon="4.4882">
        <ele>413.9</ele>
        <time>2022-11-15T10:03:35.555Z</time>
      </trkpt>
      <trkpt lat="45.7209" lon="4.48786">
        <ele>415.1</ele>
        <time>2022-11-15T10:03:43.182Z</time>
      </trkpt>
      <trkpt lat="45.72067" lon="4.48762">
        <ele>415.2</ele>
        <time>2022-11-15T10:03:47.462Z</time>
      </trkpt>
      <trkpt lat="45.72045" lon="4.48749">
        <ele>415.1</ele>
        <time>2022-11-15T10:03:50.717Z</time>
      </trkpt>
      <trkpt lat="45.71992" lon="4.48729">
        <ele>415.6</ele>
        <time>2022-11-15T10:03:59.422Z</time>
      </trkpt>
      <trkpt lat="45.71922" lon="4.48709">
        <ele>417.9</ele>
        <time>2022-11-15T10:04:14.164Z</time>
      </trkpt>
      <trkpt lat="45.71852" lon="4.48689">
        <ele>416.5</ele>
        <time>2022-11-15T10:04:22.219Z</time>
      </trkpt>
      <trkpt lat="45.71766" lon="4.4866">
        <ele>416.8</ele>
        <time>2022-11-15T10:04:35.492Z</time>
      </trkpt>
      <trkpt lat="45.71686" lon="4.48619">
        <ele>419.7</ele>
        <time>2022-11-15T10:04:53.486Z</time>
      </trkpt>
      <trkpt lat="45.71643" lon="4.48586">
        <ele>419.7</ele>
        <time>2022-11-15T10:05:00.587Z</time>
      </trkpt>
      <trkpt lat="45.71592" lon="4.48537">
        <ele>417.9</ele>
        <time>2022-11-15T10:05:06.807Z</time>
      </trkpt>
      <trkpt lat="45.71526" lon="4.48461">
        <ele>420.3</ele>
        <time>2022-11-15T10:05:23.457Z</time>
      </trkpt>
      <trkpt lat="45.71487" lon="4.48413">
        <ele>418.7</ele>
        <time>2022-11-15T10:05:28.567Z</time>
      </trkpt>
      <trkpt lat="45.71469" lon="4.48378">
        <ele>420</ele>
        <time>2022-11-15T10:05:35.838Z</time>
      </trkpt>
      <trkpt lat="45.71445" lon="4.48318">
        <ele>421</ele>
        <time>2022-11-15T10:05:44.512Z</time>
      </trkpt>
      <trkpt lat="45.71441" lon="4.48337">
        <ele>420</ele>
        <time>2022-11-15T10:05:45.610Z</time>
      </trkpt>
      <trkpt lat="45.71446" lon="4.48374">
        <ele>417.3</ele>
        <time>2022-11-15T10:05:47.695Z</time>
      </trkpt>
      <trkpt lat="45.71441" lon="4.48379">
        <ele>416.5</ele>
        <time>2022-11-15T10:05:48.178Z</time>
      </trkpt>
      <trkpt lat="45.71424" lon="4.48384">
        <ele>415.4</ele>
        <time>2022-11-15T10:05:49.471Z</time>
      </trkpt>
      <trkpt lat="45.71384" lon="4.48416">
        <ele>413.8</ele>
        <time>2022-11-15T10:05:53.851Z</time>
      </trkpt>
      <trkpt lat="45.71323" lon="4.48482">
        <ele>421.6</ele>
        <time>2022-11-15T10:06:23.374Z</time>
      </trkpt>
      <trkpt lat="45.71308" lon="4.48492">
        <ele>423.8</ele>
        <time>2022-11-15T10:06:32.601Z</time>
      </trkpt>
      <trkpt lat="45.71289" lon="4.48511">
        <ele>428.1</ele>
        <time>2022-11-15T10:06:45.613Z</time>
      </trkpt>
      <trkpt lat="45.71244" lon="4.48581">
        <ele>438</ele>
        <time>2022-11-15T10:07:22.916Z</time>
      </trkpt>
      <trkpt lat="45.71228" lon="4.48616">
        <ele>441.3</ele>
        <time>2022-11-15T10:07:35.573Z</time>
      </trkpt>
      <trkpt lat="45.71196" lon="4.48672">
        <ele>444.4</ele>
        <time>2022-11-15T10:07:49.467Z</time>
      </trkpt>
      <trkpt lat="45.71163" lon="4.48728">
        <ele>447.5</ele>
        <time>2022-11-15T10:08:03.462Z</time>
      </trkpt>
      <trkpt lat="45.71146" lon="4.48764">
        <ele>450.3</ele>
        <time>2022-11-15T10:08:14.144Z</time>
      </trkpt>
      <trkpt lat="45.71125" lon="4.48844">
        <ele>458.2</ele>
        <time>2022-11-15T10:08:47.147Z</time>
      </trkpt>
      <trkpt lat="45.71104" lon="4.48923">
        <ele>466.1</ele>
        <time>2022-11-15T10:09:20.288Z</time>
      </trkpt>
      <trkpt lat="45.71099" lon="4.49">
        <ele>470.3</ele>
        <time>2022-11-15T10:09:37.091Z</time>
      </trkpt>
      <trkpt lat="45.71094" lon="4.49017">
        <ele>470.8</ele>
        <time>2022-11-15T10:09:40.000Z</time>
      </trkpt>
      <trkpt lat="45.71045" lon="4.49122">
        <ele>474.1</ele>
        <time>2022-11-15T10:09:59.532Z</time>
      </trkpt>
      <trkpt lat="45.71024" lon="4.49159">
        <ele>473.8</ele>
        <time>2022-11-15T10:10:03.826Z</time>
      </trkpt>
      <trkpt lat="45.70997" lon="4.49184">
        <ele>472.5</ele>
        <time>2022-11-15T10:10:06.739Z</time>
      </trkpt>
      <trkpt lat="45.70957" lon="4.49211">
        <ele>472.6</ele>
        <time>2022-11-15T10:10:13.313Z</time>
      </trkpt>
      <trkpt lat="45.70939" lon="4.49238">
        <ele>474.1</ele>
        <time>2022-11-15T10:10:20.292Z</time>
      </trkpt>
      <trkpt lat="45.70944" lon="4.4925">
        <ele>475</ele>
        <time>2022-11-15T10:10:23.726Z</time>
      </trkpt>
      <trkpt lat="45.70949" lon="4.49252">
        <ele>475.6</ele>
        <time>2022-11-15T10:10:26.043Z</time>
      </trkpt>
      <trkpt lat="45.7096" lon="4.49272">
        <ele>477.9</ele>
        <time>2022-11-15T10:10:35.472Z</time>
      </trkpt>
      <trkpt lat="45.70973" lon="4.49283">
        <ele>477.8</ele>
        <time>2022-11-15T10:10:37.467Z</time>
      </trkpt>
      <trkpt lat="45.70983" lon="4.49296">
        <ele>479.6</ele>
        <time>2022-11-15T10:10:45.033Z</time>
      </trkpt>
      <trkpt lat="45.7101" lon="4.49326">
        <ele>483.3</ele>
        <time>2022-11-15T10:10:59.103Z</time>
      </trkpt>
      <trkpt lat="45.71031" lon="4.49342">
        <ele>484.2</ele>
        <time>2022-11-15T10:11:04.402Z</time>
      </trkpt>
      <trkpt lat="45.71041" lon="4.49359">
        <ele>487.2</ele>
        <time>2022-11-15T10:11:13.117Z</time>
      </trkpt>
      <trkpt lat="45.71064" lon="4.49411">
        <ele>491.6</ele>
        <time>2022-11-15T10:11:29.772Z</time>
      </trkpt>
      <trkpt lat="45.71072" lon="4.49424">
        <ele>492.7</ele>
        <time>2022-11-15T10:11:33.980Z</time>
      </trkpt>
      <trkpt lat="45.7108" lon="4.49457">
        <ele>493.2</ele>
        <time>2022-11-15T10:11:38.351Z</time>
      </trkpt>
      <trkpt lat="45.71083" lon="4.49485">
        <ele>495</ele>
        <time>2022-11-15T10:11:45.235Z</time>
      </trkpt>
      <trkpt lat="45.7109" lon="4.49503">
        <ele>496.1</ele>
        <time>2022-11-15T10:11:49.665Z</time>
      </trkpt>
      <trkpt lat="45.71123" lon="4.49615">
        <ele>500.4</ele>
        <time>2022-11-15T10:12:11.364Z</time>
      </trkpt>
      <trkpt lat="45.71124" lon="4.49637">
        <ele>501.1</ele>
        <time>2022-11-15T10:12:15.169Z</time>
      </trkpt>
      <trkpt lat="45.71122" lon="4.49656">
        <ele>501.6</ele>
        <time>2022-11-15T10:12:18.135Z</time>
      </trkpt>
      <trkpt lat="45.71106" lon="4.4971">
        <ele>503</ele>
        <time>2022-11-15T10:12:26.815Z</time>
      </trkpt>
      <trkpt lat="45.71098" lon="4.49728">
        <ele>503.5</ele>
        <time>2022-11-15T10:12:29.946Z</time>
      </trkpt>
      <trkpt lat="45.71055" lon="4.49783">
        <ele>507.5</ele>
        <time>2022-11-15T10:12:46.755Z</time>
      </trkpt>
      <trkpt lat="45.71043" lon="4.49793">
        <ele>507.9</ele>
        <time>2022-11-15T10:12:49.501Z</time>
      </trkpt>
      <trkpt lat="45.71029" lon="4.49797">
        <ele>509.1</ele>
        <time>2022-11-15T10:12:54.178Z</time>
      </trkpt>
      <trkpt lat="45.71016" lon="4.49798">
        <ele>509.9</ele>
        <time>2022-11-15T10:12:57.760Z</time>
      </trkpt>
      <trkpt lat="45.70939" lon="4.498">
        <ele>514.6</ele>
        <time>2022-11-15T10:13:18.889Z</time>
      </trkpt>
      <trkpt lat="45.70927" lon="4.49804">
        <ele>515.2</ele>
        <time>2022-11-15T10:13:21.999Z</time>
      </trkpt>
      <trkpt lat="45.70913" lon="4.49811">
        <ele>515.9</ele>
        <time>2022-11-15T10:13:25.705Z</time>
      </trkpt>
      <trkpt lat="45.70835" lon="4.49872">
        <ele>520.7</ele>
        <time>2022-11-15T10:13:48.936Z</time>
      </trkpt>
      <trkpt lat="45.70816" lon="4.49891">
        <ele>521</ele>
        <time>2022-11-15T10:13:52.764Z</time>
      </trkpt>
      <trkpt lat="45.70811" lon="4.49906">
        <ele>521.4</ele>
        <time>2022-11-15T10:13:55.233Z</time>
      </trkpt>
      <trkpt lat="45.70815" lon="4.49927">
        <ele>521.3</ele>
        <time>2022-11-15T10:13:57.243Z</time>
      </trkpt>
      <trkpt lat="45.70822" lon="4.4994">
        <ele>521.7</ele>
        <time>2022-11-15T10:13:59.695Z</time>
      </trkpt>
      <trkpt lat="45.70873" lon="4.49999">
        <ele>525.6</ele>
        <time>2022-11-15T10:14:17.489Z</time>
      </trkpt>
      <trkpt lat="45.70924" lon="4.50058">
        <ele>529.2</ele>
        <time>2022-11-15T10:14:34.731Z</time>
      </trkpt>
      <trkpt lat="45.70975" lon="4.50117">
        <ele>532</ele>
        <time>2022-11-15T10:14:50.407Z</time>
      </trkpt>
      <trkpt lat="45.71031" lon="4.50163">
        <ele>535.1</ele>
        <time>2022-11-15T10:15:06.628Z</time>
      </trkpt>
      <trkpt lat="45.71042" lon="4.50182">
        <ele>535.6</ele>
        <time>2022-11-15T10:15:10.045Z</time>
      </trkpt>
      <trkpt lat="45.71047" lon="4.502">
        <ele>535.7</ele>
        <time>2022-11-15T10:15:12.157Z</time>
      </trkpt>
      <trkpt lat="45.71045" lon="4.50232">
        <ele>535.7</ele>
        <time>2022-11-15T10:15:15.423Z</time>
      </trkpt>
      <trkpt lat="45.71037" lon="4.50256">
        <ele>536.2</ele>
        <time>2022-11-15T10:15:19.011Z</time>
      </trkpt>
      <trkpt lat="45.71023" lon="4.50273">
        <ele>539.5</ele>
        <time>2022-11-15T10:15:29.317Z</time>
      </trkpt>
      <trkpt lat="45.71015" lon="4.50302">
        <ele>539.9</ele>
        <time>2022-11-15T10:15:33.127Z</time>
      </trkpt>
      <trkpt lat="45.71016" lon="4.50349">
        <ele>541.6</ele>
        <time>2022-11-15T10:15:41.583Z</time>
      </trkpt>
      <trkpt lat="45.71023" lon="4.50371">
        <ele>542.4</ele>
        <time>2022-11-15T10:15:45.808Z</time>
      </trkpt>
      <trkpt lat="45.71046" lon="4.50408">
        <ele>544.8</ele>
        <time>2022-11-15T10:15:55.893Z</time>
      </trkpt>
      <trkpt lat="45.7108" lon="4.50454">
        <ele>547.3</ele>
        <time>2022-11-15T10:16:08.074Z</time>
      </trkpt>
      <trkpt lat="45.71096" lon="4.50481">
        <ele>549.2</ele>
        <time>2022-11-15T10:16:15.710Z</time>
      </trkpt>
      <trkpt lat="45.71107" lon="4.50506">
        <ele>550.7</ele>
        <time>2022-11-15T10:16:21.880Z</time>
      </trkpt>
      <trkpt lat="45.71132" lon="4.50552">
        <ele>553.9</ele>
        <time>2022-11-15T10:16:34.631Z</time>
      </trkpt>
      <trkpt lat="45.71138" lon="4.50573">
        <ele>554.4</ele>
        <time>2022-11-15T10:16:37.875Z</time>
      </trkpt>
      <trkpt lat="45.7114" lon="4.5061">
        <ele>555.9</ele>
        <time>2022-11-15T10:16:44.830Z</time>
      </trkpt>
      <trkpt lat="45.71136" lon="4.50632">
        <ele>555.7</ele>
        <time>2022-11-15T10:16:46.783Z</time>
      </trkpt>
      <trkpt lat="45.71124" lon="4.50666">
        <ele>555.2</ele>
        <time>2022-11-15T10:16:49.814Z</time>
      </trkpt>
      <trkpt lat="45.71112" lon="4.50693">
        <ele>553</ele>
        <time>2022-11-15T10:16:51.585Z</time>
      </trkpt>
      <trkpt lat="45.7109" lon="4.50729">
        <ele>552.7</ele>
        <time>2022-11-15T10:16:55.895Z</time>
      </trkpt>
      <trkpt lat="45.7108" lon="4.50764">
        <ele>553.1</ele>
        <time>2022-11-15T10:17:00.358Z</time>
      </trkpt>
      <trkpt lat="45.71071" lon="4.50833">
        <ele>555.1</ele>
        <time>2022-11-15T10:17:11.751Z</time>
      </trkpt>
      <trkpt lat="45.71089" lon="4.50875">
        <ele>557.1</ele>
        <time>2022-11-15T10:17:21.002Z</time>
      </trkpt>
      <trkpt lat="45.7112" lon="4.5092">
        <ele>559.7</ele>
        <time>2022-11-15T10:17:32.933Z</time>
      </trkpt>
      <trkpt lat="45.71124" lon="4.50943">
        <ele>561.5</ele>
        <time>2022-11-15T10:17:39.782Z</time>
      </trkpt>
      <trkpt lat="45.71124" lon="4.50974">
        <ele>562.1</ele>
        <time>2022-11-15T10:17:44.006Z</time>
      </trkpt>
      <trkpt lat="45.71119" lon="4.51024">
        <ele>560.2</ele>
        <time>2022-11-15T10:17:46.841Z</time>
      </trkpt>
      <trkpt lat="45.71111" lon="4.51069">
        <ele>559.1</ele>
        <time>2022-11-15T10:17:49.973Z</time>
      </trkpt>
      <trkpt lat="45.71101" lon="4.51106">
        <ele>557.5</ele>
        <time>2022-11-15T10:17:52.130Z</time>
      </trkpt>
      <trkpt lat="45.71081" lon="4.51156">
        <ele>555.8</ele>
        <time>2022-11-15T10:17:55.714Z</time>
      </trkpt>
      <trkpt lat="45.71066" lon="4.51222">
        <ele>553.3</ele>
        <time>2022-11-15T10:17:59.688Z</time>
      </trkpt>
      <trkpt lat="45.71048" lon="4.5128">
        <ele>551.4</ele>
        <time>2022-11-15T10:18:03.613Z</time>
      </trkpt>
      <trkpt lat="45.71034" lon="4.51307">
        <ele>550.7</ele>
        <time>2022-11-15T10:18:05.979Z</time>
      </trkpt>
      <trkpt lat="45.71021" lon="4.51318">
        <ele>550.1</ele>
        <time>2022-11-15T10:18:07.357Z</time>
      </trkpt>
      <trkpt lat="45.71005" lon="4.5132">
        <ele>549.5</ele>
        <time>2022-11-15T10:18:08.856Z</time>
      </trkpt>
      <trkpt lat="45.70971" lon="4.51303">
        <ele>548.6</ele>
        <time>2022-11-15T10:18:12.678Z</time>
      </trkpt>
      <trkpt lat="45.70957" lon="4.51302">
        <ele>549.3</ele>
        <time>2022-11-15T10:18:16.244Z</time>
      </trkpt>
      <trkpt lat="45.70946" lon="4.51309">
        <ele>548.1</ele>
        <time>2022-11-15T10:18:17.198Z</time>
      </trkpt>
      <trkpt lat="45.70924" lon="4.51351">
        <ele>548.1</ele>
        <time>2022-11-15T10:18:22.535Z</time>
      </trkpt>
      <trkpt lat="45.70909" lon="4.51403">
        <ele>548.9</ele>
        <time>2022-11-15T10:18:29.565Z</time>
      </trkpt>
      <trkpt lat="45.70906" lon="4.5146">
        <ele>542.6</ele>
        <time>2022-11-15T10:18:32.729Z</time>
      </trkpt>
      <trkpt lat="45.70899" lon="4.51495">
        <ele>540.5</ele>
        <time>2022-11-15T10:18:34.743Z</time>
      </trkpt>
      <trkpt lat="45.70886" lon="4.5152">
        <ele>539.6</ele>
        <time>2022-11-15T10:18:36.699Z</time>
      </trkpt>
      <trkpt lat="45.70871" lon="4.51537">
        <ele>538.7</ele>
        <time>2022-11-15T10:18:38.330Z</time>
      </trkpt>
      <trkpt lat="45.70857" lon="4.51545">
        <ele>538.7</ele>
        <time>2022-11-15T10:18:40.525Z</time>
      </trkpt>
      <trkpt lat="45.70829" lon="4.51549">
        <ele>538.5</ele>
        <time>2022-11-15T10:18:44.218Z</time>
      </trkpt>
      <trkpt lat="45.7082" lon="4.51552">
        <ele>538.9</ele>
        <time>2022-11-15T10:18:46.447Z</time>
      </trkpt>
      <trkpt lat="45.70813" lon="4.51561">
        <ele>538.2</ele>
        <time>2022-11-15T10:18:47.193Z</time>
      </trkpt>
      <trkpt lat="45.7081" lon="4.51596">
        <ele>534.9</ele>
        <time>2022-11-15T10:18:49.144Z</time>
      </trkpt>
      <trkpt lat="45.70806" lon="4.51611">
        <ele>534.9</ele>
        <time>2022-11-15T10:18:50.777Z</time>
      </trkpt>
      <trkpt lat="45.70799" lon="4.51622">
        <ele>533.2</ele>
        <time>2022-11-15T10:18:51.600Z</time>
      </trkpt>
      <trkpt lat="45.70788" lon="4.51629">
        <ele>532</ele>
        <time>2022-11-15T10:18:52.554Z</time>
      </trkpt>
      <trkpt lat="45.70778" lon="4.51631">
        <ele>531.7</ele>
        <time>2022-11-15T10:18:53.572Z</time>
      </trkpt>
      <trkpt lat="45.70757" lon="4.51628">
        <ele>531.1</ele>
        <time>2022-11-15T10:18:55.730Z</time>
      </trkpt>
      <trkpt lat="45.70683" lon="4.51611">
        <ele>528.6</ele>
        <time>2022-11-15T10:19:03.009Z</time>
      </trkpt>
      <trkpt lat="45.7063" lon="4.51613">
        <ele>527.8</ele>
        <time>2022-11-15T10:19:09.329Z</time>
      </trkpt>
      <trkpt lat="45.70617" lon="4.51616">
        <ele>527.7</ele>
        <time>2022-11-15T10:19:11.060Z</time>
      </trkpt>
      <trkpt lat="45.70612" lon="4.51624">
        <ele>527.5</ele>
        <time>2022-11-15T10:19:11.841Z</time>
      </trkpt>
      <trkpt lat="45.7061" lon="4.51635">
        <ele>527.3</ele>
        <time>2022-11-15T10:19:12.682Z</time>
      </trkpt>
      <trkpt lat="45.70611" lon="4.51647">
        <ele>527.9</ele>
        <time>2022-11-15T10:19:15.174Z</time>
      </trkpt>
      <trkpt lat="45.70617" lon="4.51663">
        <ele>528.6</ele>
        <time>2022-11-15T10:19:18.516Z</time>
      </trkpt>
      <trkpt lat="45.70671" lon="4.51739">
        <ele>529</ele>
        <time>2022-11-15T10:19:30.098Z</time>
      </trkpt>
      <trkpt lat="45.7072" lon="4.51794">
        <ele>527.8</ele>
        <time>2022-11-15T10:19:37.152Z</time>
      </trkpt>
      <trkpt lat="45.70738" lon="4.51824">
        <ele>527.6</ele>
        <time>2022-11-15T10:19:40.771Z</time>
      </trkpt>
      <trkpt lat="45.70745" lon="4.51859">
        <ele>529.4</ele>
        <time>2022-11-15T10:19:48.264Z</time>
      </trkpt>
      <trkpt lat="45.70743" lon="4.51886">
        <ele>530.3</ele>
        <time>2022-11-15T10:19:53.011Z</time>
      </trkpt>
      <trkpt lat="45.70737" lon="4.51904">
        <ele>530</ele>
        <time>2022-11-15T10:19:54.548Z</time>
      </trkpt>
      <trkpt lat="45.70718" lon="4.51939">
        <ele>531.3</ele>
        <time>2022-11-15T10:20:01.871Z</time>
      </trkpt>
      <trkpt lat="45.70685" lon="4.51991">
        <ele>534.5</ele>
        <time>2022-11-15T10:20:15.743Z</time>
      </trkpt>
      <trkpt lat="45.70669" lon="4.52023">
        <ele>534.3</ele>
        <time>2022-11-15T10:20:19.372Z</time>
      </trkpt>
      <trkpt lat="45.70623" lon="4.52074">
        <ele>534.8</ele>
        <time>2022-11-15T10:20:28.564Z</time>
      </trkpt>
      <trkpt lat="45.70613" lon="4.52109">
        <ele>532.6</ele>
        <time>2022-11-15T10:20:30.657Z</time>
      </trkpt>
      <trkpt lat="45.70605" lon="4.52148">
        <ele>533.2</ele>
        <time>2022-11-15T10:20:35.781Z</time>
      </trkpt>
      <trkpt lat="45.70592" lon="4.52201">
        <ele>533.2</ele>
        <time>2022-11-15T10:20:41.492Z</time>
      </trkpt>
      <trkpt lat="45.70576" lon="4.52245">
        <ele>533</ele>
        <time>2022-11-15T10:20:46.125Z</time>
      </trkpt>
      <trkpt lat="45.70546" lon="4.523">
        <ele>532.8</ele>
        <time>2022-11-15T10:20:52.799Z</time>
      </trkpt>
      <trkpt lat="45.70528" lon="4.52324">
        <ele>532.6</ele>
        <time>2022-11-15T10:20:56.009Z</time>
      </trkpt>
      <trkpt lat="45.7051" lon="4.5234">
        <ele>533.2</ele>
        <time>2022-11-15T10:21:00.173Z</time>
      </trkpt>
      <trkpt lat="45.70498" lon="4.52345">
        <ele>534.8</ele>
        <time>2022-11-15T10:21:06.681Z</time>
      </trkpt>
      <trkpt lat="45.70479" lon="4.52348">
        <ele>535.7</ele>
        <time>2022-11-15T10:21:11.456Z</time>
      </trkpt>
      <trkpt lat="45.7047" lon="4.52348">
        <ele>536.4</ele>
        <time>2022-11-15T10:21:14.256Z</time>
      </trkpt>
      <trkpt lat="45.70462" lon="4.52351">
        <ele>536.4</ele>
        <time>2022-11-15T10:21:15.460Z</time>
      </trkpt>
      <trkpt lat="45.70454" lon="4.52361">
        <ele>536</ele>
        <time>2022-11-15T10:21:16.448Z</time>
      </trkpt>
      <trkpt lat="45.70452" lon="4.52377">
        <ele>537</ele>
        <time>2022-11-15T10:21:20.298Z</time>
      </trkpt>
      <trkpt lat="45.70466" lon="4.52439">
        <ele>535.9</ele>
        <time>2022-11-15T10:21:25.172Z</time>
      </trkpt>
      <trkpt lat="45.70465" lon="4.52458">
        <ele>536.5</ele>
        <time>2022-11-15T10:21:28.453Z</time>
      </trkpt>
      <trkpt lat="45.70458" lon="4.52488">
        <ele>538.5</ele>
        <time>2022-11-15T10:21:36.109Z</time>
      </trkpt>
      <trkpt lat="45.70453" lon="4.52499">
        <ele>539.3</ele>
        <time>2022-11-15T10:21:39.196Z</time>
      </trkpt>
      <trkpt lat="45.70427" lon="4.52525">
        <ele>542.4</ele>
        <time>2022-11-15T10:21:50.944Z</time>
      </trkpt>
      <trkpt lat="45.70424" lon="4.52536">
        <ele>541.1</ele>
        <time>2022-11-15T10:21:51.597Z</time>
      </trkpt>
      <trkpt lat="45.70423" lon="4.52552">
        <ele>538.6</ele>
        <time>2022-11-15T10:21:52.486Z</time>
      </trkpt>
      <trkpt lat="45.70429" lon="4.52568">
        <ele>539.1</ele>
        <time>2022-11-15T10:21:55.376Z</time>
      </trkpt>
      <trkpt lat="45.70439" lon="4.52579">
        <ele>540.4</ele>
        <time>2022-11-15T10:22:00.298Z</time>
      </trkpt>
      <trkpt lat="45.70451" lon="4.52582">
        <ele>541.3</ele>
        <time>2022-11-15T10:22:03.974Z</time>
      </trkpt>
      <trkpt lat="45.70465" lon="4.52579">
        <ele>541.6</ele>
        <time>2022-11-15T10:22:06.531Z</time>
      </trkpt>
      <trkpt lat="45.70502" lon="4.52563">
        <ele>542.5</ele>
        <time>2022-11-15T10:22:13.682Z</time>
      </trkpt>
      <trkpt lat="45.70514" lon="4.5255">
        <ele>543.4</ele>
        <time>2022-11-15T10:22:17.775Z</time>
      </trkpt>
      <trkpt lat="45.70524" lon="4.52532">
        <ele>543.4</ele>
        <time>2022-11-15T10:22:20.113Z</time>
      </trkpt>
      <trkpt lat="45.70543" lon="4.52489">
        <ele>543.2</ele>
        <time>2022-11-15T10:22:24.875Z</time>
      </trkpt>
      <trkpt lat="45.70553" lon="4.5247">
        <ele>542.9</ele>
        <time>2022-11-15T10:22:26.786Z</time>
      </trkpt>
      <trkpt lat="45.70564" lon="4.52458">
        <ele>542.1</ele>
        <time>2022-11-15T10:22:27.861Z</time>
      </trkpt>
      <trkpt lat="45.70583" lon="4.5245">
        <ele>544.5</ele>
        <time>2022-11-15T10:22:37.308Z</time>
      </trkpt>
      <trkpt lat="45.70665" lon="4.52453">
        <ele>549.4</ele>
        <time>2022-11-15T10:22:59.609Z</time>
      </trkpt>
      <trkpt lat="45.70682" lon="4.52462">
        <ele>550.8</ele>
        <time>2022-11-15T10:23:05.225Z</time>
      </trkpt>
      <trkpt lat="45.70727" lon="4.525">
        <ele>554.1</ele>
        <time>2022-11-15T10:23:19.778Z</time>
      </trkpt>
      <trkpt lat="45.70773" lon="4.52568">
        <ele>558.9</ele>
        <time>2022-11-15T10:23:39.531Z</time>
      </trkpt>
      <trkpt lat="45.70787" lon="4.5259">
        <ele>558.6</ele>
        <time>2022-11-15T10:23:42.029Z</time>
      </trkpt>
      <trkpt lat="45.70792" lon="4.5263">
        <ele>560.1</ele>
        <time>2022-11-15T10:23:49.390Z</time>
      </trkpt>
      <trkpt lat="45.70792" lon="4.52703">
        <ele>563.4</ele>
        <time>2022-11-15T10:24:03.751Z</time>
      </trkpt>
      <trkpt lat="45.708" lon="4.52729">
        <ele>564</ele>
        <time>2022-11-15T10:24:07.746Z</time>
      </trkpt>
      <trkpt lat="45.70815" lon="4.52768">
        <ele>564.5</ele>
        <time>2022-11-15T10:24:13.054Z</time>
      </trkpt>
      <trkpt lat="45.7082" lon="4.52787">
        <ele>564.8</ele>
        <time>2022-11-15T10:24:15.614Z</time>
      </trkpt>
      <trkpt lat="45.7082" lon="4.52835">
        <ele>570.5</ele>
        <time>2022-11-15T10:24:34.434Z</time>
      </trkpt>
      <trkpt lat="45.70827" lon="4.52863">
        <ele>572.5</ele>
        <time>2022-11-15T10:24:42.022Z</time>
      </trkpt>
      <trkpt lat="45.70863" lon="4.5291">
        <ele>570.5</ele>
        <time>2022-11-15T10:24:46.411Z</time>
      </trkpt>
      <trkpt lat="45.70873" lon="4.52936">
        <ele>571</ele>
        <time>2022-11-15T10:24:50.284Z</time>
      </trkpt>
      <trkpt lat="45.70875" lon="4.52962">
        <ele>571.5</ele>
        <time>2022-11-15T10:24:53.832Z</time>
      </trkpt>
      <trkpt lat="45.70864" lon="4.52994">
        <ele>575.1</ele>
        <time>2022-11-15T10:25:07.817Z</time>
      </trkpt>
      <trkpt lat="45.70835" lon="4.53056">
        <ele>580.2</ele>
        <time>2022-11-15T10:25:27.141Z</time>
      </trkpt>
      <trkpt lat="45.70834" lon="4.5307">
        <ele>580.7</ele>
        <time>2022-11-15T10:25:29.657Z</time>
      </trkpt>
      <trkpt lat="45.70849" lon="4.53114">
        <ele>576.6</ele>
        <time>2022-11-15T10:25:32.367Z</time>
      </trkpt>
      <trkpt lat="45.70859" lon="4.53168">
        <ele>583</ele>
        <time>2022-11-15T10:25:54.271Z</time>
      </trkpt>
      <trkpt lat="45.7086" lon="4.53191">
        <ele>585.1</ele>
        <time>2022-11-15T10:26:02.938Z</time>
      </trkpt>
      <trkpt lat="45.70856" lon="4.53219">
        <ele>586.6</ele>
        <time>2022-11-15T10:26:09.021Z</time>
      </trkpt>
      <trkpt lat="45.70847" lon="4.53242">
        <ele>590</ele>
        <time>2022-11-15T10:26:19.358Z</time>
      </trkpt>
      <trkpt lat="45.70841" lon="4.53277">
        <ele>590.4</ele>
        <time>2022-11-15T10:26:23.646Z</time>
      </trkpt>
      <trkpt lat="45.70859" lon="4.53312">
        <ele>591</ele>
        <time>2022-11-15T10:26:29.041Z</time>
      </trkpt>
      <trkpt lat="45.70863" lon="4.53332">
        <ele>592.9</ele>
        <time>2022-11-15T10:26:36.897Z</time>
      </trkpt>
      <trkpt lat="45.70858" lon="4.53376">
        <ele>595.9</ele>
        <time>2022-11-15T10:26:48.279Z</time>
      </trkpt>
      <trkpt lat="45.7086" lon="4.53391">
        <ele>595.9</ele>
        <time>2022-11-15T10:26:49.831Z</time>
      </trkpt>
      <trkpt lat="45.70868" lon="4.53399">
        <ele>597.3</ele>
        <time>2022-11-15T10:26:55.309Z</time>
      </trkpt>
      <trkpt lat="45.70876" lon="4.53396">
        <ele>597.8</ele>
        <time>2022-11-15T10:26:57.569Z</time>
      </trkpt>
      <trkpt lat="45.70885" lon="4.53381">
        <ele>596.8</ele>
        <time>2022-11-15T10:26:58.664Z</time>
      </trkpt>
      <trkpt lat="45.70929" lon="4.53282">
        <ele>600.5</ele>
        <time>2022-11-15T10:27:18.879Z</time>
      </trkpt>
      <trkpt lat="45.70973" lon="4.53182">
        <ele>604.4</ele>
        <time>2022-11-15T10:27:39.516Z</time>
      </trkpt>
      <trkpt lat="45.70982" lon="4.53166">
        <ele>604.7</ele>
        <time>2022-11-15T10:27:42.099Z</time>
      </trkpt>
      <trkpt lat="45.70996" lon="4.53146">
        <ele>606</ele>
        <time>2022-11-15T10:27:47.711Z</time>
      </trkpt>
      <trkpt lat="45.71013" lon="4.53133">
        <ele>607</ele>
        <time>2022-11-15T10:27:52.678Z</time>
      </trkpt>
      <trkpt lat="45.71028" lon="4.5313">
        <ele>608.7</ele>
        <time>2022-11-15T10:27:59.188Z</time>
      </trkpt>
      <trkpt lat="45.71041" lon="4.53137">
        <ele>608.8</ele>
        <time>2022-11-15T10:28:01.352Z</time>
      </trkpt>
      <trkpt lat="45.7105" lon="4.53162">
        <ele>610.9</ele>
        <time>2022-11-15T10:28:09.325Z</time>
      </trkpt>
      <trkpt lat="45.71059" lon="4.53206">
        <ele>613.3</ele>
        <time>2022-11-15T10:28:19.067Z</time>
      </trkpt>
      <trkpt lat="45.71091" lon="4.53288">
        <ele>617.3</ele>
        <time>2022-11-15T10:28:37.057Z</time>
      </trkpt>
      <trkpt lat="45.71103" lon="4.53325">
        <ele>618.9</ele>
        <time>2022-11-15T10:28:44.613Z</time>
      </trkpt>
      <trkpt lat="45.71109" lon="4.5336">
        <ele>620.5</ele>
        <time>2022-11-15T10:28:51.644Z</time>
      </trkpt>
      <trkpt lat="45.71112" lon="4.53396">
        <ele>622.5</ele>
        <time>2022-11-15T10:28:59.599Z</time>
      </trkpt>
      <trkpt lat="45.71105" lon="4.53469">
        <ele>627.7</ele>
        <time>2022-11-15T10:29:19.280Z</time>
      </trkpt>
      <trkpt lat="45.71107" lon="4.53488">
        <ele>627.8</ele>
        <time>2022-11-15T10:29:21.377Z</time>
      </trkpt>
      <trkpt lat="45.71113" lon="4.53503">
        <ele>627</ele>
        <time>2022-11-15T10:29:22.256Z</time>
      </trkpt>
      <trkpt lat="45.71143" lon="4.53532">
        <ele>627.8</ele>
        <time>2022-11-15T10:29:28.862Z</time>
      </trkpt>
      <trkpt lat="45.71201" lon="4.53562">
        <ele>630.3</ele>
        <time>2022-11-15T10:29:43.141Z</time>
      </trkpt>
      <trkpt lat="45.71235" lon="4.53587">
        <ele>632.5</ele>
        <time>2022-11-15T10:29:53.376Z</time>
      </trkpt>
      <trkpt lat="45.7125" lon="4.5361">
        <ele>633.8</ele>
        <time>2022-11-15T10:29:59.326Z</time>
      </trkpt>
      <trkpt lat="45.71254" lon="4.53641">
        <ele>635.9</ele>
        <time>2022-11-15T10:30:07.302Z</time>
      </trkpt>
      <trkpt lat="45.71253" lon="4.53723">
        <ele>636.4</ele>
        <time>2022-11-15T10:30:16.362Z</time>
      </trkpt>
      <trkpt lat="45.71249" lon="4.53745">
        <ele>637.7</ele>
        <time>2022-11-15T10:30:21.470Z</time>
      </trkpt>
      <trkpt lat="45.71241" lon="4.53769">
        <ele>640.5</ele>
        <time>2022-11-15T10:30:31.896Z</time>
      </trkpt>
      <trkpt lat="45.71231" lon="4.5379">
        <ele>643.5</ele>
        <time>2022-11-15T10:30:41.862Z</time>
      </trkpt>
      <trkpt lat="45.71216" lon="4.53832">
        <ele>646.7</ele>
        <time>2022-11-15T10:30:53.994Z</time>
      </trkpt>
      <trkpt lat="45.71204" lon="4.53898">
        <ele>648</ele>
        <time>2022-11-15T10:31:03.237Z</time>
      </trkpt>
      <trkpt lat="45.71198" lon="4.53949">
        <ele>648.2</ele>
        <time>2022-11-15T10:31:08.775Z</time>
      </trkpt>
      <trkpt lat="45.71201" lon="4.53965">
        <ele>648</ele>
        <time>2022-11-15T10:31:10.117Z</time>
      </trkpt>
      <trkpt lat="45.71214" lon="4.53971">
        <ele>646.8</ele>
        <time>2022-11-15T10:31:11.200Z</time>
      </trkpt>
      <trkpt lat="45.71228" lon="4.53969">
        <ele>646.3</ele>
        <time>2022-11-15T10:31:12.536Z</time>
      </trkpt>
      <trkpt lat="45.71241" lon="4.53965">
        <ele>647.1</ele>
        <time>2022-11-15T10:31:16.162Z</time>
      </trkpt>
      <trkpt lat="45.71252" lon="4.53956">
        <ele>646.5</ele>
        <time>2022-11-15T10:31:17.240Z</time>
      </trkpt>
      <trkpt lat="45.71274" lon="4.53929">
        <ele>647</ele>
        <time>2022-11-15T10:31:22.249Z</time>
      </trkpt>
      <trkpt lat="45.71285" lon="4.53922">
        <ele>646.5</ele>
        <time>2022-11-15T10:31:23.329Z</time>
      </trkpt>
      <trkpt lat="45.71294" lon="4.53922">
        <ele>646.7</ele>
        <time>2022-11-15T10:31:24.974Z</time>
      </trkpt>
      <trkpt lat="45.71301" lon="4.53932">
        <ele>648.8</ele>
        <time>2022-11-15T10:31:30.525Z</time>
      </trkpt>
      <trkpt lat="45.71312" lon="4.54024">
        <ele>658</ele>
        <time>2022-11-15T10:32:07.118Z</time>
      </trkpt>
      <trkpt lat="45.7132" lon="4.54056">
        <ele>659.3</ele>
        <time>2022-11-15T10:32:13.354Z</time>
      </trkpt>
      <trkpt lat="45.71341" lon="4.5411">
        <ele>662.2</ele>
        <time>2022-11-15T10:32:25.734Z</time>
      </trkpt>
      <trkpt lat="45.71353" lon="4.54133">
        <ele>663.6</ele>
        <time>2022-11-15T10:32:31.599Z</time>
      </trkpt>
      <trkpt lat="45.71363" lon="4.54148">
        <ele>664</ele>
        <time>2022-11-15T10:32:34.421Z</time>
      </trkpt>
      <trkpt lat="45.71373" lon="4.54151">
        <ele>664.5</ele>
        <time>2022-11-15T10:32:37.003Z</time>
      </trkpt>
      <trkpt lat="45.71384" lon="4.54147">
        <ele>663.9</ele>
        <time>2022-11-15T10:32:37.924Z</time>
      </trkpt>
      <trkpt lat="45.71393" lon="4.5413">
        <ele>663.2</ele>
        <time>2022-11-15T10:32:39.195Z</time>
      </trkpt>
      <trkpt lat="45.71417" lon="4.54053">
        <ele>661.8</ele>
        <time>2022-11-15T10:32:45.528Z</time>
      </trkpt>
      <trkpt lat="45.71432" lon="4.54022">
        <ele>662.9</ele>
        <time>2022-11-15T10:32:51.737Z</time>
      </trkpt>
      <trkpt lat="45.71451" lon="4.53999">
        <ele>664.9</ele>
        <time>2022-11-15T10:32:59.644Z</time>
      </trkpt>
      <trkpt lat="45.71471" lon="4.53979">
        <ele>667.1</ele>
        <time>2022-11-15T10:33:08.072Z</time>
      </trkpt>
      <trkpt lat="45.7149" lon="4.53969">
        <ele>667.7</ele>
        <time>2022-11-15T10:33:12.117Z</time>
      </trkpt>
      <trkpt lat="45.71508" lon="4.53968">
        <ele>668.9</ele>
        <time>2022-11-15T10:33:17.262Z</time>
      </trkpt>
      <trkpt lat="45.71523" lon="4.53976">
        <ele>671</ele>
        <time>2022-11-15T10:33:25.968Z</time>
      </trkpt>
      <trkpt lat="45.71571" lon="4.54021">
        <ele>676.3</ele>
        <time>2022-11-15T10:33:46.184Z</time>
      </trkpt>
      <trkpt lat="45.71618" lon="4.54066">
        <ele>679.1</ele>
        <time>2022-11-15T10:34:00.529Z</time>
      </trkpt>
      <trkpt lat="45.71646" lon="4.54095">
        <ele>682.6</ele>
        <time>2022-11-15T10:34:13.776Z</time>
      </trkpt>
      <trkpt lat="45.71675" lon="4.54129">
        <ele>685.4</ele>
        <time>2022-11-15T10:34:25.158Z</time>
      </trkpt>
      <trkpt lat="45.71698" lon="4.54161">
        <ele>686.7</ele>
        <time>2022-11-15T10:34:32.583Z</time>
      </trkpt>
      <trkpt lat="45.71711" lon="4.54187">
        <ele>687.6</ele>
        <time>2022-11-15T10:34:37.736Z</time>
      </trkpt>
      <trkpt lat="45.71723" lon="4.54221">
        <ele>688.5</ele>
        <time>2022-11-15T10:34:43.347Z</time>
      </trkpt>
      <trkpt lat="45.7173" lon="4.54315">
        <ele>696</ele>
        <time>2022-11-15T10:35:12.159Z</time>
      </trkpt>
      <trkpt lat="45.71737" lon="4.54344">
        <ele>696</ele>
        <time>2022-11-15T10:35:15.277Z</time>
      </trkpt>
      <trkpt lat="45.71761" lon="4.54406">
        <ele>696.1</ele>
        <time>2022-11-15T10:35:22.618Z</time>
      </trkpt>
      <trkpt lat="45.71775" lon="4.54437">
        <ele>697.3</ele>
        <time>2022-11-15T10:35:29.034Z</time>
      </trkpt>
      <trkpt lat="45.71806" lon="4.54492">
        <ele>699.1</ele>
        <time>2022-11-15T10:35:39.822Z</time>
      </trkpt>
      <trkpt lat="45.7182" lon="4.54536">
        <ele>701.4</ele>
        <time>2022-11-15T10:35:49.574Z</time>
      </trkpt>
      <trkpt lat="45.71821" lon="4.54558">
        <ele>702.6</ele>
        <time>2022-11-15T10:35:54.370Z</time>
      </trkpt>
      <trkpt lat="45.71814" lon="4.54607">
        <ele>705.3</ele>
        <time>2022-11-15T10:36:05.196Z</time>
      </trkpt>
      <trkpt lat="45.71798" lon="4.54687">
        <ele>710.5</ele>
        <time>2022-11-15T10:36:25.148Z</time>
      </trkpt>
      <trkpt lat="45.71782" lon="4.54766">
        <ele>714.6</ele>
        <time>2022-11-15T10:36:42.149Z</time>
      </trkpt>
      <trkpt lat="45.71783" lon="4.54783">
        <ele>714.3</ele>
        <time>2022-11-15T10:36:43.410Z</time>
      </trkpt>
      <trkpt lat="45.71788" lon="4.54797">
        <ele>713.6</ele>
        <time>2022-11-15T10:36:44.225Z</time>
      </trkpt>
      <trkpt lat="45.71796" lon="4.5481">
        <ele>711.8</ele>
        <time>2022-11-15T10:36:45.184Z</time>
      </trkpt>
      <trkpt lat="45.71797" lon="4.54821">
        <ele>712.2</ele>
        <time>2022-11-15T10:36:47.177Z</time>
      </trkpt>
      <trkpt lat="45.7179" lon="4.54858">
        <ele>717</ele>
        <time>2022-11-15T10:37:02.205Z</time>
      </trkpt>
      <trkpt lat="45.71791" lon="4.54871">
        <ele>717.3</ele>
        <time>2022-11-15T10:37:04.106Z</time>
      </trkpt>
      <trkpt lat="45.71796" lon="4.54883">
        <ele>716.3</ele>
        <time>2022-11-15T10:37:04.879Z</time>
      </trkpt>
      <trkpt lat="45.71806" lon="4.54893">
        <ele>714.6</ele>
        <time>2022-11-15T10:37:05.846Z</time>
      </trkpt>
      <trkpt lat="45.71813" lon="4.54894">
        <ele>714.7</ele>
        <time>2022-11-15T10:37:07.023Z</time>
      </trkpt>
      <trkpt lat="45.71833" lon="4.5489">
        <ele>713.3</ele>
        <time>2022-11-15T10:37:08.624Z</time>
      </trkpt>
      <trkpt lat="45.71904" lon="4.5486">
        <ele>717.8</ele>
        <time>2022-11-15T10:37:28.899Z</time>
      </trkpt>
      <trkpt lat="45.71924" lon="4.54855">
        <ele>718.6</ele>
        <time>2022-11-15T10:37:33.523Z</time>
      </trkpt>
      <trkpt lat="45.71944" lon="4.54854">
        <ele>719.9</ele>
        <time>2022-11-15T10:37:39.170Z</time>
      </trkpt>
      <trkpt lat="45.71967" lon="4.54855">
        <ele>721.7</ele>
        <time>2022-11-15T10:37:46.356Z</time>
      </trkpt>
      <trkpt lat="45.71992" lon="4.54862">
        <ele>723.5</ele>
        <time>2022-11-15T10:37:53.855Z</time>
      </trkpt>
      <trkpt lat="45.72012" lon="4.5487">
        <ele>723.9</ele>
        <time>2022-11-15T10:37:57.525Z</time>
      </trkpt>
      <trkpt lat="45.72034" lon="4.54886">
        <ele>725.2</ele>
        <time>2022-11-15T10:38:03.918Z</time>
      </trkpt>
      <trkpt lat="45.72051" lon="4.54905">
        <ele>726.4</ele>
        <time>2022-11-15T10:38:09.618Z</time>
      </trkpt>
      <trkpt lat="45.72086" lon="4.54964">
        <ele>729.9</ele>
        <time>2022-11-15T10:38:24.848Z</time>
      </trkpt>
      <trkpt lat="45.72121" lon="4.55024">
        <ele>732.7</ele>
        <time>2022-11-15T10:38:38.860Z</time>
      </trkpt>
      <trkpt lat="45.72142" lon="4.55053">
        <ele>733.8</ele>
        <time>2022-11-15T10:38:45.347Z</time>
      </trkpt>
      <trkpt lat="45.72192" lon="4.55105">
        <ele>736.8</ele>
        <time>2022-11-15T10:39:00.927Z</time>
      </trkpt>
      <trkpt lat="45.72221" lon="4.55132">
        <ele>738.7</ele>
        <time>2022-11-15T10:39:10.024Z</time>
      </trkpt>
      <trkpt lat="45.72244" lon="4.55147">
        <ele>740.5</ele>
        <time>2022-11-15T10:39:17.496Z</time>
      </trkpt>
      <trkpt lat="45.72293" lon="4.55161">
        <ele>740.3</ele>
        <time>2022-11-15T10:39:24.349Z</time>
      </trkpt>
      <trkpt lat="45.72324" lon="4.55179">
        <ele>742.6</ele>
        <time>2022-11-15T10:39:34.056Z</time>
      </trkpt>
      <trkpt lat="45.72343" lon="4.55194">
        <ele>743.8</ele>
        <time>2022-11-15T10:39:39.777Z</time>
      </trkpt>
      <trkpt lat="45.72362" lon="4.55216">
        <ele>745.9</ele>
        <time>2022-11-15T10:39:47.912Z</time>
      </trkpt>
      <trkpt lat="45.72385" lon="4.55255">
        <ele>747.3</ele>
        <time>2022-11-15T10:39:56.016Z</time>
      </trkpt>
      <trkpt lat="45.72422" lon="4.55338">
        <ele>751.8</ele>
        <time>2022-11-15T10:40:15.487Z</time>
      </trkpt>
      <trkpt lat="45.72427" lon="4.55371">
        <ele>752.8</ele>
        <time>2022-11-15T10:40:21.099Z</time>
      </trkpt>
      <trkpt lat="45.72424" lon="4.554">
        <ele>753.6</ele>
        <time>2022-11-15T10:40:25.740Z</time>
      </trkpt>
      <trkpt lat="45.72424" lon="4.55402">
        <ele>753.5</ele>
        <time>2022-11-15T10:40:25.850Z</time>
      </trkpt>
      <trkpt lat="45.72413" lon="4.55426">
        <ele>755.1</ele>
        <time>2022-11-15T10:40:32.191Z</time>
      </trkpt>
      <trkpt lat="45.72387" lon="4.55463">
        <ele>755</ele>
        <time>2022-11-15T10:40:37.312Z</time>
      </trkpt>
      <trkpt lat="45.72367" lon="4.55471">
        <ele>756.4</ele>
        <time>2022-11-15T10:40:43.278Z</time>
      </trkpt>
      <trkpt lat="45.72303" lon="4.55491">
        <ele>763.2</ele>
        <time>2022-11-15T10:41:09.030Z</time>
      </trkpt>
      <trkpt lat="45.72274" lon="4.55511">
        <ele>764.1</ele>
        <time>2022-11-15T10:41:15.329Z</time>
      </trkpt>
      <trkpt lat="45.72246" lon="4.55535">
        <ele>765.8</ele>
        <time>2022-11-15T10:41:23.750Z</time>
      </trkpt>
      <trkpt lat="45.7223" lon="4.55553">
        <ele>767.6</ele>
        <time>2022-11-15T10:41:30.674Z</time>
      </trkpt>
      <trkpt lat="45.72213" lon="4.55595">
        <ele>768.5</ele>
        <time>2022-11-15T10:41:37.193Z</time>
      </trkpt>
      <trkpt lat="45.72198" lon="4.5567">
        <ele>769.6</ele>
        <time>2022-11-15T10:41:46.921Z</time>
      </trkpt>
      <trkpt lat="45.72182" lon="4.55745">
        <ele>774.1</ele>
        <time>2022-11-15T10:42:04.582Z</time>
      </trkpt>
      <trkpt lat="45.72175" lon="4.55798">
        <ele>776</ele>
        <time>2022-11-15T10:42:14.196Z</time>
      </trkpt>
      <trkpt lat="45.72171" lon="4.55886">
        <ele>779.3</ele>
        <time>2022-11-15T10:42:30.245Z</time>
      </trkpt>
      <trkpt lat="45.72175" lon="4.55908">
        <ele>779.4</ele>
        <time>2022-11-15T10:42:32.697Z</time>
      </trkpt>
      <trkpt lat="45.72199" lon="4.56007">
        <ele>782.4</ele>
        <time>2022-11-15T10:42:49.753Z</time>
      </trkpt>
      <trkpt lat="45.72208" lon="4.5606">
        <ele>785.4</ele>
        <time>2022-11-15T10:43:01.698Z</time>
      </trkpt>
      <trkpt lat="45.72213" lon="4.56108">
        <ele>787.1</ele>
        <time>2022-11-15T10:43:10.332Z</time>
      </trkpt>
      <trkpt lat="45.72213" lon="4.56149">
        <ele>787.1</ele>
        <time>2022-11-15T10:43:14.499Z</time>
      </trkpt>
      <trkpt lat="45.72204" lon="4.56182">
        <ele>788.7</ele>
        <time>2022-11-15T10:43:21.465Z</time>
      </trkpt>
      <trkpt lat="45.72189" lon="4.56217">
        <ele>790.8</ele>
        <time>2022-11-15T10:43:30.073Z</time>
      </trkpt>
      <trkpt lat="45.72149" lon="4.56278">
        <ele>794.6</ele>
        <time>2022-11-15T10:43:46.570Z</time>
      </trkpt>
      <trkpt lat="45.72126" lon="4.56322">
        <ele>796.7</ele>
        <time>2022-11-15T10:43:56.650Z</time>
      </trkpt>
      <trkpt lat="45.72109" lon="4.56373">
        <ele>798.1</ele>
        <time>2022-11-15T10:44:05.159Z</time>
      </trkpt>
      <trkpt lat="45.72099" lon="4.56434">
        <ele>799.3</ele>
        <time>2022-11-15T10:44:13.663Z</time>
      </trkpt>
      <trkpt lat="45.72092" lon="4.56519">
        <ele>803.6</ele>
        <time>2022-11-15T10:44:31.429Z</time>
      </trkpt>
      <trkpt lat="45.72084" lon="4.56605">
        <ele>806.7</ele>
        <time>2022-11-15T10:44:46.967Z</time>
      </trkpt>
      <trkpt lat="45.72077" lon="4.5669">
        <ele>808.5</ele>
        <time>2022-11-15T10:44:58.979Z</time>
      </trkpt>
      <trkpt lat="45.72077" lon="4.56762">
        <ele>810.8</ele>
        <time>2022-11-15T10:45:11.428Z</time>
      </trkpt>
      <trkpt lat="45.72083" lon="4.568">
        <ele>811.8</ele>
        <time>2022-11-15T10:45:17.397Z</time>
      </trkpt>
      <trkpt lat="45.72082" lon="4.56818">
        <ele>811.6</ele>
        <time>2022-11-15T10:45:18.886Z</time>
      </trkpt>
      <trkpt lat="45.72067" lon="4.56866">
        <ele>809.7</ele>
        <time>2022-11-15T10:45:21.891Z</time>
      </trkpt>
      <trkpt lat="45.72062" lon="4.56887">
        <ele>808.7</ele>
        <time>2022-11-15T10:45:23.034Z</time>
      </trkpt>
      <trkpt lat="45.72057" lon="4.56938">
        <ele>806.5</ele>
        <time>2022-11-15T10:45:25.758Z</time>
      </trkpt>
      <trkpt lat="45.72056" lon="4.57003">
        <ele>804</ele>
        <time>2022-11-15T10:45:29.371Z</time>
      </trkpt>
      <trkpt lat="45.72053" lon="4.57052">
        <ele>801.4</ele>
        <time>2022-11-15T10:45:32.092Z</time>
      </trkpt>
      <trkpt lat="45.72033" lon="4.57157">
        <ele>796.7</ele>
        <time>2022-11-15T10:45:37.818Z</time>
      </trkpt>
      <trkpt lat="45.7202" lon="4.57186">
        <ele>795.7</ele>
        <time>2022-11-15T10:45:39.975Z</time>
      </trkpt>
      <trkpt lat="45.72004" lon="4.57214">
        <ele>794.3</ele>
        <time>2022-11-15T10:45:41.980Z</time>
      </trkpt>
      <trkpt lat="45.71977" lon="4.57256">
        <ele>792.9</ele>
        <time>2022-11-15T10:45:45.784Z</time>
      </trkpt>
      <trkpt lat="45.71967" lon="4.57276">
        <ele>792.3</ele>
        <time>2022-11-15T10:45:47.425Z</time>
      </trkpt>
      <trkpt lat="45.71946" lon="4.5733">
        <ele>789.3</ele>
        <time>2022-11-15T10:45:50.846Z</time>
      </trkpt>
      <trkpt lat="45.71944" lon="4.57351">
        <ele>788.2</ele>
        <time>2022-11-15T10:45:52.018Z</time>
      </trkpt>
      <trkpt lat="45.71945" lon="4.57367">
        <ele>787.8</ele>
        <time>2022-11-15T10:45:53.083Z</time>
      </trkpt>
      <trkpt lat="45.71955" lon="4.57414">
        <ele>787.1</ele>
        <time>2022-11-15T10:45:56.918Z</time>
      </trkpt>
      <trkpt lat="45.7196" lon="4.57483">
        <ele>784.9</ele>
        <time>2022-11-15T10:46:01.109Z</time>
      </trkpt>
      <trkpt lat="45.71956" lon="4.57495">
        <ele>784</ele>
        <time>2022-11-15T10:46:01.845Z</time>
      </trkpt>
      <trkpt lat="45.7195" lon="4.57502">
        <ele>783.2</ele>
        <time>2022-11-15T10:46:02.458Z</time>
      </trkpt>
      <trkpt lat="45.71944" lon="4.57504">
        <ele>782.5</ele>
        <time>2022-11-15T10:46:02.947Z</time>
      </trkpt>
      <trkpt lat="45.71937" lon="4.57503">
        <ele>783.2</ele>
        <time>2022-11-15T10:46:05.597Z</time>
      </trkpt>
      <trkpt lat="45.71931" lon="4.575">
        <ele>783.5</ele>
        <time>2022-11-15T10:46:07.185Z</time>
      </trkpt>
      <trkpt lat="45.71894" lon="4.57451">
        <ele>779.2</ele>
        <time>2022-11-15T10:46:11.179Z</time>
      </trkpt>
      <trkpt lat="45.71857" lon="4.57402">
        <ele>775.7</ele>
        <time>2022-11-15T10:46:15.173Z</time>
      </trkpt>
      <trkpt lat="45.71847" lon="4.57391">
        <ele>774.4</ele>
        <time>2022-11-15T10:46:16.172Z</time>
      </trkpt>
      <trkpt lat="45.71826" lon="4.5738">
        <ele>773.9</ele>
        <time>2022-11-15T10:46:18.616Z</time>
      </trkpt>
      <trkpt lat="45.71792" lon="4.57371">
        <ele>772.3</ele>
        <time>2022-11-15T10:46:21.585Z</time>
      </trkpt>
      <trkpt lat="45.71759" lon="4.57371">
        <ele>769.8</ele>
        <time>2022-11-15T10:46:24.201Z</time>
      </trkpt>
      <trkpt lat="45.71736" lon="4.57379">
        <ele>768.3</ele>
        <time>2022-11-15T10:46:25.963Z</time>
      </trkpt>
      <trkpt lat="45.71703" lon="4.57395">
        <ele>766.3</ele>
        <time>2022-11-15T10:46:28.683Z</time>
      </trkpt>
      <trkpt lat="45.7168" lon="4.57411">
        <ele>765.6</ele>
        <time>2022-11-15T10:46:31.327Z</time>
      </trkpt>
      <trkpt lat="45.71651" lon="4.57436">
        <ele>764.5</ele>
        <time>2022-11-15T10:46:34.644Z</time>
      </trkpt>
      <trkpt lat="45.71616" lon="4.57461">
        <ele>761.1</ele>
        <time>2022-11-15T10:46:37.743Z</time>
      </trkpt>
      <trkpt lat="45.71599" lon="4.57475">
        <ele>759.9</ele>
        <time>2022-11-15T10:46:39.229Z</time>
      </trkpt>
      <trkpt lat="45.71568" lon="4.57508">
        <ele>758.4</ele>
        <time>2022-11-15T10:46:42.783Z</time>
      </trkpt>
      <trkpt lat="45.7154" lon="4.57545">
        <ele>756.2</ele>
        <time>2022-11-15T10:46:45.749Z</time>
      </trkpt>
      <trkpt lat="45.71525" lon="4.57572">
        <ele>755.4</ele>
        <time>2022-11-15T10:46:48.093Z</time>
      </trkpt>
      <trkpt lat="45.71512" lon="4.57603">
        <ele>753.7</ele>
        <time>2022-11-15T10:46:50.094Z</time>
      </trkpt>
      <trkpt lat="45.71492" lon="4.57666">
        <ele>752.1</ele>
        <time>2022-11-15T10:46:54.798Z</time>
      </trkpt>
      <trkpt lat="45.71489" lon="4.57688">
        <ele>750.7</ele>
        <time>2022-11-15T10:46:56.039Z</time>
      </trkpt>
      <trkpt lat="45.71502" lon="4.57748">
        <ele>749.7</ele>
        <time>2022-11-15T10:47:00.810Z</time>
      </trkpt>
      <trkpt lat="45.71505" lon="4.57782">
        <ele>746.9</ele>
        <time>2022-11-15T10:47:02.706Z</time>
      </trkpt>
      <trkpt lat="45.71502" lon="4.57796">
        <ele>746.3</ele>
        <time>2022-11-15T10:47:03.497Z</time>
      </trkpt>
      <trkpt lat="45.71494" lon="4.5781">
        <ele>746.2</ele>
        <time>2022-11-15T10:47:05.150Z</time>
      </trkpt>
      <trkpt lat="45.71486" lon="4.57813">
        <ele>746.3</ele>
        <time>2022-11-15T10:47:06.504Z</time>
      </trkpt>
      <trkpt lat="45.71479" lon="4.57811">
        <ele>745.9</ele>
        <time>2022-11-15T10:47:07.067Z</time>
      </trkpt>
      <trkpt lat="45.71475" lon="4.57801">
        <ele>744.5</ele>
        <time>2022-11-15T10:47:07.705Z</time>
      </trkpt>
      <trkpt lat="45.71466" lon="4.57803">
        <ele>745.3</ele>
        <time>2022-11-15T10:47:10.787Z</time>
      </trkpt>
      <trkpt lat="45.71453" lon="4.57799">
        <ele>746</ele>
        <time>2022-11-15T10:47:14.231Z</time>
      </trkpt>
      <trkpt lat="45.7144" lon="4.57789">
        <ele>746.2</ele>
        <time>2022-11-15T10:47:16.684Z</time>
      </trkpt>
      <trkpt lat="45.71398" lon="4.57742">
        <ele>744.2</ele>
        <time>2022-11-15T10:47:21.651Z</time>
      </trkpt>
      <trkpt lat="45.71381" lon="4.57735">
        <ele>743.9</ele>
        <time>2022-11-15T10:47:23.711Z</time>
      </trkpt>
      <trkpt lat="45.71337" lon="4.57735">
        <ele>741.6</ele>
        <time>2022-11-15T10:47:27.297Z</time>
      </trkpt>
      <trkpt lat="45.7132" lon="4.57738">
        <ele>740</ele>
        <time>2022-11-15T10:47:28.655Z</time>
      </trkpt>
      <trkpt lat="45.71296" lon="4.57749">
        <ele>738.7</ele>
        <time>2022-11-15T10:47:30.720Z</time>
      </trkpt>
      <trkpt lat="45.71274" lon="4.57762">
        <ele>737.1</ele>
        <time>2022-11-15T10:47:32.606Z</time>
      </trkpt>
      <trkpt lat="45.71236" lon="4.57798">
        <ele>735.5</ele>
        <time>2022-11-15T10:47:36.954Z</time>
      </trkpt>
      <trkpt lat="45.71193" lon="4.57851">
        <ele>731.6</ele>
        <time>2022-11-15T10:47:41.450Z</time>
      </trkpt>
      <trkpt lat="45.7115" lon="4.57904">
        <ele>729.6</ele>
        <time>2022-11-15T10:47:46.856Z</time>
      </trkpt>
      <trkpt lat="45.71092" lon="4.57961">
        <ele>725.4</ele>
        <time>2022-11-15T10:47:52.248Z</time>
      </trkpt>
      <trkpt lat="45.71034" lon="4.5801">
        <ele>721.7</ele>
        <time>2022-11-15T10:47:57.614Z</time>
      </trkpt>
      <trkpt lat="45.70998" lon="4.58054">
        <ele>720.5</ele>
        <time>2022-11-15T10:48:02.616Z</time>
      </trkpt>
      <trkpt lat="45.70975" lon="4.58095">
        <ele>719.2</ele>
        <time>2022-11-15T10:48:06.111Z</time>
      </trkpt>
      <trkpt lat="45.70957" lon="4.58134">
        <ele>716</ele>
        <time>2022-11-15T10:48:08.698Z</time>
      </trkpt>
      <trkpt lat="45.70942" lon="4.58179">
        <ele>715.3</ele>
        <time>2022-11-15T10:48:12.605Z</time>
      </trkpt>
      <trkpt lat="45.70918" lon="4.58262">
        <ele>712.9</ele>
        <time>2022-11-15T10:48:18.409Z</time>
      </trkpt>
      <trkpt lat="45.70893" lon="4.58344">
        <ele>710.7</ele>
        <time>2022-11-15T10:48:24.365Z</time>
      </trkpt>
      <trkpt lat="45.70866" lon="4.58446">
        <ele>705.2</ele>
        <time>2022-11-15T10:48:30.402Z</time>
      </trkpt>
      <trkpt lat="45.70839" lon="4.58547">
        <ele>702.9</ele>
        <time>2022-11-15T10:48:37.960Z</time>
      </trkpt>
      <trkpt lat="45.70831" lon="4.58597">
        <ele>700.3</ele>
        <time>2022-11-15T10:48:40.798Z</time>
      </trkpt>
      <trkpt lat="45.70822" lon="4.58676">
        <ele>697.6</ele>
        <time>2022-11-15T10:48:45.513Z</time>
      </trkpt>
      <trkpt lat="45.70813" lon="4.58755">
        <ele>695.5</ele>
        <time>2022-11-15T10:48:50.719Z</time>
      </trkpt>
      <trkpt lat="45.70787" lon="4.58754">
        <ele>696</ele>
        <time>2022-11-15T10:48:55.314Z</time>
      </trkpt>
      <trkpt lat="45.70779" lon="4.58758">
        <ele>696.1</ele>
        <time>2022-11-15T10:48:56.697Z</time>
      </trkpt>
      <trkpt lat="45.70772" lon="4.5877">
        <ele>696.4</ele>
        <time>2022-11-15T10:48:58.821Z</time>
      </trkpt>
      <trkpt lat="45.70741" lon="4.58848">
        <ele>704.1</ele>
        <time>2022-11-15T10:49:29.345Z</time>
      </trkpt>
      <trkpt lat="45.70732" lon="4.58898">
        <ele>707.1</ele>
        <time>2022-11-15T10:49:41.075Z</time>
      </trkpt>
      <trkpt lat="45.70736" lon="4.58919">
        <ele>707.3</ele>
        <time>2022-11-15T10:49:43.590Z</time>
      </trkpt>
      <trkpt lat="45.7072" lon="4.58913">
        <ele>709.9</ele>
        <time>2022-11-15T10:49:52.877Z</time>
      </trkpt>
      <trkpt lat="45.70713" lon="4.58905">
        <ele>712.8</ele>
        <time>2022-11-15T10:49:57.905Z</time>
      </trkpt>
      <trkpt lat="45.70713" lon="4.58792">
        <ele>715.3</ele>
        <time>2022-11-15T10:50:14.088Z</time>
      </trkpt>
      <trkpt lat="45.70704" lon="4.58719">
        <ele>718.4</ele>
        <time>2022-11-15T10:50:28.177Z</time>
      </trkpt>
      <trkpt lat="45.70688" lon="4.58652">
        <ele>719.9</ele>
        <time>2022-11-15T10:50:38.144Z</time>
      </trkpt>
      <trkpt lat="45.70681" lon="4.58534">
        <ele>722</ele>
        <time>2022-11-15T10:50:53.831Z</time>
      </trkpt>
      <trkpt lat="45.70677" lon="4.58508">
        <ele>722</ele>
        <time>2022-11-15T10:50:56.538Z</time>
      </trkpt>
      <trkpt lat="45.70666" lon="4.58476">
        <ele>723</ele>
        <time>2022-11-15T10:51:02.272Z</time>
      </trkpt>
      <trkpt lat="45.70651" lon="4.5845">
        <ele>723.7</ele>
        <time>2022-11-15T10:51:06.983Z</time>
      </trkpt>
      <trkpt lat="45.7063" lon="4.5843">
        <ele>724.7</ele>
        <time>2022-11-15T10:51:12.748Z</time>
      </trkpt>
      <trkpt lat="45.70563" lon="4.58395">
        <ele>725.9</ele>
        <time>2022-11-15T10:51:25.021Z</time>
      </trkpt>
      <trkpt lat="45.70533" lon="4.58389">
        <ele>726.2</ele>
        <time>2022-11-15T10:51:29.870Z</time>
      </trkpt>
      <trkpt lat="45.70483" lon="4.58412">
        <ele>727.4</ele>
        <time>2022-11-15T10:51:39.539Z</time>
      </trkpt>
      <trkpt lat="45.70455" lon="4.5842">
        <ele>728.4</ele>
        <time>2022-11-15T10:51:45.658Z</time>
      </trkpt>
      <trkpt lat="45.70435" lon="4.58422">
        <ele>729.1</ele>
        <time>2022-11-15T10:51:49.948Z</time>
      </trkpt>
      <trkpt lat="45.70413" lon="4.58421">
        <ele>729.2</ele>
        <time>2022-11-15T10:51:53.292Z</time>
      </trkpt>
      <trkpt lat="45.70394" lon="4.58414">
        <ele>729.2</ele>
        <time>2022-11-15T10:51:56.148Z</time>
      </trkpt>
      <trkpt lat="45.70361" lon="4.58389">
        <ele>730</ele>
        <time>2022-11-15T10:52:02.909Z</time>
      </trkpt>
      <trkpt lat="45.70344" lon="4.58368">
        <ele>730.4</ele>
        <time>2022-11-15T10:52:06.815Z</time>
      </trkpt>
      <trkpt lat="45.70317" lon="4.58321">
        <ele>731.4</ele>
        <time>2022-11-15T10:52:14.701Z</time>
      </trkpt>
      <trkpt lat="45.70308" lon="4.58297">
        <ele>732.5</ele>
        <time>2022-11-15T10:52:19.805Z</time>
      </trkpt>
      <trkpt lat="45.70299" lon="4.5825">
        <ele>731.4</ele>
        <time>2022-11-15T10:52:23.146Z</time>
      </trkpt>
      <trkpt lat="45.70303" lon="4.58181">
        <ele>732.7</ele>
        <time>2022-11-15T10:52:32.484Z</time>
      </trkpt>
      <trkpt lat="45.70317" lon="4.58112">
        <ele>737.7</ele>
        <time>2022-11-15T10:52:51.413Z</time>
      </trkpt>
      <trkpt lat="45.70318" lon="4.58068">
        <ele>738.6</ele>
        <time>2022-11-15T10:52:57.528Z</time>
      </trkpt>
      <trkpt lat="45.70312" lon="4.58043">
        <ele>738.1</ele>
        <time>2022-11-15T10:52:59.443Z</time>
      </trkpt>
      <trkpt lat="45.70292" lon="4.57992">
        <ele>736.2</ele>
        <time>2022-11-15T10:53:02.944Z</time>
      </trkpt>
      <trkpt lat="45.70283" lon="4.57919">
        <ele>738</ele>
        <time>2022-11-15T10:53:14.001Z</time>
      </trkpt>
      <trkpt lat="45.70273" lon="4.57847">
        <ele>739</ele>
        <time>2022-11-15T10:53:23.087Z</time>
      </trkpt>
      <trkpt lat="45.70273" lon="4.5778">
        <ele>740.4</ele>
        <time>2022-11-15T10:53:32.470Z</time>
      </trkpt>
      <trkpt lat="45.70273" lon="4.57712">
        <ele>740.1</ele>
        <time>2022-11-15T10:53:38.773Z</time>
      </trkpt>
      <trkpt lat="45.7027" lon="4.57673">
        <ele>742.4</ele>
        <time>2022-11-15T10:53:47.742Z</time>
      </trkpt>
      <trkpt lat="45.70255" lon="4.57636">
        <ele>743.1</ele>
        <time>2022-11-15T10:53:53.279Z</time>
      </trkpt>
      <trkpt lat="45.70237" lon="4.57598">
        <ele>743.4</ele>
        <time>2022-11-15T10:53:58.385Z</time>
      </trkpt>
      <trkpt lat="45.70231" lon="4.57582">
        <ele>744.3</ele>
        <time>2022-11-15T10:54:02.127Z</time>
      </trkpt>
      <trkpt lat="45.70223" lon="4.57551">
        <ele>744.3</ele>
        <time>2022-11-15T10:54:05.487Z</time>
      </trkpt>
      <trkpt lat="45.70221" lon="4.57523">
        <ele>743.5</ele>
        <time>2022-11-15T10:54:07.264Z</time>
      </trkpt>
      <trkpt lat="45.70232" lon="4.57442">
        <ele>746.2</ele>
        <time>2022-11-15T10:54:21.635Z</time>
      </trkpt>
      <trkpt lat="45.70234" lon="4.57395">
        <ele>746.7</ele>
        <time>2022-11-15T10:54:27.197Z</time>
      </trkpt>
      <trkpt lat="45.70233" lon="4.57343">
        <ele>748.5</ele>
        <time>2022-11-15T10:54:36.417Z</time>
      </trkpt>
      <trkpt lat="45.70227" lon="4.57231">
        <ele>750.3</ele>
        <time>2022-11-15T10:54:50.875Z</time>
      </trkpt>
      <trkpt lat="45.70221" lon="4.5712">
        <ele>751.3</ele>
        <time>2022-11-15T10:55:03.704Z</time>
      </trkpt>
      <trkpt lat="45.70213" lon="4.57065">
        <ele>750.8</ele>
        <time>2022-11-15T10:55:08.522Z</time>
      </trkpt>
      <trkpt lat="45.70191" lon="4.56995">
        <ele>752.2</ele>
        <time>2022-11-15T10:55:18.779Z</time>
      </trkpt>
      <trkpt lat="45.70168" lon="4.56925">
        <ele>755.1</ele>
        <time>2022-11-15T10:55:32.870Z</time>
      </trkpt>
      <trkpt lat="45.70157" lon="4.56913">
        <ele>756.6</ele>
        <time>2022-11-15T10:55:38.576Z</time>
      </trkpt>
      <trkpt lat="45.70142" lon="4.56912">
        <ele>756.7</ele>
        <time>2022-11-15T10:55:40.904Z</time>
      </trkpt>
      <trkpt lat="45.70125" lon="4.5693">
        <ele>756.6</ele>
        <time>2022-11-15T10:55:43.774Z</time>
      </trkpt>
      <trkpt lat="45.7008" lon="4.56986">
        <ele>758.1</ele>
        <time>2022-11-15T10:55:55.051Z</time>
      </trkpt>
      <trkpt lat="45.70045" lon="4.57022">
        <ele>758.8</ele>
        <time>2022-11-15T10:56:02.421Z</time>
      </trkpt>
      <trkpt lat="45.69979" lon="4.5703">
        <ele>763.2</ele>
        <time>2022-11-15T10:56:21.314Z</time>
      </trkpt>
      <trkpt lat="45.69959" lon="4.57049">
        <ele>763.6</ele>
        <time>2022-11-15T10:56:25.437Z</time>
      </trkpt>
      <trkpt lat="45.69948" lon="4.57084">
        <ele>763</ele>
        <time>2022-11-15T10:56:28.366Z</time>
      </trkpt>
      <trkpt lat="45.6992" lon="4.57153">
        <ele>762.7</ele>
        <time>2022-11-15T10:56:35.861Z</time>
      </trkpt>
      <trkpt lat="45.69887" lon="4.572">
        <ele>765.4</ele>
        <time>2022-11-15T10:56:48.365Z</time>
      </trkpt>
      <trkpt lat="45.69853" lon="4.57247">
        <ele>767.6</ele>
        <time>2022-11-15T10:57:00.128Z</time>
      </trkpt>
      <trkpt lat="45.6983" lon="4.57273">
        <ele>770.1</ele>
        <time>2022-11-15T10:57:09.832Z</time>
      </trkpt>
      <trkpt lat="45.6981" lon="4.57288">
        <ele>770.8</ele>
        <time>2022-11-15T10:57:14.422Z</time>
      </trkpt>
      <trkpt lat="45.69756" lon="4.57299">
        <ele>775</ele>
        <time>2022-11-15T10:57:31.289Z</time>
      </trkpt>
      <trkpt lat="45.69715" lon="4.57363">
        <ele>775.4</ele>
        <time>2022-11-15T10:57:40.687Z</time>
      </trkpt>
      <trkpt lat="45.69677" lon="4.57418">
        <ele>776.8</ele>
        <time>2022-11-15T10:57:51.000Z</time>
      </trkpt>
      <trkpt lat="45.69649" lon="4.57449">
        <ele>779</ele>
        <time>2022-11-15T10:58:00.788Z</time>
      </trkpt>
      <trkpt lat="45.69609" lon="4.57483">
        <ele>780.4</ele>
        <time>2022-11-15T10:58:10.137Z</time>
      </trkpt>
      <trkpt lat="45.69569" lon="4.57517">
        <ele>781.8</ele>
        <time>2022-11-15T10:58:19.486Z</time>
      </trkpt>
      <trkpt lat="45.6954" lon="4.57533">
        <ele>783.3</ele>
        <time>2022-11-15T10:58:27.307Z</time>
      </trkpt>
      <trkpt lat="45.69519" lon="4.57541">
        <ele>784.2</ele>
        <time>2022-11-15T10:58:32.404Z</time>
      </trkpt>
      <trkpt lat="45.69495" lon="4.57541">
        <ele>785.6</ele>
        <time>2022-11-15T10:58:38.865Z</time>
      </trkpt>
      <trkpt lat="45.69487" lon="4.57537">
        <ele>786</ele>
        <time>2022-11-15T10:58:40.983Z</time>
      </trkpt>
      <trkpt lat="45.6947" lon="4.57523">
        <ele>786.3</ele>
        <time>2022-11-15T10:58:44.303Z</time>
      </trkpt>
      <trkpt lat="45.69425" lon="4.57475">
        <ele>784.8</ele>
        <time>2022-11-15T10:58:50.146Z</time>
      </trkpt>
      <trkpt lat="45.6938" lon="4.57428">
        <ele>783.1</ele>
        <time>2022-11-15T10:58:55.717Z</time>
      </trkpt>
      <trkpt lat="45.69359" lon="4.57414">
        <ele>783</ele>
        <time>2022-11-15T10:58:58.880Z</time>
      </trkpt>
      <trkpt lat="45.69312" lon="4.57405">
        <ele>781.2</ele>
        <time>2022-11-15T10:59:03.280Z</time>
      </trkpt>
      <trkpt lat="45.69294" lon="4.57391">
        <ele>780.6</ele>
        <time>2022-11-15T10:59:05.355Z</time>
      </trkpt>
      <trkpt lat="45.69277" lon="4.57374">
        <ele>779.9</ele>
        <time>2022-11-15T10:59:07.361Z</time>
      </trkpt>
      <trkpt lat="45.69265" lon="4.57352">
        <ele>779</ele>
        <time>2022-11-15T10:59:09.037Z</time>
      </trkpt>
      <trkpt lat="45.69248" lon="4.57287">
        <ele>777.3</ele>
        <time>2022-11-15T10:59:13.665Z</time>
      </trkpt>
      <trkpt lat="45.69241" lon="4.57271">
        <ele>777.5</ele>
        <time>2022-11-15T10:59:15.895Z</time>
      </trkpt>
      <trkpt lat="45.69229" lon="4.57264">
        <ele>777.5</ele>
        <time>2022-11-15T10:59:17.781Z</time>
      </trkpt>
      <trkpt lat="45.69206" lon="4.57271">
        <ele>775.2</ele>
        <time>2022-11-15T10:59:19.644Z</time>
      </trkpt>
      <trkpt lat="45.69193" lon="4.57272">
        <ele>774.5</ele>
        <time>2022-11-15T10:59:20.692Z</time>
      </trkpt>
      <trkpt lat="45.69183" lon="4.57264">
        <ele>773.3</ele>
        <time>2022-11-15T10:59:21.600Z</time>
      </trkpt>
      <trkpt lat="45.69144" lon="4.57168">
        <ele>774.4</ele>
        <time>2022-11-15T10:59:34.578Z</time>
      </trkpt>
      <trkpt lat="45.69135" lon="4.5716">
        <ele>773.9</ele>
        <time>2022-11-15T10:59:35.480Z</time>
      </trkpt>
      <trkpt lat="45.69123" lon="4.57159">
        <ele>773.6</ele>
        <time>2022-11-15T10:59:36.756Z</time>
      </trkpt>
      <trkpt lat="45.69114" lon="4.57163">
        <ele>773.2</ele>
        <time>2022-11-15T10:59:37.594Z</time>
      </trkpt>
      <trkpt lat="45.69108" lon="4.57171">
        <ele>773.3</ele>
        <time>2022-11-15T10:59:38.938Z</time>
      </trkpt>
      <trkpt lat="45.69101" lon="4.57199">
        <ele>772.8</ele>
        <time>2022-11-15T10:59:41.165Z</time>
      </trkpt>
      <trkpt lat="45.69101" lon="4.57246">
        <ele>769.1</ele>
        <time>2022-11-15T10:59:43.767Z</time>
      </trkpt>
      <trkpt lat="45.69094" lon="4.57283">
        <ele>767</ele>
        <time>2022-11-15T10:59:45.889Z</time>
      </trkpt>
      <trkpt lat="45.6908" lon="4.57307">
        <ele>767.4</ele>
        <time>2022-11-15T10:59:49.709Z</time>
      </trkpt>
      <trkpt lat="45.69046" lon="4.57338">
        <ele>770.8</ele>
        <time>2022-11-15T11:00:02.949Z</time>
      </trkpt>
      <trkpt lat="45.69" lon="4.57415">
        <ele>771.2</ele>
        <time>2022-11-15T11:00:13.814Z</time>
      </trkpt>
      <trkpt lat="45.68984" lon="4.57431">
        <ele>770.1</ele>
        <time>2022-11-15T11:00:15.351Z</time>
      </trkpt>
      <trkpt lat="45.68972" lon="4.57433">
        <ele>771</ele>
        <time>2022-11-15T11:00:19.014Z</time>
      </trkpt>
      <trkpt lat="45.68959" lon="4.57429">
        <ele>769.9</ele>
        <time>2022-11-15T11:00:20.068Z</time>
      </trkpt>
      <trkpt lat="45.68941" lon="4.57417">
        <ele>770.8</ele>
        <time>2022-11-15T11:00:24.971Z</time>
      </trkpt>
      <trkpt lat="45.68925" lon="4.57412">
        <ele>771.2</ele>
        <time>2022-11-15T11:00:28.042Z</time>
      </trkpt>
      <trkpt lat="45.68911" lon="4.57415">
        <ele>771.3</ele>
        <time>2022-11-15T11:00:30.246Z</time>
      </trkpt>
      <trkpt lat="45.68891" lon="4.57437">
        <ele>770.8</ele>
        <time>2022-11-15T11:00:33.085Z</time>
      </trkpt>
      <trkpt lat="45.68884" lon="4.57461">
        <ele>770.4</ele>
        <time>2022-11-15T11:00:35.079Z</time>
      </trkpt>
      <trkpt lat="45.68883" lon="4.57517">
        <ele>769.5</ele>
        <time>2022-11-15T11:00:39.325Z</time>
      </trkpt>
      <trkpt lat="45.68875" lon="4.57555">
        <ele>768.1</ele>
        <time>2022-11-15T11:00:41.619Z</time>
      </trkpt>
      <trkpt lat="45.68873" lon="4.57587">
        <ele>767.3</ele>
        <time>2022-11-15T11:00:43.750Z</time>
      </trkpt>
      <trkpt lat="45.6887" lon="4.57605">
        <ele>767.3</ele>
        <time>2022-11-15T11:00:45.631Z</time>
      </trkpt>
      <trkpt lat="45.68863" lon="4.5762">
        <ele>767.6</ele>
        <time>2022-11-15T11:00:47.977Z</time>
      </trkpt>
      <trkpt lat="45.68854" lon="4.57632">
        <ele>767.5</ele>
        <time>2022-11-15T11:00:49.582Z</time>
      </trkpt>
      <trkpt lat="45.68835" lon="4.57648">
        <ele>767.2</ele>
        <time>2022-11-15T11:00:52.259Z</time>
      </trkpt>
      <trkpt lat="45.68785" lon="4.5768">
        <ele>766.1</ele>
        <time>2022-11-15T11:00:58.406Z</time>
      </trkpt>
      <trkpt lat="45.68752" lon="4.57678">
        <ele>766.4</ele>
        <time>2022-11-15T11:01:03.650Z</time>
      </trkpt>
      <trkpt lat="45.68751" lon="4.57678">
        <ele>766.4</ele>
        <time>2022-11-15T11:01:03.796Z</time>
      </trkpt>
      <trkpt lat="45.68779" lon="4.57699">
        <ele>764.2</ele>
        <time>2022-11-15T11:01:06.301Z</time>
      </trkpt>
      <trkpt lat="45.68826" lon="4.57679">
        <ele>761.9</ele>
        <time>2022-11-15T11:01:10.488Z</time>
      </trkpt>
      <trkpt lat="45.68873" lon="4.57658">
        <ele>759.7</ele>
        <time>2022-11-15T11:01:14.778Z</time>
      </trkpt>
      <trkpt lat="45.68912" lon="4.57607">
        <ele>756.6</ele>
        <time>2022-11-15T11:01:18.859Z</time>
      </trkpt>
      <trkpt lat="45.6893" lon="4.57536">
        <ele>755.9</ele>
        <time>2022-11-15T11:01:25.295Z</time>
      </trkpt>
      <trkpt lat="45.68958" lon="4.57525">
        <ele>753</ele>
        <time>2022-11-15T11:01:27.596Z</time>
      </trkpt>
      <trkpt lat="45.69002" lon="4.57561">
        <ele>749.5</ele>
        <time>2022-11-15T11:01:31.612Z</time>
      </trkpt>
      <trkpt lat="45.6903" lon="4.57542">
        <ele>747.7</ele>
        <time>2022-11-15T11:01:34.019Z</time>
      </trkpt>
      <trkpt lat="45.69061" lon="4.57545">
        <ele>745.6</ele>
        <time>2022-11-15T11:01:36.481Z</time>
      </trkpt>
      <trkpt lat="45.69076" lon="4.57573">
        <ele>746.9</ele>
        <time>2022-11-15T11:01:42.870Z</time>
      </trkpt>
      <trkpt lat="45.69075" lon="4.57599">
        <ele>747.3</ele>
        <time>2022-11-15T11:01:46.185Z</time>
      </trkpt>
      <trkpt lat="45.69043" lon="4.57639">
        <ele>745.5</ele>
        <time>2022-11-15T11:01:49.966Z</time>
      </trkpt>
      <trkpt lat="45.69017" lon="4.57699">
        <ele>744.3</ele>
        <time>2022-11-15T11:01:55.239Z</time>
      </trkpt>
      <trkpt lat="45.6899" lon="4.57758">
        <ele>741.8</ele>
        <time>2022-11-15T11:01:59.307Z</time>
      </trkpt>
      <trkpt lat="45.68948" lon="4.57869">
        <ele>739.2</ele>
        <time>2022-11-15T11:02:08.222Z</time>
      </trkpt>
      <trkpt lat="45.68929" lon="4.57968">
        <ele>736.6</ele>
        <time>2022-11-15T11:02:14.989Z</time>
      </trkpt>
      <trkpt lat="45.6891" lon="4.58067">
        <ele>734</ele>
        <time>2022-11-15T11:02:21.756Z</time>
      </trkpt>
      <trkpt lat="45.68915" lon="4.5812">
        <ele>732.4</ele>
        <time>2022-11-15T11:02:25.066Z</time>
      </trkpt>
      <trkpt lat="45.68897" lon="4.58246">
        <ele>725.3</ele>
        <time>2022-11-15T11:02:32.186Z</time>
      </trkpt>
      <trkpt lat="45.68879" lon="4.58371">
        <ele>719.2</ele>
        <time>2022-11-15T11:02:39.252Z</time>
      </trkpt>
      <trkpt lat="45.68887" lon="4.58434">
        <ele>716.5</ele>
        <time>2022-11-15T11:02:42.662Z</time>
      </trkpt>
      <trkpt lat="45.68899" lon="4.58458">
        <ele>714</ele>
        <time>2022-11-15T11:02:44.296Z</time>
      </trkpt>
      <trkpt lat="45.68927" lon="4.58469">
        <ele>712</ele>
        <time>2022-11-15T11:02:46.597Z</time>
      </trkpt>
      <trkpt lat="45.68951" lon="4.58469">
        <ele>710.6</ele>
        <time>2022-11-15T11:02:48.457Z</time>
      </trkpt>
      <trkpt lat="45.69001" lon="4.58448">
        <ele>705.9</ele>
        <time>2022-11-15T11:02:52.587Z</time>
      </trkpt>
      <trkpt lat="45.69027" lon="4.5841">
        <ele>703.4</ele>
        <time>2022-11-15T11:02:55.532Z</time>
      </trkpt>
      <trkpt lat="45.69045" lon="4.58396">
        <ele>700.8</ele>
        <time>2022-11-15T11:02:57.155Z</time>
      </trkpt>
      <trkpt lat="45.69081" lon="4.58439">
        <ele>695.9</ele>
        <time>2022-11-15T11:03:00.871Z</time>
      </trkpt>
      <trkpt lat="45.69158" lon="4.58437">
        <ele>689.6</ele>
        <time>2022-11-15T11:03:06.974Z</time>
      </trkpt>
      <trkpt lat="45.69212" lon="4.58417">
        <ele>684.4</ele>
        <time>2022-11-15T11:03:11.395Z</time>
      </trkpt>
      <trkpt lat="45.69271" lon="4.58416">
        <ele>680.1</ele>
        <time>2022-11-15T11:03:16.071Z</time>
      </trkpt>
      <trkpt lat="45.69323" lon="4.58393">
        <ele>674.9</ele>
        <time>2022-11-15T11:03:20.384Z</time>
      </trkpt>
      <trkpt lat="45.69375" lon="4.58369">
        <ele>669.5</ele>
        <time>2022-11-15T11:03:24.714Z</time>
      </trkpt>
      <trkpt lat="45.69433" lon="4.58351">
        <ele>665.3</ele>
        <time>2022-11-15T11:03:29.418Z</time>
      </trkpt>
      <trkpt lat="45.6949" lon="4.58333">
        <ele>661.7</ele>
        <time>2022-11-15T11:03:33.822Z</time>
      </trkpt>
      <trkpt lat="45.69552" lon="4.58322">
        <ele>659.3</ele>
        <time>2022-11-15T11:03:39.594Z</time>
      </trkpt>
      <trkpt lat="45.69577" lon="4.58323">
        <ele>658.5</ele>
        <time>2022-11-15T11:03:42.057Z</time>
      </trkpt>
      <trkpt lat="45.69611" lon="4.58331">
        <ele>655.8</ele>
        <time>2022-11-15T11:03:44.788Z</time>
      </trkpt>
      <trkpt lat="45.69625" lon="4.58339">
        <ele>653.8</ele>
        <time>2022-11-15T11:03:45.982Z</time>
      </trkpt>
      <trkpt lat="45.69682" lon="4.58385">
        <ele>647.3</ele>
        <time>2022-11-15T11:03:51.168Z</time>
      </trkpt>
      <trkpt lat="45.69693" lon="4.58398">
        <ele>646.3</ele>
        <time>2022-11-15T11:03:52.298Z</time>
      </trkpt>
      <trkpt lat="45.69736" lon="4.58459">
        <ele>640.2</ele>
        <time>2022-11-15T11:03:57.096Z</time>
      </trkpt>
      <trkpt lat="45.69739" lon="4.58474">
        <ele>639</ele>
        <time>2022-11-15T11:03:57.959Z</time>
      </trkpt>
      <trkpt lat="45.69736" lon="4.5849">
        <ele>637.6</ele>
        <time>2022-11-15T11:03:58.876Z</time>
      </trkpt>
      <trkpt lat="45.69727" lon="4.58501">
        <ele>637.2</ele>
        <time>2022-11-15T11:04:00.021Z</time>
      </trkpt>
      <trkpt lat="45.69699" lon="4.58526">
        <ele>634.7</ele>
        <time>2022-11-15T11:04:02.636Z</time>
      </trkpt>
      <trkpt lat="45.69664" lon="4.58566">
        <ele>629.5</ele>
        <time>2022-11-15T11:04:06.185Z</time>
      </trkpt>
      <trkpt lat="45.69651" lon="4.58573">
        <ele>628.4</ele>
        <time>2022-11-15T11:04:07.286Z</time>
      </trkpt>
      <trkpt lat="45.69596" lon="4.58591">
        <ele>621.9</ele>
        <time>2022-11-15T11:04:11.757Z</time>
      </trkpt>
      <trkpt lat="45.69566" lon="4.58582">
        <ele>620.4</ele>
        <time>2022-11-15T11:04:14.328Z</time>
      </trkpt>
      <trkpt lat="45.69558" lon="4.58582">
        <ele>619</ele>
        <time>2022-11-15T11:04:14.962Z</time>
      </trkpt>
      <trkpt lat="45.69545" lon="4.58585">
        <ele>618.2</ele>
        <time>2022-11-15T11:04:15.963Z</time>
      </trkpt>
      <trkpt lat="45.69525" lon="4.58594">
        <ele>616.8</ele>
        <time>2022-11-15T11:04:17.624Z</time>
      </trkpt>
      <trkpt lat="45.69515" lon="4.58604">
        <ele>616</ele>
        <time>2022-11-15T11:04:18.517Z</time>
      </trkpt>
      <trkpt lat="45.69508" lon="4.58619">
        <ele>614.8</ele>
        <time>2022-11-15T11:04:19.516Z</time>
      </trkpt>
      <trkpt lat="45.69508" lon="4.58626">
        <ele>614</ele>
        <time>2022-11-15T11:04:19.903Z</time>
      </trkpt>
      <trkpt lat="45.69514" lon="4.58668">
        <ele>610.8</ele>
        <time>2022-11-15T11:04:22.276Z</time>
      </trkpt>
      <trkpt lat="45.69518" lon="4.58724">
        <ele>605.8</ele>
        <time>2022-11-15T11:04:25.392Z</time>
      </trkpt>
      <trkpt lat="45.69525" lon="4.58768">
        <ele>602.9</ele>
        <time>2022-11-15T11:04:27.890Z</time>
      </trkpt>
      <trkpt lat="45.69525" lon="4.58778">
        <ele>602.5</ele>
        <time>2022-11-15T11:04:28.436Z</time>
      </trkpt>
      <trkpt lat="45.69522" lon="4.58792">
        <ele>600.9</ele>
        <time>2022-11-15T11:04:29.247Z</time>
      </trkpt>
      <trkpt lat="45.69518" lon="4.58802">
        <ele>600</ele>
        <time>2022-11-15T11:04:29.885Z</time>
      </trkpt>
      <trkpt lat="45.69509" lon="4.58814">
        <ele>599.2</ele>
        <time>2022-11-15T11:04:30.789Z</time>
      </trkpt>
      <trkpt lat="45.69485" lon="4.58837">
        <ele>598.2</ele>
        <time>2022-11-15T11:04:33.558Z</time>
      </trkpt>
      <trkpt lat="45.69426" lon="4.58901">
        <ele>590.6</ele>
        <time>2022-11-15T11:04:39.425Z</time>
      </trkpt>
      <trkpt lat="45.69367" lon="4.58964">
        <ele>583.4</ele>
        <time>2022-11-15T11:04:45.258Z</time>
      </trkpt>
      <trkpt lat="45.6936" lon="4.58978">
        <ele>582.1</ele>
        <time>2022-11-15T11:04:46.211Z</time>
      </trkpt>
      <trkpt lat="45.69361" lon="4.58993">
        <ele>581.3</ele>
        <time>2022-11-15T11:04:47.045Z</time>
      </trkpt>
      <trkpt lat="45.69416" lon="4.59043">
        <ele>573.8</ele>
        <time>2022-11-15T11:04:52.209Z</time>
      </trkpt>
      <trkpt lat="45.69431" lon="4.59063">
        <ele>571.8</ele>
        <time>2022-11-15T11:04:53.833Z</time>
      </trkpt>
      <trkpt lat="45.6944" lon="4.59083">
        <ele>570.9</ele>
        <time>2022-11-15T11:04:55.166Z</time>
      </trkpt>
      <trkpt lat="45.69444" lon="4.59106">
        <ele>569.3</ele>
        <time>2022-11-15T11:04:56.478Z</time>
      </trkpt>
      <trkpt lat="45.69442" lon="4.59147">
        <ele>566.4</ele>
        <time>2022-11-15T11:04:58.753Z</time>
      </trkpt>
      <trkpt lat="45.69434" lon="4.59181">
        <ele>563.6</ele>
        <time>2022-11-15T11:05:00.739Z</time>
      </trkpt>
      <trkpt lat="45.69392" lon="4.59287">
        <ele>556.6</ele>
        <time>2022-11-15T11:05:07.485Z</time>
      </trkpt>
      <trkpt lat="45.69381" lon="4.59309">
        <ele>553.7</ele>
        <time>2022-11-15T11:05:08.983Z</time>
      </trkpt>
      <trkpt lat="45.6937" lon="4.59319">
        <ele>552.3</ele>
        <time>2022-11-15T11:05:10.016Z</time>
      </trkpt>
      <trkpt lat="45.69357" lon="4.59324">
        <ele>551.4</ele>
        <time>2022-11-15T11:05:11.083Z</time>
      </trkpt>
      <trkpt lat="45.69341" lon="4.5932">
        <ele>550</ele>
        <time>2022-11-15T11:05:12.370Z</time>
      </trkpt>
      <trkpt lat="45.6932" lon="4.59311">
        <ele>548.9</ele>
        <time>2022-11-15T11:05:14.189Z</time>
      </trkpt>
      <trkpt lat="45.69312" lon="4.59311">
        <ele>547.8</ele>
        <time>2022-11-15T11:05:14.823Z</time>
      </trkpt>
      <trkpt lat="45.69305" lon="4.59314">
        <ele>546.3</ele>
        <time>2022-11-15T11:05:15.402Z</time>
      </trkpt>
      <trkpt lat="45.693" lon="4.59319">
        <ele>546.6</ele>
        <time>2022-11-15T11:05:16.946Z</time>
      </trkpt>
      <trkpt lat="45.69297" lon="4.59326">
        <ele>546.3</ele>
        <time>2022-11-15T11:05:17.413Z</time>
      </trkpt>
      <trkpt lat="45.69295" lon="4.59354">
        <ele>544.3</ele>
        <time>2022-11-15T11:05:18.971Z</time>
      </trkpt>
      <trkpt lat="45.69303" lon="4.59403">
        <ele>540.3</ele>
        <time>2022-11-15T11:05:21.757Z</time>
      </trkpt>
      <trkpt lat="45.69303" lon="4.59416">
        <ele>539.8</ele>
        <time>2022-11-15T11:05:22.480Z</time>
      </trkpt>
      <trkpt lat="45.693" lon="4.59446">
        <ele>537.6</ele>
        <time>2022-11-15T11:05:24.157Z</time>
      </trkpt>
      <trkpt lat="45.6929" lon="4.59492">
        <ele>534.6</ele>
        <time>2022-11-15T11:05:26.824Z</time>
      </trkpt>
      <trkpt lat="45.69285" lon="4.59528">
        <ele>532.4</ele>
        <time>2022-11-15T11:05:28.856Z</time>
      </trkpt>
      <trkpt lat="45.69282" lon="4.59601">
        <ele>525.2</ele>
        <time>2022-11-15T11:05:32.904Z</time>
      </trkpt>
      <trkpt lat="45.69279" lon="4.59673">
        <ele>521.2</ele>
        <time>2022-11-15T11:05:36.897Z</time>
      </trkpt>
      <trkpt lat="45.69284" lon="4.59727">
        <ele>517.5</ele>
        <time>2022-11-15T11:05:39.913Z</time>
      </trkpt>
      <trkpt lat="45.69284" lon="4.59742">
        <ele>516.5</ele>
        <time>2022-11-15T11:05:40.743Z</time>
      </trkpt>
      <trkpt lat="45.69275" lon="4.59771">
        <ele>514.7</ele>
        <time>2022-11-15T11:05:42.500Z</time>
      </trkpt>
      <trkpt lat="45.69268" lon="4.59781">
        <ele>513.5</ele>
        <time>2022-11-15T11:05:43.284Z</time>
      </trkpt>
      <trkpt lat="45.69253" lon="4.59788">
        <ele>512.5</ele>
        <time>2022-11-15T11:05:44.458Z</time>
      </trkpt>
      <trkpt lat="45.69186" lon="4.59772">
        <ele>507.9</ele>
        <time>2022-11-15T11:05:49.842Z</time>
      </trkpt>
      <trkpt lat="45.69118" lon="4.59757">
        <ele>501.2</ele>
        <time>2022-11-15T11:05:55.294Z</time>
      </trkpt>
      <trkpt lat="45.69109" lon="4.59757">
        <ele>501.5</ele>
        <time>2022-11-15T11:05:57.180Z</time>
      </trkpt>
      <trkpt lat="45.69103" lon="4.59763">
        <ele>503.9</ele>
        <time>2022-11-15T11:06:01.289Z</time>
      </trkpt>
      <trkpt lat="45.69102" lon="4.59769">
        <ele>503.9</ele>
        <time>2022-11-15T11:06:01.917Z</time>
      </trkpt>
      <trkpt lat="45.69105" lon="4.59809">
        <ele>500.5</ele>
        <time>2022-11-15T11:06:04.144Z</time>
      </trkpt>
      <trkpt lat="45.69106" lon="4.59828">
        <ele>498.6</ele>
        <time>2022-11-15T11:06:05.199Z</time>
      </trkpt>
      <trkpt lat="45.69097" lon="4.59862">
        <ele>495.5</ele>
        <time>2022-11-15T11:06:07.211Z</time>
      </trkpt>
      <trkpt lat="45.69095" lon="4.59879">
        <ele>495</ele>
        <time>2022-11-15T11:06:08.292Z</time>
      </trkpt>
      <trkpt lat="45.69098" lon="4.59904">
        <ele>493.7</ele>
        <time>2022-11-15T11:06:09.696Z</time>
      </trkpt>
      <trkpt lat="45.69121" lon="4.59998">
        <ele>488.2</ele>
        <time>2022-11-15T11:06:15.210Z</time>
      </trkpt>
      <trkpt lat="45.6914" lon="4.6006">
        <ele>485.9</ele>
        <time>2022-11-15T11:06:19.187Z</time>
      </trkpt>
      <trkpt lat="45.69159" lon="4.60122">
        <ele>481.1</ele>
        <time>2022-11-15T11:06:22.935Z</time>
      </trkpt>
      <trkpt lat="45.69171" lon="4.6021">
        <ele>473.7</ele>
        <time>2022-11-15T11:06:27.899Z</time>
      </trkpt>
      <trkpt lat="45.69168" lon="4.60309">
        <ele>467.7</ele>
        <time>2022-11-15T11:06:33.384Z</time>
      </trkpt>
      <trkpt lat="45.69164" lon="4.60358">
        <ele>464.4</ele>
        <time>2022-11-15T11:06:36.115Z</time>
      </trkpt>
      <trkpt lat="45.69155" lon="4.60388">
        <ele>462.3</ele>
        <time>2022-11-15T11:06:37.923Z</time>
      </trkpt>
      <trkpt lat="45.69141" lon="4.60413">
        <ele>459.5</ele>
        <time>2022-11-15T11:06:39.697Z</time>
      </trkpt>
      <trkpt lat="45.69105" lon="4.60467">
        <ele>454.6</ele>
        <time>2022-11-15T11:06:43.829Z</time>
      </trkpt>
      <trkpt lat="45.69069" lon="4.60521">
        <ele>449.8</ele>
        <time>2022-11-15T11:06:47.961Z</time>
      </trkpt>
      <trkpt lat="45.69035" lon="4.60565">
        <ele>446.5</ele>
        <time>2022-11-15T11:06:51.594Z</time>
      </trkpt>
      <trkpt lat="45.69001" lon="4.60608">
        <ele>441.7</ele>
        <time>2022-11-15T11:06:55.189Z</time>
      </trkpt>
      <trkpt lat="45.68956" lon="4.60689">
        <ele>433.8</ele>
        <time>2022-11-15T11:07:00.919Z</time>
      </trkpt>
      <trkpt lat="45.68939" lon="4.60701">
        <ele>432.2</ele>
        <time>2022-11-15T11:07:02.421Z</time>
      </trkpt>
      <trkpt lat="45.68919" lon="4.60705">
        <ele>430.4</ele>
        <time>2022-11-15T11:07:04.021Z</time>
      </trkpt>
      <trkpt lat="45.68911" lon="4.60714">
        <ele>430.9</ele>
        <time>2022-11-15T11:07:06.597Z</time>
      </trkpt>
      <trkpt lat="45.68909" lon="4.60723">
        <ele>431.3</ele>
        <time>2022-11-15T11:07:08.402Z</time>
      </trkpt>
      <trkpt lat="45.6892" lon="4.60751">
        <ele>430.4</ele>
        <time>2022-11-15T11:07:10.442Z</time>
      </trkpt>
      <trkpt lat="45.6893" lon="4.60769">
        <ele>429.5</ele>
        <time>2022-11-15T11:07:11.710Z</time>
      </trkpt>
      <trkpt lat="45.68931" lon="4.60789">
        <ele>427.8</ele>
        <time>2022-11-15T11:07:12.820Z</time>
      </trkpt>
      <trkpt lat="45.68925" lon="4.60804">
        <ele>426.5</ele>
        <time>2022-11-15T11:07:13.777Z</time>
      </trkpt>
      <trkpt lat="45.68916" lon="4.60816">
        <ele>425.5</ele>
        <time>2022-11-15T11:07:14.752Z</time>
      </trkpt>
      <trkpt lat="45.68893" lon="4.6083">
        <ele>425.7</ele>
        <time>2022-11-15T11:07:18.678Z</time>
      </trkpt>
      <trkpt lat="45.68867" lon="4.6085">
        <ele>424.1</ele>
        <time>2022-11-15T11:07:21.044Z</time>
      </trkpt>
      <trkpt lat="45.68855" lon="4.6088">
        <ele>418.9</ele>
        <time>2022-11-15T11:07:22.958Z</time>
      </trkpt>
      <trkpt lat="45.6886" lon="4.60929">
        <ele>417.8</ele>
        <time>2022-11-15T11:07:26.372Z</time>
      </trkpt>
      <trkpt lat="45.68842" lon="4.60977">
        <ele>416.8</ele>
        <time>2022-11-15T11:07:30.354Z</time>
      </trkpt>
      <trkpt lat="45.68825" lon="4.61016">
        <ele>413.8</ele>
        <time>2022-11-15T11:07:32.899Z</time>
      </trkpt>
      <trkpt lat="45.68811" lon="4.61034">
        <ele>414.7</ele>
        <time>2022-11-15T11:07:37.621Z</time>
      </trkpt>
      <trkpt lat="45.68754" lon="4.61064">
        <ele>413.4</ele>
        <time>2022-11-15T11:07:44.333Z</time>
      </trkpt>
      <trkpt lat="45.68742" lon="4.61082">
        <ele>413.3</ele>
        <time>2022-11-15T11:07:46.658Z</time>
      </trkpt>
      <trkpt lat="45.68732" lon="4.61105">
        <ele>413.1</ele>
        <time>2022-11-15T11:07:49.049Z</time>
      </trkpt>
      <trkpt lat="45.68725" lon="4.61132">
        <ele>412.7</ele>
        <time>2022-11-15T11:07:51.312Z</time>
      </trkpt>
      <trkpt lat="45.6872" lon="4.6116">
        <ele>411.5</ele>
        <time>2022-11-15T11:07:52.863Z</time>
      </trkpt>
      <trkpt lat="45.68718" lon="4.61186">
        <ele>410.9</ele>
        <time>2022-11-15T11:07:54.647Z</time>
      </trkpt>
      <trkpt lat="45.68723" lon="4.61237">
        <ele>410.9</ele>
        <time>2022-11-15T11:07:59.884Z</time>
      </trkpt>
      <trkpt lat="45.68728" lon="4.61347">
        <ele>408.8</ele>
        <time>2022-11-15T11:08:07.855Z</time>
      </trkpt>
      <trkpt lat="45.68725" lon="4.61388">
        <ele>407.2</ele>
        <time>2022-11-15T11:08:10.138Z</time>
      </trkpt>
      <trkpt lat="45.68722" lon="4.61406">
        <ele>407.2</ele>
        <time>2022-11-15T11:08:12.020Z</time>
      </trkpt>
      <trkpt lat="45.68702" lon="4.61512">
        <ele>402.5</ele>
        <time>2022-11-15T11:08:17.826Z</time>
      </trkpt>
      <trkpt lat="45.68687" lon="4.61565">
        <ele>401.7</ele>
        <time>2022-11-15T11:08:22.312Z</time>
      </trkpt>
      <trkpt lat="45.68681" lon="4.61601">
        <ele>400.8</ele>
        <time>2022-11-15T11:08:24.787Z</time>
      </trkpt>
      <trkpt lat="45.68682" lon="4.61634">
        <ele>399.5</ele>
        <time>2022-11-15T11:08:26.604Z</time>
      </trkpt>
      <trkpt lat="45.68663" lon="4.61712">
        <ele>398.3</ele>
        <time>2022-11-15T11:08:33.027Z</time>
      </trkpt>
      <trkpt lat="45.68656" lon="4.61726">
        <ele>397.4</ele>
        <time>2022-11-15T11:08:33.980Z</time>
      </trkpt>
      <trkpt lat="45.68627" lon="4.61757">
        <ele>395</ele>
        <time>2022-11-15T11:08:36.615Z</time>
      </trkpt>
      <trkpt lat="45.68614" lon="4.61779">
        <ele>394.6</ele>
        <time>2022-11-15T11:08:38.880Z</time>
      </trkpt>
      <trkpt lat="45.68606" lon="4.61806">
        <ele>394.9</ele>
        <time>2022-11-15T11:08:42.324Z</time>
      </trkpt>
      <trkpt lat="45.68593" lon="4.61875">
        <ele>394.4</ele>
        <time>2022-11-15T11:08:48.677Z</time>
      </trkpt>
      <trkpt lat="45.68591" lon="4.61935">
        <ele>394.4</ele>
        <time>2022-11-15T11:08:54.785Z</time>
      </trkpt>
      <trkpt lat="45.68587" lon="4.61956">
        <ele>394.2</ele>
        <time>2022-11-15T11:08:56.642Z</time>
      </trkpt>
      <trkpt lat="45.6858" lon="4.61969">
        <ele>394.3</ele>
        <time>2022-11-15T11:08:58.456Z</time>
      </trkpt>
      <trkpt lat="45.68563" lon="4.6199">
        <ele>393.4</ele>
        <time>2022-11-15T11:09:00.498Z</time>
      </trkpt>
      <trkpt lat="45.68555" lon="4.62004">
        <ele>393.2</ele>
        <time>2022-11-15T11:09:01.991Z</time>
      </trkpt>
      <trkpt lat="45.68545" lon="4.62027">
        <ele>392.7</ele>
        <time>2022-11-15T11:09:03.968Z</time>
      </trkpt>
      <trkpt lat="45.6853" lon="4.62093">
        <ele>388.3</ele>
        <time>2022-11-15T11:09:07.810Z</time>
      </trkpt>
      <trkpt lat="45.68514" lon="4.62158">
        <ele>384.3</ele>
        <time>2022-11-15T11:09:11.626Z</time>
      </trkpt>
      <trkpt lat="45.68526" lon="4.62251">
        <ele>382.4</ele>
        <time>2022-11-15T11:09:18.357Z</time>
      </trkpt>
      <trkpt lat="45.68528" lon="4.62286">
        <ele>383.1</ele>
        <time>2022-11-15T11:09:23.192Z</time>
      </trkpt>
      <trkpt lat="45.68524" lon="4.62325">
        <ele>381.8</ele>
        <time>2022-11-15T11:09:25.537Z</time>
      </trkpt>
      <trkpt lat="45.68504" lon="4.62419">
        <ele>379.9</ele>
        <time>2022-11-15T11:09:32.611Z</time>
      </trkpt>
      <trkpt lat="45.68483" lon="4.62512">
        <ele>376.3</ele>
        <time>2022-11-15T11:09:38.154Z</time>
      </trkpt>
      <trkpt lat="45.68479" lon="4.62555">
        <ele>375</ele>
        <time>2022-11-15T11:09:40.838Z</time>
      </trkpt>
      <trkpt lat="45.68446" lon="4.62641">
        <ele>371.3</ele>
        <time>2022-11-15T11:09:46.344Z</time>
      </trkpt>
      <trkpt lat="45.68435" lon="4.62714">
        <ele>370.8</ele>
        <time>2022-11-15T11:09:53.021Z</time>
      </trkpt>
      <trkpt lat="45.6843" lon="4.62775">
        <ele>370.3</ele>
        <time>2022-11-15T11:09:58.364Z</time>
      </trkpt>
      <trkpt lat="45.68418" lon="4.62856">
        <ele>365.6</ele>
        <time>2022-11-15T11:10:02.949Z</time>
      </trkpt>
      <trkpt lat="45.6842" lon="4.62898">
        <ele>364.6</ele>
        <time>2022-11-15T11:10:05.786Z</time>
      </trkpt>
      <trkpt lat="45.68418" lon="4.62911">
        <ele>364.8</ele>
        <time>2022-11-15T11:10:07.472Z</time>
      </trkpt>
      <trkpt lat="45.684" lon="4.62958">
        <ele>365.9</ele>
        <time>2022-11-15T11:10:14.929Z</time>
      </trkpt>
      <trkpt lat="45.68371" lon="4.63012">
        <ele>369</ele>
        <time>2022-11-15T11:10:28.376Z</time>
      </trkpt>
      <trkpt lat="45.68317" lon="4.63089">
        <ele>374.5</ele>
        <time>2022-11-15T11:10:51.071Z</time>
      </trkpt>
      <trkpt lat="45.68299" lon="4.63125">
        <ele>378.1</ele>
        <time>2022-11-15T11:11:05.006Z</time>
      </trkpt>
      <trkpt lat="45.68285" lon="4.63162">
        <ele>381.9</ele>
        <time>2022-11-15T11:11:20.573Z</time>
      </trkpt>
      <trkpt lat="45.68274" lon="4.63231">
        <ele>382.4</ele>
        <time>2022-11-15T11:11:28.505Z</time>
      </trkpt>
      <trkpt lat="45.68268" lon="4.6329">
        <ele>382.2</ele>
        <time>2022-11-15T11:11:34.153Z</time>
      </trkpt>
      <trkpt lat="45.68264" lon="4.63309">
        <ele>382.3</ele>
        <time>2022-11-15T11:11:36.314Z</time>
      </trkpt>
      <trkpt lat="45.68257" lon="4.63328">
        <ele>383.6</ele>
        <time>2022-11-15T11:11:41.340Z</time>
      </trkpt>
      <trkpt lat="45.68233" lon="4.63366">
        <ele>385.2</ele>
        <time>2022-11-15T11:11:50.144Z</time>
      </trkpt>
      <trkpt lat="45.68218" lon="4.63397">
        <ele>386.7</ele>
        <time>2022-11-15T11:11:57.168Z</time>
      </trkpt>
      <trkpt lat="45.68209" lon="4.63431">
        <ele>388.8</ele>
        <time>2022-11-15T11:12:05.395Z</time>
      </trkpt>
      <trkpt lat="45.68197" lon="4.63521">
        <ele>390.4</ele>
        <time>2022-11-15T11:12:17.480Z</time>
      </trkpt>
      <trkpt lat="45.68195" lon="4.63603">
        <ele>390.1</ele>
        <time>2022-11-15T11:12:25.205Z</time>
      </trkpt>
      <trkpt lat="45.682" lon="4.63645">
        <ele>389.8</ele>
        <time>2022-11-15T11:12:28.989Z</time>
      </trkpt>
      <trkpt lat="45.68208" lon="4.63686">
        <ele>390.1</ele>
        <time>2022-11-15T11:12:33.759Z</time>
      </trkpt>
      <trkpt lat="45.6824" lon="4.6379">
        <ele>390.1</ele>
        <time>2022-11-15T11:12:45.316Z</time>
      </trkpt>
      <trkpt lat="45.68254" lon="4.63855">
        <ele>387.8</ele>
        <time>2022-11-15T11:12:49.320Z</time>
      </trkpt>
      <trkpt lat="45.68254" lon="4.63877">
        <ele>386.9</ele>
        <time>2022-11-15T11:12:50.509Z</time>
      </trkpt>
      <trkpt lat="45.68247" lon="4.63932">
        <ele>384.3</ele>
        <time>2022-11-15T11:12:53.347Z</time>
      </trkpt>
      <trkpt lat="45.68291" lon="4.63902">
        <ele>389</ele>
        <time>2022-11-15T11:13:11.177Z</time>
      </trkpt>
      <trkpt lat="45.68335" lon="4.63872">
        <ele>394.3</ele>
        <time>2022-11-15T11:13:31.345Z</time>
      </trkpt>
      <trkpt lat="45.68349" lon="4.63864">
        <ele>395.9</ele>
        <time>2022-11-15T11:13:37.414Z</time>
      </trkpt>
      <trkpt lat="45.68357" lon="4.63864">
        <ele>396.5</ele>
        <time>2022-11-15T11:13:39.850Z</time>
      </trkpt>
      <trkpt lat="45.68379" lon="4.63872">
        <ele>397.9</ele>
        <time>2022-11-15T11:13:46.106Z</time>
      </trkpt>
      <trkpt lat="45.68402" lon="4.63875">
        <ele>399</ele>
        <time>2022-11-15T11:13:51.894Z</time>
      </trkpt>
      <trkpt lat="45.6841" lon="4.63872">
        <ele>399.6</ele>
        <time>2022-11-15T11:13:54.364Z</time>
      </trkpt>
      <trkpt lat="45.68466" lon="4.63836">
        <ele>403.3</ele>
        <time>2022-11-15T11:14:11.117Z</time>
      </trkpt>
      <trkpt lat="45.6851" lon="4.63799">
        <ele>407</ele>
        <time>2022-11-15T11:14:26.352Z</time>
      </trkpt>
      <trkpt lat="45.68554" lon="4.63761">
        <ele>409.9</ele>
        <time>2022-11-15T11:14:40.008Z</time>
      </trkpt>
      <trkpt lat="45.68594" lon="4.63723">
        <ele>413.5</ele>
        <time>2022-11-15T11:14:54.619Z</time>
      </trkpt>
      <trkpt lat="45.68606" lon="4.63703">
        <ele>414.7</ele>
        <time>2022-11-15T11:14:59.824Z</time>
      </trkpt>
      <trkpt lat="45.6861" lon="4.63692">
        <ele>415.3</ele>
        <time>2022-11-15T11:15:02.348Z</time>
      </trkpt>
      <trkpt lat="45.6862" lon="4.63673">
        <ele>416.7</ele>
        <time>2022-11-15T11:15:07.801Z</time>
      </trkpt>
      <trkpt lat="45.68633" lon="4.63653">
        <ele>417.4</ele>
        <time>2022-11-15T11:15:11.985Z</time>
      </trkpt>
      <trkpt lat="45.68675" lon="4.63576">
        <ele>420</ele>
        <time>2022-11-15T11:15:27.244Z</time>
      </trkpt>
      <trkpt lat="45.68693" lon="4.6355">
        <ele>421.2</ele>
        <time>2022-11-15T11:15:33.624Z</time>
      </trkpt>
      <trkpt lat="45.68724" lon="4.63486">
        <ele>422.9</ele>
        <time>2022-11-15T11:15:44.719Z</time>
      </trkpt>
      <trkpt lat="45.68754" lon="4.63422">
        <ele>425.6</ele>
        <time>2022-11-15T11:15:58.437Z</time>
      </trkpt>
      <trkpt lat="45.68793" lon="4.63308">
        <ele>430.5</ele>
        <time>2022-11-15T11:16:21.812Z</time>
      </trkpt>
      <trkpt lat="45.68803" lon="4.63291">
        <ele>431.4</ele>
        <time>2022-11-15T11:16:25.981Z</time>
      </trkpt>
      <trkpt lat="45.68833" lon="4.63253">
        <ele>434.9</ele>
        <time>2022-11-15T11:16:39.484Z</time>
      </trkpt>
      <trkpt lat="45.68884" lon="4.63211">
        <ele>436.8</ele>
        <time>2022-11-15T11:16:51.646Z</time>
      </trkpt>
      <trkpt lat="45.68961" lon="4.63155">
        <ele>441</ele>
        <time>2022-11-15T11:17:13.433Z</time>
      </trkpt>
      <trkpt lat="45.68972" lon="4.6314">
        <ele>442</ele>
        <time>2022-11-15T11:17:17.747Z</time>
      </trkpt>
      <trkpt lat="45.68982" lon="4.63121">
        <ele>443.8</ele>
        <time>2022-11-15T11:17:24.593Z</time>
      </trkpt>
      <trkpt lat="45.68984" lon="4.63112">
        <ele>444.3</ele>
        <time>2022-11-15T11:17:26.613Z</time>
      </trkpt>
      <trkpt lat="45.68995" lon="4.63028">
        <ele>448.1</ele>
        <time>2022-11-15T11:17:43.302Z</time>
      </trkpt>
      <trkpt lat="45.69011" lon="4.62995">
        <ele>450.6</ele>
        <time>2022-11-15T11:17:52.903Z</time>
      </trkpt>
      <trkpt lat="45.69027" lon="4.62967">
        <ele>452.7</ele>
        <time>2022-11-15T11:18:01.117Z</time>
      </trkpt>
      <trkpt lat="45.69036" lon="4.6296">
        <ele>453.6</ele>
        <time>2022-11-15T11:18:04.584Z</time>
      </trkpt>
      <trkpt lat="45.6906" lon="4.6295">
        <ele>456.2</ele>
        <time>2022-11-15T11:18:14.431Z</time>
      </trkpt>
      <trkpt lat="45.69083" lon="4.62945">
        <ele>457</ele>
        <time>2022-11-15T11:18:19.375Z</time>
      </trkpt>
      <trkpt lat="45.69105" lon="4.62937">
        <ele>459.4</ele>
        <time>2022-11-15T11:18:28.476Z</time>
      </trkpt>
      <trkpt lat="45.69117" lon="4.62929">
        <ele>460.5</ele>
        <time>2022-11-15T11:18:32.778Z</time>
      </trkpt>
      <trkpt lat="45.69158" lon="4.62868">
        <ele>464.4</ele>
        <time>2022-11-15T11:18:49.586Z</time>
      </trkpt>
      <trkpt lat="45.69171" lon="4.62838">
        <ele>468.5</ele>
        <time>2022-11-15T11:19:03.432Z</time>
      </trkpt>
      <trkpt lat="45.69171" lon="4.62806">
        <ele>470.7</ele>
        <time>2022-11-15T11:19:11.765Z</time>
      </trkpt>
      <trkpt lat="45.69153" lon="4.62721">
        <ele>476.1</ele>
        <time>2022-11-15T11:19:32.617Z</time>
      </trkpt>
      <trkpt lat="45.69151" lon="4.62703">
        <ele>476.7</ele>
        <time>2022-11-15T11:19:35.798Z</time>
      </trkpt>
      <trkpt lat="45.69153" lon="4.6268">
        <ele>477.3</ele>
        <time>2022-11-15T11:19:39.366Z</time>
      </trkpt>
      <trkpt lat="45.69164" lon="4.62661">
        <ele>478.4</ele>
        <time>2022-11-15T11:19:44.190Z</time>
      </trkpt>
      <trkpt lat="45.69178" lon="4.62644">
        <ele>479.9</ele>
        <time>2022-11-15T11:19:50.088Z</time>
      </trkpt>
      <trkpt lat="45.69243" lon="4.626">
        <ele>485.1</ele>
        <time>2022-11-15T11:20:11.524Z</time>
      </trkpt>
      <trkpt lat="45.69271" lon="4.62591">
        <ele>486.6</ele>
        <time>2022-11-15T11:20:18.938Z</time>
      </trkpt>
      <trkpt lat="45.69322" lon="4.62586">
        <ele>490.1</ele>
        <time>2022-11-15T11:20:33.741Z</time>
      </trkpt>
      <trkpt lat="45.69392" lon="4.62601">
        <ele>496.4</ele>
        <time>2022-11-15T11:20:57.942Z</time>
      </trkpt>
      <trkpt lat="45.6946" lon="4.62601">
        <ele>502.5</ele>
        <time>2022-11-15T11:21:21.336Z</time>
      </trkpt>
      <trkpt lat="45.69471" lon="4.62589">
        <ele>503.2</ele>
        <time>2022-11-15T11:21:24.871Z</time>
      </trkpt>
      <trkpt lat="45.69475" lon="4.62571">
        <ele>504.3</ele>
        <time>2022-11-15T11:21:29.169Z</time>
      </trkpt>
      <trkpt lat="45.69471" lon="4.62521">
        <ele>506.8</ele>
        <time>2022-11-15T11:21:39.553Z</time>
      </trkpt>
      <trkpt lat="45.69476" lon="4.62474">
        <ele>510</ele>
        <time>2022-11-15T11:21:51.693Z</time>
      </trkpt>
      <trkpt lat="45.69488" lon="4.62421">
        <ele>514.1</ele>
        <time>2022-11-15T11:22:07.236Z</time>
      </trkpt>
      <trkpt lat="45.69503" lon="4.62381">
        <ele>517.3</ele>
        <time>2022-11-15T11:22:19.347Z</time>
      </trkpt>
      <trkpt lat="45.69521" lon="4.62341">
        <ele>519.6</ele>
        <time>2022-11-15T11:22:29.024Z</time>
      </trkpt>
      <trkpt lat="45.69531" lon="4.62313">
        <ele>521.2</ele>
        <time>2022-11-15T11:22:35.599Z</time>
      </trkpt>
      <trkpt lat="45.69533" lon="4.62298">
        <ele>522</ele>
        <time>2022-11-15T11:22:38.846Z</time>
      </trkpt>
      <trkpt lat="45.69524" lon="4.62253">
        <ele>523.2</ele>
        <time>2022-11-15T11:22:46.015Z</time>
      </trkpt>
      <trkpt lat="45.69526" lon="4.62228">
        <ele>524.3</ele>
        <time>2022-11-15T11:22:50.891Z</time>
      </trkpt>
      <trkpt lat="45.69534" lon="4.62189">
        <ele>524.8</ele>
        <time>2022-11-15T11:22:55.819Z</time>
      </trkpt>
      <trkpt lat="45.69542" lon="4.62173">
        <ele>526.6</ele>
        <time>2022-11-15T11:23:03.270Z</time>
      </trkpt>
      <trkpt lat="45.6955" lon="4.6215">
        <ele>529</ele>
        <time>2022-11-15T11:23:13.346Z</time>
      </trkpt>
      <trkpt lat="45.69542" lon="4.62102">
        <ele>530.4</ele>
        <time>2022-11-15T11:23:21.336Z</time>
      </trkpt>
      <trkpt lat="45.69541" lon="4.62072">
        <ele>533.5</ele>
        <time>2022-11-15T11:23:33.115Z</time>
      </trkpt>
      <trkpt lat="45.69538" lon="4.62058">
        <ele>535.1</ele>
        <time>2022-11-15T11:23:38.858Z</time>
      </trkpt>
      <trkpt lat="45.69524" lon="4.62044">
        <ele>537</ele>
        <time>2022-11-15T11:23:46.119Z</time>
      </trkpt>
      <trkpt lat="45.69505" lon="4.62034">
        <ele>537.9</ele>
        <time>2022-11-15T11:23:51.090Z</time>
      </trkpt>
      <trkpt lat="45.6949" lon="4.62023">
        <ele>539.8</ele>
        <time>2022-11-15T11:23:58.374Z</time>
      </trkpt>
      <trkpt lat="45.69474" lon="4.62017">
        <ele>540.8</ele>
        <time>2022-11-15T11:24:02.894Z</time>
      </trkpt>
      <trkpt lat="45.69443" lon="4.62016">
        <ele>543.2</ele>
        <time>2022-11-15T11:24:12.513Z</time>
      </trkpt>
      <trkpt lat="45.69429" lon="4.62004">
        <ele>543.2</ele>
        <time>2022-11-15T11:24:14.888Z</time>
      </trkpt>
      <trkpt lat="45.69379" lon="4.61923">
        <ele>549</ele>
        <time>2022-11-15T11:24:38.203Z</time>
      </trkpt>
      <trkpt lat="45.69373" lon="4.61906">
        <ele>550.1</ele>
        <time>2022-11-15T11:24:42.512Z</time>
      </trkpt>
      <trkpt lat="45.69348" lon="4.61807">
        <ele>556</ele>
        <time>2022-11-15T11:25:05.852Z</time>
      </trkpt>
      <trkpt lat="45.69338" lon="4.61758">
        <ele>559.7</ele>
        <time>2022-11-15T11:25:19.864Z</time>
      </trkpt>
      <trkpt lat="45.69338" lon="4.61742">
        <ele>560.8</ele>
        <time>2022-11-15T11:25:24.031Z</time>
      </trkpt>
      <trkpt lat="45.69343" lon="4.61727">
        <ele>561.9</ele>
        <time>2022-11-15T11:25:28.212Z</time>
      </trkpt>
      <trkpt lat="45.69361" lon="4.61714">
        <ele>563.7</ele>
        <time>2022-11-15T11:25:35.122Z</time>
      </trkpt>
      <trkpt lat="45.69398" lon="4.617">
        <ele>567.6</ele>
        <time>2022-11-15T11:25:49.883Z</time>
      </trkpt>
      <trkpt lat="45.69462" lon="4.61661">
        <ele>574.4</ele>
        <time>2022-11-15T11:26:15.651Z</time>
      </trkpt>
      <trkpt lat="45.69478" lon="4.61648">
        <ele>576.1</ele>
        <time>2022-11-15T11:26:22.135Z</time>
      </trkpt>
      <trkpt lat="45.69494" lon="4.61613">
        <ele>577.3</ele>
        <time>2022-11-15T11:26:28.953Z</time>
      </trkpt>
      <trkpt lat="45.69516" lon="4.61533">
        <ele>584</ele>
        <time>2022-11-15T11:26:54.574Z</time>
      </trkpt>
      <trkpt lat="45.69538" lon="4.61452">
        <ele>587.9</ele>
        <time>2022-11-15T11:27:11.616Z</time>
      </trkpt>
      <trkpt lat="45.6954" lon="4.61416">
        <ele>588.7</ele>
        <time>2022-11-15T11:27:16.791Z</time>
      </trkpt>
      <trkpt lat="45.6952" lon="4.61302">
        <ele>595.7</ele>
        <time>2022-11-15T11:27:43.967Z</time>
      </trkpt>
      <trkpt lat="45.69517" lon="4.61259">
        <ele>597.3</ele>
        <time>2022-11-15T11:27:51.804Z</time>
      </trkpt>
      <trkpt lat="45.6952" lon="4.61188">
        <ele>601.1</ele>
        <time>2022-11-15T11:28:07.105Z</time>
      </trkpt>
      <trkpt lat="45.69527" lon="4.61149">
        <ele>603.4</ele>
        <time>2022-11-15T11:28:16.146Z</time>
      </trkpt>
      <trkpt lat="45.69539" lon="4.61124">
        <ele>604.8</ele>
        <time>2022-11-15T11:28:22.174Z</time>
      </trkpt>
      <trkpt lat="45.69554" lon="4.61114">
        <ele>607.2</ele>
        <time>2022-11-15T11:28:31.464Z</time>
      </trkpt>
      <trkpt lat="45.69566" lon="4.6111">
        <ele>606.7</ele>
        <time>2022-11-15T11:28:32.579Z</time>
      </trkpt>
      <trkpt lat="45.69596" lon="4.61123">
        <ele>611.3</ele>
        <time>2022-11-15T11:28:50.178Z</time>
      </trkpt>
      <trkpt lat="45.69609" lon="4.61124">
        <ele>612.1</ele>
        <time>2022-11-15T11:28:53.760Z</time>
      </trkpt>
      <trkpt lat="45.69621" lon="4.61118">
        <ele>612.6</ele>
        <time>2022-11-15T11:28:56.653Z</time>
      </trkpt>
      <trkpt lat="45.69631" lon="4.61105">
        <ele>612.2</ele>
        <time>2022-11-15T11:28:58.016Z</time>
      </trkpt>
      <trkpt lat="45.69641" lon="4.61087">
        <ele>614.8</ele>
        <time>2022-11-15T11:29:07.036Z</time>
      </trkpt>
      <trkpt lat="45.69646" lon="4.61059">
        <ele>615.7</ele>
        <time>2022-11-15T11:29:11.998Z</time>
      </trkpt>
      <trkpt lat="45.69661" lon="4.61017">
        <ele>618.8</ele>
        <time>2022-11-15T11:29:23.791Z</time>
      </trkpt>
      <trkpt lat="45.69663" lon="4.60998">
        <ele>619.8</ele>
        <time>2022-11-15T11:29:27.860Z</time>
      </trkpt>
      <trkpt lat="45.69663" lon="4.6096">
        <ele>621.3</ele>
        <time>2022-11-15T11:29:34.917Z</time>
      </trkpt>
      <trkpt lat="45.69665" lon="4.60945">
        <ele>623</ele>
        <time>2022-11-15T11:29:40.906Z</time>
      </trkpt>
      <trkpt lat="45.69671" lon="4.60927">
        <ele>622.7</ele>
        <time>2022-11-15T11:29:42.443Z</time>
      </trkpt>
      <trkpt lat="45.69678" lon="4.60917">
        <ele>623.2</ele>
        <time>2022-11-15T11:29:44.969Z</time>
      </trkpt>
      <trkpt lat="45.69685" lon="4.60911">
        <ele>623.6</ele>
        <time>2022-11-15T11:29:47.033Z</time>
      </trkpt>
      <trkpt lat="45.69734" lon="4.60879">
        <ele>629.1</ele>
        <time>2022-11-15T11:30:07.850Z</time>
      </trkpt>
      <trkpt lat="45.69765" lon="4.60853">
        <ele>632</ele>
        <time>2022-11-15T11:30:19.299Z</time>
      </trkpt>
      <trkpt lat="45.69781" lon="4.60837">
        <ele>633.8</ele>
        <time>2022-11-15T11:30:26.167Z</time>
      </trkpt>
      <trkpt lat="45.69791" lon="4.60821">
        <ele>634.8</ele>
        <time>2022-11-15T11:30:30.452Z</time>
      </trkpt>
      <trkpt lat="45.69803" lon="4.60784">
        <ele>636.8</ele>
        <time>2022-11-15T11:30:38.811Z</time>
      </trkpt>
      <trkpt lat="45.69804" lon="4.60768">
        <ele>638</ele>
        <time>2022-11-15T11:30:43.366Z</time>
      </trkpt>
      <trkpt lat="45.69802" lon="4.60756">
        <ele>638.1</ele>
        <time>2022-11-15T11:30:44.770Z</time>
      </trkpt>
      <trkpt lat="45.69797" lon="4.60744">
        <ele>638.9</ele>
        <time>2022-11-15T11:30:47.912Z</time>
      </trkpt>
      <trkpt lat="45.69754" lon="4.6069">
        <ele>642.4</ele>
        <time>2022-11-15T11:31:03.623Z</time>
      </trkpt>
      <trkpt lat="45.69744" lon="4.60669">
        <ele>642.9</ele>
        <time>2022-11-15T11:31:07.105Z</time>
      </trkpt>
      <trkpt lat="45.69739" lon="4.60646">
        <ele>645.1</ele>
        <time>2022-11-15T11:31:16.200Z</time>
      </trkpt>
      <trkpt lat="45.69735" lon="4.60615">
        <ele>646.2</ele>
        <time>2022-11-15T11:31:21.803Z</time>
      </trkpt>
      <trkpt lat="45.69735" lon="4.6057">
        <ele>649.1</ele>
        <time>2022-11-15T11:31:32.867Z</time>
      </trkpt>
      <trkpt lat="45.69739" lon="4.60511">
        <ele>652.1</ele>
        <time>2022-11-15T11:31:45.224Z</time>
      </trkpt>
      <trkpt lat="45.69755" lon="4.60436">
        <ele>657.8</ele>
        <time>2022-11-15T11:32:06.813Z</time>
      </trkpt>
      <trkpt lat="45.69762" lon="4.60387">
        <ele>660.5</ele>
        <time>2022-11-15T11:32:17.641Z</time>
      </trkpt>
      <trkpt lat="45.69769" lon="4.60282">
        <ele>664.6</ele>
        <time>2022-11-15T11:32:37.113Z</time>
      </trkpt>
      <trkpt lat="45.69778" lon="4.60228">
        <ele>667.5</ele>
        <time>2022-11-15T11:32:48.897Z</time>
      </trkpt>
      <trkpt lat="45.69786" lon="4.60202">
        <ele>669.5</ele>
        <time>2022-11-15T11:32:56.466Z</time>
      </trkpt>
      <trkpt lat="45.69816" lon="4.60128">
        <ele>673.6</ele>
        <time>2022-11-15T11:33:13.789Z</time>
      </trkpt>
      <trkpt lat="45.69827" lon="4.60116">
        <ele>675.6</ele>
        <time>2022-11-15T11:33:21.554Z</time>
      </trkpt>
      <trkpt lat="45.6984" lon="4.60108">
        <ele>677</ele>
        <time>2022-11-15T11:33:26.855Z</time>
      </trkpt>
      <trkpt lat="45.69888" lon="4.60099">
        <ele>681.3</ele>
        <time>2022-11-15T11:33:43.381Z</time>
      </trkpt>
      <trkpt lat="45.69906" lon="4.6009">
        <ele>682.4</ele>
        <time>2022-11-15T11:33:48.492Z</time>
      </trkpt>
      <trkpt lat="45.6993" lon="4.60075">
        <ele>684.7</ele>
        <time>2022-11-15T11:33:57.353Z</time>
      </trkpt>
      <trkpt lat="45.69955" lon="4.60052">
        <ele>686.5</ele>
        <time>2022-11-15T11:34:05.480Z</time>
      </trkpt>
      <trkpt lat="45.70011" lon="4.59975">
        <ele>690</ele>
        <time>2022-11-15T11:34:24.625Z</time>
      </trkpt>
      <trkpt lat="45.70064" lon="4.59886">
        <ele>696.7</ele>
        <time>2022-11-15T11:34:50.937Z</time>
      </trkpt>
      <trkpt lat="45.70117" lon="4.59797">
        <ele>701.1</ele>
        <time>2022-11-15T11:35:12.269Z</time>
      </trkpt>
      <trkpt lat="45.70161" lon="4.59719">
        <ele>703.4</ele>
        <time>2022-11-15T11:35:26.848Z</time>
      </trkpt>
      <trkpt lat="45.70204" lon="4.59641">
        <ele>706.5</ele>
        <time>2022-11-15T11:35:43.916Z</time>
      </trkpt>
      <trkpt lat="45.70251" lon="4.59569">
        <ele>712.2</ele>
        <time>2022-11-15T11:36:06.234Z</time>
      </trkpt>
      <trkpt lat="45.70298" lon="4.59498">
        <ele>717.5</ele>
        <time>2022-11-15T11:36:27.458Z</time>
      </trkpt>
      <trkpt lat="45.70344" lon="4.59426">
        <ele>720.8</ele>
        <time>2022-11-15T11:36:44.627Z</time>
      </trkpt>
      <trkpt lat="45.70391" lon="4.59354">
        <ele>725.8</ele>
        <time>2022-11-15T11:37:05.198Z</time>
      </trkpt>
      <trkpt lat="45.70405" lon="4.59338">
        <ele>726.8</ele>
        <time>2022-11-15T11:37:09.938Z</time>
      </trkpt>
      <trkpt lat="45.70418" lon="4.59329">
        <ele>728</ele>
        <time>2022-11-15T11:37:14.632Z</time>
      </trkpt>
      <trkpt lat="45.70429" lon="4.59325">
        <ele>728.9</ele>
        <time>2022-11-15T11:37:18.207Z</time>
      </trkpt>
      <trkpt lat="45.7051" lon="4.59311">
        <ele>726.8</ele>
        <time>2022-11-15T11:37:26.794Z</time>
      </trkpt>
      <trkpt lat="45.70539" lon="4.59303">
        <ele>725.1</ele>
        <time>2022-11-15T11:37:29.097Z</time>
      </trkpt>
      <trkpt lat="45.7055" lon="4.59298">
        <ele>724.6</ele>
        <time>2022-11-15T11:37:30.115Z</time>
      </trkpt>
      <trkpt lat="45.7057" lon="4.59291">
        <ele>722</ele>
        <time>2022-11-15T11:37:31.747Z</time>
      </trkpt>
      <trkpt lat="45.70634" lon="4.59236">
        <ele>718.4</ele>
        <time>2022-11-15T11:37:38.046Z</time>
      </trkpt>
      <trkpt lat="45.7067" lon="4.59201">
        <ele>714.3</ele>
        <time>2022-11-15T11:37:41.495Z</time>
      </trkpt>
      <trkpt lat="45.70727" lon="4.5913">
        <ele>711</ele>
        <time>2022-11-15T11:37:48.137Z</time>
      </trkpt>
      <trkpt lat="45.70765" lon="4.59103">
        <ele>709.5</ele>
        <time>2022-11-15T11:37:52.175Z</time>
      </trkpt>
      <trkpt lat="45.70775" lon="4.59086">
        <ele>710</ele>
        <time>2022-11-15T11:37:55.380Z</time>
      </trkpt>
      <trkpt lat="45.70776" lon="4.59066">
        <ele>710.7</ele>
        <time>2022-11-15T11:37:58.944Z</time>
      </trkpt>
      <trkpt lat="45.70772" lon="4.59042">
        <ele>710.4</ele>
        <time>2022-11-15T11:38:00.940Z</time>
      </trkpt>
      <trkpt lat="45.7076" lon="4.59023">
        <ele>710.8</ele>
        <time>2022-11-15T11:38:04.215Z</time>
      </trkpt>
      <trkpt lat="45.70746" lon="4.5896">
        <ele>709.7</ele>
        <time>2022-11-15T11:38:09.179Z</time>
      </trkpt>
      <trkpt lat="45.70732" lon="4.58898">
        <ele>707.1</ele>
        <time>2022-11-15T11:38:12.739Z</time>
      </trkpt>
      <trkpt lat="45.70741" lon="4.58848">
        <ele>704.1</ele>
        <time>2022-11-15T11:38:15.597Z</time>
      </trkpt>
      <trkpt lat="45.70772" lon="4.5877">
        <ele>696.4</ele>
        <time>2022-11-15T11:38:20.564Z</time>
      </trkpt>
      <trkpt lat="45.70779" lon="4.58758">
        <ele>696.1</ele>
        <time>2022-11-15T11:38:21.692Z</time>
      </trkpt>
      <trkpt lat="45.70787" lon="4.58754">
        <ele>696</ele>
        <time>2022-11-15T11:38:22.745Z</time>
      </trkpt>
      <trkpt lat="45.70813" lon="4.58755">
        <ele>695.5</ele>
        <time>2022-11-15T11:38:25.694Z</time>
      </trkpt>
      <trkpt lat="45.70803" lon="4.5886">
        <ele>691.1</ele>
        <time>2022-11-15T11:38:31.377Z</time>
      </trkpt>
      <trkpt lat="45.70802" lon="4.58882">
        <ele>690.6</ele>
        <time>2022-11-15T11:38:32.886Z</time>
      </trkpt>
      <trkpt lat="45.70806" lon="4.58908">
        <ele>689.4</ele>
        <time>2022-11-15T11:38:34.257Z</time>
      </trkpt>
      <trkpt lat="45.70812" lon="4.58924">
        <ele>689.6</ele>
        <time>2022-11-15T11:38:36.415Z</time>
      </trkpt>
      <trkpt lat="45.70842" lon="4.58955">
        <ele>688.2</ele>
        <time>2022-11-15T11:38:39.852Z</time>
      </trkpt>
      <trkpt lat="45.7088" lon="4.5899">
        <ele>684.1</ele>
        <time>2022-11-15T11:38:43.433Z</time>
      </trkpt>
      <trkpt lat="45.7092" lon="4.59038">
        <ele>678.4</ele>
        <time>2022-11-15T11:38:47.569Z</time>
      </trkpt>
      <trkpt lat="45.70959" lon="4.59087">
        <ele>675.1</ele>
        <time>2022-11-15T11:38:51.425Z</time>
      </trkpt>
      <trkpt lat="45.71016" lon="4.59151">
        <ele>670.7</ele>
        <time>2022-11-15T11:38:56.931Z</time>
      </trkpt>
      <trkpt lat="45.71045" lon="4.59193">
        <ele>664.8</ele>
        <time>2022-11-15T11:39:00.199Z</time>
      </trkpt>
      <trkpt lat="45.71071" lon="4.59242">
        <ele>663.9</ele>
        <time>2022-11-15T11:39:04.974Z</time>
      </trkpt>
      <trkpt lat="45.71085" lon="4.59283">
        <ele>660.7</ele>
        <time>2022-11-15T11:39:07.500Z</time>
      </trkpt>
      <trkpt lat="45.71103" lon="4.59315">
        <ele>658.3</ele>
        <time>2022-11-15T11:39:09.774Z</time>
      </trkpt>
      <trkpt lat="45.71121" lon="4.59328">
        <ele>659</ele>
        <time>2022-11-15T11:39:14.077Z</time>
      </trkpt>
      <trkpt lat="45.71132" lon="4.5933">
        <ele>658.7</ele>
        <time>2022-11-15T11:39:15.227Z</time>
      </trkpt>
      <trkpt lat="45.71145" lon="4.59321">
        <ele>658.5</ele>
        <time>2022-11-15T11:39:16.976Z</time>
      </trkpt>
      <trkpt lat="45.71198" lon="4.59263">
        <ele>657.4</ele>
        <time>2022-11-15T11:39:24.791Z</time>
      </trkpt>
      <trkpt lat="45.71239" lon="4.59239">
        <ele>657.3</ele>
        <time>2022-11-15T11:39:31.022Z</time>
      </trkpt>
      <trkpt lat="45.71275" lon="4.59232">
        <ele>656</ele>
        <time>2022-11-15T11:39:34.466Z</time>
      </trkpt>
      <trkpt lat="45.71305" lon="4.59238">
        <ele>654.9</ele>
        <time>2022-11-15T11:39:37.323Z</time>
      </trkpt>
      <trkpt lat="45.7132" lon="4.59245">
        <ele>654.1</ele>
        <time>2022-11-15T11:39:38.626Z</time>
      </trkpt>
      <trkpt lat="45.71332" lon="4.5926">
        <ele>652.7</ele>
        <time>2022-11-15T11:39:39.888Z</time>
      </trkpt>
      <trkpt lat="45.7134" lon="4.5928">
        <ele>652.6</ele>
        <time>2022-11-15T11:39:42.027Z</time>
      </trkpt>
      <trkpt lat="45.71345" lon="4.59312">
        <ele>650.9</ele>
        <time>2022-11-15T11:39:43.842Z</time>
      </trkpt>
      <trkpt lat="45.71347" lon="4.59381">
        <ele>649.3</ele>
        <time>2022-11-15T11:39:48.533Z</time>
      </trkpt>
      <trkpt lat="45.71348" lon="4.5945">
        <ele>646.4</ele>
        <time>2022-11-15T11:39:52.213Z</time>
      </trkpt>
      <trkpt lat="45.71336" lon="4.59544">
        <ele>640.8</ele>
        <time>2022-11-15T11:39:57.501Z</time>
      </trkpt>
      <trkpt lat="45.71315" lon="4.59638">
        <ele>636.4</ele>
        <time>2022-11-15T11:40:02.613Z</time>
      </trkpt>
      <trkpt lat="45.71313" lon="4.5966">
        <ele>635.8</ele>
        <time>2022-11-15T11:40:04.040Z</time>
      </trkpt>
      <trkpt lat="45.71315" lon="4.59691">
        <ele>634.1</ele>
        <time>2022-11-15T11:40:05.763Z</time>
      </trkpt>
      <trkpt lat="45.71324" lon="4.59731">
        <ele>630.9</ele>
        <time>2022-11-15T11:40:08.089Z</time>
      </trkpt>
      <trkpt lat="45.7134" lon="4.59764">
        <ele>628.4</ele>
        <time>2022-11-15T11:40:10.312Z</time>
      </trkpt>
      <trkpt lat="45.71374" lon="4.59805">
        <ele>625.4</ele>
        <time>2022-11-15T11:40:13.834Z</time>
      </trkpt>
      <trkpt lat="45.71405" lon="4.59846">
        <ele>622.6</ele>
        <time>2022-11-15T11:40:16.905Z</time>
      </trkpt>
      <trkpt lat="45.71417" lon="4.5988">
        <ele>617.7</ele>
        <time>2022-11-15T11:40:19.013Z</time>
      </trkpt>
      <trkpt lat="45.71451" lon="4.59957">
        <ele>615.1</ele>
        <time>2022-11-15T11:40:24.754Z</time>
      </trkpt>
      <trkpt lat="45.71485" lon="4.60034">
        <ele>613.8</ele>
        <time>2022-11-15T11:40:31.864Z</time>
      </trkpt>
      <trkpt lat="45.71497" lon="4.60052">
        <ele>613.8</ele>
        <time>2022-11-15T11:40:34.394Z</time>
      </trkpt>
      <trkpt lat="45.71511" lon="4.60055">
        <ele>612.9</ele>
        <time>2022-11-15T11:40:35.446Z</time>
      </trkpt>
      <trkpt lat="45.71523" lon="4.60052">
        <ele>612.4</ele>
        <time>2022-11-15T11:40:36.543Z</time>
      </trkpt>
      <trkpt lat="45.71562" lon="4.60012">
        <ele>611.9</ele>
        <time>2022-11-15T11:40:42.614Z</time>
      </trkpt>
      <trkpt lat="45.71601" lon="4.59972">
        <ele>610.7</ele>
        <time>2022-11-15T11:40:47.703Z</time>
      </trkpt>
      <trkpt lat="45.71624" lon="4.59956">
        <ele>609.4</ele>
        <time>2022-11-15T11:40:49.813Z</time>
      </trkpt>
      <trkpt lat="45.71691" lon="4.59938">
        <ele>605.7</ele>
        <time>2022-11-15T11:40:55.275Z</time>
      </trkpt>
      <trkpt lat="45.71735" lon="4.5994">
        <ele>603.5</ele>
        <time>2022-11-15T11:40:58.934Z</time>
      </trkpt>
      <trkpt lat="45.71741" lon="4.59943">
        <ele>603</ele>
        <time>2022-11-15T11:40:59.438Z</time>
      </trkpt>
      <trkpt lat="45.71745" lon="4.5995">
        <ele>602.4</ele>
        <time>2022-11-15T11:40:59.938Z</time>
      </trkpt>
      <trkpt lat="45.7175" lon="4.59976">
        <ele>601.7</ele>
        <time>2022-11-15T11:41:01.699Z</time>
      </trkpt>
      <trkpt lat="45.7175" lon="4.60013">
        <ele>600</ele>
        <time>2022-11-15T11:41:03.587Z</time>
      </trkpt>
      <trkpt lat="45.71743" lon="4.60069">
        <ele>596.6</ele>
        <time>2022-11-15T11:41:06.735Z</time>
      </trkpt>
      <trkpt lat="45.71743" lon="4.60087">
        <ele>596.2</ele>
        <time>2022-11-15T11:41:07.974Z</time>
      </trkpt>
      <trkpt lat="45.71747" lon="4.60137">
        <ele>595.5</ele>
        <time>2022-11-15T11:41:11.925Z</time>
      </trkpt>
      <trkpt lat="45.71746" lon="4.60199">
        <ele>593.1</ele>
        <time>2022-11-15T11:41:15.362Z</time>
      </trkpt>
      <trkpt lat="45.71747" lon="4.60228">
        <ele>590.8</ele>
        <time>2022-11-15T11:41:16.969Z</time>
      </trkpt>
      <trkpt lat="45.71754" lon="4.60264">
        <ele>590.1</ele>
        <time>2022-11-15T11:41:19.682Z</time>
      </trkpt>
      <trkpt lat="45.71764" lon="4.60289">
        <ele>589</ele>
        <time>2022-11-15T11:41:21.289Z</time>
      </trkpt>
      <trkpt lat="45.71795" lon="4.60334">
        <ele>586</ele>
        <time>2022-11-15T11:41:24.787Z</time>
      </trkpt>
      <trkpt lat="45.71815" lon="4.60353">
        <ele>585.4</ele>
        <time>2022-11-15T11:41:27.333Z</time>
      </trkpt>
      <trkpt lat="45.71838" lon="4.60371">
        <ele>582.4</ele>
        <time>2022-11-15T11:41:29.411Z</time>
      </trkpt>
      <trkpt lat="45.71876" lon="4.60381">
        <ele>581.9</ele>
        <time>2022-11-15T11:41:34.143Z</time>
      </trkpt>
      <trkpt lat="45.71892" lon="4.60387">
        <ele>581.6</ele>
        <time>2022-11-15T11:41:36.042Z</time>
      </trkpt>
      <trkpt lat="45.71905" lon="4.60398">
        <ele>582</ele>
        <time>2022-11-15T11:41:38.944Z</time>
      </trkpt>
      <trkpt lat="45.71909" lon="4.60419">
        <ele>581.3</ele>
        <time>2022-11-15T11:41:40.252Z</time>
      </trkpt>
      <trkpt lat="45.71909" lon="4.60458">
        <ele>581.4</ele>
        <time>2022-11-15T11:41:44.353Z</time>
      </trkpt>
      <trkpt lat="45.71904" lon="4.60483">
        <ele>580.7</ele>
        <time>2022-11-15T11:41:46.029Z</time>
      </trkpt>
      <trkpt lat="45.7189" lon="4.605">
        <ele>579.2</ele>
        <time>2022-11-15T11:41:47.483Z</time>
      </trkpt>
      <trkpt lat="45.71826" lon="4.60527">
        <ele>576.3</ele>
        <time>2022-11-15T11:41:53.361Z</time>
      </trkpt>
      <trkpt lat="45.71814" lon="4.60535">
        <ele>576.1</ele>
        <time>2022-11-15T11:41:54.938Z</time>
      </trkpt>
      <trkpt lat="45.71804" lon="4.60546">
        <ele>575.4</ele>
        <time>2022-11-15T11:41:55.938Z</time>
      </trkpt>
      <trkpt lat="45.71796" lon="4.60561">
        <ele>574.9</ele>
        <time>2022-11-15T11:41:57.161Z</time>
      </trkpt>
      <trkpt lat="45.71791" lon="4.60577">
        <ele>574.6</ele>
        <time>2022-11-15T11:41:58.467Z</time>
      </trkpt>
      <trkpt lat="45.71792" lon="4.60593">
        <ele>574</ele>
        <time>2022-11-15T11:41:59.372Z</time>
      </trkpt>
      <trkpt lat="45.71797" lon="4.60611">
        <ele>573.2</ele>
        <time>2022-11-15T11:42:00.413Z</time>
      </trkpt>
      <trkpt lat="45.71809" lon="4.60634">
        <ele>573.3</ele>
        <time>2022-11-15T11:42:03.471Z</time>
      </trkpt>
      <trkpt lat="45.71833" lon="4.60666">
        <ele>573</ele>
        <time>2022-11-15T11:42:07.692Z</time>
      </trkpt>
      <trkpt lat="45.71882" lon="4.60712">
        <ele>572.2</ele>
        <time>2022-11-15T11:42:14.802Z</time>
      </trkpt>
      <trkpt lat="45.71915" lon="4.6076">
        <ele>571.2</ele>
        <time>2022-11-15T11:42:20.009Z</time>
      </trkpt>
      <trkpt lat="45.71948" lon="4.60809">
        <ele>569.8</ele>
        <time>2022-11-15T11:42:24.816Z</time>
      </trkpt>
      <trkpt lat="45.71986" lon="4.60857">
        <ele>569.9</ele>
        <time>2022-11-15T11:42:32.327Z</time>
      </trkpt>
      <trkpt lat="45.72023" lon="4.60906">
        <ele>567.5</ele>
        <time>2022-11-15T11:42:36.602Z</time>
      </trkpt>
      <trkpt lat="45.72049" lon="4.60954">
        <ele>566.6</ele>
        <time>2022-11-15T11:42:41.300Z</time>
      </trkpt>
      <trkpt lat="45.72063" lon="4.60998">
        <ele>566.7</ele>
        <time>2022-11-15T11:42:46.351Z</time>
      </trkpt>
      <trkpt lat="45.72059" lon="4.61016">
        <ele>565.8</ele>
        <time>2022-11-15T11:42:47.396Z</time>
      </trkpt>
      <trkpt lat="45.72048" lon="4.61028">
        <ele>564.8</ele>
        <time>2022-11-15T11:42:48.492Z</time>
      </trkpt>
      <trkpt lat="45.72028" lon="4.61031">
        <ele>564.6</ele>
        <time>2022-11-15T11:42:51.053Z</time>
      </trkpt>
      <trkpt lat="45.72008" lon="4.61026">
        <ele>564.4</ele>
        <time>2022-11-15T11:42:53.642Z</time>
      </trkpt>
      <trkpt lat="45.71961" lon="4.60997">
        <ele>563.1</ele>
        <time>2022-11-15T11:42:59.049Z</time>
      </trkpt>
      <trkpt lat="45.71905" lon="4.60949">
        <ele>560.2</ele>
        <time>2022-11-15T11:43:04.747Z</time>
      </trkpt>
      <trkpt lat="45.71844" lon="4.60908">
        <ele>558</ele>
        <time>2022-11-15T11:43:11.339Z</time>
      </trkpt>
      <trkpt lat="45.71812" lon="4.60895">
        <ele>557.3</ele>
        <time>2022-11-15T11:43:15.030Z</time>
      </trkpt>
      <trkpt lat="45.71762" lon="4.60886">
        <ele>556.8</ele>
        <time>2022-11-15T11:43:21.450Z</time>
      </trkpt>
      <trkpt lat="45.71712" lon="4.60877">
        <ele>557.5</ele>
        <time>2022-11-15T11:43:29.855Z</time>
      </trkpt>
      <trkpt lat="45.71625" lon="4.60854">
        <ele>555.1</ele>
        <time>2022-11-15T11:43:39.027Z</time>
      </trkpt>
      <trkpt lat="45.7159" lon="4.60865">
        <ele>555.3</ele>
        <time>2022-11-15T11:43:44.524Z</time>
      </trkpt>
      <trkpt lat="45.71576" lon="4.60882">
        <ele>554.9</ele>
        <time>2022-11-15T11:43:46.543Z</time>
      </trkpt>
      <trkpt lat="45.71569" lon="4.60909">
        <ele>553.7</ele>
        <time>2022-11-15T11:43:48.085Z</time>
      </trkpt>
      <trkpt lat="45.71563" lon="4.60958">
        <ele>553.4</ele>
        <time>2022-11-15T11:43:52.587Z</time>
      </trkpt>
      <trkpt lat="45.71564" lon="4.61042">
        <ele>552.9</ele>
        <time>2022-11-15T11:44:00.202Z</time>
      </trkpt>
      <trkpt lat="45.71564" lon="4.61127">
        <ele>551</ele>
        <time>2022-11-15T11:44:06.045Z</time>
      </trkpt>
      <trkpt lat="45.71557" lon="4.61235">
        <ele>549.2</ele>
        <time>2022-11-15T11:44:14.193Z</time>
      </trkpt>
      <trkpt lat="45.71547" lon="4.61266">
        <ele>548.2</ele>
        <time>2022-11-15T11:44:16.323Z</time>
      </trkpt>
      <trkpt lat="45.71536" lon="4.61284">
        <ele>548.3</ele>
        <time>2022-11-15T11:44:18.896Z</time>
      </trkpt>
      <trkpt lat="45.71508" lon="4.61304">
        <ele>547.8</ele>
        <time>2022-11-15T11:44:22.584Z</time>
      </trkpt>
      <trkpt lat="45.71494" lon="4.61317">
        <ele>547.5</ele>
        <time>2022-11-15T11:44:24.504Z</time>
      </trkpt>
      <trkpt lat="45.71484" lon="4.61336">
        <ele>547.6</ele>
        <time>2022-11-15T11:44:27.064Z</time>
      </trkpt>
      <trkpt lat="45.71479" lon="4.61361">
        <ele>547.4</ele>
        <time>2022-11-15T11:44:29.344Z</time>
      </trkpt>
      <trkpt lat="45.71479" lon="4.614">
        <ele>546.6</ele>
        <time>2022-11-15T11:44:32.100Z</time>
      </trkpt>
      <trkpt lat="45.71483" lon="4.61484">
        <ele>544.5</ele>
        <time>2022-11-15T11:44:37.676Z</time>
      </trkpt>
      <trkpt lat="45.71486" lon="4.61568">
        <ele>542.3</ele>
        <time>2022-11-15T11:44:43.152Z</time>
      </trkpt>
      <trkpt lat="45.71499" lon="4.6166">
        <ele>538.5</ele>
        <time>2022-11-15T11:44:48.245Z</time>
      </trkpt>
      <trkpt lat="45.715" lon="4.61661">
        <ele>538.8</ele>
        <time>2022-11-15T11:44:48.930Z</time>
      </trkpt>
      <trkpt lat="45.71559" lon="4.61746">
        <ele>538.9</ele>
        <time>2022-11-15T11:45:01.247Z</time>
      </trkpt>
      <trkpt lat="45.71608" lon="4.61788">
        <ele>537</ele>
        <time>2022-11-15T11:45:06.798Z</time>
      </trkpt>
      <trkpt lat="45.71657" lon="4.61831">
        <ele>536.4</ele>
        <time>2022-11-15T11:45:14.069Z</time>
      </trkpt>
      <trkpt lat="45.71678" lon="4.61841">
        <ele>535.9</ele>
        <time>2022-11-15T11:45:16.481Z</time>
      </trkpt>
      <trkpt lat="45.71703" lon="4.6184">
        <ele>536.1</ele>
        <time>2022-11-15T11:45:20.410Z</time>
      </trkpt>
      <trkpt lat="45.71787" lon="4.61818">
        <ele>534.8</ele>
        <time>2022-11-15T11:45:30.572Z</time>
      </trkpt>
      <trkpt lat="45.71813" lon="4.61814">
        <ele>533.1</ele>
        <time>2022-11-15T11:45:32.495Z</time>
      </trkpt>
      <trkpt lat="45.71834" lon="4.61805">
        <ele>534.1</ele>
        <time>2022-11-15T11:45:37.918Z</time>
      </trkpt>
      <trkpt lat="45.7186" lon="4.61788">
        <ele>532.7</ele>
        <time>2022-11-15T11:45:40.314Z</time>
      </trkpt>
      <trkpt lat="45.7187" lon="4.6179">
        <ele>532.8</ele>
        <time>2022-11-15T11:45:41.931Z</time>
      </trkpt>
      <trkpt lat="45.71877" lon="4.61796">
        <ele>532.5</ele>
        <time>2022-11-15T11:45:42.697Z</time>
      </trkpt>
      <trkpt lat="45.71882" lon="4.61806">
        <ele>531.7</ele>
        <time>2022-11-15T11:45:43.377Z</time>
      </trkpt>
      <trkpt lat="45.71885" lon="4.61844">
        <ele>531.3</ele>
        <time>2022-11-15T11:45:46.564Z</time>
      </trkpt>
      <trkpt lat="45.71882" lon="4.61912">
        <ele>528.8</ele>
        <time>2022-11-15T11:45:50.432Z</time>
      </trkpt>
      <trkpt lat="45.71879" lon="4.6198">
        <ele>528.7</ele>
        <time>2022-11-15T11:45:57.140Z</time>
      </trkpt>
      <trkpt lat="45.71879" lon="4.62047">
        <ele>527.4</ele>
        <time>2022-11-15T11:46:01.955Z</time>
      </trkpt>
      <trkpt lat="45.71883" lon="4.62068">
        <ele>527.5</ele>
        <time>2022-11-15T11:46:04.310Z</time>
      </trkpt>
      <trkpt lat="45.71889" lon="4.62082">
        <ele>527.1</ele>
        <time>2022-11-15T11:46:05.407Z</time>
      </trkpt>
      <trkpt lat="45.71899" lon="4.62092">
        <ele>527.2</ele>
        <time>2022-11-15T11:46:07.326Z</time>
      </trkpt>
      <trkpt lat="45.71907" lon="4.62096">
        <ele>526.8</ele>
        <time>2022-11-15T11:46:08.048Z</time>
      </trkpt>
      <trkpt lat="45.71915" lon="4.62097">
        <ele>526.6</ele>
        <time>2022-11-15T11:46:08.901Z</time>
      </trkpt>
      <trkpt lat="45.72001" lon="4.6209">
        <ele>523.5</ele>
        <time>2022-11-15T11:46:17.049Z</time>
      </trkpt>
      <trkpt lat="45.72018" lon="4.62087">
        <ele>523.4</ele>
        <time>2022-11-15T11:46:19.338Z</time>
      </trkpt>
      <trkpt lat="45.72037" lon="4.62078">
        <ele>523.5</ele>
        <time>2022-11-15T11:46:22.391Z</time>
      </trkpt>
      <trkpt lat="45.72056" lon="4.62063">
        <ele>523</ele>
        <time>2022-11-15T11:46:24.744Z</time>
      </trkpt>
      <trkpt lat="45.72071" lon="4.62044">
        <ele>523</ele>
        <time>2022-11-15T11:46:27.659Z</time>
      </trkpt>
      <trkpt lat="45.72084" lon="4.6201">
        <ele>523.1</ele>
        <time>2022-11-15T11:46:31.736Z</time>
      </trkpt>
      <trkpt lat="45.72092" lon="4.61997">
        <ele>523.4</ele>
        <time>2022-11-15T11:46:34.015Z</time>
      </trkpt>
      <trkpt lat="45.72101" lon="4.6199">
        <ele>524.1</ele>
        <time>2022-11-15T11:46:36.978Z</time>
      </trkpt>
      <trkpt lat="45.72113" lon="4.61986">
        <ele>523.6</ele>
        <time>2022-11-15T11:46:38.093Z</time>
      </trkpt>
      <trkpt lat="45.72123" lon="4.61986">
        <ele>523.8</ele>
        <time>2022-11-15T11:46:39.875Z</time>
      </trkpt>
      <trkpt lat="45.72163" lon="4.61993">
        <ele>522.1</ele>
        <time>2022-11-15T11:46:43.467Z</time>
      </trkpt>
      <trkpt lat="45.72177" lon="4.61993">
        <ele>520.7</ele>
        <time>2022-11-15T11:46:44.577Z</time>
      </trkpt>
      <trkpt lat="45.72197" lon="4.61985">
        <ele>519.8</ele>
        <time>2022-11-15T11:46:46.408Z</time>
      </trkpt>
      <trkpt lat="45.72233" lon="4.61956">
        <ele>521.1</ele>
        <time>2022-11-15T11:46:54.856Z</time>
      </trkpt>
      <trkpt lat="45.7225" lon="4.61948">
        <ele>519.8</ele>
        <time>2022-11-15T11:46:56.274Z</time>
      </trkpt>
      <trkpt lat="45.72263" lon="4.61946">
        <ele>520.2</ele>
        <time>2022-11-15T11:46:58.918Z</time>
      </trkpt>
      <trkpt lat="45.72272" lon="4.61948">
        <ele>519.6</ele>
        <time>2022-11-15T11:46:59.584Z</time>
      </trkpt>
      <trkpt lat="45.7228" lon="4.61956">
        <ele>519</ele>
        <time>2022-11-15T11:47:00.321Z</time>
      </trkpt>
      <trkpt lat="45.72287" lon="4.61967">
        <ele>519.6</ele>
        <time>2022-11-15T11:47:03.107Z</time>
      </trkpt>
      <trkpt lat="45.7229" lon="4.6198">
        <ele>519.5</ele>
        <time>2022-11-15T11:47:04.316Z</time>
      </trkpt>
      <trkpt lat="45.72291" lon="4.61994">
        <ele>519.1</ele>
        <time>2022-11-15T11:47:05.204Z</time>
      </trkpt>
      <trkpt lat="45.72288" lon="4.62047">
        <ele>517.4</ele>
        <time>2022-11-15T11:47:08.406Z</time>
      </trkpt>
      <trkpt lat="45.7229" lon="4.62074">
        <ele>518</ele>
        <time>2022-11-15T11:47:12.292Z</time>
      </trkpt>
      <trkpt lat="45.72295" lon="4.62102">
        <ele>517.4</ele>
        <time>2022-11-15T11:47:14.326Z</time>
      </trkpt>
      <trkpt lat="45.72316" lon="4.62182">
        <ele>515.4</ele>
        <time>2022-11-15T11:47:20.112Z</time>
      </trkpt>
      <trkpt lat="45.72325" lon="4.62208">
        <ele>514.6</ele>
        <time>2022-11-15T11:47:21.964Z</time>
      </trkpt>
      <trkpt lat="45.72336" lon="4.62231">
        <ele>514.3</ele>
        <time>2022-11-15T11:47:24.275Z</time>
      </trkpt>
      <trkpt lat="45.72366" lon="4.62279">
        <ele>513.6</ele>
        <time>2022-11-15T11:47:29.605Z</time>
      </trkpt>
      <trkpt lat="45.72392" lon="4.62337">
        <ele>513.5</ele>
        <time>2022-11-15T11:47:36.394Z</time>
      </trkpt>
      <trkpt lat="45.72413" lon="4.62409">
        <ele>511.7</ele>
        <time>2022-11-15T11:47:41.701Z</time>
      </trkpt>
      <trkpt lat="45.72434" lon="4.62481">
        <ele>510.8</ele>
        <time>2022-11-15T11:47:48.081Z</time>
      </trkpt>
      <trkpt lat="45.72441" lon="4.6249">
        <ele>510.7</ele>
        <time>2022-11-15T11:47:49.268Z</time>
      </trkpt>
      <trkpt lat="45.7245" lon="4.62497">
        <ele>510.3</ele>
        <time>2022-11-15T11:47:50.209Z</time>
      </trkpt>
      <trkpt lat="45.72461" lon="4.62499">
        <ele>510.1</ele>
        <time>2022-11-15T11:47:51.483Z</time>
      </trkpt>
      <trkpt lat="45.72467" lon="4.62497">
        <ele>510.3</ele>
        <time>2022-11-15T11:47:52.760Z</time>
      </trkpt>
      <trkpt lat="45.72474" lon="4.62492">
        <ele>510.6</ele>
        <time>2022-11-15T11:47:54.515Z</time>
      </trkpt>
      <trkpt lat="45.72485" lon="4.6248">
        <ele>510</ele>
        <time>2022-11-15T11:47:55.734Z</time>
      </trkpt>
      <trkpt lat="45.72492" lon="4.62465">
        <ele>509.6</ele>
        <time>2022-11-15T11:47:56.977Z</time>
      </trkpt>
      <trkpt lat="45.72514" lon="4.62385">
        <ele>508.3</ele>
        <time>2022-11-15T11:48:03.592Z</time>
      </trkpt>
      <trkpt lat="45.72529" lon="4.62341">
        <ele>507.8</ele>
        <time>2022-11-15T11:48:07.690Z</time>
      </trkpt>
      <trkpt lat="45.72546" lon="4.62303">
        <ele>508.6</ele>
        <time>2022-11-15T11:48:13.667Z</time>
      </trkpt>
      <trkpt lat="45.7256" lon="4.62286">
        <ele>507.9</ele>
        <time>2022-11-15T11:48:15.367Z</time>
      </trkpt>
      <trkpt lat="45.72565" lon="4.62282">
        <ele>507.9</ele>
        <time>2022-11-15T11:48:16.200Z</time>
      </trkpt>
      <trkpt lat="45.72576" lon="4.6228">
        <ele>506.7</ele>
        <time>2022-11-15T11:48:17.079Z</time>
      </trkpt>
      <trkpt lat="45.72588" lon="4.62287">
        <ele>505.8</ele>
        <time>2022-11-15T11:48:18.106Z</time>
      </trkpt>
      <trkpt lat="45.7261" lon="4.62323">
        <ele>504.9</ele>
        <time>2022-11-15T11:48:21.576Z</time>
      </trkpt>
      <trkpt lat="45.7262" lon="4.62334">
        <ele>504.4</ele>
        <time>2022-11-15T11:48:22.727Z</time>
      </trkpt>
      <trkpt lat="45.72631" lon="4.62341">
        <ele>504.3</ele>
        <time>2022-11-15T11:48:24.294Z</time>
      </trkpt>
      <trkpt lat="45.72665" lon="4.62344">
        <ele>503.2</ele>
        <time>2022-11-15T11:48:27.638Z</time>
      </trkpt>
      <trkpt lat="45.72674" lon="4.62352">
        <ele>503.1</ele>
        <time>2022-11-15T11:48:28.996Z</time>
      </trkpt>
      <trkpt lat="45.72683" lon="4.62365">
        <ele>502.9</ele>
        <time>2022-11-15T11:48:30.509Z</time>
      </trkpt>
      <trkpt lat="45.72692" lon="4.62384">
        <ele>502.8</ele>
        <time>2022-11-15T11:48:32.639Z</time>
      </trkpt>
      <trkpt lat="45.72703" lon="4.62429">
        <ele>501.7</ele>
        <time>2022-11-15T11:48:35.882Z</time>
      </trkpt>
      <trkpt lat="45.72715" lon="4.62514">
        <ele>499.2</ele>
        <time>2022-11-15T11:48:41.323Z</time>
      </trkpt>
      <trkpt lat="45.72726" lon="4.62533">
        <ele>499.3</ele>
        <time>2022-11-15T11:48:43.972Z</time>
      </trkpt>
      <trkpt lat="45.72742" lon="4.62539">
        <ele>498.8</ele>
        <time>2022-11-15T11:48:45.631Z</time>
      </trkpt>
      <trkpt lat="45.72761" lon="4.62538">
        <ele>498.1</ele>
        <time>2022-11-15T11:48:47.415Z</time>
      </trkpt>
      <trkpt lat="45.72789" lon="4.62525">
        <ele>497.7</ele>
        <time>2022-11-15T11:48:50.991Z</time>
      </trkpt>
      <trkpt lat="45.72823" lon="4.62501">
        <ele>497.3</ele>
        <time>2022-11-15T11:48:55.779Z</time>
      </trkpt>
      <trkpt lat="45.72871" lon="4.62446">
        <ele>496.5</ele>
        <time>2022-11-15T11:49:03.300Z</time>
      </trkpt>
      <trkpt lat="45.72947" lon="4.62401">
        <ele>494.9</ele>
        <time>2022-11-15T11:49:12.598Z</time>
      </trkpt>
      <trkpt lat="45.7297" lon="4.6239">
        <ele>495.1</ele>
        <time>2022-11-15T11:49:16.416Z</time>
      </trkpt>
      <trkpt lat="45.72979" lon="4.62392">
        <ele>494.6</ele>
        <time>2022-11-15T11:49:17.142Z</time>
      </trkpt>
      <trkpt lat="45.72983" lon="4.62397">
        <ele>494.2</ele>
        <time>2022-11-15T11:49:17.563Z</time>
      </trkpt>
      <trkpt lat="45.72984" lon="4.62398">
        <ele>494.1</ele>
        <time>2022-11-15T11:49:17.659Z</time>
      </trkpt>
      <trkpt lat="45.72987" lon="4.62407">
        <ele>493.4</ele>
        <time>2022-11-15T11:49:18.211Z</time>
      </trkpt>
      <trkpt lat="45.72985" lon="4.62421">
        <ele>492.6</ele>
        <time>2022-11-15T11:49:19.002Z</time>
      </trkpt>
      <trkpt lat="45.7297" lon="4.62464">
        <ele>492.5</ele>
        <time>2022-11-15T11:49:23.673Z</time>
      </trkpt>
      <trkpt lat="45.72933" lon="4.62539">
        <ele>490.1</ele>
        <time>2022-11-15T11:49:29.652Z</time>
      </trkpt>
      <trkpt lat="45.72917" lon="4.62576">
        <ele>489.1</ele>
        <time>2022-11-15T11:49:32.616Z</time>
      </trkpt>
      <trkpt lat="45.72878" lon="4.62616">
        <ele>488.8</ele>
        <time>2022-11-15T11:49:38.988Z</time>
      </trkpt>
      <trkpt lat="45.72838" lon="4.62655">
        <ele>487.2</ele>
        <time>2022-11-15T11:49:43.701Z</time>
      </trkpt>
      <trkpt lat="45.728" lon="4.62697">
        <ele>486</ele>
        <time>2022-11-15T11:49:48.794Z</time>
      </trkpt>
      <trkpt lat="45.72761" lon="4.62739">
        <ele>485.4</ele>
        <time>2022-11-15T11:49:54.819Z</time>
      </trkpt>
      <trkpt lat="45.72697" lon="4.62824">
        <ele>482.5</ele>
        <time>2022-11-15T11:50:03.307Z</time>
      </trkpt>
      <trkpt lat="45.72635" lon="4.62903">
        <ele>481.9</ele>
        <time>2022-11-15T11:50:14.181Z</time>
      </trkpt>
      <trkpt lat="45.72595" lon="4.62962">
        <ele>478.8</ele>
        <time>2022-11-15T11:50:18.792Z</time>
      </trkpt>
      <trkpt lat="45.72544" lon="4.63026">
        <ele>477.7</ele>
        <time>2022-11-15T11:50:26.762Z</time>
      </trkpt>
      <trkpt lat="45.72525" lon="4.63046">
        <ele>476.9</ele>
        <time>2022-11-15T11:50:29.039Z</time>
      </trkpt>
      <trkpt lat="45.725" lon="4.63096">
        <ele>476.4</ele>
        <time>2022-11-15T11:50:34.386Z</time>
      </trkpt>
      <trkpt lat="45.72484" lon="4.63158">
        <ele>475.4</ele>
        <time>2022-11-15T11:50:39.470Z</time>
      </trkpt>
      <trkpt lat="45.72469" lon="4.63178">
        <ele>474.4</ele>
        <time>2022-11-15T11:50:41.191Z</time>
      </trkpt>
      <trkpt lat="45.72442" lon="4.63192">
        <ele>475</ele>
        <time>2022-11-15T11:50:46.360Z</time>
      </trkpt>
      <trkpt lat="45.72414" lon="4.63232">
        <ele>474.3</ele>
        <time>2022-11-15T11:50:50.926Z</time>
      </trkpt>
      <trkpt lat="45.72365" lon="4.63296">
        <ele>473.9</ele>
        <time>2022-11-15T11:50:59.762Z</time>
      </trkpt>
      <trkpt lat="45.72327" lon="4.63333">
        <ele>474.3</ele>
        <time>2022-11-15T11:51:07.030Z</time>
      </trkpt>
      <trkpt lat="45.72289" lon="4.6337">
        <ele>474.2</ele>
        <time>2022-11-15T11:51:13.502Z</time>
      </trkpt>
      <trkpt lat="45.72273" lon="4.63402">
        <ele>472.7</ele>
        <time>2022-11-15T11:51:15.699Z</time>
      </trkpt>
      <trkpt lat="45.72267" lon="4.63443">
        <ele>473</ele>
        <time>2022-11-15T11:51:20.397Z</time>
      </trkpt>
      <trkpt lat="45.7227" lon="4.63486">
        <ele>471.4</ele>
        <time>2022-11-15T11:51:22.840Z</time>
      </trkpt>
      <trkpt lat="45.72285" lon="4.63523">
        <ele>469.9</ele>
        <time>2022-11-15T11:51:25.318Z</time>
      </trkpt>
      <trkpt lat="45.72314" lon="4.63561">
        <ele>467.7</ele>
        <time>2022-11-15T11:51:28.423Z</time>
      </trkpt>
      <trkpt lat="45.72347" lon="4.6359">
        <ele>465.3</ele>
        <time>2022-11-15T11:51:31.337Z</time>
      </trkpt>
      <trkpt lat="45.72367" lon="4.63611">
        <ele>465.1</ele>
        <time>2022-11-15T11:51:34.576Z</time>
      </trkpt>
      <trkpt lat="45.72398" lon="4.63664">
        <ele>461.4</ele>
        <time>2022-11-15T11:51:38.402Z</time>
      </trkpt>
      <trkpt lat="45.72437" lon="4.63698">
        <ele>462.2</ele>
        <time>2022-11-15T11:51:46.318Z</time>
      </trkpt>
      <trkpt lat="45.72466" lon="4.63709">
        <ele>460.2</ele>
        <time>2022-11-15T11:51:48.496Z</time>
      </trkpt>
      <trkpt lat="45.72501" lon="4.63711">
        <ele>459.1</ele>
        <time>2022-11-15T11:51:51.967Z</time>
      </trkpt>
      <trkpt lat="45.72521" lon="4.63702">
        <ele>459.2</ele>
        <time>2022-11-15T11:51:55.158Z</time>
      </trkpt>
      <trkpt lat="45.72537" lon="4.63708">
        <ele>458.9</ele>
        <time>2022-11-15T11:51:57.057Z</time>
      </trkpt>
      <trkpt lat="45.72543" lon="4.63728">
        <ele>457.8</ele>
        <time>2022-11-15T11:51:58.262Z</time>
      </trkpt>
      <trkpt lat="45.7254" lon="4.63752">
        <ele>457.3</ele>
        <time>2022-11-15T11:51:59.984Z</time>
      </trkpt>
      <trkpt lat="45.72514" lon="4.63809">
        <ele>454.7</ele>
        <time>2022-11-15T11:52:03.780Z</time>
      </trkpt>
      <trkpt lat="45.72509" lon="4.63836">
        <ele>454.6</ele>
        <time>2022-11-15T11:52:06.411Z</time>
      </trkpt>
      <trkpt lat="45.72508" lon="4.63853">
        <ele>454</ele>
        <time>2022-11-15T11:52:07.398Z</time>
      </trkpt>
      <trkpt lat="45.72513" lon="4.63874">
        <ele>453.5</ele>
        <time>2022-11-15T11:52:08.919Z</time>
      </trkpt>
      <trkpt lat="45.72551" lon="4.63964">
        <ele>450.3</ele>
        <time>2022-11-15T11:52:15.381Z</time>
      </trkpt>
      <trkpt lat="45.72582" lon="4.63985">
        <ele>449.6</ele>
        <time>2022-11-15T11:52:19.214Z</time>
      </trkpt>
      <trkpt lat="45.7259" lon="4.64007">
        <ele>448.4</ele>
        <time>2022-11-15T11:52:20.587Z</time>
      </trkpt>
      <trkpt lat="45.72594" lon="4.64007">
        <ele>448.9</ele>
        <time>2022-11-15T11:52:22.589Z</time>
      </trkpt>
      <trkpt lat="45.72593" lon="4.64028">
        <ele>448.1</ele>
        <time>2022-11-15T11:52:23.764Z</time>
      </trkpt>
      <trkpt lat="45.72586" lon="4.64057">
        <ele>447.7</ele>
        <time>2022-11-15T11:52:26.209Z</time>
      </trkpt>
      <trkpt lat="45.72573" lon="4.64088">
        <ele>446.6</ele>
        <time>2022-11-15T11:52:28.430Z</time>
      </trkpt>
      <trkpt lat="45.7256" lon="4.64111">
        <ele>446.8</ele>
        <time>2022-11-15T11:52:31.730Z</time>
      </trkpt>
      <trkpt lat="45.72544" lon="4.6413">
        <ele>445.8</ele>
        <time>2022-11-15T11:52:33.486Z</time>
      </trkpt>
      <trkpt lat="45.72528" lon="4.64143">
        <ele>445.3</ele>
        <time>2022-11-15T11:52:35.392Z</time>
      </trkpt>
      <trkpt lat="45.72511" lon="4.64151">
        <ele>444.9</ele>
        <time>2022-11-15T11:52:37.348Z</time>
      </trkpt>
      <trkpt lat="45.72497" lon="4.64152">
        <ele>444.4</ele>
        <time>2022-11-15T11:52:38.678Z</time>
      </trkpt>
      <trkpt lat="45.72476" lon="4.64151">
        <ele>443.9</ele>
        <time>2022-11-15T11:52:40.938Z</time>
      </trkpt>
      <trkpt lat="45.7246" lon="4.64156">
        <ele>443.4</ele>
        <time>2022-11-15T11:52:42.576Z</time>
      </trkpt>
      <trkpt lat="45.72446" lon="4.64167">
        <ele>443.1</ele>
        <time>2022-11-15T11:52:44.395Z</time>
      </trkpt>
      <trkpt lat="45.72436" lon="4.64182">
        <ele>441.6</ele>
        <time>2022-11-15T11:52:45.543Z</time>
      </trkpt>
      <trkpt lat="45.72429" lon="4.64203">
        <ele>440.9</ele>
        <time>2022-11-15T11:52:46.979Z</time>
      </trkpt>
      <trkpt lat="45.72412" lon="4.64279">
        <ele>437.9</ele>
        <time>2022-11-15T11:52:51.459Z</time>
      </trkpt>
      <trkpt lat="45.7241" lon="4.64314">
        <ele>436.2</ele>
        <time>2022-11-15T11:52:53.402Z</time>
      </trkpt>
      <trkpt lat="45.72421" lon="4.64393">
        <ele>434.6</ele>
        <time>2022-11-15T11:52:59.150Z</time>
      </trkpt>
      <trkpt lat="45.72427" lon="4.64501">
        <ele>430.8</ele>
        <time>2022-11-15T11:53:05.422Z</time>
      </trkpt>
      <trkpt lat="45.72437" lon="4.64543">
        <ele>429.1</ele>
        <time>2022-11-15T11:53:07.892Z</time>
      </trkpt>
      <trkpt lat="45.72453" lon="4.64573">
        <ele>428.5</ele>
        <time>2022-11-15T11:53:10.760Z</time>
      </trkpt>
      <trkpt lat="45.72485" lon="4.64608">
        <ele>426.8</ele>
        <time>2022-11-15T11:53:14.348Z</time>
      </trkpt>
      <trkpt lat="45.72567" lon="4.64653">
        <ele>423</ele>
        <time>2022-11-15T11:53:22.097Z</time>
      </trkpt>
      <trkpt lat="45.72653" lon="4.64663">
        <ele>419.2</ele>
        <time>2022-11-15T11:53:29.658Z</time>
      </trkpt>
      <trkpt lat="45.72679" lon="4.64654">
        <ele>418.1</ele>
        <time>2022-11-15T11:53:32.066Z</time>
      </trkpt>
      <trkpt lat="45.72699" lon="4.6463">
        <ele>419.3</ele>
        <time>2022-11-15T11:53:38.537Z</time>
      </trkpt>
      <trkpt lat="45.72714" lon="4.64617">
        <ele>419</ele>
        <time>2022-11-15T11:53:40.576Z</time>
      </trkpt>
      <trkpt lat="45.72731" lon="4.64621">
        <ele>417.5</ele>
        <time>2022-11-15T11:53:41.941Z</time>
      </trkpt>
      <trkpt lat="45.72739" lon="4.64637">
        <ele>416.9</ele>
        <time>2022-11-15T11:53:43.149Z</time>
      </trkpt>
      <trkpt lat="45.72735" lon="4.64684">
        <ele>415.5</ele>
        <time>2022-11-15T11:53:46.091Z</time>
      </trkpt>
      <trkpt lat="45.72725" lon="4.6474">
        <ele>413.7</ele>
        <time>2022-11-15T11:53:49.609Z</time>
      </trkpt>
      <trkpt lat="45.7269" lon="4.64844">
        <ele>410.7</ele>
        <time>2022-11-15T11:53:57.141Z</time>
      </trkpt>
      <trkpt lat="45.72666" lon="4.64883">
        <ele>408.7</ele>
        <time>2022-11-15T11:54:00.029Z</time>
      </trkpt>
      <trkpt lat="45.72614" lon="4.64955">
        <ele>405.8</ele>
        <time>2022-11-15T11:54:06.604Z</time>
      </trkpt>
      <trkpt lat="45.72562" lon="4.65026">
        <ele>402.8</ele>
        <time>2022-11-15T11:54:13.033Z</time>
      </trkpt>
      <trkpt lat="45.72529" lon="4.65095">
        <ele>400.2</ele>
        <time>2022-11-15T11:54:18.127Z</time>
      </trkpt>
      <trkpt lat="45.72519" lon="4.65151">
        <ele>398.6</ele>
        <time>2022-11-15T11:54:21.811Z</time>
      </trkpt>
      <trkpt lat="45.72523" lon="4.65198">
        <ele>397.4</ele>
        <time>2022-11-15T11:54:24.928Z</time>
      </trkpt>
      <trkpt lat="45.72538" lon="4.65253">
        <ele>395.7</ele>
        <time>2022-11-15T11:54:28.636Z</time>
      </trkpt>
      <trkpt lat="45.72562" lon="4.65296">
        <ele>393.1</ele>
        <time>2022-11-15T11:54:31.681Z</time>
      </trkpt>
      <trkpt lat="45.72632" lon="4.65364">
        <ele>389.1</ele>
        <time>2022-11-15T11:54:38.879Z</time>
      </trkpt>
      <trkpt lat="45.72646" lon="4.65384">
        <ele>387.9</ele>
        <time>2022-11-15T11:54:40.382Z</time>
      </trkpt>
      <trkpt lat="45.72653" lon="4.65404">
        <ele>387.2</ele>
        <time>2022-11-15T11:54:41.741Z</time>
      </trkpt>
      <trkpt lat="45.7266" lon="4.65474">
        <ele>385.4</ele>
        <time>2022-11-15T11:54:46.390Z</time>
      </trkpt>
      <trkpt lat="45.72667" lon="4.65503">
        <ele>383.9</ele>
        <time>2022-11-15T11:54:48.087Z</time>
      </trkpt>
      <trkpt lat="45.72676" lon="4.65525">
        <ele>383.8</ele>
        <time>2022-11-15T11:54:50.473Z</time>
      </trkpt>
      <trkpt lat="45.72689" lon="4.65548">
        <ele>382.6</ele>
        <time>2022-11-15T11:54:52.077Z</time>
      </trkpt>
      <trkpt lat="45.72757" lon="4.65604">
        <ele>378.3</ele>
        <time>2022-11-15T11:54:58.334Z</time>
      </trkpt>
      <trkpt lat="45.72824" lon="4.65661">
        <ele>374.5</ele>
        <time>2022-11-15T11:55:04.879Z</time>
      </trkpt>
      <trkpt lat="45.72874" lon="4.65692">
        <ele>371.8</ele>
        <time>2022-11-15T11:55:09.424Z</time>
      </trkpt>
      <trkpt lat="45.72956" lon="4.65735">
        <ele>367.5</ele>
        <time>2022-11-15T11:55:16.729Z</time>
      </trkpt>
      <trkpt lat="45.73006" lon="4.6577">
        <ele>365.3</ele>
        <time>2022-11-15T11:55:21.815Z</time>
      </trkpt>
      <trkpt lat="45.73021" lon="4.65775">
        <ele>364.4</ele>
        <time>2022-11-15T11:55:23.007Z</time>
      </trkpt>
      <trkpt lat="45.73059" lon="4.65777">
        <ele>362.8</ele>
        <time>2022-11-15T11:55:26.401Z</time>
      </trkpt>
      <trkpt lat="45.73088" lon="4.65769">
        <ele>361.3</ele>
        <time>2022-11-15T11:55:28.838Z</time>
      </trkpt>
      <trkpt lat="45.73131" lon="4.65754">
        <ele>359.1</ele>
        <time>2022-11-15T11:55:32.525Z</time>
      </trkpt>
      <trkpt lat="45.73159" lon="4.65736">
        <ele>358.1</ele>
        <time>2022-11-15T11:55:35.529Z</time>
      </trkpt>
      <trkpt lat="45.73197" lon="4.65705">
        <ele>355.1</ele>
        <time>2022-11-15T11:55:38.995Z</time>
      </trkpt>
      <trkpt lat="45.73204" lon="4.65702">
        <ele>355.4</ele>
        <time>2022-11-15T11:55:40.700Z</time>
      </trkpt>
      <trkpt lat="45.73217" lon="4.6571">
        <ele>354.8</ele>
        <time>2022-11-15T11:55:41.958Z</time>
      </trkpt>
      <trkpt lat="45.7322" lon="4.65719">
        <ele>354.8</ele>
        <time>2022-11-15T11:55:42.972Z</time>
      </trkpt>
      <trkpt lat="45.73222" lon="4.65741">
        <ele>355</ele>
        <time>2022-11-15T11:55:45.528Z</time>
      </trkpt>
      <trkpt lat="45.73216" lon="4.65782">
        <ele>354.4</ele>
        <time>2022-11-15T11:55:48.793Z</time>
      </trkpt>
      <trkpt lat="45.73199" lon="4.65827">
        <ele>355.7</ele>
        <time>2022-11-15T11:55:56.593Z</time>
      </trkpt>
      <trkpt lat="45.73166" lon="4.65885">
        <ele>355.6</ele>
        <time>2022-11-15T11:56:03.979Z</time>
      </trkpt>
      <trkpt lat="45.73154" lon="4.65913">
        <ele>356.4</ele>
        <time>2022-11-15T11:56:08.885Z</time>
      </trkpt>
      <trkpt lat="45.73143" lon="4.6598">
        <ele>358.4</ele>
        <time>2022-11-15T11:56:20.189Z</time>
      </trkpt>
      <trkpt lat="45.73142" lon="4.66025">
        <ele>358.3</ele>
        <time>2022-11-15T11:56:24.551Z</time>
      </trkpt>
      <trkpt lat="45.73139" lon="4.66041">
        <ele>358.5</ele>
        <time>2022-11-15T11:56:26.551Z</time>
      </trkpt>
      <trkpt lat="45.73126" lon="4.6607">
        <ele>358.6</ele>
        <time>2022-11-15T11:56:30.192Z</time>
      </trkpt>
      <trkpt lat="45.73093" lon="4.66118">
        <ele>360</ele>
        <time>2022-11-15T11:56:39.604Z</time>
      </trkpt>
      <trkpt lat="45.73082" lon="4.6614">
        <ele>359.8</ele>
        <time>2022-11-15T11:56:41.989Z</time>
      </trkpt>
      <trkpt lat="45.73059" lon="4.6623">
        <ele>361.1</ele>
        <time>2022-11-15T11:56:53.836Z</time>
      </trkpt>
      <trkpt lat="45.73045" lon="4.66259">
        <ele>361.3</ele>
        <time>2022-11-15T11:56:57.707Z</time>
      </trkpt>
      <trkpt lat="45.73018" lon="4.66307">
        <ele>362.4</ele>
        <time>2022-11-15T11:57:05.886Z</time>
      </trkpt>
      <trkpt lat="45.73005" lon="4.66352">
        <ele>363.3</ele>
        <time>2022-11-15T11:57:12.419Z</time>
      </trkpt>
      <trkpt lat="45.73004" lon="4.66367">
        <ele>363.3</ele>
        <time>2022-11-15T11:57:13.950Z</time>
      </trkpt>
      <trkpt lat="45.73015" lon="4.66448">
        <ele>362</ele>
        <time>2022-11-15T11:57:20.231Z</time>
      </trkpt>
      <trkpt lat="45.73026" lon="4.66529">
        <ele>362.7</ele>
        <time>2022-11-15T11:57:29.666Z</time>
      </trkpt>
      <trkpt lat="45.73038" lon="4.66627">
        <ele>364.1</ele>
        <time>2022-11-15T11:57:42.066Z</time>
      </trkpt>
      <trkpt lat="45.73048" lon="4.66667">
        <ele>362.7</ele>
        <time>2022-11-15T11:57:44.592Z</time>
      </trkpt>
      <trkpt lat="45.73093" lon="4.66759">
        <ele>361.8</ele>
        <time>2022-11-15T11:57:54.379Z</time>
      </trkpt>
      <trkpt lat="45.73137" lon="4.66851">
        <ele>359.4</ele>
        <time>2022-11-15T11:58:02.139Z</time>
      </trkpt>
      <trkpt lat="45.73182" lon="4.66943">
        <ele>362.6</ele>
        <time>2022-11-15T11:58:20.367Z</time>
      </trkpt>
      <trkpt lat="45.73209" lon="4.67001">
        <ele>361</ele>
        <time>2022-11-15T11:58:25.116Z</time>
      </trkpt>
      <trkpt lat="45.73235" lon="4.67059">
        <ele>360.3</ele>
        <time>2022-11-15T11:58:30.890Z</time>
      </trkpt>
      <trkpt lat="45.73257" lon="4.6711">
        <ele>360</ele>
        <time>2022-11-15T11:58:36.379Z</time>
      </trkpt>
      <trkpt lat="45.73267" lon="4.67139">
        <ele>360.6</ele>
        <time>2022-11-15T11:58:40.723Z</time>
      </trkpt>
      <trkpt lat="45.73271" lon="4.67159">
        <ele>360.6</ele>
        <time>2022-11-15T11:58:42.837Z</time>
      </trkpt>
      <trkpt lat="45.73272" lon="4.67178">
        <ele>361.1</ele>
        <time>2022-11-15T11:58:45.790Z</time>
      </trkpt>
      <trkpt lat="45.7327" lon="4.67228">
        <ele>361.7</ele>
        <time>2022-11-15T11:58:51.828Z</time>
      </trkpt>
      <trkpt lat="45.73264" lon="4.67329">
        <ele>363.4</ele>
        <time>2022-11-15T11:59:05.033Z</time>
      </trkpt>
      <trkpt lat="45.73258" lon="4.6743">
        <ele>364.7</ele>
        <time>2022-11-15T11:59:17.417Z</time>
      </trkpt>
      <trkpt lat="45.7326" lon="4.67455">
        <ele>364.9</ele>
        <time>2022-11-15T11:59:20.271Z</time>
      </trkpt>
      <trkpt lat="45.73266" lon="4.67479">
        <ele>364.9</ele>
        <time>2022-11-15T11:59:22.861Z</time>
      </trkpt>
      <trkpt lat="45.73303" lon="4.67567">
        <ele>363.1</ele>
        <time>2022-11-15T11:59:30.462Z</time>
      </trkpt>
      <trkpt lat="45.73335" lon="4.67635">
        <ele>359.3</ele>
        <time>2022-11-15T11:59:34.627Z</time>
      </trkpt>
      <trkpt lat="45.73381" lon="4.67734">
        <ele>352.7</ele>
        <time>2022-11-15T11:59:41.206Z</time>
      </trkpt>
      <trkpt lat="45.73428" lon="4.67832">
        <ele>346.7</ele>
        <time>2022-11-15T11:59:47.783Z</time>
      </trkpt>
      <trkpt lat="45.73474" lon="4.67931">
        <ele>345.1</ele>
        <time>2022-11-15T11:59:57.189Z</time>
      </trkpt>
      <trkpt lat="45.73521" lon="4.68029">
        <ele>346.2</ele>
        <time>2022-11-15T12:00:10.939Z</time>
      </trkpt>
      <trkpt lat="45.73567" lon="4.68128">
        <ele>346.6</ele>
        <time>2022-11-15T12:00:23.581Z</time>
      </trkpt>
      <trkpt lat="45.73604" lon="4.68207">
        <ele>344.5</ele>
        <time>2022-11-15T12:00:30.145Z</time>
      </trkpt>
      <trkpt lat="45.7364" lon="4.68286">
        <ele>342.4</ele>
        <time>2022-11-15T12:00:36.637Z</time>
      </trkpt>
      <trkpt lat="45.73677" lon="4.68365">
        <ele>339.3</ele>
        <time>2022-11-15T12:00:42.319Z</time>
      </trkpt>
      <trkpt lat="45.73717" lon="4.68455">
        <ele>335.3</ele>
        <time>2022-11-15T12:00:48.314Z</time>
      </trkpt>
      <trkpt lat="45.73757" lon="4.68545">
        <ele>331.2</ele>
        <time>2022-11-15T12:00:54.243Z</time>
      </trkpt>
      <trkpt lat="45.73806" lon="4.68649">
        <ele>327.6</ele>
        <time>2022-11-15T12:01:02.129Z</time>
      </trkpt>
      <trkpt lat="45.73855" lon="4.68754">
        <ele>325.6</ele>
        <time>2022-11-15T12:01:11.730Z</time>
      </trkpt>
      <trkpt lat="45.73905" lon="4.68858">
        <ele>323.7</ele>
        <time>2022-11-15T12:01:21.454Z</time>
      </trkpt>
      <trkpt lat="45.73954" lon="4.68963">
        <ele>322.8</ele>
        <time>2022-11-15T12:01:32.641Z</time>
      </trkpt>
      <trkpt lat="45.74003" lon="4.69067">
        <ele>320.6</ele>
        <time>2022-11-15T12:01:41.922Z</time>
      </trkpt>
      <trkpt lat="45.74009" lon="4.69084">
        <ele>320</ele>
        <time>2022-11-15T12:01:43.076Z</time>
      </trkpt>
      <trkpt lat="45.74008" lon="4.6909">
        <ele>319.8</ele>
        <time>2022-11-15T12:01:43.445Z</time>
      </trkpt>
      <trkpt lat="45.74009" lon="4.69096">
        <ele>319.5</ele>
        <time>2022-11-15T12:01:43.786Z</time>
      </trkpt>
      <trkpt lat="45.74011" lon="4.69098">
        <ele>319.5</ele>
        <time>2022-11-15T12:01:44.141Z</time>
      </trkpt>
      <trkpt lat="45.74017" lon="4.69099">
        <ele>319.4</ele>
        <time>2022-11-15T12:01:44.848Z</time>
      </trkpt>
      <trkpt lat="45.74059" lon="4.69189">
        <ele>317</ele>
        <time>2022-11-15T12:01:52.307Z</time>
      </trkpt>
      <trkpt lat="45.74102" lon="4.69279">
        <ele>314</ele>
        <time>2022-11-15T12:01:59.273Z</time>
      </trkpt>
      <trkpt lat="45.74144" lon="4.69369">
        <ele>310.7</ele>
        <time>2022-11-15T12:02:05.916Z</time>
      </trkpt>
      <trkpt lat="45.74186" lon="4.6946">
        <ele>306.7</ele>
        <time>2022-11-15T12:02:12.108Z</time>
      </trkpt>
      <trkpt lat="45.74229" lon="4.6955">
        <ele>302.5</ele>
        <time>2022-11-15T12:02:18.161Z</time>
      </trkpt>
      <trkpt lat="45.74271" lon="4.6964">
        <ele>299</ele>
        <time>2022-11-15T12:02:24.647Z</time>
      </trkpt>
      <trkpt lat="45.74313" lon="4.6973">
        <ele>302.7</ele>
        <time>2022-11-15T12:02:43.750Z</time>
      </trkpt>
      <trkpt lat="45.74355" lon="4.69821">
        <ele>304.8</ele>
        <time>2022-11-15T12:02:58.580Z</time>
      </trkpt>
      <trkpt lat="45.74396" lon="4.69911">
        <ele>305</ele>
        <time>2022-11-15T12:03:09.771Z</time>
      </trkpt>
      <trkpt lat="45.74438" lon="4.70002">
        <ele>304.8</ele>
        <time>2022-11-15T12:03:20.426Z</time>
      </trkpt>
      <trkpt lat="45.74485" lon="4.70101">
        <ele>304</ele>
        <time>2022-11-15T12:03:31.120Z</time>
      </trkpt>
      <trkpt lat="45.74531" lon="4.702">
        <ele>303.8</ele>
        <time>2022-11-15T12:03:42.772Z</time>
      </trkpt>
      <trkpt lat="45.74578" lon="4.70299">
        <ele>303.2</ele>
        <time>2022-11-15T12:03:53.730Z</time>
      </trkpt>
      <trkpt lat="45.74583" lon="4.70308">
        <ele>303</ele>
        <time>2022-11-15T12:03:54.582Z</time>
      </trkpt>
      <trkpt lat="45.74596" lon="4.7032">
        <ele>303.2</ele>
        <time>2022-11-15T12:03:57.136Z</time>
      </trkpt>
      <trkpt lat="45.74612" lon="4.70328">
        <ele>303.8</ele>
        <time>2022-11-15T12:04:00.787Z</time>
      </trkpt>
      <trkpt lat="45.74637" lon="4.70332">
        <ele>304</ele>
        <time>2022-11-15T12:04:04.736Z</time>
      </trkpt>
      <trkpt lat="45.74651" lon="4.70332">
        <ele>304.4</ele>
        <time>2022-11-15T12:04:07.496Z</time>
      </trkpt>
      <trkpt lat="45.74656" lon="4.70338">
        <ele>304.6</ele>
        <time>2022-11-15T12:04:08.816Z</time>
      </trkpt>
      <trkpt lat="45.74666" lon="4.70342">
        <ele>305</ele>
        <time>2022-11-15T12:04:11.152Z</time>
      </trkpt>
      <trkpt lat="45.74673" lon="4.70358">
        <ele>305</ele>
        <time>2022-11-15T12:04:13.070Z</time>
      </trkpt>
      <trkpt lat="45.74682" lon="4.7039">
        <ele>304.6</ele>
        <time>2022-11-15T12:04:15.887Z</time>
      </trkpt>
      <trkpt lat="45.74679" lon="4.70494">
        <ele>306.8</ele>
        <time>2022-11-15T12:04:30.520Z</time>
      </trkpt>
      <trkpt lat="45.74684" lon="4.70522">
        <ele>307.2</ele>
        <time>2022-11-15T12:04:34.107Z</time>
      </trkpt>
      <trkpt lat="45.74688" lon="4.70535">
        <ele>307.6</ele>
        <time>2022-11-15T12:04:36.397Z</time>
      </trkpt>
      <trkpt lat="45.74722" lon="4.70611">
        <ele>309</ele>
        <time>2022-11-15T12:04:47.911Z</time>
      </trkpt>
      <trkpt lat="45.74728" lon="4.7063">
        <ele>309.2</ele>
        <time>2022-11-15T12:04:50.334Z</time>
      </trkpt>
      <trkpt lat="45.74733" lon="4.70668">
        <ele>310</ele>
        <time>2022-11-15T12:04:55.726Z</time>
      </trkpt>
      <trkpt lat="45.74732" lon="4.7078">
        <ele>308</ele>
        <time>2022-11-15T12:05:03.967Z</time>
      </trkpt>
      <trkpt lat="45.74731" lon="4.70891">
        <ele>305.8</ele>
        <time>2022-11-15T12:05:11.889Z</time>
      </trkpt>
      <trkpt lat="45.74732" lon="4.71005">
        <ele>299.8</ele>
        <time>2022-11-15T12:05:18.194Z</time>
      </trkpt>
      <trkpt lat="45.74732" lon="4.71118">
        <ele>295</ele>
        <time>2022-11-15T12:05:24.182Z</time>
      </trkpt>
      <trkpt lat="45.74733" lon="4.71232">
        <ele>290.6</ele>
        <time>2022-11-15T12:05:30.503Z</time>
      </trkpt>
      <trkpt lat="45.74733" lon="4.71346">
        <ele>287.8</ele>
        <time>2022-11-15T12:05:38.088Z</time>
      </trkpt>
      <trkpt lat="45.74733" lon="4.71469">
        <ele>286.6</ele>
        <time>2022-11-15T12:05:48.462Z</time>
      </trkpt>
      <trkpt lat="45.74733" lon="4.71592">
        <ele>286.6</ele>
        <time>2022-11-15T12:06:00.956Z</time>
      </trkpt>
      <trkpt lat="45.74732" lon="4.71714">
        <ele>287</ele>
        <time>2022-11-15T12:06:13.907Z</time>
      </trkpt>
      <trkpt lat="45.74732" lon="4.71837">
        <ele>287</ele>
        <time>2022-11-15T12:06:26.402Z</time>
      </trkpt>
      <trkpt lat="45.74733" lon="4.71917">
        <ele>286</ele>
        <time>2022-11-15T12:06:32.832Z</time>
      </trkpt>
      <trkpt lat="45.74734" lon="4.71998">
        <ele>286</ele>
        <time>2022-11-15T12:06:41.061Z</time>
      </trkpt>
      <trkpt lat="45.74734" lon="4.72105">
        <ele>284.6</ele>
        <time>2022-11-15T12:06:49.574Z</time>
      </trkpt>
      <trkpt lat="45.74733" lon="4.72211">
        <ele>282.8</ele>
        <time>2022-11-15T12:06:57.482Z</time>
      </trkpt>
      <trkpt lat="45.74733" lon="4.72318">
        <ele>281.6</ele>
        <time>2022-11-15T12:07:06.275Z</time>
      </trkpt>
      <trkpt lat="45.74732" lon="4.72424">
        <ele>281.7</ele>
        <time>2022-11-15T12:07:17.179Z</time>
      </trkpt>
      <trkpt lat="45.74733" lon="4.72526">
        <ele>282</ele>
        <time>2022-11-15T12:07:27.957Z</time>
      </trkpt>
      <trkpt lat="45.74733" lon="4.72628">
        <ele>282</ele>
        <time>2022-11-15T12:07:38.318Z</time>
      </trkpt>
      <trkpt lat="45.74734" lon="4.72731">
        <ele>280.8</ele>
        <time>2022-11-15T12:07:46.719Z</time>
      </trkpt>
      <trkpt lat="45.74734" lon="4.72833">
        <ele>279.4</ele>
        <time>2022-11-15T12:07:54.746Z</time>
      </trkpt>
      <trkpt lat="45.74734" lon="4.72954">
        <ele>275.7</ele>
        <time>2022-11-15T12:08:02.160Z</time>
      </trkpt>
      <trkpt lat="45.74733" lon="4.73074">
        <ele>271.7</ele>
        <time>2022-11-15T12:08:09.257Z</time>
      </trkpt>
      <trkpt lat="45.74733" lon="4.73195">
        <ele>270.4</ele>
        <time>2022-11-15T12:08:19.284Z</time>
      </trkpt>
      <trkpt lat="45.74724" lon="4.73214">
        <ele>270</ele>
        <time>2022-11-15T12:08:20.985Z</time>
      </trkpt>
      <trkpt lat="45.7472" lon="4.73214">
        <ele>269.9</ele>
        <time>2022-11-15T12:08:21.410Z</time>
      </trkpt>
      <trkpt lat="45.74715" lon="4.73219">
        <ele>269.7</ele>
        <time>2022-11-15T12:08:22.005Z</time>
      </trkpt>
      <trkpt lat="45.74712" lon="4.73228">
        <ele>269.6</ele>
        <time>2022-11-15T12:08:22.843Z</time>
      </trkpt>
      <trkpt lat="45.74716" lon="4.7324">
        <ele>269.6</ele>
        <time>2022-11-15T12:08:24.193Z</time>
      </trkpt>
      <trkpt lat="45.74721" lon="4.73243">
        <ele>269.9</ele>
        <time>2022-11-15T12:08:25.623Z</time>
      </trkpt>
      <trkpt lat="45.74735" lon="4.73266">
        <ele>269.7</ele>
        <time>2022-11-15T12:08:28.356Z</time>
      </trkpt>
      <trkpt lat="45.74735" lon="4.73391">
        <ele>269.5</ele>
        <time>2022-11-15T12:08:40.622Z</time>
      </trkpt>
      <trkpt lat="45.74734" lon="4.73516">
        <ele>270.2</ele>
        <time>2022-11-15T12:08:54.328Z</time>
      </trkpt>
      <trkpt lat="45.74734" lon="4.73621">
        <ele>273.1</ele>
        <time>2022-11-15T12:09:11.059Z</time>
      </trkpt>
      <trkpt lat="45.74735" lon="4.73725">
        <ele>271.4</ele>
        <time>2022-11-15T12:09:18.898Z</time>
      </trkpt>
      <trkpt lat="45.74735" lon="4.7383">
        <ele>268.6</ele>
        <time>2022-11-15T12:09:25.681Z</time>
      </trkpt>
      <trkpt lat="45.74735" lon="4.73935">
        <ele>266.2</ele>
        <time>2022-11-15T12:09:32.841Z</time>
      </trkpt>
      <trkpt lat="45.74729" lon="4.73938">
        <ele>266.2</ele>
        <time>2022-11-15T12:09:33.766Z</time>
      </trkpt>
      <trkpt lat="45.74727" lon="4.73947">
        <ele>266</ele>
        <time>2022-11-15T12:09:34.426Z</time>
      </trkpt>
      <trkpt lat="45.74727" lon="4.74009">
        <ele>264.7</ele>
        <time>2022-11-15T12:09:38.774Z</time>
      </trkpt>
      <trkpt lat="45.74729" lon="4.74018">
        <ele>264.4</ele>
        <time>2022-11-15T12:09:39.344Z</time>
      </trkpt>
      <trkpt lat="45.74734" lon="4.74022">
        <ele>264.2</ele>
        <time>2022-11-15T12:09:39.892Z</time>
      </trkpt>
      <trkpt lat="45.74734" lon="4.7413">
        <ele>263</ele>
        <time>2022-11-15T12:09:48.783Z</time>
      </trkpt>
      <trkpt lat="45.74733" lon="4.74239">
        <ele>262.6</ele>
        <time>2022-11-15T12:09:59.031Z</time>
      </trkpt>
      <trkpt lat="45.74733" lon="4.74347">
        <ele>262</ele>
        <time>2022-11-15T12:10:08.889Z</time>
      </trkpt>
      <trkpt lat="45.74734" lon="4.74439">
        <ele>262</ele>
        <time>2022-11-15T12:10:18.235Z</time>
      </trkpt>
      <trkpt lat="45.74734" lon="4.74532">
        <ele>261.5</ele>
        <time>2022-11-15T12:10:26.754Z</time>
      </trkpt>
      <trkpt lat="45.74735" lon="4.74624">
        <ele>261</ele>
        <time>2022-11-15T12:10:35.173Z</time>
      </trkpt>
      <trkpt lat="45.74735" lon="4.74722">
        <ele>260</ele>
        <time>2022-11-15T12:10:43.373Z</time>
      </trkpt>
      <trkpt lat="45.74735" lon="4.7482">
        <ele>258</ele>
        <time>2022-11-15T12:10:50.304Z</time>
      </trkpt>
      <trkpt lat="45.74734" lon="4.74917">
        <ele>255</ele>
        <time>2022-11-15T12:10:56.221Z</time>
      </trkpt>
      <trkpt lat="45.74734" lon="4.75015">
        <ele>252.5</ele>
        <time>2022-11-15T12:11:02.654Z</time>
      </trkpt>
      <trkpt lat="45.74735" lon="4.7508">
        <ele>250.7</ele>
        <time>2022-11-15T12:11:06.796Z</time>
      </trkpt>
      <trkpt lat="45.74736" lon="4.75145">
        <ele>249.2</ele>
        <time>2022-11-15T12:11:11.215Z</time>
      </trkpt>
      <trkpt lat="45.74736" lon="4.75259">
        <ele>246.3</ele>
        <time>2022-11-15T12:11:18.707Z</time>
      </trkpt>
      <trkpt lat="45.74736" lon="4.75373">
        <ele>243.7</ele>
        <time>2022-11-15T12:11:26.486Z</time>
      </trkpt>
      <trkpt lat="45.74737" lon="4.75487">
        <ele>243.5</ele>
        <time>2022-11-15T12:11:37.638Z</time>
      </trkpt>
      <trkpt lat="45.74737" lon="4.75601">
        <ele>242.7</ele>
        <time>2022-11-15T12:11:47.754Z</time>
      </trkpt>
      <trkpt lat="45.74737" lon="4.75715">
        <ele>240.7</ele>
        <time>2022-11-15T12:11:56.183Z</time>
      </trkpt>
      <trkpt lat="45.74739" lon="4.75751">
        <ele>239.8</ele>
        <time>2022-11-15T12:11:58.573Z</time>
      </trkpt>
      <trkpt lat="45.74745" lon="4.75789">
        <ele>238.8</ele>
        <time>2022-11-15T12:12:01.125Z</time>
      </trkpt>
      <trkpt lat="45.74767" lon="4.75879">
        <ele>235</ele>
        <time>2022-11-15T12:12:06.334Z</time>
      </trkpt>
      <trkpt lat="45.74768" lon="4.7588">
        <ele>234.9</ele>
        <time>2022-11-15T12:12:06.431Z</time>
      </trkpt>
      <trkpt lat="45.74773" lon="4.75894">
        <ele>233.8</ele>
        <time>2022-11-15T12:12:07.300Z</time>
      </trkpt>
      <trkpt lat="45.74779" lon="4.75904">
        <ele>233</ele>
        <time>2022-11-15T12:12:08.030Z</time>
      </trkpt>
      <trkpt lat="45.74788" lon="4.75914">
        <ele>232.6</ele>
        <time>2022-11-15T12:12:09.116Z</time>
      </trkpt>
      <trkpt lat="45.74805" lon="4.75927">
        <ele>232.2</ele>
        <time>2022-11-15T12:12:11.262Z</time>
      </trkpt>
      <trkpt lat="45.74822" lon="4.75949">
        <ele>232.5</ele>
        <time>2022-11-15T12:12:15.051Z</time>
      </trkpt>
      <trkpt lat="45.74832" lon="4.75995">
        <ele>231.1</ele>
        <time>2022-11-15T12:12:18.063Z</time>
      </trkpt>
      <trkpt lat="45.74837" lon="4.7601">
        <ele>230.2</ele>
        <time>2022-11-15T12:12:18.983Z</time>
      </trkpt>
      <trkpt lat="45.74844" lon="4.76023">
        <ele>229.6</ele>
        <time>2022-11-15T12:12:19.916Z</time>
      </trkpt>
      <trkpt lat="45.74853" lon="4.76035">
        <ele>229</ele>
        <time>2022-11-15T12:12:20.948Z</time>
      </trkpt>
      <trkpt lat="45.74864" lon="4.76042">
        <ele>228.3</ele>
        <time>2022-11-15T12:12:21.882Z</time>
      </trkpt>
      <trkpt lat="45.74877" lon="4.76047">
        <ele>226.8</ele>
        <time>2022-11-15T12:12:22.949Z</time>
      </trkpt>
      <trkpt lat="45.74889" lon="4.76047">
        <ele>226.2</ele>
        <time>2022-11-15T12:12:23.946Z</time>
      </trkpt>
      <trkpt lat="45.74911" lon="4.76038">
        <ele>224.9</ele>
        <time>2022-11-15T12:12:25.741Z</time>
      </trkpt>
      <trkpt lat="45.7492" lon="4.76028">
        <ele>224.4</ele>
        <time>2022-11-15T12:12:26.740Z</time>
      </trkpt>
      <trkpt lat="45.74958" lon="4.75973">
        <ele>222</ele>
        <time>2022-11-15T12:12:31.456Z</time>
      </trkpt>
      <trkpt lat="45.74966" lon="4.75964">
        <ele>221.7</ele>
        <time>2022-11-15T12:12:32.484Z</time>
      </trkpt>
      <trkpt lat="45.74976" lon="4.75958">
        <ele>220.9</ele>
        <time>2022-11-15T12:12:33.343Z</time>
      </trkpt>
      <trkpt lat="45.74986" lon="4.75955">
        <ele>220.9</ele>
        <time>2022-11-15T12:12:34.830Z</time>
      </trkpt>
      <trkpt lat="45.74998" lon="4.75954">
        <ele>220.7</ele>
        <time>2022-11-15T12:12:36.236Z</time>
      </trkpt>
      <trkpt lat="45.75008" lon="4.75956">
        <ele>220.3</ele>
        <time>2022-11-15T12:12:37.158Z</time>
      </trkpt>
      <trkpt lat="45.75018" lon="4.75962">
        <ele>219.6</ele>
        <time>2022-11-15T12:12:37.958Z</time>
      </trkpt>
      <trkpt lat="45.75027" lon="4.7597">
        <ele>219.1</ele>
        <time>2022-11-15T12:12:38.860Z</time>
      </trkpt>
      <trkpt lat="45.75034" lon="4.7598">
        <ele>219.3</ele>
        <time>2022-11-15T12:12:40.626Z</time>
      </trkpt>
      <trkpt lat="45.7504" lon="4.75992">
        <ele>219.3</ele>
        <time>2022-11-15T12:12:42.125Z</time>
      </trkpt>
      <trkpt lat="45.75063" lon="4.76062">
        <ele>216</ele>
        <time>2022-11-15T12:12:46.217Z</time>
      </trkpt>
      <trkpt lat="45.75071" lon="4.76078">
        <ele>214.8</ele>
        <time>2022-11-15T12:12:47.306Z</time>
      </trkpt>
      <trkpt lat="45.75078" lon="4.76088">
        <ele>214.1</ele>
        <time>2022-11-15T12:12:48.089Z</time>
      </trkpt>
      <trkpt lat="45.75086" lon="4.76096">
        <ele>213.8</ele>
        <time>2022-11-15T12:12:49.062Z</time>
      </trkpt>
      <trkpt lat="45.75096" lon="4.76102">
        <ele>213.4</ele>
        <time>2022-11-15T12:12:50.079Z</time>
      </trkpt>
      <trkpt lat="45.75107" lon="4.76105">
        <ele>213.2</ele>
        <time>2022-11-15T12:12:51.369Z</time>
      </trkpt>
      <trkpt lat="45.75143" lon="4.76104">
        <ele>212.9</ele>
        <time>2022-11-15T12:12:56.055Z</time>
      </trkpt>
      <trkpt lat="45.75154" lon="4.76107">
        <ele>212.4</ele>
        <time>2022-11-15T12:12:57.031Z</time>
      </trkpt>
      <trkpt lat="45.75167" lon="4.76114">
        <ele>211.6</ele>
        <time>2022-11-15T12:12:58.113Z</time>
      </trkpt>
      <trkpt lat="45.75176" lon="4.76125">
        <ele>209.7</ele>
        <time>2022-11-15T12:12:59.051Z</time>
      </trkpt>
      <trkpt lat="45.75184" lon="4.76138">
        <ele>206.9</ele>
        <time>2022-11-15T12:13:00.009Z</time>
      </trkpt>
      <trkpt lat="45.7519" lon="4.76155">
        <ele>202.4</ele>
        <time>2022-11-15T12:13:01.063Z</time>
      </trkpt>
      <trkpt lat="45.75214" lon="4.76246">
        <ele>203.5</ele>
        <time>2022-11-15T12:13:12.666Z</time>
      </trkpt>
      <trkpt lat="45.75217" lon="4.76268">
        <ele>206.1</ele>
        <time>2022-11-15T12:13:21.448Z</time>
      </trkpt>
      <trkpt lat="45.75215" lon="4.76288">
        <ele>208</ele>
        <time>2022-11-15T12:13:29.364Z</time>
      </trkpt>
      <trkpt lat="45.75201" lon="4.76326">
        <ele>210.5</ele>
        <time>2022-11-15T12:13:39.132Z</time>
      </trkpt>
      <trkpt lat="45.75191" lon="4.76344">
        <ele>211.4</ele>
        <time>2022-11-15T12:13:43.387Z</time>
      </trkpt>
      <trkpt lat="45.7514" lon="4.76392">
        <ele>211.8</ele>
        <time>2022-11-15T12:13:52.836Z</time>
      </trkpt>
      <trkpt lat="45.75088" lon="4.76439">
        <ele>213.7</ele>
        <time>2022-11-15T12:14:05.319Z</time>
      </trkpt>
      <trkpt lat="45.75074" lon="4.76449">
        <ele>213.9</ele>
        <time>2022-11-15T12:14:07.898Z</time>
      </trkpt>
      <trkpt lat="45.75065" lon="4.76462">
        <ele>214.8</ele>
        <time>2022-11-15T12:14:11.653Z</time>
      </trkpt>
      <trkpt lat="45.75059" lon="4.76482">
        <ele>215.7</ele>
        <time>2022-11-15T12:14:15.769Z</time>
      </trkpt>
      <trkpt lat="45.75057" lon="4.7651">
        <ele>216.5</ele>
        <time>2022-11-15T12:14:20.330Z</time>
      </trkpt>
      <trkpt lat="45.75062" lon="4.7653">
        <ele>217.7</ele>
        <time>2022-11-15T12:14:25.063Z</time>
      </trkpt>
      <trkpt lat="45.75062" lon="4.76543">
        <ele>218</ele>
        <time>2022-11-15T12:14:26.957Z</time>
      </trkpt>
      <trkpt lat="45.75057" lon="4.76547">
        <ele>217.8</ele>
        <time>2022-11-15T12:14:27.504Z</time>
      </trkpt>
      <trkpt lat="45.75052" lon="4.76558">
        <ele>218.1</ele>
        <time>2022-11-15T12:14:29.409Z</time>
      </trkpt>
      <trkpt lat="45.75051" lon="4.76565">
        <ele>218.3</ele>
        <time>2022-11-15T12:14:30.557Z</time>
      </trkpt>
      <trkpt lat="45.75051" lon="4.76573">
        <ele>218.6</ele>
        <time>2022-11-15T12:14:32.013Z</time>
      </trkpt>
      <trkpt lat="45.75056" lon="4.76585">
        <ele>218.9</ele>
        <time>2022-11-15T12:14:33.990Z</time>
      </trkpt>
      <trkpt lat="45.7506" lon="4.76589">
        <ele>218.8</ele>
        <time>2022-11-15T12:14:34.534Z</time>
      </trkpt>
      <trkpt lat="45.75063" lon="4.76598">
        <ele>218.6</ele>
        <time>2022-11-15T12:14:35.244Z</time>
      </trkpt>
      <trkpt lat="45.75083" lon="4.76619">
        <ele>218.7</ele>
        <time>2022-11-15T12:14:38.991Z</time>
      </trkpt>
      <trkpt lat="45.7514" lon="4.76683">
        <ele>218.3</ele>
        <time>2022-11-15T12:14:48.709Z</time>
      </trkpt>
      <trkpt lat="45.75196" lon="4.76747">
        <ele>217.2</ele>
        <time>2022-11-15T12:14:57.219Z</time>
      </trkpt>
      <trkpt lat="45.75262" lon="4.76824">
        <ele>215.2</ele>
        <time>2022-11-15T12:15:06.402Z</time>
      </trkpt>
      <trkpt lat="45.75327" lon="4.76901">
        <ele>214</ele>
        <time>2022-11-15T12:15:16.563Z</time>
      </trkpt>
      <trkpt lat="45.75393" lon="4.76977">
        <ele>214.1</ele>
        <time>2022-11-15T12:15:29.023Z</time>
      </trkpt>
      <trkpt lat="45.75458" lon="4.77054">
        <ele>214.5</ele>
        <time>2022-11-15T12:15:41.856Z</time>
      </trkpt>
      <trkpt lat="45.75524" lon="4.77131">
        <ele>215</ele>
        <time>2022-11-15T12:15:54.948Z</time>
      </trkpt>
      <trkpt lat="45.75581" lon="4.77197">
        <ele>215.8</ele>
        <time>2022-11-15T12:16:06.800Z</time>
      </trkpt>
      <trkpt lat="45.75639" lon="4.77263">
        <ele>216</ele>
        <time>2022-11-15T12:16:17.854Z</time>
      </trkpt>
      <trkpt lat="45.75696" lon="4.77328">
        <ele>216.1</ele>
        <time>2022-11-15T12:16:28.592Z</time>
      </trkpt>
      <trkpt lat="45.75754" lon="4.77394">
        <ele>216.3</ele>
        <time>2022-11-15T12:16:39.645Z</time>
      </trkpt>
      <trkpt lat="45.75811" lon="4.7746">
        <ele>217</ele>
        <time>2022-11-15T12:16:51.335Z</time>
      </trkpt>
      <trkpt lat="45.75822" lon="4.7747">
        <ele>217</ele>
        <time>2022-11-15T12:16:53.231Z</time>
      </trkpt>
      <trkpt lat="45.75876" lon="4.77536">
        <ele>217.4</ele>
        <time>2022-11-15T12:17:04.124Z</time>
      </trkpt>
      <trkpt lat="45.75945" lon="4.77616">
        <ele>218</ele>
        <time>2022-11-15T12:17:17.895Z</time>
      </trkpt>
      <trkpt lat="45.76013" lon="4.77696">
        <ele>218.5</ele>
        <time>2022-11-15T12:17:31.404Z</time>
      </trkpt>
      <trkpt lat="45.76082" lon="4.77776">
        <ele>219</ele>
        <time>2022-11-15T12:17:45.026Z</time>
      </trkpt>
      <trkpt lat="45.76138" lon="4.77842">
        <ele>219</ele>
        <time>2022-11-15T12:17:55.579Z</time>
      </trkpt>
      <trkpt lat="45.76193" lon="4.77907">
        <ele>220</ele>
        <time>2022-11-15T12:18:07.486Z</time>
      </trkpt>
      <trkpt lat="45.76249" lon="4.77973">
        <ele>220</ele>
        <time>2022-11-15T12:18:18.039Z</time>
      </trkpt>
      <trkpt lat="45.76304" lon="4.78038">
        <ele>220</ele>
        <time>2022-11-15T12:18:28.415Z</time>
      </trkpt>
      <trkpt lat="45.7636" lon="4.78104">
        <ele>220.3</ele>
        <time>2022-11-15T12:18:39.384Z</time>
      </trkpt>
      <trkpt lat="45.76365" lon="4.78114">
        <ele>220.1</ele>
        <time>2022-11-15T12:18:40.312Z</time>
      </trkpt>
      <trkpt lat="45.76391" lon="4.78149">
        <ele>220.3</ele>
        <time>2022-11-15T12:18:45.786Z</time>
      </trkpt>
      <trkpt lat="45.76392" lon="4.78157">
        <ele>220.6</ele>
        <time>2022-11-15T12:18:47.257Z</time>
      </trkpt>
      <trkpt lat="45.76396" lon="4.78165">
        <ele>220.7</ele>
        <time>2022-11-15T12:18:48.410Z</time>
      </trkpt>
      <trkpt lat="45.76401" lon="4.78168">
        <ele>220.6</ele>
        <time>2022-11-15T12:18:49.030Z</time>
      </trkpt>
      <trkpt lat="45.76407" lon="4.78167">
        <ele>220.3</ele>
        <time>2022-11-15T12:18:49.534Z</time>
      </trkpt>
      <trkpt lat="45.7641" lon="4.78163">
        <ele>220.2</ele>
        <time>2022-11-15T12:18:49.971Z</time>
      </trkpt>
      <trkpt lat="45.76425" lon="4.78178">
        <ele>219.4</ele>
        <time>2022-11-15T12:18:51.579Z</time>
      </trkpt>
      <trkpt lat="45.76426" lon="4.78188">
        <ele>219.3</ele>
        <time>2022-11-15T12:18:52.428Z</time>
      </trkpt>
      <trkpt lat="45.76483" lon="4.78253">
        <ele>216.6</ele>
        <time>2022-11-15T12:18:59.246Z</time>
      </trkpt>
      <trkpt lat="45.76539" lon="4.78319">
        <ele>213.8</ele>
        <time>2022-11-15T12:19:05.930Z</time>
      </trkpt>
      <trkpt lat="45.76596" lon="4.78384">
        <ele>210.2</ele>
        <time>2022-11-15T12:19:12.013Z</time>
      </trkpt>
      <trkpt lat="45.76632" lon="4.78423">
        <ele>208.3</ele>
        <time>2022-11-15T12:19:16.038Z</time>
      </trkpt>
      <trkpt lat="45.76667" lon="4.78463">
        <ele>206</ele>
        <time>2022-11-15T12:19:19.714Z</time>
      </trkpt>
      <trkpt lat="45.76713" lon="4.78519">
        <ele>203.8</ele>
        <time>2022-11-15T12:19:25.397Z</time>
      </trkpt>
      <trkpt lat="45.7676" lon="4.78574">
        <ele>201.8</ele>
        <time>2022-11-15T12:19:31.313Z</time>
      </trkpt>
      <trkpt lat="45.76806" lon="4.7863">
        <ele>200</ele>
        <time>2022-11-15T12:19:37.392Z</time>
      </trkpt>
      <trkpt lat="45.76866" lon="4.78698">
        <ele>197.5</ele>
        <time>2022-11-15T12:19:44.872Z</time>
      </trkpt>
      <trkpt lat="45.76926" lon="4.78766">
        <ele>196</ele>
        <time>2022-11-15T12:19:53.503Z</time>
      </trkpt>
      <trkpt lat="45.76955" lon="4.78805">
        <ele>195.5</ele>
        <time>2022-11-15T12:19:58.396Z</time>
      </trkpt>
      <trkpt lat="45.77007" lon="4.78864">
        <ele>191</ele>
        <time>2022-11-15T12:20:03.652Z</time>
      </trkpt>
      <trkpt lat="45.7703" lon="4.78887">
        <ele>189.9</ele>
        <time>2022-11-15T12:20:06.222Z</time>
      </trkpt>
      <trkpt lat="45.77033" lon="4.78886">
        <ele>189.7</ele>
        <time>2022-11-15T12:20:06.449Z</time>
      </trkpt>
      <trkpt lat="45.7706" lon="4.78913">
        <ele>189.5</ele>
        <time>2022-11-15T12:20:10.833Z</time>
      </trkpt>
      <trkpt lat="45.77115" lon="4.78976">
        <ele>188.8</ele>
        <time>2022-11-15T12:20:19.799Z</time>
      </trkpt>
      <trkpt lat="45.7717" lon="4.79039">
        <ele>187.8</ele>
        <time>2022-11-15T12:20:28.284Z</time>
      </trkpt>
      <trkpt lat="45.7719" lon="4.79064">
        <ele>187.6</ele>
        <time>2022-11-15T12:20:31.775Z</time>
      </trkpt>
      <trkpt lat="45.77257" lon="4.79136">
        <ele>185.1</ele>
        <time>2022-11-15T12:20:40.207Z</time>
      </trkpt>
      <trkpt lat="45.77304" lon="4.79192">
        <ele>184.1</ele>
        <time>2022-11-15T12:20:47.378Z</time>
      </trkpt>
      <trkpt lat="45.77339" lon="4.79237">
        <ele>182.5</ele>
        <time>2022-11-15T12:20:51.913Z</time>
      </trkpt>
      <trkpt lat="45.77408" lon="4.79316">
        <ele>179.5</ele>
        <time>2022-11-15T12:21:00.436Z</time>
      </trkpt>
      <trkpt lat="45.77476" lon="4.79395">
        <ele>177.3</ele>
        <time>2022-11-15T12:21:09.709Z</time>
      </trkpt>
      <trkpt lat="45.77545" lon="4.79474">
        <ele>176.5</ele>
        <time>2022-11-15T12:21:21.089Z</time>
      </trkpt>
      <trkpt lat="45.77592" lon="4.7953">
        <ele>174.3</ele>
        <time>2022-11-15T12:21:26.870Z</time>
      </trkpt>
      <trkpt lat="45.77619" lon="4.79571">
        <ele>174</ele>
        <time>2022-11-15T12:21:32.037Z</time>
      </trkpt>
      <trkpt lat="45.77633" lon="4.79601">
        <ele>173.6</ele>
        <time>2022-11-15T12:21:35.009Z</time>
      </trkpt>
      <trkpt lat="45.7764" lon="4.79626">
        <ele>173.1</ele>
        <time>2022-11-15T12:21:36.968Z</time>
      </trkpt>
      <trkpt lat="45.77642" lon="4.79688">
        <ele>172.1</ele>
        <time>2022-11-15T12:21:41.660Z</time>
      </trkpt>
      <trkpt lat="45.77632" lon="4.79766">
        <ele>171</ele>
        <time>2022-11-15T12:21:47.882Z</time>
      </trkpt>
      <trkpt lat="45.77615" lon="4.79892">
        <ele>170</ele>
        <time>2022-11-15T12:21:59.099Z</time>
      </trkpt>
      <trkpt lat="45.77598" lon="4.80018">
        <ele>170.2</ele>
        <time>2022-11-15T12:22:12.401Z</time>
      </trkpt>
      <trkpt lat="45.77581" lon="4.80144">
        <ele>169.1</ele>
        <time>2022-11-15T12:22:23.456Z</time>
      </trkpt>
      <trkpt lat="45.77564" lon="4.8027">
        <ele>168.3</ele>
        <time>2022-11-15T12:22:35.010Z</time>
      </trkpt>
      <trkpt lat="45.77547" lon="4.80396">
        <ele>168</ele>
        <time>2022-11-15T12:22:47.404Z</time>
      </trkpt>
      <trkpt lat="45.7753" lon="4.80522">
        <ele>167.9</ele>
        <time>2022-11-15T12:23:00.214Z</time>
      </trkpt>
      <trkpt lat="45.77523" lon="4.80523">
        <ele>168</ele>
        <time>2022-11-15T12:23:01.391Z</time>
      </trkpt>
      <trkpt lat="45.7752" lon="4.80525">
        <ele>168</ele>
        <time>2022-11-15T12:23:01.873Z</time>
      </trkpt>
      <trkpt lat="45.77516" lon="4.80533">
        <ele>168</ele>
        <time>2022-11-15T12:23:02.872Z</time>
      </trkpt>
      <trkpt lat="45.77517" lon="4.80547">
        <ele>168</ele>
        <time>2022-11-15T12:23:04.301Z</time>
      </trkpt>
      <trkpt lat="45.77525" lon="4.80555">
        <ele>168</ele>
        <time>2022-11-15T12:23:05.721Z</time>
      </trkpt>
      <trkpt lat="45.77509" lon="4.80681">
        <ele>167.7</ele>
        <time>2022-11-15T12:23:18.088Z</time>
      </trkpt>
      <trkpt lat="45.77492" lon="4.80806">
        <ele>168</ele>
        <time>2022-11-15T12:23:31.431Z</time>
      </trkpt>
      <trkpt lat="45.77491" lon="4.80867">
        <ele>166.4</ele>
        <time>2022-11-15T12:23:35.394Z</time>
      </trkpt>
      <trkpt lat="45.77484" lon="4.80859">
        <ele>166.9</ele>
        <time>2022-11-15T12:23:37.763Z</time>
      </trkpt>
      <trkpt lat="45.7748" lon="4.80871">
        <ele>165.7</ele>
        <time>2022-11-15T12:23:38.498Z</time>
      </trkpt>
      <trkpt lat="45.7748" lon="4.80876">
        <ele>165.3</ele>
        <time>2022-11-15T12:23:38.775Z</time>
      </trkpt>
      <trkpt lat="45.77483" lon="4.80883">
        <ele>164.5</ele>
        <time>2022-11-15T12:23:39.229Z</time>
      </trkpt>
      <trkpt lat="45.77474" lon="4.80992">
        <ele>162</ele>
        <time>2022-11-15T12:23:46.717Z</time>
      </trkpt>
      <trkpt lat="45.77464" lon="4.811">
        <ele>169.8</ele>
        <time>2022-11-15T12:24:16.244Z</time>
      </trkpt>
      <trkpt lat="45.77489" lon="4.81106">
        <ele>168.9</ele>
        <time>2022-11-15T12:24:18.653Z</time>
      </trkpt>
      <trkpt lat="45.7748" lon="4.812">
        <ele>169.5</ele>
        <time>2022-11-15T12:24:29.159Z</time>
      </trkpt>
      <trkpt lat="45.77472" lon="4.81295">
        <ele>170</ele>
        <time>2022-11-15T12:24:39.590Z</time>
      </trkpt>
      <trkpt lat="45.77463" lon="4.81389">
        <ele>172.7</ele>
        <time>2022-11-15T12:24:54.972Z</time>
      </trkpt>
      <trkpt lat="45.77465" lon="4.81494">
        <ele>196.4</ele>
        <time>2022-11-15T12:25:36.106Z</time>
      </trkpt>
      <trkpt lat="45.77467" lon="4.816">
        <ele>230.2</ele>
        <time>2022-11-15T12:26:17.633Z</time>
      </trkpt>
      <trkpt lat="45.77457" lon="4.81726">
        <ele>235</ele>
        <time>2022-11-15T12:26:40.794Z</time>
      </trkpt>
      <trkpt lat="45.77447" lon="4.81853">
        <ele>236.1</ele>
        <time>2022-11-15T12:26:55.423Z</time>
      </trkpt>
      <trkpt lat="45.77437" lon="4.81979">
        <ele>239.4</ele>
        <time>2022-11-15T12:27:14.983Z</time>
      </trkpt>
      <trkpt lat="45.77427" lon="4.82105">
        <ele>240.7</ele>
        <time>2022-11-15T12:27:29.861Z</time>
      </trkpt>
      <trkpt lat="45.77417" lon="4.82232">
        <ele>245.4</ele>
        <time>2022-11-15T12:27:52.963Z</time>
      </trkpt>
      <trkpt lat="45.77407" lon="4.82358">
        <ele>248</ele>
        <time>2022-11-15T12:28:10.583Z</time>
      </trkpt>
      <trkpt lat="45.77397" lon="4.82484">
        <ele>250.4</ele>
        <time>2022-11-15T12:28:27.717Z</time>
      </trkpt>
      <trkpt lat="45.77387" lon="4.8261">
        <ele>252</ele>
        <time>2022-11-15T12:28:43.149Z</time>
      </trkpt>
      <trkpt lat="45.77377" lon="4.82737">
        <ele>252</ele>
        <time>2022-11-15T12:28:56.126Z</time>
      </trkpt>
      <trkpt lat="45.77367" lon="4.82863">
        <ele>253.7</ele>
        <time>2022-11-15T12:29:11.752Z</time>
      </trkpt>
      <trkpt lat="45.77358" lon="4.82978">
        <ele>252.4</ele>
        <time>2022-11-15T12:29:21.253Z</time>
      </trkpt>
      <trkpt lat="45.77349" lon="4.83092">
        <ele>249.5</ele>
        <time>2022-11-15T12:29:28.805Z</time>
      </trkpt>
      <trkpt lat="45.7734" lon="4.83207">
        <ele>248.8</ele>
        <time>2022-11-15T12:29:39.261Z</time>
      </trkpt>
      <trkpt lat="45.7733" lon="4.83322">
        <ele>249</ele>
        <time>2022-11-15T12:29:51.301Z</time>
      </trkpt>
      <trkpt lat="45.77321" lon="4.83436">
        <ele>239.5</ele>
        <time>2022-11-15T12:29:57.643Z</time>
      </trkpt>
      <trkpt lat="45.77312" lon="4.83551">
        <ele>222.1</ele>
        <time>2022-11-15T12:30:04.040Z</time>
      </trkpt>
      <trkpt lat="45.77293" lon="4.83675">
        <ele>188.2</ele>
        <time>2022-11-15T12:30:11.058Z</time>
      </trkpt>
      <trkpt lat="45.77285" lon="4.83765">
        <ele>171.4</ele>
        <time>2022-11-15T12:30:16.073Z</time>
      </trkpt>
      <trkpt lat="45.77276" lon="4.83854">
        <ele>164.8</ele>
        <time>2022-11-15T12:30:21.044Z</time>
      </trkpt>
      <trkpt lat="45.77265" lon="4.83858">
        <ele>164.4</ele>
        <time>2022-11-15T12:30:22.126Z</time>
      </trkpt>
      <trkpt lat="45.77262" lon="4.83861">
        <ele>164</ele>
        <time>2022-11-15T12:30:22.416Z</time>
      </trkpt>
      <trkpt lat="45.77259" lon="4.83876">
        <ele>162.9</ele>
        <time>2022-11-15T12:30:23.278Z</time>
      </trkpt>
      <trkpt lat="45.77251" lon="4.83987">
        <ele>162</ele>
        <time>2022-11-15T12:30:32.982Z</time>
      </trkpt>
      <trkpt lat="45.77242" lon="4.84098">
        <ele>167.9</ele>
        <time>2022-11-15T12:30:56.838Z</time>
      </trkpt>
      <trkpt lat="45.77248" lon="4.84109">
        <ele>168.8</ele>
        <time>2022-11-15T12:31:00.271Z</time>
      </trkpt>
      <trkpt lat="45.77253" lon="4.84112">
        <ele>169</ele>
        <time>2022-11-15T12:31:01.463Z</time>
      </trkpt>
      <trkpt lat="45.77291" lon="4.84119">
        <ele>168.5</ele>
        <time>2022-11-15T12:31:06.148Z</time>
      </trkpt>
      <trkpt lat="45.77321" lon="4.84132">
        <ele>168.7</ele>
        <time>2022-11-15T12:31:10.994Z</time>
      </trkpt>
      <trkpt lat="45.77324" lon="4.84129">
        <ele>168</ele>
        <time>2022-11-15T12:31:11.284Z</time>
      </trkpt>
      <trkpt lat="45.77332" lon="4.84136">
        <ele>169.3</ele>
        <time>2022-11-15T12:31:16.546Z</time>
      </trkpt>
      <trkpt lat="45.77335" lon="4.84127">
        <ele>166.8</ele>
        <time>2022-11-15T12:31:17.097Z</time>
      </trkpt>
      <trkpt lat="45.77367" lon="4.84157">
        <ele>167.7</ele>
        <time>2022-11-15T12:31:24.193Z</time>
      </trkpt>
      <trkpt lat="45.77425" lon="4.84203">
        <ele>167.5</ele>
        <time>2022-11-15T12:31:33.415Z</time>
      </trkpt>
      <trkpt lat="45.77488" lon="4.84244">
        <ele>167.7</ele>
        <time>2022-11-15T12:31:43.760Z</time>
      </trkpt>
      <trkpt lat="45.77551" lon="4.84286">
        <ele>167.5</ele>
        <time>2022-11-15T12:31:53.446Z</time>
      </trkpt>
      <trkpt lat="45.77613" lon="4.84327">
        <ele>167.9</ele>
        <time>2022-11-15T12:32:03.949Z</time>
      </trkpt>
      <trkpt lat="45.77676" lon="4.84369">
        <ele>167.3</ele>
        <time>2022-11-15T12:32:12.954Z</time>
      </trkpt>
      <trkpt lat="45.7766" lon="4.84412">
        <ele>170</ele>
        <time>2022-11-15T12:32:23.673Z</time>
      </trkpt>
      <trkpt lat="45.777" lon="4.84453">
        <ele>169.8</ele>
        <time>2022-11-15T12:32:30.410Z</time>
      </trkpt>
      <trkpt lat="45.77709" lon="4.84481">
        <ele>169.4</ele>
        <time>2022-11-15T12:32:32.866Z</time>
      </trkpt>
      <trkpt lat="45.77715" lon="4.84478">
        <ele>169.6</ele>
        <time>2022-11-15T12:32:34.166Z</time>
      </trkpt>
      <trkpt lat="45.77721" lon="4.84479">
        <ele>169.7</ele>
        <time>2022-11-15T12:32:35.202Z</time>
      </trkpt>
      <trkpt lat="45.77727" lon="4.84487">
        <ele>169.6</ele>
        <time>2022-11-15T12:32:36.215Z</time>
      </trkpt>
    </trkseg>
  </trk>
</gpx>